<?xml version="1.0" encoding="UTF-8" standalone="no" ?>
<gpx xmlns="http://www.topografix.com/GPX/1/1" xmlns:xsi="http://www.w3.org/2001/XMLSchema-instance" xsi:schemaLocation="http://www.topografix.com/GPX/1/1 http://www.topografix.com/GPX/1/1/gpx.xsd" version="1.1" creator="VisuGPX - https://www.visugpx.com">
  <metadata>
    <name>VTT : Tour du Lac du Salagou -</name>
    <desc><![CDATA[Le tour classique , paysages somptueux -]]></desc>
  </metadata>
  <trk>
    <name><![CDATA[VTT : Tour du Lac du Salagou -]]></name>
    <desc><![CDATA[Sous le cagnard  .....dur dur -]]></desc>
    <extensions>
      <line xmlns="http://www.topografix.com/GPX/gpx_style/0/2">
        <color>0000FF</color>
        <width>4</width>
      </line>
    </extensions>
    <trkseg>
      <trkpt lat="43.64574" lon="3.38749">
        <ele>146.19999694824</ele>
        <time>2021-07-19T12:39:38.000Z</time>
      </trkpt>
      <trkpt lat="43.64578" lon="3.38738">
        <ele>146.19999694824</ele>
        <time>2021-07-19T12:39:41.000Z</time>
      </trkpt>
      <trkpt lat="43.6458" lon="3.38735">
        <ele>145.60000610352</ele>
        <time>2021-07-19T12:39:42.000Z</time>
      </trkpt>
      <trkpt lat="43.64584" lon="3.38724">
        <ele>145.60000610352</ele>
        <time>2021-07-19T12:39:45.000Z</time>
      </trkpt>
      <trkpt lat="43.6459" lon="3.38713">
        <ele>145.60000610352</ele>
        <time>2021-07-19T12:39:50.000Z</time>
      </trkpt>
      <trkpt lat="43.64589" lon="3.38713">
        <ele>145.60000610352</ele>
        <time>2021-07-19T12:39:53.000Z</time>
      </trkpt>
      <trkpt lat="43.64589" lon="3.38713">
        <ele>145.60000610352</ele>
        <time>2021-07-19T12:39:57.000Z</time>
      </trkpt>
      <trkpt lat="43.64591" lon="3.38703">
        <ele>145.60000610352</ele>
        <time>2021-07-19T12:40:01.000Z</time>
      </trkpt>
      <trkpt lat="43.64592" lon="3.38699">
        <ele>145.60000610352</ele>
        <time>2021-07-19T12:40:03.000Z</time>
      </trkpt>
      <trkpt lat="43.64593" lon="3.38696">
        <ele>145.60000610352</ele>
        <time>2021-07-19T12:40:05.000Z</time>
      </trkpt>
      <trkpt lat="43.64594" lon="3.38694">
        <ele>145.60000610352</ele>
        <time>2021-07-19T12:40:07.000Z</time>
      </trkpt>
      <trkpt lat="43.64596" lon="3.38687">
        <ele>145.60000610352</ele>
        <time>2021-07-19T12:41:01.000Z</time>
      </trkpt>
      <trkpt lat="43.64601" lon="3.38684">
        <ele>145.60000610352</ele>
        <time>2021-07-19T12:41:03.000Z</time>
      </trkpt>
      <trkpt lat="43.6461" lon="3.3868">
        <ele>145.60000610352</ele>
        <time>2021-07-19T12:41:06.000Z</time>
      </trkpt>
      <trkpt lat="43.64609" lon="3.38676">
        <ele>145.60000610352</ele>
        <time>2021-07-19T12:41:07.000Z</time>
      </trkpt>
      <trkpt lat="43.64602" lon="3.38675">
        <ele>145.60000610352</ele>
        <time>2021-07-19T12:41:10.000Z</time>
      </trkpt>
      <trkpt lat="43.64586" lon="3.38685">
        <ele>145.60000610352</ele>
        <time>2021-07-19T12:41:15.000Z</time>
      </trkpt>
      <trkpt lat="43.64571" lon="3.38681">
        <ele>145.60000610352</ele>
        <time>2021-07-19T12:41:19.000Z</time>
      </trkpt>
      <trkpt lat="43.64568" lon="3.38678">
        <ele>145.60000610352</ele>
        <time>2021-07-19T12:41:20.000Z</time>
      </trkpt>
      <trkpt lat="43.64564" lon="3.38676">
        <ele>145.60000610352</ele>
        <time>2021-07-19T12:41:21.000Z</time>
      </trkpt>
      <trkpt lat="43.64556" lon="3.38673">
        <ele>145.60000610352</ele>
        <time>2021-07-19T12:41:23.000Z</time>
      </trkpt>
      <trkpt lat="43.64536" lon="3.38666">
        <ele>145.60000610352</ele>
        <time>2021-07-19T12:41:28.000Z</time>
      </trkpt>
      <trkpt lat="43.64526" lon="3.38664">
        <ele>145.19999694824</ele>
        <time>2021-07-19T12:41:30.000Z</time>
      </trkpt>
      <trkpt lat="43.64521" lon="3.38664">
        <ele>144.80000305176</ele>
        <time>2021-07-19T12:41:31.000Z</time>
      </trkpt>
      <trkpt lat="43.64516" lon="3.38665">
        <ele>144.39999389648</ele>
        <time>2021-07-19T12:41:32.000Z</time>
      </trkpt>
      <trkpt lat="43.64512" lon="3.38666">
        <ele>144</ele>
        <time>2021-07-19T12:41:33.000Z</time>
      </trkpt>
      <trkpt lat="43.64508" lon="3.38667">
        <ele>143.60000610352</ele>
        <time>2021-07-19T12:41:34.000Z</time>
      </trkpt>
      <trkpt lat="43.64501" lon="3.38667">
        <ele>143.60000610352</ele>
        <time>2021-07-19T12:41:36.000Z</time>
      </trkpt>
      <trkpt lat="43.64494" lon="3.38657">
        <ele>143.60000610352</ele>
        <time>2021-07-19T12:41:39.000Z</time>
      </trkpt>
      <trkpt lat="43.64492" lon="3.38653">
        <ele>143.60000610352</ele>
        <time>2021-07-19T12:41:40.000Z</time>
      </trkpt>
      <trkpt lat="43.64488" lon="3.38643">
        <ele>143.60000610352</ele>
        <time>2021-07-19T12:41:44.000Z</time>
      </trkpt>
      <trkpt lat="43.64488" lon="3.38635">
        <ele>143.60000610352</ele>
        <time>2021-07-19T12:41:46.000Z</time>
      </trkpt>
      <trkpt lat="43.64484" lon="3.3863">
        <ele>143.60000610352</ele>
        <time>2021-07-19T12:41:48.000Z</time>
      </trkpt>
      <trkpt lat="43.64467" lon="3.38617">
        <ele>143.60000610352</ele>
        <time>2021-07-19T12:41:54.000Z</time>
      </trkpt>
      <trkpt lat="43.64464" lon="3.38614">
        <ele>143.60000610352</ele>
        <time>2021-07-19T12:41:56.000Z</time>
      </trkpt>
      <trkpt lat="43.64466" lon="3.3861">
        <ele>143.60000610352</ele>
        <time>2021-07-19T12:41:58.000Z</time>
      </trkpt>
      <trkpt lat="43.64471" lon="3.386">
        <ele>143.60000610352</ele>
        <time>2021-07-19T12:42:03.000Z</time>
      </trkpt>
      <trkpt lat="43.64469" lon="3.38591">
        <ele>143.19999694824</ele>
        <time>2021-07-19T12:42:06.000Z</time>
      </trkpt>
      <trkpt lat="43.64468" lon="3.38587">
        <ele>142.80000305176</ele>
        <time>2021-07-19T12:42:07.000Z</time>
      </trkpt>
      <trkpt lat="43.64466" lon="3.38583">
        <ele>142.39999389648</ele>
        <time>2021-07-19T12:42:08.000Z</time>
      </trkpt>
      <trkpt lat="43.64464" lon="3.38579">
        <ele>142</ele>
        <time>2021-07-19T12:42:09.000Z</time>
      </trkpt>
      <trkpt lat="43.64463" lon="3.38575">
        <ele>141.60000610352</ele>
        <time>2021-07-19T12:42:10.000Z</time>
      </trkpt>
      <trkpt lat="43.64461" lon="3.38568">
        <ele>141.60000610352</ele>
        <time>2021-07-19T12:42:12.000Z</time>
      </trkpt>
      <trkpt lat="43.6446" lon="3.38567">
        <ele>141.60000610352</ele>
        <time>2021-07-19T12:42:13.000Z</time>
      </trkpt>
      <trkpt lat="43.6446" lon="3.38565">
        <ele>141.60000610352</ele>
        <time>2021-07-19T12:42:15.000Z</time>
      </trkpt>
      <trkpt lat="43.64459" lon="3.38563">
        <ele>141.60000610352</ele>
        <time>2021-07-19T12:42:16.000Z</time>
      </trkpt>
      <trkpt lat="43.64451" lon="3.38545">
        <ele>141.60000610352</ele>
        <time>2021-07-19T12:42:21.000Z</time>
      </trkpt>
      <trkpt lat="43.64443" lon="3.38523">
        <ele>141.60000610352</ele>
        <time>2021-07-19T12:42:27.000Z</time>
      </trkpt>
      <trkpt lat="43.64437" lon="3.38506">
        <ele>141.60000610352</ele>
        <time>2021-07-19T12:42:32.000Z</time>
      </trkpt>
      <trkpt lat="43.64423" lon="3.38496">
        <ele>141.60000610352</ele>
        <time>2021-07-19T12:42:36.000Z</time>
      </trkpt>
      <trkpt lat="43.64409" lon="3.38494">
        <ele>141.60000610352</ele>
        <time>2021-07-19T12:42:40.000Z</time>
      </trkpt>
      <trkpt lat="43.64396" lon="3.38476">
        <ele>141.60000610352</ele>
        <time>2021-07-19T12:42:45.000Z</time>
      </trkpt>
      <trkpt lat="43.64391" lon="3.38462">
        <ele>141.60000610352</ele>
        <time>2021-07-19T12:42:48.000Z</time>
      </trkpt>
      <trkpt lat="43.64387" lon="3.38445">
        <ele>141.60000610352</ele>
        <time>2021-07-19T12:42:51.000Z</time>
      </trkpt>
      <trkpt lat="43.64386" lon="3.38439">
        <ele>141.60000610352</ele>
        <time>2021-07-19T12:42:52.000Z</time>
      </trkpt>
      <trkpt lat="43.64386" lon="3.38422">
        <ele>141.60000610352</ele>
        <time>2021-07-19T12:42:55.000Z</time>
      </trkpt>
      <trkpt lat="43.6439" lon="3.38387">
        <ele>141.60000610352</ele>
        <time>2021-07-19T12:43:01.000Z</time>
      </trkpt>
      <trkpt lat="43.6439" lon="3.38382">
        <ele>141.60000610352</ele>
        <time>2021-07-19T12:43:02.000Z</time>
      </trkpt>
      <trkpt lat="43.64398" lon="3.38362">
        <ele>141.60000610352</ele>
        <time>2021-07-19T12:43:06.000Z</time>
      </trkpt>
      <trkpt lat="43.64402" lon="3.38353">
        <ele>141.60000610352</ele>
        <time>2021-07-19T12:43:08.000Z</time>
      </trkpt>
      <trkpt lat="43.64405" lon="3.38343">
        <ele>141.60000610352</ele>
        <time>2021-07-19T12:43:10.000Z</time>
      </trkpt>
      <trkpt lat="43.64409" lon="3.38332">
        <ele>141.60000610352</ele>
        <time>2021-07-19T12:43:12.000Z</time>
      </trkpt>
      <trkpt lat="43.64418" lon="3.38294">
        <ele>141.60000610352</ele>
        <time>2021-07-19T12:43:19.000Z</time>
      </trkpt>
      <trkpt lat="43.64424" lon="3.38258">
        <ele>141.60000610352</ele>
        <time>2021-07-19T12:43:26.000Z</time>
      </trkpt>
      <trkpt lat="43.64421" lon="3.38224">
        <ele>141.60000610352</ele>
        <time>2021-07-19T12:43:32.000Z</time>
      </trkpt>
      <trkpt lat="43.6442" lon="3.38219">
        <ele>141.60000610352</ele>
        <time>2021-07-19T12:43:33.000Z</time>
      </trkpt>
      <trkpt lat="43.64419" lon="3.38208">
        <ele>141.60000610352</ele>
        <time>2021-07-19T12:43:35.000Z</time>
      </trkpt>
      <trkpt lat="43.6442" lon="3.38197">
        <ele>141.60000610352</ele>
        <time>2021-07-19T12:43:37.000Z</time>
      </trkpt>
      <trkpt lat="43.64424" lon="3.38163">
        <ele>141.60000610352</ele>
        <time>2021-07-19T12:43:43.000Z</time>
      </trkpt>
      <trkpt lat="43.64425" lon="3.38136">
        <ele>141.60000610352</ele>
        <time>2021-07-19T12:43:48.000Z</time>
      </trkpt>
      <trkpt lat="43.64429" lon="3.3811">
        <ele>141.60000610352</ele>
        <time>2021-07-19T12:43:53.000Z</time>
      </trkpt>
      <trkpt lat="43.64436" lon="3.3808">
        <ele>141.60000610352</ele>
        <time>2021-07-19T12:43:59.000Z</time>
      </trkpt>
      <trkpt lat="43.64441" lon="3.3806">
        <ele>141.60000610352</ele>
        <time>2021-07-19T12:44:03.000Z</time>
      </trkpt>
      <trkpt lat="43.64443" lon="3.38035">
        <ele>141.60000610352</ele>
        <time>2021-07-19T12:44:07.000Z</time>
      </trkpt>
      <trkpt lat="43.64447" lon="3.38025">
        <ele>141.60000610352</ele>
        <time>2021-07-19T12:44:09.000Z</time>
      </trkpt>
      <trkpt lat="43.64452" lon="3.3801">
        <ele>141.60000610352</ele>
        <time>2021-07-19T12:44:12.000Z</time>
      </trkpt>
      <trkpt lat="43.64455" lon="3.37983">
        <ele>141.60000610352</ele>
        <time>2021-07-19T12:44:17.000Z</time>
      </trkpt>
      <trkpt lat="43.64454" lon="3.3798">
        <ele>141.60000610352</ele>
        <time>2021-07-19T12:44:18.000Z</time>
      </trkpt>
      <trkpt lat="43.64448" lon="3.37975">
        <ele>141.60000610352</ele>
        <time>2021-07-19T12:44:20.000Z</time>
      </trkpt>
      <trkpt lat="43.64432" lon="3.37973">
        <ele>141.60000610352</ele>
        <time>2021-07-19T12:44:25.000Z</time>
      </trkpt>
      <trkpt lat="43.6443" lon="3.37974">
        <ele>141.60000610352</ele>
        <time>2021-07-19T12:44:27.000Z</time>
      </trkpt>
      <trkpt lat="43.64428" lon="3.37974">
        <ele>141.60000610352</ele>
        <time>2021-07-19T12:48:06.000Z</time>
      </trkpt>
      <trkpt lat="43.6442" lon="3.3798">
        <ele>141.60000610352</ele>
        <time>2021-07-19T12:48:10.000Z</time>
      </trkpt>
      <trkpt lat="43.64419" lon="3.37982">
        <ele>141.60000610352</ele>
        <time>2021-07-19T12:48:11.000Z</time>
      </trkpt>
      <trkpt lat="43.64417" lon="3.37989">
        <ele>142</ele>
        <time>2021-07-19T12:48:13.000Z</time>
      </trkpt>
      <trkpt lat="43.64416" lon="3.37992">
        <ele>142.39999389648</ele>
        <time>2021-07-19T12:48:14.000Z</time>
      </trkpt>
      <trkpt lat="43.64414" lon="3.37992">
        <ele>142.80000305176</ele>
        <time>2021-07-19T12:48:15.000Z</time>
      </trkpt>
      <trkpt lat="43.64412" lon="3.37992">
        <ele>143.19999694824</ele>
        <time>2021-07-19T12:48:16.000Z</time>
      </trkpt>
      <trkpt lat="43.6441" lon="3.37991">
        <ele>143.60000610352</ele>
        <time>2021-07-19T12:48:17.000Z</time>
      </trkpt>
      <trkpt lat="43.64396" lon="3.37988">
        <ele>143.60000610352</ele>
        <time>2021-07-19T12:48:23.000Z</time>
      </trkpt>
      <trkpt lat="43.64384" lon="3.37985">
        <ele>143.19999694824</ele>
        <time>2021-07-19T12:48:27.000Z</time>
      </trkpt>
      <trkpt lat="43.64382" lon="3.37983">
        <ele>142.80000305176</ele>
        <time>2021-07-19T12:48:28.000Z</time>
      </trkpt>
      <trkpt lat="43.64381" lon="3.3798">
        <ele>142.19999694824</ele>
        <time>2021-07-19T12:48:29.000Z</time>
      </trkpt>
      <trkpt lat="43.64379" lon="3.37977">
        <ele>141.80000305176</ele>
        <time>2021-07-19T12:48:30.000Z</time>
      </trkpt>
      <trkpt lat="43.64376" lon="3.37974">
        <ele>141.39999389648</ele>
        <time>2021-07-19T12:48:31.000Z</time>
      </trkpt>
      <trkpt lat="43.64374" lon="3.37973">
        <ele>141.39999389648</ele>
        <time>2021-07-19T12:48:32.000Z</time>
      </trkpt>
      <trkpt lat="43.64371" lon="3.37971">
        <ele>141.39999389648</ele>
        <time>2021-07-19T12:48:34.000Z</time>
      </trkpt>
      <trkpt lat="43.64365" lon="3.37964">
        <ele>141.39999389648</ele>
        <time>2021-07-19T12:48:38.000Z</time>
      </trkpt>
      <trkpt lat="43.64365" lon="3.37962">
        <ele>141.39999389648</ele>
        <time>2021-07-19T12:48:39.000Z</time>
      </trkpt>
      <trkpt lat="43.64365" lon="3.3796">
        <ele>141.39999389648</ele>
        <time>2021-07-19T12:48:40.000Z</time>
      </trkpt>
      <trkpt lat="43.64369" lon="3.37956">
        <ele>141.39999389648</ele>
        <time>2021-07-19T12:48:42.000Z</time>
      </trkpt>
      <trkpt lat="43.64378" lon="3.37945">
        <ele>141.39999389648</ele>
        <time>2021-07-19T12:48:46.000Z</time>
      </trkpt>
      <trkpt lat="43.6438" lon="3.37941">
        <ele>141.39999389648</ele>
        <time>2021-07-19T12:48:47.000Z</time>
      </trkpt>
      <trkpt lat="43.64383" lon="3.3792">
        <ele>141.39999389648</ele>
        <time>2021-07-19T12:48:52.000Z</time>
      </trkpt>
      <trkpt lat="43.64384" lon="3.37907">
        <ele>141.39999389648</ele>
        <time>2021-07-19T12:48:54.000Z</time>
      </trkpt>
      <trkpt lat="43.64384" lon="3.37894">
        <ele>141.39999389648</ele>
        <time>2021-07-19T12:48:56.000Z</time>
      </trkpt>
      <trkpt lat="43.64385" lon="3.37883">
        <ele>141.39999389648</ele>
        <time>2021-07-19T12:48:59.000Z</time>
      </trkpt>
      <trkpt lat="43.64392" lon="3.37871">
        <ele>141.39999389648</ele>
        <time>2021-07-19T12:49:03.000Z</time>
      </trkpt>
      <trkpt lat="43.64397" lon="3.37863">
        <ele>141.39999389648</ele>
        <time>2021-07-19T12:49:05.000Z</time>
      </trkpt>
      <trkpt lat="43.64404" lon="3.37857">
        <ele>141.39999389648</ele>
        <time>2021-07-19T12:49:08.000Z</time>
      </trkpt>
      <trkpt lat="43.64405" lon="3.37856">
        <ele>141.39999389648</ele>
        <time>2021-07-19T12:49:10.000Z</time>
      </trkpt>
      <trkpt lat="43.64404" lon="3.37854">
        <ele>141.39999389648</ele>
        <time>2021-07-19T12:49:49.000Z</time>
      </trkpt>
      <trkpt lat="43.64403" lon="3.37853">
        <ele>141.39999389648</ele>
        <time>2021-07-19T12:49:50.000Z</time>
      </trkpt>
      <trkpt lat="43.64397" lon="3.37852">
        <ele>141.39999389648</ele>
        <time>2021-07-19T12:49:55.000Z</time>
      </trkpt>
      <trkpt lat="43.64393" lon="3.37862">
        <ele>141.39999389648</ele>
        <time>2021-07-19T12:49:59.000Z</time>
      </trkpt>
      <trkpt lat="43.64392" lon="3.37866">
        <ele>141.39999389648</ele>
        <time>2021-07-19T12:50:00.000Z</time>
      </trkpt>
      <trkpt lat="43.64386" lon="3.37878">
        <ele>141.39999389648</ele>
        <time>2021-07-19T12:50:03.000Z</time>
      </trkpt>
      <trkpt lat="43.64383" lon="3.37887">
        <ele>141.39999389648</ele>
        <time>2021-07-19T12:50:06.000Z</time>
      </trkpt>
      <trkpt lat="43.64382" lon="3.37893">
        <ele>141.39999389648</ele>
        <time>2021-07-19T12:50:08.000Z</time>
      </trkpt>
      <trkpt lat="43.6438" lon="3.37913">
        <ele>141.39999389648</ele>
        <time>2021-07-19T12:50:12.000Z</time>
      </trkpt>
      <trkpt lat="43.6438" lon="3.37924">
        <ele>141.39999389648</ele>
        <time>2021-07-19T12:50:16.000Z</time>
      </trkpt>
      <trkpt lat="43.64381" lon="3.37924">
        <ele>141.39999389648</ele>
        <time>2021-07-19T12:50:17.000Z</time>
      </trkpt>
      <trkpt lat="43.64383" lon="3.37922">
        <ele>141.39999389648</ele>
        <time>2021-07-19T12:50:39.000Z</time>
      </trkpt>
      <trkpt lat="43.64383" lon="3.37921">
        <ele>141.39999389648</ele>
        <time>2021-07-19T12:50:40.000Z</time>
      </trkpt>
      <trkpt lat="43.64383" lon="3.37921">
        <ele>141.39999389648</ele>
        <time>2021-07-19T12:50:41.000Z</time>
      </trkpt>
      <trkpt lat="43.64383" lon="3.37919">
        <ele>141.39999389648</ele>
        <time>2021-07-19T12:50:58.000Z</time>
      </trkpt>
      <trkpt lat="43.64383" lon="3.37915">
        <ele>141.39999389648</ele>
        <time>2021-07-19T12:50:59.000Z</time>
      </trkpt>
      <trkpt lat="43.64383" lon="3.37905">
        <ele>141.39999389648</ele>
        <time>2021-07-19T12:51:01.000Z</time>
      </trkpt>
      <trkpt lat="43.64383" lon="3.37893">
        <ele>141.39999389648</ele>
        <time>2021-07-19T12:51:03.000Z</time>
      </trkpt>
      <trkpt lat="43.64385" lon="3.37883">
        <ele>141.39999389648</ele>
        <time>2021-07-19T12:51:06.000Z</time>
      </trkpt>
      <trkpt lat="43.64387" lon="3.3788">
        <ele>141.39999389648</ele>
        <time>2021-07-19T12:51:07.000Z</time>
      </trkpt>
      <trkpt lat="43.64397" lon="3.37861">
        <ele>141.39999389648</ele>
        <time>2021-07-19T12:51:11.000Z</time>
      </trkpt>
      <trkpt lat="43.64399" lon="3.37851">
        <ele>141.39999389648</ele>
        <time>2021-07-19T12:51:13.000Z</time>
      </trkpt>
      <trkpt lat="43.64398" lon="3.37847">
        <ele>141.39999389648</ele>
        <time>2021-07-19T12:51:14.000Z</time>
      </trkpt>
      <trkpt lat="43.64401" lon="3.37824">
        <ele>141.39999389648</ele>
        <time>2021-07-19T12:51:18.000Z</time>
      </trkpt>
      <trkpt lat="43.64406" lon="3.37814">
        <ele>141.39999389648</ele>
        <time>2021-07-19T12:51:20.000Z</time>
      </trkpt>
      <trkpt lat="43.64412" lon="3.37797">
        <ele>141.39999389648</ele>
        <time>2021-07-19T12:51:23.000Z</time>
      </trkpt>
      <trkpt lat="43.64416" lon="3.37778">
        <ele>141.39999389648</ele>
        <time>2021-07-19T12:51:27.000Z</time>
      </trkpt>
      <trkpt lat="43.64419" lon="3.37745">
        <ele>141.39999389648</ele>
        <time>2021-07-19T12:51:33.000Z</time>
      </trkpt>
      <trkpt lat="43.64418" lon="3.37727">
        <ele>141.39999389648</ele>
        <time>2021-07-19T12:51:36.000Z</time>
      </trkpt>
      <trkpt lat="43.64419" lon="3.37717">
        <ele>141.39999389648</ele>
        <time>2021-07-19T12:51:38.000Z</time>
      </trkpt>
      <trkpt lat="43.64419" lon="3.37711">
        <ele>141.39999389648</ele>
        <time>2021-07-19T12:51:39.000Z</time>
      </trkpt>
      <trkpt lat="43.6442" lon="3.37694">
        <ele>141.39999389648</ele>
        <time>2021-07-19T12:51:42.000Z</time>
      </trkpt>
      <trkpt lat="43.64421" lon="3.37689">
        <ele>141.39999389648</ele>
        <time>2021-07-19T12:51:43.000Z</time>
      </trkpt>
      <trkpt lat="43.64431" lon="3.37658">
        <ele>141.39999389648</ele>
        <time>2021-07-19T12:51:49.000Z</time>
      </trkpt>
      <trkpt lat="43.6443" lon="3.37642">
        <ele>141.39999389648</ele>
        <time>2021-07-19T12:51:52.000Z</time>
      </trkpt>
      <trkpt lat="43.64426" lon="3.37615">
        <ele>141.39999389648</ele>
        <time>2021-07-19T12:51:57.000Z</time>
      </trkpt>
      <trkpt lat="43.64426" lon="3.37605">
        <ele>141.39999389648</ele>
        <time>2021-07-19T12:51:59.000Z</time>
      </trkpt>
      <trkpt lat="43.64428" lon="3.37602">
        <ele>141.39999389648</ele>
        <time>2021-07-19T12:52:00.000Z</time>
      </trkpt>
      <trkpt lat="43.64438" lon="3.37585">
        <ele>141.39999389648</ele>
        <time>2021-07-19T12:52:04.000Z</time>
      </trkpt>
      <trkpt lat="43.64445" lon="3.37567">
        <ele>141.39999389648</ele>
        <time>2021-07-19T12:52:08.000Z</time>
      </trkpt>
      <trkpt lat="43.64448" lon="3.37558">
        <ele>141.39999389648</ele>
        <time>2021-07-19T12:52:10.000Z</time>
      </trkpt>
      <trkpt lat="43.64452" lon="3.37538">
        <ele>141.39999389648</ele>
        <time>2021-07-19T12:52:14.000Z</time>
      </trkpt>
      <trkpt lat="43.64458" lon="3.37515">
        <ele>141.39999389648</ele>
        <time>2021-07-19T12:52:19.000Z</time>
      </trkpt>
      <trkpt lat="43.64467" lon="3.37477">
        <ele>141.39999389648</ele>
        <time>2021-07-19T12:52:26.000Z</time>
      </trkpt>
      <trkpt lat="43.64474" lon="3.37446">
        <ele>141.39999389648</ele>
        <time>2021-07-19T12:52:32.000Z</time>
      </trkpt>
      <trkpt lat="43.64476" lon="3.37429">
        <ele>141.39999389648</ele>
        <time>2021-07-19T12:52:35.000Z</time>
      </trkpt>
      <trkpt lat="43.64475" lon="3.37417">
        <ele>141.39999389648</ele>
        <time>2021-07-19T12:52:37.000Z</time>
      </trkpt>
      <trkpt lat="43.64474" lon="3.374">
        <ele>141.39999389648</ele>
        <time>2021-07-19T12:52:40.000Z</time>
      </trkpt>
      <trkpt lat="43.64476" lon="3.37389">
        <ele>141.39999389648</ele>
        <time>2021-07-19T12:52:42.000Z</time>
      </trkpt>
      <trkpt lat="43.64474" lon="3.37365">
        <ele>141.39999389648</ele>
        <time>2021-07-19T12:52:47.000Z</time>
      </trkpt>
      <trkpt lat="43.64468" lon="3.37354">
        <ele>141.39999389648</ele>
        <time>2021-07-19T12:52:50.000Z</time>
      </trkpt>
      <trkpt lat="43.64463" lon="3.37347">
        <ele>141.39999389648</ele>
        <time>2021-07-19T12:52:52.000Z</time>
      </trkpt>
      <trkpt lat="43.64454" lon="3.37328">
        <ele>141.39999389648</ele>
        <time>2021-07-19T12:52:57.000Z</time>
      </trkpt>
      <trkpt lat="43.64442" lon="3.37314">
        <ele>141.39999389648</ele>
        <time>2021-07-19T12:53:01.000Z</time>
      </trkpt>
      <trkpt lat="43.64437" lon="3.37306">
        <ele>141.39999389648</ele>
        <time>2021-07-19T12:53:03.000Z</time>
      </trkpt>
      <trkpt lat="43.64432" lon="3.37291">
        <ele>141.39999389648</ele>
        <time>2021-07-19T12:53:06.000Z</time>
      </trkpt>
      <trkpt lat="43.64427" lon="3.37267">
        <ele>141.39999389648</ele>
        <time>2021-07-19T12:53:11.000Z</time>
      </trkpt>
      <trkpt lat="43.64422" lon="3.37246">
        <ele>141.39999389648</ele>
        <time>2021-07-19T12:53:16.000Z</time>
      </trkpt>
      <trkpt lat="43.64413" lon="3.37222">
        <ele>141.39999389648</ele>
        <time>2021-07-19T12:53:21.000Z</time>
      </trkpt>
      <trkpt lat="43.64399" lon="3.37207">
        <ele>141.39999389648</ele>
        <time>2021-07-19T12:53:26.000Z</time>
      </trkpt>
      <trkpt lat="43.64379" lon="3.37193">
        <ele>141.39999389648</ele>
        <time>2021-07-19T12:53:32.000Z</time>
      </trkpt>
      <trkpt lat="43.64376" lon="3.3719">
        <ele>141.39999389648</ele>
        <time>2021-07-19T12:53:33.000Z</time>
      </trkpt>
      <trkpt lat="43.64369" lon="3.37178">
        <ele>141.39999389648</ele>
        <time>2021-07-19T12:53:36.000Z</time>
      </trkpt>
      <trkpt lat="43.64359" lon="3.37161">
        <ele>141.39999389648</ele>
        <time>2021-07-19T12:53:41.000Z</time>
      </trkpt>
      <trkpt lat="43.64357" lon="3.37158">
        <ele>141.39999389648</ele>
        <time>2021-07-19T12:53:42.000Z</time>
      </trkpt>
      <trkpt lat="43.64348" lon="3.37144">
        <ele>141.39999389648</ele>
        <time>2021-07-19T12:53:46.000Z</time>
      </trkpt>
      <trkpt lat="43.64333" lon="3.37134">
        <ele>141.39999389648</ele>
        <time>2021-07-19T12:53:51.000Z</time>
      </trkpt>
      <trkpt lat="43.64319" lon="3.37125">
        <ele>141.39999389648</ele>
        <time>2021-07-19T12:53:56.000Z</time>
      </trkpt>
      <trkpt lat="43.64311" lon="3.37112">
        <ele>141.39999389648</ele>
        <time>2021-07-19T12:54:01.000Z</time>
      </trkpt>
      <trkpt lat="43.6431" lon="3.37108">
        <ele>141.80000305176</ele>
        <time>2021-07-19T12:54:02.000Z</time>
      </trkpt>
      <trkpt lat="43.64308" lon="3.37105">
        <ele>142.19999694824</ele>
        <time>2021-07-19T12:54:03.000Z</time>
      </trkpt>
      <trkpt lat="43.64307" lon="3.37101">
        <ele>142.60000610352</ele>
        <time>2021-07-19T12:54:04.000Z</time>
      </trkpt>
      <trkpt lat="43.64306" lon="3.37097">
        <ele>143.19999694824</ele>
        <time>2021-07-19T12:54:05.000Z</time>
      </trkpt>
      <trkpt lat="43.64305" lon="3.37093">
        <ele>143.60000610352</ele>
        <time>2021-07-19T12:54:06.000Z</time>
      </trkpt>
      <trkpt lat="43.64305" lon="3.3709">
        <ele>143.60000610352</ele>
        <time>2021-07-19T12:54:07.000Z</time>
      </trkpt>
      <trkpt lat="43.64304" lon="3.37088">
        <ele>143.60000610352</ele>
        <time>2021-07-19T12:54:09.000Z</time>
      </trkpt>
      <trkpt lat="43.64303" lon="3.37085">
        <ele>143.60000610352</ele>
        <time>2021-07-19T12:55:07.000Z</time>
      </trkpt>
      <trkpt lat="43.64301" lon="3.37069">
        <ele>143.60000610352</ele>
        <time>2021-07-19T12:55:11.000Z</time>
      </trkpt>
      <trkpt lat="43.643" lon="3.37047">
        <ele>143.60000610352</ele>
        <time>2021-07-19T12:55:15.000Z</time>
      </trkpt>
      <trkpt lat="43.64299" lon="3.37042">
        <ele>143.60000610352</ele>
        <time>2021-07-19T12:55:16.000Z</time>
      </trkpt>
      <trkpt lat="43.64297" lon="3.37021">
        <ele>143.60000610352</ele>
        <time>2021-07-19T12:55:19.000Z</time>
      </trkpt>
      <trkpt lat="43.64297" lon="3.37015">
        <ele>143.60000610352</ele>
        <time>2021-07-19T12:55:20.000Z</time>
      </trkpt>
      <trkpt lat="43.64301" lon="3.36994">
        <ele>143.60000610352</ele>
        <time>2021-07-19T12:55:24.000Z</time>
      </trkpt>
      <trkpt lat="43.64301" lon="3.36988">
        <ele>143.60000610352</ele>
        <time>2021-07-19T12:55:25.000Z</time>
      </trkpt>
      <trkpt lat="43.64304" lon="3.36961">
        <ele>143.60000610352</ele>
        <time>2021-07-19T12:55:30.000Z</time>
      </trkpt>
      <trkpt lat="43.64305" lon="3.36943">
        <ele>143.60000610352</ele>
        <time>2021-07-19T12:55:33.000Z</time>
      </trkpt>
      <trkpt lat="43.64306" lon="3.36923">
        <ele>143.60000610352</ele>
        <time>2021-07-19T12:55:36.000Z</time>
      </trkpt>
      <trkpt lat="43.64305" lon="3.36892">
        <ele>143.60000610352</ele>
        <time>2021-07-19T12:55:41.000Z</time>
      </trkpt>
      <trkpt lat="43.64305" lon="3.36885">
        <ele>143.60000610352</ele>
        <time>2021-07-19T12:55:42.000Z</time>
      </trkpt>
      <trkpt lat="43.64305" lon="3.36867">
        <ele>143.60000610352</ele>
        <time>2021-07-19T12:55:45.000Z</time>
      </trkpt>
      <trkpt lat="43.64307" lon="3.36855">
        <ele>143.60000610352</ele>
        <time>2021-07-19T12:55:47.000Z</time>
      </trkpt>
      <trkpt lat="43.64309" lon="3.36844">
        <ele>143.60000610352</ele>
        <time>2021-07-19T12:55:49.000Z</time>
      </trkpt>
      <trkpt lat="43.64308" lon="3.36829">
        <ele>143.60000610352</ele>
        <time>2021-07-19T12:55:52.000Z</time>
      </trkpt>
      <trkpt lat="43.64305" lon="3.36809">
        <ele>143.60000610352</ele>
        <time>2021-07-19T12:55:55.000Z</time>
      </trkpt>
      <trkpt lat="43.64302" lon="3.36803">
        <ele>143.60000610352</ele>
        <time>2021-07-19T12:55:56.000Z</time>
      </trkpt>
      <trkpt lat="43.64288" lon="3.36769">
        <ele>143.60000610352</ele>
        <time>2021-07-19T12:56:01.000Z</time>
      </trkpt>
      <trkpt lat="43.64287" lon="3.36763">
        <ele>143.60000610352</ele>
        <time>2021-07-19T12:56:02.000Z</time>
      </trkpt>
      <trkpt lat="43.64289" lon="3.36754">
        <ele>143.60000610352</ele>
        <time>2021-07-19T12:56:04.000Z</time>
      </trkpt>
      <trkpt lat="43.64292" lon="3.36738">
        <ele>143.60000610352</ele>
        <time>2021-07-19T12:56:07.000Z</time>
      </trkpt>
      <trkpt lat="43.64295" lon="3.36728">
        <ele>143.60000610352</ele>
        <time>2021-07-19T12:56:09.000Z</time>
      </trkpt>
      <trkpt lat="43.64297" lon="3.36722">
        <ele>143.60000610352</ele>
        <time>2021-07-19T12:56:10.000Z</time>
      </trkpt>
      <trkpt lat="43.643" lon="3.36711">
        <ele>143.60000610352</ele>
        <time>2021-07-19T12:56:12.000Z</time>
      </trkpt>
      <trkpt lat="43.64305" lon="3.36697">
        <ele>143.19999694824</ele>
        <time>2021-07-19T12:56:15.000Z</time>
      </trkpt>
      <trkpt lat="43.64307" lon="3.36692">
        <ele>142.80000305176</ele>
        <time>2021-07-19T12:56:16.000Z</time>
      </trkpt>
      <trkpt lat="43.64309" lon="3.36687">
        <ele>142.39999389648</ele>
        <time>2021-07-19T12:56:17.000Z</time>
      </trkpt>
      <trkpt lat="43.6431" lon="3.3668">
        <ele>141.80000305176</ele>
        <time>2021-07-19T12:56:18.000Z</time>
      </trkpt>
      <trkpt lat="43.64309" lon="3.36675">
        <ele>141.39999389648</ele>
        <time>2021-07-19T12:56:19.000Z</time>
      </trkpt>
      <trkpt lat="43.64308" lon="3.3667">
        <ele>141.39999389648</ele>
        <time>2021-07-19T12:56:20.000Z</time>
      </trkpt>
      <trkpt lat="43.64295" lon="3.36657">
        <ele>141.39999389648</ele>
        <time>2021-07-19T12:56:24.000Z</time>
      </trkpt>
      <trkpt lat="43.64288" lon="3.3665">
        <ele>141.39999389648</ele>
        <time>2021-07-19T12:56:26.000Z</time>
      </trkpt>
      <trkpt lat="43.64285" lon="3.36638">
        <ele>141.39999389648</ele>
        <time>2021-07-19T12:56:28.000Z</time>
      </trkpt>
      <trkpt lat="43.64285" lon="3.36613">
        <ele>141.39999389648</ele>
        <time>2021-07-19T12:56:32.000Z</time>
      </trkpt>
      <trkpt lat="43.64284" lon="3.36607">
        <ele>141.39999389648</ele>
        <time>2021-07-19T12:56:33.000Z</time>
      </trkpt>
      <trkpt lat="43.64281" lon="3.3658">
        <ele>141.39999389648</ele>
        <time>2021-07-19T12:56:38.000Z</time>
      </trkpt>
      <trkpt lat="43.64281" lon="3.36547">
        <ele>141.39999389648</ele>
        <time>2021-07-19T12:56:44.000Z</time>
      </trkpt>
      <trkpt lat="43.6428" lon="3.36523">
        <ele>141.39999389648</ele>
        <time>2021-07-19T12:56:49.000Z</time>
      </trkpt>
      <trkpt lat="43.64281" lon="3.36513">
        <ele>141.39999389648</ele>
        <time>2021-07-19T12:56:51.000Z</time>
      </trkpt>
      <trkpt lat="43.64282" lon="3.36496">
        <ele>141.39999389648</ele>
        <time>2021-07-19T12:56:54.000Z</time>
      </trkpt>
      <trkpt lat="43.64283" lon="3.36491">
        <ele>141.39999389648</ele>
        <time>2021-07-19T12:56:55.000Z</time>
      </trkpt>
      <trkpt lat="43.64288" lon="3.36457">
        <ele>141.39999389648</ele>
        <time>2021-07-19T12:57:01.000Z</time>
      </trkpt>
      <trkpt lat="43.64296" lon="3.36417">
        <ele>141.39999389648</ele>
        <time>2021-07-19T12:57:09.000Z</time>
      </trkpt>
      <trkpt lat="43.643" lon="3.36401">
        <ele>141.39999389648</ele>
        <time>2021-07-19T12:57:14.000Z</time>
      </trkpt>
      <trkpt lat="43.64306" lon="3.36386">
        <ele>141.39999389648</ele>
        <time>2021-07-19T12:57:20.000Z</time>
      </trkpt>
      <trkpt lat="43.64307" lon="3.36384">
        <ele>141.39999389648</ele>
        <time>2021-07-19T12:57:21.000Z</time>
      </trkpt>
      <trkpt lat="43.64307" lon="3.36381">
        <ele>141.39999389648</ele>
        <time>2021-07-19T12:57:22.000Z</time>
      </trkpt>
      <trkpt lat="43.64307" lon="3.36369">
        <ele>142</ele>
        <time>2021-07-19T12:57:25.000Z</time>
      </trkpt>
      <trkpt lat="43.64307" lon="3.36366">
        <ele>142.39999389648</ele>
        <time>2021-07-19T12:57:26.000Z</time>
      </trkpt>
      <trkpt lat="43.64305" lon="3.36362">
        <ele>142.80000305176</ele>
        <time>2021-07-19T12:57:27.000Z</time>
      </trkpt>
      <trkpt lat="43.64304" lon="3.36358">
        <ele>143.19999694824</ele>
        <time>2021-07-19T12:57:28.000Z</time>
      </trkpt>
      <trkpt lat="43.64303" lon="3.36354">
        <ele>143.60000610352</ele>
        <time>2021-07-19T12:57:29.000Z</time>
      </trkpt>
      <trkpt lat="43.64302" lon="3.36345">
        <ele>143.60000610352</ele>
        <time>2021-07-19T12:57:31.000Z</time>
      </trkpt>
      <trkpt lat="43.64302" lon="3.36342">
        <ele>144.19999694824</ele>
        <time>2021-07-19T12:57:32.000Z</time>
      </trkpt>
      <trkpt lat="43.64301" lon="3.36338">
        <ele>144.60000610352</ele>
        <time>2021-07-19T12:57:33.000Z</time>
      </trkpt>
      <trkpt lat="43.643" lon="3.36334">
        <ele>145</ele>
        <time>2021-07-19T12:57:34.000Z</time>
      </trkpt>
      <trkpt lat="43.64299" lon="3.36331">
        <ele>145.39999389648</ele>
        <time>2021-07-19T12:57:35.000Z</time>
      </trkpt>
      <trkpt lat="43.64297" lon="3.3633">
        <ele>145.80000305176</ele>
        <time>2021-07-19T12:57:36.000Z</time>
      </trkpt>
      <trkpt lat="43.64296" lon="3.36328">
        <ele>146.39999389648</ele>
        <time>2021-07-19T12:57:37.000Z</time>
      </trkpt>
      <trkpt lat="43.64295" lon="3.36326">
        <ele>146.80000305176</ele>
        <time>2021-07-19T12:57:38.000Z</time>
      </trkpt>
      <trkpt lat="43.64293" lon="3.36324">
        <ele>147.39999389648</ele>
        <time>2021-07-19T12:57:39.000Z</time>
      </trkpt>
      <trkpt lat="43.64292" lon="3.36323">
        <ele>147.80000305176</ele>
        <time>2021-07-19T12:57:40.000Z</time>
      </trkpt>
      <trkpt lat="43.64291" lon="3.36321">
        <ele>147.80000305176</ele>
        <time>2021-07-19T12:57:42.000Z</time>
      </trkpt>
      <trkpt lat="43.64292" lon="3.36318">
        <ele>148.19999694824</ele>
        <time>2021-07-19T12:57:43.000Z</time>
      </trkpt>
      <trkpt lat="43.64292" lon="3.36315">
        <ele>148.60000610352</ele>
        <time>2021-07-19T12:57:44.000Z</time>
      </trkpt>
      <trkpt lat="43.64292" lon="3.36311">
        <ele>149.19999694824</ele>
        <time>2021-07-19T12:57:45.000Z</time>
      </trkpt>
      <trkpt lat="43.64292" lon="3.36308">
        <ele>149.60000610352</ele>
        <time>2021-07-19T12:57:46.000Z</time>
      </trkpt>
      <trkpt lat="43.64291" lon="3.36304">
        <ele>150</ele>
        <time>2021-07-19T12:57:47.000Z</time>
      </trkpt>
      <trkpt lat="43.64293" lon="3.36287">
        <ele>150</ele>
        <time>2021-07-19T12:57:51.000Z</time>
      </trkpt>
      <trkpt lat="43.64292" lon="3.36272">
        <ele>150.39999389648</ele>
        <time>2021-07-19T12:57:55.000Z</time>
      </trkpt>
      <trkpt lat="43.64292" lon="3.36269">
        <ele>150.80000305176</ele>
        <time>2021-07-19T12:57:56.000Z</time>
      </trkpt>
      <trkpt lat="43.64292" lon="3.36265">
        <ele>151.19999694824</ele>
        <time>2021-07-19T12:57:57.000Z</time>
      </trkpt>
      <trkpt lat="43.64292" lon="3.36262">
        <ele>151.60000610352</ele>
        <time>2021-07-19T12:57:58.000Z</time>
      </trkpt>
      <trkpt lat="43.64292" lon="3.36258">
        <ele>152.19999694824</ele>
        <time>2021-07-19T12:57:59.000Z</time>
      </trkpt>
      <trkpt lat="43.64292" lon="3.36254">
        <ele>152.19999694824</ele>
        <time>2021-07-19T12:58:00.000Z</time>
      </trkpt>
      <trkpt lat="43.64293" lon="3.36241">
        <ele>152.60000610352</ele>
        <time>2021-07-19T12:58:04.000Z</time>
      </trkpt>
      <trkpt lat="43.64293" lon="3.36237">
        <ele>153</ele>
        <time>2021-07-19T12:58:05.000Z</time>
      </trkpt>
      <trkpt lat="43.64293" lon="3.36234">
        <ele>153.80000305176</ele>
        <time>2021-07-19T12:58:06.000Z</time>
      </trkpt>
      <trkpt lat="43.64293" lon="3.3623">
        <ele>154.19999694824</ele>
        <time>2021-07-19T12:58:07.000Z</time>
      </trkpt>
      <trkpt lat="43.64294" lon="3.3622">
        <ele>154.19999694824</ele>
        <time>2021-07-19T12:58:10.000Z</time>
      </trkpt>
      <trkpt lat="43.64293" lon="3.36195">
        <ele>154.19999694824</ele>
        <time>2021-07-19T12:58:16.000Z</time>
      </trkpt>
      <trkpt lat="43.64295" lon="3.36191">
        <ele>154.19999694824</ele>
        <time>2021-07-19T12:58:17.000Z</time>
      </trkpt>
      <trkpt lat="43.64301" lon="3.36186">
        <ele>154.19999694824</ele>
        <time>2021-07-19T12:58:19.000Z</time>
      </trkpt>
      <trkpt lat="43.6431" lon="3.36176">
        <ele>154.19999694824</ele>
        <time>2021-07-19T12:58:22.000Z</time>
      </trkpt>
      <trkpt lat="43.64314" lon="3.36172">
        <ele>154.19999694824</ele>
        <time>2021-07-19T12:58:24.000Z</time>
      </trkpt>
      <trkpt lat="43.64316" lon="3.3617">
        <ele>154.60000610352</ele>
        <time>2021-07-19T12:58:25.000Z</time>
      </trkpt>
      <trkpt lat="43.64318" lon="3.36169">
        <ele>155</ele>
        <time>2021-07-19T12:58:26.000Z</time>
      </trkpt>
      <trkpt lat="43.64319" lon="3.36168">
        <ele>155.39999389648</ele>
        <time>2021-07-19T12:58:27.000Z</time>
      </trkpt>
      <trkpt lat="43.64321" lon="3.36168">
        <ele>155.80000305176</ele>
        <time>2021-07-19T12:58:28.000Z</time>
      </trkpt>
      <trkpt lat="43.64321" lon="3.36168">
        <ele>156.19999694824</ele>
        <time>2021-07-19T12:58:29.000Z</time>
      </trkpt>
      <trkpt lat="43.64321" lon="3.36166">
        <ele>156.19999694824</ele>
        <time>2021-07-19T13:02:00.000Z</time>
      </trkpt>
      <trkpt lat="43.6432" lon="3.36166">
        <ele>156.19999694824</ele>
        <time>2021-07-19T13:02:01.000Z</time>
      </trkpt>
      <trkpt lat="43.6432" lon="3.36166">
        <ele>156.19999694824</ele>
        <time>2021-07-19T13:02:02.000Z</time>
      </trkpt>
      <trkpt lat="43.64318" lon="3.36167">
        <ele>156.19999694824</ele>
        <time>2021-07-19T13:02:04.000Z</time>
      </trkpt>
      <trkpt lat="43.64315" lon="3.3617">
        <ele>156.19999694824</ele>
        <time>2021-07-19T13:02:06.000Z</time>
      </trkpt>
      <trkpt lat="43.64307" lon="3.36182">
        <ele>156.19999694824</ele>
        <time>2021-07-19T13:02:10.000Z</time>
      </trkpt>
      <trkpt lat="43.64298" lon="3.3619">
        <ele>156.19999694824</ele>
        <time>2021-07-19T13:02:14.000Z</time>
      </trkpt>
      <trkpt lat="43.64297" lon="3.3619">
        <ele>156.19999694824</ele>
        <time>2021-07-19T13:02:16.000Z</time>
      </trkpt>
      <trkpt lat="43.64303" lon="3.36186">
        <ele>156.19999694824</ele>
        <time>2021-07-19T13:05:05.000Z</time>
      </trkpt>
      <trkpt lat="43.64311" lon="3.36176">
        <ele>156.19999694824</ele>
        <time>2021-07-19T13:05:08.000Z</time>
      </trkpt>
      <trkpt lat="43.64313" lon="3.36174">
        <ele>156.19999694824</ele>
        <time>2021-07-19T13:05:09.000Z</time>
      </trkpt>
      <trkpt lat="43.6432" lon="3.36167">
        <ele>156.19999694824</ele>
        <time>2021-07-19T13:05:12.000Z</time>
      </trkpt>
      <trkpt lat="43.64327" lon="3.36165">
        <ele>156.19999694824</ele>
        <time>2021-07-19T13:05:14.000Z</time>
      </trkpt>
      <trkpt lat="43.64334" lon="3.36163">
        <ele>156.19999694824</ele>
        <time>2021-07-19T13:05:16.000Z</time>
      </trkpt>
      <trkpt lat="43.64354" lon="3.36151">
        <ele>156.19999694824</ele>
        <time>2021-07-19T13:05:21.000Z</time>
      </trkpt>
      <trkpt lat="43.64374" lon="3.3613">
        <ele>156.19999694824</ele>
        <time>2021-07-19T13:05:26.000Z</time>
      </trkpt>
      <trkpt lat="43.64383" lon="3.36123">
        <ele>156.19999694824</ele>
        <time>2021-07-19T13:05:28.000Z</time>
      </trkpt>
      <trkpt lat="43.64396" lon="3.36121">
        <ele>156.19999694824</ele>
        <time>2021-07-19T13:05:31.000Z</time>
      </trkpt>
      <trkpt lat="43.64405" lon="3.36116">
        <ele>155.80000305176</ele>
        <time>2021-07-19T13:05:33.000Z</time>
      </trkpt>
      <trkpt lat="43.64409" lon="3.36112">
        <ele>155.39999389648</ele>
        <time>2021-07-19T13:05:34.000Z</time>
      </trkpt>
      <trkpt lat="43.64414" lon="3.36107">
        <ele>155</ele>
        <time>2021-07-19T13:05:35.000Z</time>
      </trkpt>
      <trkpt lat="43.64417" lon="3.36102">
        <ele>154.39999389648</ele>
        <time>2021-07-19T13:05:36.000Z</time>
      </trkpt>
      <trkpt lat="43.6442" lon="3.36096">
        <ele>154</ele>
        <time>2021-07-19T13:05:37.000Z</time>
      </trkpt>
      <trkpt lat="43.64424" lon="3.36091">
        <ele>154</ele>
        <time>2021-07-19T13:05:38.000Z</time>
      </trkpt>
      <trkpt lat="43.64427" lon="3.36086">
        <ele>154</ele>
        <time>2021-07-19T13:05:39.000Z</time>
      </trkpt>
      <trkpt lat="43.64435" lon="3.36077">
        <ele>154</ele>
        <time>2021-07-19T13:05:41.000Z</time>
      </trkpt>
      <trkpt lat="43.64451" lon="3.36072">
        <ele>154</ele>
        <time>2021-07-19T13:05:44.000Z</time>
      </trkpt>
      <trkpt lat="43.64456" lon="3.36071">
        <ele>154</ele>
        <time>2021-07-19T13:05:45.000Z</time>
      </trkpt>
      <trkpt lat="43.6447" lon="3.36065">
        <ele>154</ele>
        <time>2021-07-19T13:05:49.000Z</time>
      </trkpt>
      <trkpt lat="43.64489" lon="3.36053">
        <ele>154</ele>
        <time>2021-07-19T13:05:53.000Z</time>
      </trkpt>
      <trkpt lat="43.64494" lon="3.36049">
        <ele>154</ele>
        <time>2021-07-19T13:05:54.000Z</time>
      </trkpt>
      <trkpt lat="43.64498" lon="3.36046">
        <ele>153</ele>
        <time>2021-07-19T13:05:55.000Z</time>
      </trkpt>
      <trkpt lat="43.64502" lon="3.36043">
        <ele>152.60000610352</ele>
        <time>2021-07-19T13:05:56.000Z</time>
      </trkpt>
      <trkpt lat="43.64506" lon="3.36041">
        <ele>152</ele>
        <time>2021-07-19T13:05:57.000Z</time>
      </trkpt>
      <trkpt lat="43.64511" lon="3.36041">
        <ele>151.60000610352</ele>
        <time>2021-07-19T13:05:58.000Z</time>
      </trkpt>
      <trkpt lat="43.64521" lon="3.36035">
        <ele>151.60000610352</ele>
        <time>2021-07-19T13:06:00.000Z</time>
      </trkpt>
      <trkpt lat="43.64527" lon="3.36033">
        <ele>151.19999694824</ele>
        <time>2021-07-19T13:06:01.000Z</time>
      </trkpt>
      <trkpt lat="43.64532" lon="3.36031">
        <ele>150.60000610352</ele>
        <time>2021-07-19T13:06:02.000Z</time>
      </trkpt>
      <trkpt lat="43.64538" lon="3.36028">
        <ele>150.19999694824</ele>
        <time>2021-07-19T13:06:03.000Z</time>
      </trkpt>
      <trkpt lat="43.64544" lon="3.36028">
        <ele>149.80000305176</ele>
        <time>2021-07-19T13:06:04.000Z</time>
      </trkpt>
      <trkpt lat="43.6455" lon="3.36029">
        <ele>149.39999389648</ele>
        <time>2021-07-19T13:06:05.000Z</time>
      </trkpt>
      <trkpt lat="43.64556" lon="3.36028">
        <ele>149.39999389648</ele>
        <time>2021-07-19T13:06:06.000Z</time>
      </trkpt>
      <trkpt lat="43.64562" lon="3.36027">
        <ele>149</ele>
        <time>2021-07-19T13:06:07.000Z</time>
      </trkpt>
      <trkpt lat="43.64569" lon="3.36024">
        <ele>148.60000610352</ele>
        <time>2021-07-19T13:06:08.000Z</time>
      </trkpt>
      <trkpt lat="43.64575" lon="3.3602">
        <ele>148</ele>
        <time>2021-07-19T13:06:09.000Z</time>
      </trkpt>
      <trkpt lat="43.64579" lon="3.36015">
        <ele>147.60000610352</ele>
        <time>2021-07-19T13:06:10.000Z</time>
      </trkpt>
      <trkpt lat="43.64583" lon="3.36009">
        <ele>147.19999694824</ele>
        <time>2021-07-19T13:06:11.000Z</time>
      </trkpt>
      <trkpt lat="43.64586" lon="3.35994">
        <ele>147.19999694824</ele>
        <time>2021-07-19T13:06:13.000Z</time>
      </trkpt>
      <trkpt lat="43.64597" lon="3.35971">
        <ele>147.19999694824</ele>
        <time>2021-07-19T13:06:17.000Z</time>
      </trkpt>
      <trkpt lat="43.64613" lon="3.3597">
        <ele>147.19999694824</ele>
        <time>2021-07-19T13:06:20.000Z</time>
      </trkpt>
      <trkpt lat="43.64624" lon="3.35975">
        <ele>147.19999694824</ele>
        <time>2021-07-19T13:06:22.000Z</time>
      </trkpt>
      <trkpt lat="43.6464" lon="3.35977">
        <ele>147.19999694824</ele>
        <time>2021-07-19T13:06:25.000Z</time>
      </trkpt>
      <trkpt lat="43.64644" lon="3.35976">
        <ele>147.19999694824</ele>
        <time>2021-07-19T13:06:26.000Z</time>
      </trkpt>
      <trkpt lat="43.6467" lon="3.3597">
        <ele>147.19999694824</ele>
        <time>2021-07-19T13:06:32.000Z</time>
      </trkpt>
      <trkpt lat="43.64675" lon="3.3597">
        <ele>147.19999694824</ele>
        <time>2021-07-19T13:06:33.000Z</time>
      </trkpt>
      <trkpt lat="43.64684" lon="3.35969">
        <ele>147.19999694824</ele>
        <time>2021-07-19T13:06:35.000Z</time>
      </trkpt>
      <trkpt lat="43.64692" lon="3.35966">
        <ele>147.19999694824</ele>
        <time>2021-07-19T13:06:37.000Z</time>
      </trkpt>
      <trkpt lat="43.6471" lon="3.35948">
        <ele>147.19999694824</ele>
        <time>2021-07-19T13:06:42.000Z</time>
      </trkpt>
      <trkpt lat="43.64716" lon="3.35931">
        <ele>147.19999694824</ele>
        <time>2021-07-19T13:06:45.000Z</time>
      </trkpt>
      <trkpt lat="43.6472" lon="3.35921">
        <ele>147.19999694824</ele>
        <time>2021-07-19T13:06:47.000Z</time>
      </trkpt>
      <trkpt lat="43.64726" lon="3.35906">
        <ele>147.19999694824</ele>
        <time>2021-07-19T13:06:50.000Z</time>
      </trkpt>
      <trkpt lat="43.64734" lon="3.35892">
        <ele>147.19999694824</ele>
        <time>2021-07-19T13:06:53.000Z</time>
      </trkpt>
      <trkpt lat="43.64741" lon="3.35877">
        <ele>147.19999694824</ele>
        <time>2021-07-19T13:06:56.000Z</time>
      </trkpt>
      <trkpt lat="43.64749" lon="3.35857">
        <ele>147.19999694824</ele>
        <time>2021-07-19T13:07:00.000Z</time>
      </trkpt>
      <trkpt lat="43.64758" lon="3.35835">
        <ele>147.19999694824</ele>
        <time>2021-07-19T13:07:04.000Z</time>
      </trkpt>
      <trkpt lat="43.64766" lon="3.35816">
        <ele>147.19999694824</ele>
        <time>2021-07-19T13:07:07.000Z</time>
      </trkpt>
      <trkpt lat="43.64773" lon="3.35803">
        <ele>147.19999694824</ele>
        <time>2021-07-19T13:07:09.000Z</time>
      </trkpt>
      <trkpt lat="43.64784" lon="3.35795">
        <ele>146.80000305176</ele>
        <time>2021-07-19T13:07:11.000Z</time>
      </trkpt>
      <trkpt lat="43.6479" lon="3.35792">
        <ele>146.19999694824</ele>
        <time>2021-07-19T13:07:12.000Z</time>
      </trkpt>
      <trkpt lat="43.64796" lon="3.3579">
        <ele>145.80000305176</ele>
        <time>2021-07-19T13:07:13.000Z</time>
      </trkpt>
      <trkpt lat="43.64803" lon="3.35787">
        <ele>145.39999389648</ele>
        <time>2021-07-19T13:07:14.000Z</time>
      </trkpt>
      <trkpt lat="43.6481" lon="3.35785">
        <ele>145</ele>
        <time>2021-07-19T13:07:15.000Z</time>
      </trkpt>
      <trkpt lat="43.64818" lon="3.35783">
        <ele>145</ele>
        <time>2021-07-19T13:07:16.000Z</time>
      </trkpt>
      <trkpt lat="43.64825" lon="3.3578">
        <ele>144.60000610352</ele>
        <time>2021-07-19T13:07:17.000Z</time>
      </trkpt>
      <trkpt lat="43.64832" lon="3.35775">
        <ele>144</ele>
        <time>2021-07-19T13:07:18.000Z</time>
      </trkpt>
      <trkpt lat="43.64838" lon="3.3577">
        <ele>143.60000610352</ele>
        <time>2021-07-19T13:07:19.000Z</time>
      </trkpt>
      <trkpt lat="43.64844" lon="3.35765">
        <ele>143.19999694824</ele>
        <time>2021-07-19T13:07:20.000Z</time>
      </trkpt>
      <trkpt lat="43.64851" lon="3.3576">
        <ele>142.80000305176</ele>
        <time>2021-07-19T13:07:21.000Z</time>
      </trkpt>
      <trkpt lat="43.64889" lon="3.35735">
        <ele>142.80000305176</ele>
        <time>2021-07-19T13:07:27.000Z</time>
      </trkpt>
      <trkpt lat="43.64906" lon="3.35712">
        <ele>142.80000305176</ele>
        <time>2021-07-19T13:07:31.000Z</time>
      </trkpt>
      <trkpt lat="43.64917" lon="3.35696">
        <ele>142</ele>
        <time>2021-07-19T13:07:34.000Z</time>
      </trkpt>
      <trkpt lat="43.64921" lon="3.35691">
        <ele>141.60000610352</ele>
        <time>2021-07-19T13:07:35.000Z</time>
      </trkpt>
      <trkpt lat="43.64926" lon="3.35686">
        <ele>141.19999694824</ele>
        <time>2021-07-19T13:07:36.000Z</time>
      </trkpt>
      <trkpt lat="43.6493" lon="3.35682">
        <ele>140.80000305176</ele>
        <time>2021-07-19T13:07:37.000Z</time>
      </trkpt>
      <trkpt lat="43.6495" lon="3.35675">
        <ele>140.80000305176</ele>
        <time>2021-07-19T13:07:41.000Z</time>
      </trkpt>
      <trkpt lat="43.6496" lon="3.3567">
        <ele>140.80000305176</ele>
        <time>2021-07-19T13:07:43.000Z</time>
      </trkpt>
      <trkpt lat="43.64967" lon="3.3566">
        <ele>140.80000305176</ele>
        <time>2021-07-19T13:07:45.000Z</time>
      </trkpt>
      <trkpt lat="43.64971" lon="3.35646">
        <ele>140.80000305176</ele>
        <time>2021-07-19T13:07:47.000Z</time>
      </trkpt>
      <trkpt lat="43.64972" lon="3.35639">
        <ele>140.80000305176</ele>
        <time>2021-07-19T13:07:48.000Z</time>
      </trkpt>
      <trkpt lat="43.64973" lon="3.35632">
        <ele>140.80000305176</ele>
        <time>2021-07-19T13:07:49.000Z</time>
      </trkpt>
      <trkpt lat="43.64982" lon="3.35587">
        <ele>140.80000305176</ele>
        <time>2021-07-19T13:07:56.000Z</time>
      </trkpt>
      <trkpt lat="43.64994" lon="3.3554">
        <ele>140.80000305176</ele>
        <time>2021-07-19T13:08:03.000Z</time>
      </trkpt>
      <trkpt lat="43.64995" lon="3.35526">
        <ele>140.80000305176</ele>
        <time>2021-07-19T13:08:05.000Z</time>
      </trkpt>
      <trkpt lat="43.64994" lon="3.35513">
        <ele>140.80000305176</ele>
        <time>2021-07-19T13:08:07.000Z</time>
      </trkpt>
      <trkpt lat="43.64983" lon="3.35499">
        <ele>140.80000305176</ele>
        <time>2021-07-19T13:08:10.000Z</time>
      </trkpt>
      <trkpt lat="43.64968" lon="3.35491">
        <ele>140.80000305176</ele>
        <time>2021-07-19T13:08:13.000Z</time>
      </trkpt>
      <trkpt lat="43.64958" lon="3.35488">
        <ele>140.80000305176</ele>
        <time>2021-07-19T13:08:15.000Z</time>
      </trkpt>
      <trkpt lat="43.64929" lon="3.35473">
        <ele>140.80000305176</ele>
        <time>2021-07-19T13:08:21.000Z</time>
      </trkpt>
      <trkpt lat="43.64925" lon="3.35469">
        <ele>140.80000305176</ele>
        <time>2021-07-19T13:08:22.000Z</time>
      </trkpt>
      <trkpt lat="43.64914" lon="3.35447">
        <ele>140.80000305176</ele>
        <time>2021-07-19T13:08:26.000Z</time>
      </trkpt>
      <trkpt lat="43.64907" lon="3.3543">
        <ele>140.80000305176</ele>
        <time>2021-07-19T13:08:29.000Z</time>
      </trkpt>
      <trkpt lat="43.64909" lon="3.35416">
        <ele>140.80000305176</ele>
        <time>2021-07-19T13:08:31.000Z</time>
      </trkpt>
      <trkpt lat="43.64922" lon="3.35404">
        <ele>140.80000305176</ele>
        <time>2021-07-19T13:08:34.000Z</time>
      </trkpt>
      <trkpt lat="43.64937" lon="3.35377">
        <ele>140.80000305176</ele>
        <time>2021-07-19T13:08:39.000Z</time>
      </trkpt>
      <trkpt lat="43.6494" lon="3.35363">
        <ele>140.80000305176</ele>
        <time>2021-07-19T13:08:41.000Z</time>
      </trkpt>
      <trkpt lat="43.64941" lon="3.35349">
        <ele>140.80000305176</ele>
        <time>2021-07-19T13:08:43.000Z</time>
      </trkpt>
      <trkpt lat="43.6494" lon="3.35342">
        <ele>140.80000305176</ele>
        <time>2021-07-19T13:08:44.000Z</time>
      </trkpt>
      <trkpt lat="43.64932" lon="3.35324">
        <ele>140.80000305176</ele>
        <time>2021-07-19T13:08:47.000Z</time>
      </trkpt>
      <trkpt lat="43.64924" lon="3.35314">
        <ele>140.80000305176</ele>
        <time>2021-07-19T13:08:49.000Z</time>
      </trkpt>
      <trkpt lat="43.64915" lon="3.35298">
        <ele>140.80000305176</ele>
        <time>2021-07-19T13:08:52.000Z</time>
      </trkpt>
      <trkpt lat="43.64914" lon="3.35271">
        <ele>140.80000305176</ele>
        <time>2021-07-19T13:08:56.000Z</time>
      </trkpt>
      <trkpt lat="43.6492" lon="3.35243">
        <ele>140.80000305176</ele>
        <time>2021-07-19T13:09:00.000Z</time>
      </trkpt>
      <trkpt lat="43.64921" lon="3.35237">
        <ele>140.80000305176</ele>
        <time>2021-07-19T13:09:01.000Z</time>
      </trkpt>
      <trkpt lat="43.64921" lon="3.35226">
        <ele>140.80000305176</ele>
        <time>2021-07-19T13:09:05.000Z</time>
      </trkpt>
      <trkpt lat="43.64921" lon="3.35226">
        <ele>140.80000305176</ele>
        <time>2021-07-19T13:09:06.000Z</time>
      </trkpt>
      <trkpt lat="43.64921" lon="3.35224">
        <ele>140.80000305176</ele>
        <time>2021-07-19T13:13:49.000Z</time>
      </trkpt>
      <trkpt lat="43.64921" lon="3.35219">
        <ele>140.80000305176</ele>
        <time>2021-07-19T13:13:51.000Z</time>
      </trkpt>
      <trkpt lat="43.6492" lon="3.35199">
        <ele>140.80000305176</ele>
        <time>2021-07-19T13:13:56.000Z</time>
      </trkpt>
      <trkpt lat="43.64911" lon="3.35189">
        <ele>140.80000305176</ele>
        <time>2021-07-19T13:13:59.000Z</time>
      </trkpt>
      <trkpt lat="43.64908" lon="3.35186">
        <ele>140.80000305176</ele>
        <time>2021-07-19T13:14:00.000Z</time>
      </trkpt>
      <trkpt lat="43.64885" lon="3.35175">
        <ele>140.80000305176</ele>
        <time>2021-07-19T13:14:06.000Z</time>
      </trkpt>
      <trkpt lat="43.64881" lon="3.35172">
        <ele>140.80000305176</ele>
        <time>2021-07-19T13:14:07.000Z</time>
      </trkpt>
      <trkpt lat="43.64874" lon="3.35164">
        <ele>140.80000305176</ele>
        <time>2021-07-19T13:14:09.000Z</time>
      </trkpt>
      <trkpt lat="43.6487" lon="3.35153">
        <ele>140.80000305176</ele>
        <time>2021-07-19T13:14:11.000Z</time>
      </trkpt>
      <trkpt lat="43.64863" lon="3.35124">
        <ele>140.80000305176</ele>
        <time>2021-07-19T13:14:16.000Z</time>
      </trkpt>
      <trkpt lat="43.64863" lon="3.35118">
        <ele>140.80000305176</ele>
        <time>2021-07-19T13:14:17.000Z</time>
      </trkpt>
      <trkpt lat="43.64868" lon="3.35088">
        <ele>140.80000305176</ele>
        <time>2021-07-19T13:14:22.000Z</time>
      </trkpt>
      <trkpt lat="43.64869" lon="3.35082">
        <ele>140.80000305176</ele>
        <time>2021-07-19T13:14:23.000Z</time>
      </trkpt>
      <trkpt lat="43.64869" lon="3.35066">
        <ele>140.80000305176</ele>
        <time>2021-07-19T13:14:26.000Z</time>
      </trkpt>
      <trkpt lat="43.64858" lon="3.35049">
        <ele>140.80000305176</ele>
        <time>2021-07-19T13:14:30.000Z</time>
      </trkpt>
      <trkpt lat="43.64843" lon="3.35044">
        <ele>140.80000305176</ele>
        <time>2021-07-19T13:14:34.000Z</time>
      </trkpt>
      <trkpt lat="43.64839" lon="3.35043">
        <ele>140.80000305176</ele>
        <time>2021-07-19T13:14:35.000Z</time>
      </trkpt>
      <trkpt lat="43.64799" lon="3.35044">
        <ele>140.80000305176</ele>
        <time>2021-07-19T13:14:44.000Z</time>
      </trkpt>
      <trkpt lat="43.64785" lon="3.35044">
        <ele>140.80000305176</ele>
        <time>2021-07-19T13:14:47.000Z</time>
      </trkpt>
      <trkpt lat="43.64776" lon="3.35039">
        <ele>140.80000305176</ele>
        <time>2021-07-19T13:14:49.000Z</time>
      </trkpt>
      <trkpt lat="43.64757" lon="3.35025">
        <ele>140.80000305176</ele>
        <time>2021-07-19T13:14:54.000Z</time>
      </trkpt>
      <trkpt lat="43.64753" lon="3.35023">
        <ele>140.80000305176</ele>
        <time>2021-07-19T13:14:55.000Z</time>
      </trkpt>
      <trkpt lat="43.64731" lon="3.35019">
        <ele>140.80000305176</ele>
        <time>2021-07-19T13:15:00.000Z</time>
      </trkpt>
      <trkpt lat="43.64722" lon="3.35014">
        <ele>140.80000305176</ele>
        <time>2021-07-19T13:15:02.000Z</time>
      </trkpt>
      <trkpt lat="43.64711" lon="3.35007">
        <ele>140.80000305176</ele>
        <time>2021-07-19T13:15:06.000Z</time>
      </trkpt>
      <trkpt lat="43.6471" lon="3.35016">
        <ele>140.80000305176</ele>
        <time>2021-07-19T13:15:09.000Z</time>
      </trkpt>
      <trkpt lat="43.64717" lon="3.35025">
        <ele>140.80000305176</ele>
        <time>2021-07-19T13:15:13.000Z</time>
      </trkpt>
      <trkpt lat="43.64719" lon="3.35026">
        <ele>140.80000305176</ele>
        <time>2021-07-19T13:15:15.000Z</time>
      </trkpt>
      <trkpt lat="43.64719" lon="3.35025">
        <ele>140.80000305176</ele>
        <time>2021-07-19T13:17:20.000Z</time>
      </trkpt>
      <trkpt lat="43.64721" lon="3.3502">
        <ele>140.80000305176</ele>
        <time>2021-07-19T13:17:23.000Z</time>
      </trkpt>
      <trkpt lat="43.6472" lon="3.35015">
        <ele>140.80000305176</ele>
        <time>2021-07-19T13:17:27.000Z</time>
      </trkpt>
      <trkpt lat="43.64719" lon="3.35014">
        <ele>140.80000305176</ele>
        <time>2021-07-19T13:17:32.000Z</time>
      </trkpt>
      <trkpt lat="43.64714" lon="3.35009">
        <ele>140.80000305176</ele>
        <time>2021-07-19T13:17:35.000Z</time>
      </trkpt>
      <trkpt lat="43.64703" lon="3.34995">
        <ele>141.19999694824</ele>
        <time>2021-07-19T13:17:40.000Z</time>
      </trkpt>
      <trkpt lat="43.64701" lon="3.34992">
        <ele>141.60000610352</ele>
        <time>2021-07-19T13:17:41.000Z</time>
      </trkpt>
      <trkpt lat="43.64699" lon="3.34989">
        <ele>142</ele>
        <time>2021-07-19T13:17:42.000Z</time>
      </trkpt>
      <trkpt lat="43.64698" lon="3.34984">
        <ele>142.39999389648</ele>
        <time>2021-07-19T13:17:43.000Z</time>
      </trkpt>
      <trkpt lat="43.64699" lon="3.34979">
        <ele>142.80000305176</ele>
        <time>2021-07-19T13:17:44.000Z</time>
      </trkpt>
      <trkpt lat="43.64699" lon="3.34974">
        <ele>142.80000305176</ele>
        <time>2021-07-19T13:17:45.000Z</time>
      </trkpt>
      <trkpt lat="43.64704" lon="3.34948">
        <ele>142.80000305176</ele>
        <time>2021-07-19T13:17:50.000Z</time>
      </trkpt>
      <trkpt lat="43.64711" lon="3.34924">
        <ele>142.80000305176</ele>
        <time>2021-07-19T13:17:55.000Z</time>
      </trkpt>
      <trkpt lat="43.64718" lon="3.34884">
        <ele>142.80000305176</ele>
        <time>2021-07-19T13:18:03.000Z</time>
      </trkpt>
      <trkpt lat="43.64723" lon="3.34847">
        <ele>142.80000305176</ele>
        <time>2021-07-19T13:18:10.000Z</time>
      </trkpt>
      <trkpt lat="43.64726" lon="3.34813">
        <ele>142.80000305176</ele>
        <time>2021-07-19T13:18:16.000Z</time>
      </trkpt>
      <trkpt lat="43.64728" lon="3.34794">
        <ele>142.80000305176</ele>
        <time>2021-07-19T13:18:19.000Z</time>
      </trkpt>
      <trkpt lat="43.6473" lon="3.34782">
        <ele>142.80000305176</ele>
        <time>2021-07-19T13:18:21.000Z</time>
      </trkpt>
      <trkpt lat="43.6473" lon="3.34776">
        <ele>142.80000305176</ele>
        <time>2021-07-19T13:18:22.000Z</time>
      </trkpt>
      <trkpt lat="43.64733" lon="3.3476">
        <ele>142.80000305176</ele>
        <time>2021-07-19T13:18:25.000Z</time>
      </trkpt>
      <trkpt lat="43.64732" lon="3.34743">
        <ele>142.80000305176</ele>
        <time>2021-07-19T13:18:28.000Z</time>
      </trkpt>
      <trkpt lat="43.64728" lon="3.34707">
        <ele>142.80000305176</ele>
        <time>2021-07-19T13:18:35.000Z</time>
      </trkpt>
      <trkpt lat="43.64724" lon="3.34683">
        <ele>143.19999694824</ele>
        <time>2021-07-19T13:18:40.000Z</time>
      </trkpt>
      <trkpt lat="43.64724" lon="3.34679">
        <ele>143.60000610352</ele>
        <time>2021-07-19T13:18:41.000Z</time>
      </trkpt>
      <trkpt lat="43.64724" lon="3.34674">
        <ele>144</ele>
        <time>2021-07-19T13:18:42.000Z</time>
      </trkpt>
      <trkpt lat="43.64724" lon="3.3467">
        <ele>144.39999389648</ele>
        <time>2021-07-19T13:18:43.000Z</time>
      </trkpt>
      <trkpt lat="43.64724" lon="3.34665">
        <ele>144.80000305176</ele>
        <time>2021-07-19T13:18:44.000Z</time>
      </trkpt>
      <trkpt lat="43.64723" lon="3.34652">
        <ele>144.80000305176</ele>
        <time>2021-07-19T13:18:47.000Z</time>
      </trkpt>
      <trkpt lat="43.64721" lon="3.34626">
        <ele>144.80000305176</ele>
        <time>2021-07-19T13:18:53.000Z</time>
      </trkpt>
      <trkpt lat="43.64726" lon="3.34609">
        <ele>144.80000305176</ele>
        <time>2021-07-19T13:18:56.000Z</time>
      </trkpt>
      <trkpt lat="43.64727" lon="3.34603">
        <ele>144.80000305176</ele>
        <time>2021-07-19T13:18:57.000Z</time>
      </trkpt>
      <trkpt lat="43.64727" lon="3.34594">
        <ele>144.80000305176</ele>
        <time>2021-07-19T13:18:59.000Z</time>
      </trkpt>
      <trkpt lat="43.64725" lon="3.3459">
        <ele>144.80000305176</ele>
        <time>2021-07-19T13:19:00.000Z</time>
      </trkpt>
      <trkpt lat="43.64725" lon="3.34578">
        <ele>144.80000305176</ele>
        <time>2021-07-19T13:19:04.000Z</time>
      </trkpt>
      <trkpt lat="43.64726" lon="3.34575">
        <ele>145.19999694824</ele>
        <time>2021-07-19T13:19:05.000Z</time>
      </trkpt>
      <trkpt lat="43.64727" lon="3.34572">
        <ele>145.60000610352</ele>
        <time>2021-07-19T13:19:06.000Z</time>
      </trkpt>
      <trkpt lat="43.64728" lon="3.3457">
        <ele>146.19999694824</ele>
        <time>2021-07-19T13:19:07.000Z</time>
      </trkpt>
      <trkpt lat="43.6473" lon="3.34568">
        <ele>146.60000610352</ele>
        <time>2021-07-19T13:19:08.000Z</time>
      </trkpt>
      <trkpt lat="43.64731" lon="3.34566">
        <ele>147</ele>
        <time>2021-07-19T13:19:09.000Z</time>
      </trkpt>
      <trkpt lat="43.64734" lon="3.34558">
        <ele>147</ele>
        <time>2021-07-19T13:19:12.000Z</time>
      </trkpt>
      <trkpt lat="43.64734" lon="3.34555">
        <ele>147</ele>
        <time>2021-07-19T13:19:13.000Z</time>
      </trkpt>
      <trkpt lat="43.64733" lon="3.34551">
        <ele>147.39999389648</ele>
        <time>2021-07-19T13:19:14.000Z</time>
      </trkpt>
      <trkpt lat="43.64733" lon="3.34547">
        <ele>147.80000305176</ele>
        <time>2021-07-19T13:19:15.000Z</time>
      </trkpt>
      <trkpt lat="43.64733" lon="3.34543">
        <ele>148.19999694824</ele>
        <time>2021-07-19T13:19:16.000Z</time>
      </trkpt>
      <trkpt lat="43.64733" lon="3.34538">
        <ele>148.60000610352</ele>
        <time>2021-07-19T13:19:17.000Z</time>
      </trkpt>
      <trkpt lat="43.64733" lon="3.34534">
        <ele>149</ele>
        <time>2021-07-19T13:19:18.000Z</time>
      </trkpt>
      <trkpt lat="43.64732" lon="3.34504">
        <ele>149</ele>
        <time>2021-07-19T13:19:24.000Z</time>
      </trkpt>
      <trkpt lat="43.64734" lon="3.34476">
        <ele>149</ele>
        <time>2021-07-19T13:19:30.000Z</time>
      </trkpt>
      <trkpt lat="43.64736" lon="3.34445">
        <ele>149</ele>
        <time>2021-07-19T13:19:36.000Z</time>
      </trkpt>
      <trkpt lat="43.64736" lon="3.34419">
        <ele>149</ele>
        <time>2021-07-19T13:19:42.000Z</time>
      </trkpt>
      <trkpt lat="43.64737" lon="3.34413">
        <ele>149</ele>
        <time>2021-07-19T13:19:43.000Z</time>
      </trkpt>
      <trkpt lat="43.64739" lon="3.34402">
        <ele>149</ele>
        <time>2021-07-19T13:19:45.000Z</time>
      </trkpt>
      <trkpt lat="43.64737" lon="3.34384">
        <ele>149</ele>
        <time>2021-07-19T13:19:49.000Z</time>
      </trkpt>
      <trkpt lat="43.64737" lon="3.3438">
        <ele>149.39999389648</ele>
        <time>2021-07-19T13:19:50.000Z</time>
      </trkpt>
      <trkpt lat="43.64737" lon="3.34376">
        <ele>149.80000305176</ele>
        <time>2021-07-19T13:19:51.000Z</time>
      </trkpt>
      <trkpt lat="43.64738" lon="3.34372">
        <ele>150.19999694824</ele>
        <time>2021-07-19T13:19:52.000Z</time>
      </trkpt>
      <trkpt lat="43.64738" lon="3.34368">
        <ele>150.80000305176</ele>
        <time>2021-07-19T13:19:53.000Z</time>
      </trkpt>
      <trkpt lat="43.64739" lon="3.34364">
        <ele>151.19999694824</ele>
        <time>2021-07-19T13:19:54.000Z</time>
      </trkpt>
      <trkpt lat="43.64739" lon="3.3436">
        <ele>151.19999694824</ele>
        <time>2021-07-19T13:19:55.000Z</time>
      </trkpt>
      <trkpt lat="43.64745" lon="3.34343">
        <ele>151.19999694824</ele>
        <time>2021-07-19T13:20:00.000Z</time>
      </trkpt>
      <trkpt lat="43.64746" lon="3.34339">
        <ele>151.60000610352</ele>
        <time>2021-07-19T13:20:01.000Z</time>
      </trkpt>
      <trkpt lat="43.64746" lon="3.34336">
        <ele>152</ele>
        <time>2021-07-19T13:20:02.000Z</time>
      </trkpt>
      <trkpt lat="43.64747" lon="3.34333">
        <ele>152.39999389648</ele>
        <time>2021-07-19T13:20:03.000Z</time>
      </trkpt>
      <trkpt lat="43.64748" lon="3.34329">
        <ele>152.80000305176</ele>
        <time>2021-07-19T13:20:04.000Z</time>
      </trkpt>
      <trkpt lat="43.64749" lon="3.34326">
        <ele>153.19999694824</ele>
        <time>2021-07-19T13:20:05.000Z</time>
      </trkpt>
      <trkpt lat="43.64751" lon="3.3432">
        <ele>153.19999694824</ele>
        <time>2021-07-19T13:20:07.000Z</time>
      </trkpt>
      <trkpt lat="43.64751" lon="3.34305">
        <ele>153.19999694824</ele>
        <time>2021-07-19T13:20:11.000Z</time>
      </trkpt>
      <trkpt lat="43.64745" lon="3.34283">
        <ele>153.19999694824</ele>
        <time>2021-07-19T13:20:16.000Z</time>
      </trkpt>
      <trkpt lat="43.64741" lon="3.34264">
        <ele>153.60000610352</ele>
        <time>2021-07-19T13:20:21.000Z</time>
      </trkpt>
      <trkpt lat="43.64741" lon="3.3426">
        <ele>154.19999694824</ele>
        <time>2021-07-19T13:20:22.000Z</time>
      </trkpt>
      <trkpt lat="43.64741" lon="3.34257">
        <ele>154.60000610352</ele>
        <time>2021-07-19T13:20:23.000Z</time>
      </trkpt>
      <trkpt lat="43.64741" lon="3.34254">
        <ele>155</ele>
        <time>2021-07-19T13:20:24.000Z</time>
      </trkpt>
      <trkpt lat="43.64741" lon="3.3425">
        <ele>155.60000610352</ele>
        <time>2021-07-19T13:20:25.000Z</time>
      </trkpt>
      <trkpt lat="43.64743" lon="3.34234">
        <ele>156</ele>
        <time>2021-07-19T13:20:30.000Z</time>
      </trkpt>
      <trkpt lat="43.64744" lon="3.34231">
        <ele>156.39999389648</ele>
        <time>2021-07-19T13:20:31.000Z</time>
      </trkpt>
      <trkpt lat="43.64744" lon="3.34228">
        <ele>156.80000305176</ele>
        <time>2021-07-19T13:20:32.000Z</time>
      </trkpt>
      <trkpt lat="43.64745" lon="3.34224">
        <ele>157.19999694824</ele>
        <time>2021-07-19T13:20:33.000Z</time>
      </trkpt>
      <trkpt lat="43.64745" lon="3.34221">
        <ele>157.60000610352</ele>
        <time>2021-07-19T13:20:34.000Z</time>
      </trkpt>
      <trkpt lat="43.64744" lon="3.34216">
        <ele>158</ele>
        <time>2021-07-19T13:20:36.000Z</time>
      </trkpt>
      <trkpt lat="43.64744" lon="3.34213">
        <ele>158.39999389648</ele>
        <time>2021-07-19T13:20:37.000Z</time>
      </trkpt>
      <trkpt lat="43.64744" lon="3.3421">
        <ele>158.80000305176</ele>
        <time>2021-07-19T13:20:38.000Z</time>
      </trkpt>
      <trkpt lat="43.64744" lon="3.34207">
        <ele>159.19999694824</ele>
        <time>2021-07-19T13:20:39.000Z</time>
      </trkpt>
      <trkpt lat="43.64744" lon="3.34204">
        <ele>159.60000610352</ele>
        <time>2021-07-19T13:20:40.000Z</time>
      </trkpt>
      <trkpt lat="43.64745" lon="3.34199">
        <ele>159.60000610352</ele>
        <time>2021-07-19T13:20:42.000Z</time>
      </trkpt>
      <trkpt lat="43.64745" lon="3.34196">
        <ele>160</ele>
        <time>2021-07-19T13:20:43.000Z</time>
      </trkpt>
      <trkpt lat="43.64745" lon="3.34193">
        <ele>160.80000305176</ele>
        <time>2021-07-19T13:20:44.000Z</time>
      </trkpt>
      <trkpt lat="43.64745" lon="3.3419">
        <ele>161.19999694824</ele>
        <time>2021-07-19T13:20:45.000Z</time>
      </trkpt>
      <trkpt lat="43.64745" lon="3.34187">
        <ele>161.60000610352</ele>
        <time>2021-07-19T13:20:46.000Z</time>
      </trkpt>
      <trkpt lat="43.64746" lon="3.34183">
        <ele>161.60000610352</ele>
        <time>2021-07-19T13:20:47.000Z</time>
      </trkpt>
      <trkpt lat="43.64753" lon="3.34162">
        <ele>161.60000610352</ele>
        <time>2021-07-19T13:20:53.000Z</time>
      </trkpt>
      <trkpt lat="43.64763" lon="3.3413">
        <ele>161.60000610352</ele>
        <time>2021-07-19T13:21:01.000Z</time>
      </trkpt>
      <trkpt lat="43.64769" lon="3.34103">
        <ele>161.60000610352</ele>
        <time>2021-07-19T13:21:08.000Z</time>
      </trkpt>
      <trkpt lat="43.64777" lon="3.34075">
        <ele>161.60000610352</ele>
        <time>2021-07-19T13:21:15.000Z</time>
      </trkpt>
      <trkpt lat="43.64787" lon="3.34049">
        <ele>161.60000610352</ele>
        <time>2021-07-19T13:21:22.000Z</time>
      </trkpt>
      <trkpt lat="43.64795" lon="3.34017">
        <ele>161.60000610352</ele>
        <time>2021-07-19T13:21:28.000Z</time>
      </trkpt>
      <trkpt lat="43.64805" lon="3.33983">
        <ele>161.60000610352</ele>
        <time>2021-07-19T13:21:35.000Z</time>
      </trkpt>
      <trkpt lat="43.64808" lon="3.33967">
        <ele>161.60000610352</ele>
        <time>2021-07-19T13:21:39.000Z</time>
      </trkpt>
      <trkpt lat="43.64809" lon="3.33964">
        <ele>161.60000610352</ele>
        <time>2021-07-19T13:21:40.000Z</time>
      </trkpt>
      <trkpt lat="43.64812" lon="3.33955">
        <ele>161.19999694824</ele>
        <time>2021-07-19T13:21:43.000Z</time>
      </trkpt>
      <trkpt lat="43.64812" lon="3.33953">
        <ele>160.80000305176</ele>
        <time>2021-07-19T13:21:44.000Z</time>
      </trkpt>
      <trkpt lat="43.64812" lon="3.3395">
        <ele>160.39999389648</ele>
        <time>2021-07-19T13:21:45.000Z</time>
      </trkpt>
      <trkpt lat="43.64813" lon="3.33949">
        <ele>160</ele>
        <time>2021-07-19T13:21:46.000Z</time>
      </trkpt>
      <trkpt lat="43.64813" lon="3.33947">
        <ele>159.60000610352</ele>
        <time>2021-07-19T13:21:47.000Z</time>
      </trkpt>
      <trkpt lat="43.64816" lon="3.33939">
        <ele>159.19999694824</ele>
        <time>2021-07-19T13:21:51.000Z</time>
      </trkpt>
      <trkpt lat="43.64817" lon="3.33937">
        <ele>158.60000610352</ele>
        <time>2021-07-19T13:21:52.000Z</time>
      </trkpt>
      <trkpt lat="43.64818" lon="3.33934">
        <ele>158.19999694824</ele>
        <time>2021-07-19T13:21:53.000Z</time>
      </trkpt>
      <trkpt lat="43.64819" lon="3.33931">
        <ele>157.80000305176</ele>
        <time>2021-07-19T13:21:54.000Z</time>
      </trkpt>
      <trkpt lat="43.64819" lon="3.33927">
        <ele>157.19999694824</ele>
        <time>2021-07-19T13:21:55.000Z</time>
      </trkpt>
      <trkpt lat="43.64819" lon="3.33921">
        <ele>156.80000305176</ele>
        <time>2021-07-19T13:21:56.000Z</time>
      </trkpt>
      <trkpt lat="43.6482" lon="3.33916">
        <ele>156.19999694824</ele>
        <time>2021-07-19T13:21:57.000Z</time>
      </trkpt>
      <trkpt lat="43.64822" lon="3.33911">
        <ele>155.80000305176</ele>
        <time>2021-07-19T13:21:58.000Z</time>
      </trkpt>
      <trkpt lat="43.64824" lon="3.33907">
        <ele>155.19999694824</ele>
        <time>2021-07-19T13:21:59.000Z</time>
      </trkpt>
      <trkpt lat="43.64827" lon="3.33903">
        <ele>155.19999694824</ele>
        <time>2021-07-19T13:22:00.000Z</time>
      </trkpt>
      <trkpt lat="43.64831" lon="3.33893">
        <ele>155.19999694824</ele>
        <time>2021-07-19T13:22:03.000Z</time>
      </trkpt>
      <trkpt lat="43.64832" lon="3.33889">
        <ele>155.19999694824</ele>
        <time>2021-07-19T13:22:04.000Z</time>
      </trkpt>
      <trkpt lat="43.64833" lon="3.33884">
        <ele>155.60000610352</ele>
        <time>2021-07-19T13:22:06.000Z</time>
      </trkpt>
      <trkpt lat="43.64834" lon="3.33881">
        <ele>156</ele>
        <time>2021-07-19T13:22:07.000Z</time>
      </trkpt>
      <trkpt lat="43.64835" lon="3.33877">
        <ele>156.39999389648</ele>
        <time>2021-07-19T13:22:08.000Z</time>
      </trkpt>
      <trkpt lat="43.64836" lon="3.33873">
        <ele>156.80000305176</ele>
        <time>2021-07-19T13:22:09.000Z</time>
      </trkpt>
      <trkpt lat="43.64837" lon="3.33869">
        <ele>157.19999694824</ele>
        <time>2021-07-19T13:22:10.000Z</time>
      </trkpt>
      <trkpt lat="43.6484" lon="3.33855">
        <ele>157.19999694824</ele>
        <time>2021-07-19T13:22:13.000Z</time>
      </trkpt>
      <trkpt lat="43.64845" lon="3.33834">
        <ele>157.19999694824</ele>
        <time>2021-07-19T13:22:18.000Z</time>
      </trkpt>
      <trkpt lat="43.64851" lon="3.33805">
        <ele>157.19999694824</ele>
        <time>2021-07-19T13:22:24.000Z</time>
      </trkpt>
      <trkpt lat="43.64852" lon="3.33794">
        <ele>157.19999694824</ele>
        <time>2021-07-19T13:22:26.000Z</time>
      </trkpt>
      <trkpt lat="43.64853" lon="3.33789">
        <ele>156.80000305176</ele>
        <time>2021-07-19T13:22:27.000Z</time>
      </trkpt>
      <trkpt lat="43.64854" lon="3.33783">
        <ele>156.39999389648</ele>
        <time>2021-07-19T13:22:28.000Z</time>
      </trkpt>
      <trkpt lat="43.64854" lon="3.33778">
        <ele>156</ele>
        <time>2021-07-19T13:22:29.000Z</time>
      </trkpt>
      <trkpt lat="43.64854" lon="3.33772">
        <ele>155.60000610352</ele>
        <time>2021-07-19T13:22:30.000Z</time>
      </trkpt>
      <trkpt lat="43.64855" lon="3.33767">
        <ele>155.19999694824</ele>
        <time>2021-07-19T13:22:31.000Z</time>
      </trkpt>
      <trkpt lat="43.64855" lon="3.33756">
        <ele>154.80000305176</ele>
        <time>2021-07-19T13:22:33.000Z</time>
      </trkpt>
      <trkpt lat="43.64855" lon="3.3375">
        <ele>154.39999389648</ele>
        <time>2021-07-19T13:22:34.000Z</time>
      </trkpt>
      <trkpt lat="43.64854" lon="3.33744">
        <ele>154</ele>
        <time>2021-07-19T13:22:35.000Z</time>
      </trkpt>
      <trkpt lat="43.64854" lon="3.33738">
        <ele>153.60000610352</ele>
        <time>2021-07-19T13:22:36.000Z</time>
      </trkpt>
      <trkpt lat="43.64854" lon="3.33732">
        <ele>153</ele>
        <time>2021-07-19T13:22:37.000Z</time>
      </trkpt>
      <trkpt lat="43.64854" lon="3.33716">
        <ele>152.60000610352</ele>
        <time>2021-07-19T13:22:40.000Z</time>
      </trkpt>
      <trkpt lat="43.64854" lon="3.3371">
        <ele>152.19999694824</ele>
        <time>2021-07-19T13:22:41.000Z</time>
      </trkpt>
      <trkpt lat="43.64854" lon="3.33704">
        <ele>151.80000305176</ele>
        <time>2021-07-19T13:22:42.000Z</time>
      </trkpt>
      <trkpt lat="43.64854" lon="3.33698">
        <ele>151.39999389648</ele>
        <time>2021-07-19T13:22:43.000Z</time>
      </trkpt>
      <trkpt lat="43.64853" lon="3.33692">
        <ele>150.80000305176</ele>
        <time>2021-07-19T13:22:44.000Z</time>
      </trkpt>
      <trkpt lat="43.64853" lon="3.33685">
        <ele>150.80000305176</ele>
        <time>2021-07-19T13:22:45.000Z</time>
      </trkpt>
      <trkpt lat="43.64857" lon="3.33675">
        <ele>150.39999389648</ele>
        <time>2021-07-19T13:22:47.000Z</time>
      </trkpt>
      <trkpt lat="43.64859" lon="3.33669">
        <ele>149.39999389648</ele>
        <time>2021-07-19T13:22:48.000Z</time>
      </trkpt>
      <trkpt lat="43.64861" lon="3.33662">
        <ele>149</ele>
        <time>2021-07-19T13:22:49.000Z</time>
      </trkpt>
      <trkpt lat="43.6486" lon="3.33656">
        <ele>148.60000610352</ele>
        <time>2021-07-19T13:22:50.000Z</time>
      </trkpt>
      <trkpt lat="43.64858" lon="3.3365">
        <ele>148.60000610352</ele>
        <time>2021-07-19T13:22:51.000Z</time>
      </trkpt>
      <trkpt lat="43.64853" lon="3.33632">
        <ele>148.19999694824</ele>
        <time>2021-07-19T13:22:54.000Z</time>
      </trkpt>
      <trkpt lat="43.64852" lon="3.33626">
        <ele>147.80000305176</ele>
        <time>2021-07-19T13:22:55.000Z</time>
      </trkpt>
      <trkpt lat="43.64851" lon="3.3362">
        <ele>147.19999694824</ele>
        <time>2021-07-19T13:22:56.000Z</time>
      </trkpt>
      <trkpt lat="43.64851" lon="3.33614">
        <ele>146.80000305176</ele>
        <time>2021-07-19T13:22:57.000Z</time>
      </trkpt>
      <trkpt lat="43.64851" lon="3.33609">
        <ele>146.39999389648</ele>
        <time>2021-07-19T13:22:58.000Z</time>
      </trkpt>
      <trkpt lat="43.64852" lon="3.33599">
        <ele>146.39999389648</ele>
        <time>2021-07-19T13:23:00.000Z</time>
      </trkpt>
      <trkpt lat="43.64851" lon="3.33585">
        <ele>146.39999389648</ele>
        <time>2021-07-19T13:23:03.000Z</time>
      </trkpt>
      <trkpt lat="43.64852" lon="3.33581">
        <ele>146.39999389648</ele>
        <time>2021-07-19T13:23:04.000Z</time>
      </trkpt>
      <trkpt lat="43.64852" lon="3.33566">
        <ele>146.39999389648</ele>
        <time>2021-07-19T13:23:08.000Z</time>
      </trkpt>
      <trkpt lat="43.64852" lon="3.33562">
        <ele>146.39999389648</ele>
        <time>2021-07-19T13:23:09.000Z</time>
      </trkpt>
      <trkpt lat="43.64852" lon="3.33557">
        <ele>146</ele>
        <time>2021-07-19T13:23:10.000Z</time>
      </trkpt>
      <trkpt lat="43.64851" lon="3.33552">
        <ele>145.60000610352</ele>
        <time>2021-07-19T13:23:11.000Z</time>
      </trkpt>
      <trkpt lat="43.64852" lon="3.33546">
        <ele>145.19999694824</ele>
        <time>2021-07-19T13:23:12.000Z</time>
      </trkpt>
      <trkpt lat="43.64852" lon="3.33541">
        <ele>144.39999389648</ele>
        <time>2021-07-19T13:23:13.000Z</time>
      </trkpt>
      <trkpt lat="43.64852" lon="3.33528">
        <ele>144.39999389648</ele>
        <time>2021-07-19T13:23:17.000Z</time>
      </trkpt>
      <trkpt lat="43.64849" lon="3.33507">
        <ele>144.39999389648</ele>
        <time>2021-07-19T13:23:22.000Z</time>
      </trkpt>
      <trkpt lat="43.64844" lon="3.33473">
        <ele>144.39999389648</ele>
        <time>2021-07-19T13:23:27.000Z</time>
      </trkpt>
      <trkpt lat="43.64842" lon="3.33459">
        <ele>144.39999389648</ele>
        <time>2021-07-19T13:23:29.000Z</time>
      </trkpt>
      <trkpt lat="43.64842" lon="3.33446">
        <ele>144.39999389648</ele>
        <time>2021-07-19T13:23:31.000Z</time>
      </trkpt>
      <trkpt lat="43.64843" lon="3.3344">
        <ele>144.39999389648</ele>
        <time>2021-07-19T13:23:32.000Z</time>
      </trkpt>
      <trkpt lat="43.64842" lon="3.33404">
        <ele>144.39999389648</ele>
        <time>2021-07-19T13:23:38.000Z</time>
      </trkpt>
      <trkpt lat="43.6484" lon="3.33385">
        <ele>144.39999389648</ele>
        <time>2021-07-19T13:23:41.000Z</time>
      </trkpt>
      <trkpt lat="43.64839" lon="3.33366">
        <ele>144.39999389648</ele>
        <time>2021-07-19T13:23:44.000Z</time>
      </trkpt>
      <trkpt lat="43.64835" lon="3.3332">
        <ele>144.39999389648</ele>
        <time>2021-07-19T13:23:51.000Z</time>
      </trkpt>
      <trkpt lat="43.64834" lon="3.33294">
        <ele>144.39999389648</ele>
        <time>2021-07-19T13:23:55.000Z</time>
      </trkpt>
      <trkpt lat="43.64835" lon="3.33277">
        <ele>144.39999389648</ele>
        <time>2021-07-19T13:23:58.000Z</time>
      </trkpt>
      <trkpt lat="43.64831" lon="3.33253">
        <ele>143.60000610352</ele>
        <time>2021-07-19T13:24:02.000Z</time>
      </trkpt>
      <trkpt lat="43.64829" lon="3.33249">
        <ele>143</ele>
        <time>2021-07-19T13:24:03.000Z</time>
      </trkpt>
      <trkpt lat="43.64826" lon="3.33245">
        <ele>142.60000610352</ele>
        <time>2021-07-19T13:24:04.000Z</time>
      </trkpt>
      <trkpt lat="43.64823" lon="3.33242">
        <ele>142.19999694824</ele>
        <time>2021-07-19T13:24:05.000Z</time>
      </trkpt>
      <trkpt lat="43.6482" lon="3.33239">
        <ele>142.19999694824</ele>
        <time>2021-07-19T13:24:06.000Z</time>
      </trkpt>
      <trkpt lat="43.64801" lon="3.33215">
        <ele>142.19999694824</ele>
        <time>2021-07-19T13:24:12.000Z</time>
      </trkpt>
      <trkpt lat="43.64777" lon="3.33183">
        <ele>142.19999694824</ele>
        <time>2021-07-19T13:24:19.000Z</time>
      </trkpt>
      <trkpt lat="43.64757" lon="3.33159">
        <ele>142.19999694824</ele>
        <time>2021-07-19T13:24:25.000Z</time>
      </trkpt>
      <trkpt lat="43.6474" lon="3.33139">
        <ele>142.19999694824</ele>
        <time>2021-07-19T13:24:30.000Z</time>
      </trkpt>
      <trkpt lat="43.64735" lon="3.3313">
        <ele>142.19999694824</ele>
        <time>2021-07-19T13:24:32.000Z</time>
      </trkpt>
      <trkpt lat="43.64723" lon="3.33111">
        <ele>142.19999694824</ele>
        <time>2021-07-19T13:24:36.000Z</time>
      </trkpt>
      <trkpt lat="43.64704" lon="3.33088">
        <ele>142.19999694824</ele>
        <time>2021-07-19T13:24:42.000Z</time>
      </trkpt>
      <trkpt lat="43.64698" lon="3.33081">
        <ele>142.19999694824</ele>
        <time>2021-07-19T13:24:44.000Z</time>
      </trkpt>
      <trkpt lat="43.64684" lon="3.33061">
        <ele>142.19999694824</ele>
        <time>2021-07-19T13:24:49.000Z</time>
      </trkpt>
      <trkpt lat="43.64677" lon="3.33049">
        <ele>143</ele>
        <time>2021-07-19T13:24:52.000Z</time>
      </trkpt>
      <trkpt lat="43.64675" lon="3.33045">
        <ele>143.39999389648</ele>
        <time>2021-07-19T13:24:53.000Z</time>
      </trkpt>
      <trkpt lat="43.64673" lon="3.33041">
        <ele>143.80000305176</ele>
        <time>2021-07-19T13:24:54.000Z</time>
      </trkpt>
      <trkpt lat="43.6467" lon="3.33037">
        <ele>144.19999694824</ele>
        <time>2021-07-19T13:24:55.000Z</time>
      </trkpt>
      <trkpt lat="43.6466" lon="3.33022">
        <ele>143.80000305176</ele>
        <time>2021-07-19T13:24:58.000Z</time>
      </trkpt>
      <trkpt lat="43.64656" lon="3.33018">
        <ele>143.19999694824</ele>
        <time>2021-07-19T13:24:59.000Z</time>
      </trkpt>
      <trkpt lat="43.64652" lon="3.33014">
        <ele>142.80000305176</ele>
        <time>2021-07-19T13:25:00.000Z</time>
      </trkpt>
      <trkpt lat="43.64647" lon="3.33012">
        <ele>142.19999694824</ele>
        <time>2021-07-19T13:25:01.000Z</time>
      </trkpt>
      <trkpt lat="43.64641" lon="3.3301">
        <ele>141.80000305176</ele>
        <time>2021-07-19T13:25:02.000Z</time>
      </trkpt>
      <trkpt lat="43.64632" lon="3.33007">
        <ele>141.80000305176</ele>
        <time>2021-07-19T13:25:04.000Z</time>
      </trkpt>
      <trkpt lat="43.64628" lon="3.33008">
        <ele>141.80000305176</ele>
        <time>2021-07-19T13:25:05.000Z</time>
      </trkpt>
      <trkpt lat="43.6462" lon="3.3301">
        <ele>141.80000305176</ele>
        <time>2021-07-19T13:25:07.000Z</time>
      </trkpt>
      <trkpt lat="43.64614" lon="3.33008">
        <ele>141.80000305176</ele>
        <time>2021-07-19T13:25:09.000Z</time>
      </trkpt>
      <trkpt lat="43.64612" lon="3.33006">
        <ele>141.80000305176</ele>
        <time>2021-07-19T13:25:10.000Z</time>
      </trkpt>
      <trkpt lat="43.64598" lon="3.32992">
        <ele>141.80000305176</ele>
        <time>2021-07-19T13:25:15.000Z</time>
      </trkpt>
      <trkpt lat="43.64587" lon="3.32985">
        <ele>141.80000305176</ele>
        <time>2021-07-19T13:25:18.000Z</time>
      </trkpt>
      <trkpt lat="43.64583" lon="3.32983">
        <ele>141.80000305176</ele>
        <time>2021-07-19T13:25:20.000Z</time>
      </trkpt>
      <trkpt lat="43.64574" lon="3.32978">
        <ele>141.80000305176</ele>
        <time>2021-07-19T13:25:24.000Z</time>
      </trkpt>
      <trkpt lat="43.6457" lon="3.32974">
        <ele>141.80000305176</ele>
        <time>2021-07-19T13:25:26.000Z</time>
      </trkpt>
      <trkpt lat="43.64568" lon="3.3297">
        <ele>141.80000305176</ele>
        <time>2021-07-19T13:25:28.000Z</time>
      </trkpt>
      <trkpt lat="43.64565" lon="3.32965">
        <ele>141.80000305176</ele>
        <time>2021-07-19T13:25:30.000Z</time>
      </trkpt>
      <trkpt lat="43.64564" lon="3.32961">
        <ele>141.80000305176</ele>
        <time>2021-07-19T13:25:31.000Z</time>
      </trkpt>
      <trkpt lat="43.64555" lon="3.32948">
        <ele>141.80000305176</ele>
        <time>2021-07-19T13:25:35.000Z</time>
      </trkpt>
      <trkpt lat="43.64553" lon="3.32945">
        <ele>141.80000305176</ele>
        <time>2021-07-19T13:25:36.000Z</time>
      </trkpt>
      <trkpt lat="43.64552" lon="3.32942">
        <ele>141.80000305176</ele>
        <time>2021-07-19T13:25:37.000Z</time>
      </trkpt>
      <trkpt lat="43.64551" lon="3.32936">
        <ele>141.80000305176</ele>
        <time>2021-07-19T13:25:39.000Z</time>
      </trkpt>
      <trkpt lat="43.64549" lon="3.32934">
        <ele>142.19999694824</ele>
        <time>2021-07-19T13:25:40.000Z</time>
      </trkpt>
      <trkpt lat="43.64547" lon="3.3293">
        <ele>142.60000610352</ele>
        <time>2021-07-19T13:25:41.000Z</time>
      </trkpt>
      <trkpt lat="43.64545" lon="3.32926">
        <ele>143.39999389648</ele>
        <time>2021-07-19T13:25:42.000Z</time>
      </trkpt>
      <trkpt lat="43.64543" lon="3.32925">
        <ele>143.80000305176</ele>
        <time>2021-07-19T13:25:43.000Z</time>
      </trkpt>
      <trkpt lat="43.64538" lon="3.32922">
        <ele>143.80000305176</ele>
        <time>2021-07-19T13:25:45.000Z</time>
      </trkpt>
      <trkpt lat="43.64532" lon="3.32916">
        <ele>143.80000305176</ele>
        <time>2021-07-19T13:25:47.000Z</time>
      </trkpt>
      <trkpt lat="43.64523" lon="3.32906">
        <ele>143.80000305176</ele>
        <time>2021-07-19T13:25:50.000Z</time>
      </trkpt>
      <trkpt lat="43.64509" lon="3.32886">
        <ele>143.80000305176</ele>
        <time>2021-07-19T13:25:55.000Z</time>
      </trkpt>
      <trkpt lat="43.64506" lon="3.32881">
        <ele>143.80000305176</ele>
        <time>2021-07-19T13:25:56.000Z</time>
      </trkpt>
      <trkpt lat="43.64502" lon="3.32875">
        <ele>143.80000305176</ele>
        <time>2021-07-19T13:25:57.000Z</time>
      </trkpt>
      <trkpt lat="43.64494" lon="3.32862">
        <ele>143.80000305176</ele>
        <time>2021-07-19T13:25:59.000Z</time>
      </trkpt>
      <trkpt lat="43.6449" lon="3.32855">
        <ele>143.19999694824</ele>
        <time>2021-07-19T13:26:00.000Z</time>
      </trkpt>
      <trkpt lat="43.64486" lon="3.3285">
        <ele>142.80000305176</ele>
        <time>2021-07-19T13:26:01.000Z</time>
      </trkpt>
      <trkpt lat="43.64482" lon="3.32846">
        <ele>142.19999694824</ele>
        <time>2021-07-19T13:26:02.000Z</time>
      </trkpt>
      <trkpt lat="43.64478" lon="3.32841">
        <ele>141.80000305176</ele>
        <time>2021-07-19T13:26:03.000Z</time>
      </trkpt>
      <trkpt lat="43.64474" lon="3.32838">
        <ele>141.19999694824</ele>
        <time>2021-07-19T13:26:04.000Z</time>
      </trkpt>
      <trkpt lat="43.64462" lon="3.32832">
        <ele>141.19999694824</ele>
        <time>2021-07-19T13:26:07.000Z</time>
      </trkpt>
      <trkpt lat="43.6446" lon="3.32829">
        <ele>141.19999694824</ele>
        <time>2021-07-19T13:26:08.000Z</time>
      </trkpt>
      <trkpt lat="43.64457" lon="3.32821">
        <ele>141.19999694824</ele>
        <time>2021-07-19T13:26:10.000Z</time>
      </trkpt>
      <trkpt lat="43.64454" lon="3.32808">
        <ele>141.19999694824</ele>
        <time>2021-07-19T13:26:14.000Z</time>
      </trkpt>
      <trkpt lat="43.64452" lon="3.32805">
        <ele>141.19999694824</ele>
        <time>2021-07-19T13:26:15.000Z</time>
      </trkpt>
      <trkpt lat="43.64451" lon="3.32802">
        <ele>141.19999694824</ele>
        <time>2021-07-19T13:26:16.000Z</time>
      </trkpt>
      <trkpt lat="43.64449" lon="3.32796">
        <ele>141.19999694824</ele>
        <time>2021-07-19T13:26:18.000Z</time>
      </trkpt>
      <trkpt lat="43.64438" lon="3.3279">
        <ele>141.19999694824</ele>
        <time>2021-07-19T13:26:22.000Z</time>
      </trkpt>
      <trkpt lat="43.6443" lon="3.32791">
        <ele>141.19999694824</ele>
        <time>2021-07-19T13:26:25.000Z</time>
      </trkpt>
      <trkpt lat="43.6442" lon="3.32792">
        <ele>141.19999694824</ele>
        <time>2021-07-19T13:26:28.000Z</time>
      </trkpt>
      <trkpt lat="43.64414" lon="3.32793">
        <ele>141.19999694824</ele>
        <time>2021-07-19T13:26:30.000Z</time>
      </trkpt>
      <trkpt lat="43.64405" lon="3.32792">
        <ele>141.60000610352</ele>
        <time>2021-07-19T13:26:33.000Z</time>
      </trkpt>
      <trkpt lat="43.64402" lon="3.32791">
        <ele>142</ele>
        <time>2021-07-19T13:26:34.000Z</time>
      </trkpt>
      <trkpt lat="43.64399" lon="3.32789">
        <ele>142.39999389648</ele>
        <time>2021-07-19T13:26:35.000Z</time>
      </trkpt>
      <trkpt lat="43.64396" lon="3.32787">
        <ele>142.80000305176</ele>
        <time>2021-07-19T13:26:36.000Z</time>
      </trkpt>
      <trkpt lat="43.64393" lon="3.32785">
        <ele>143.19999694824</ele>
        <time>2021-07-19T13:26:37.000Z</time>
      </trkpt>
      <trkpt lat="43.6438" lon="3.32774">
        <ele>143.19999694824</ele>
        <time>2021-07-19T13:26:41.000Z</time>
      </trkpt>
      <trkpt lat="43.64361" lon="3.32771">
        <ele>143.19999694824</ele>
        <time>2021-07-19T13:26:46.000Z</time>
      </trkpt>
      <trkpt lat="43.64357" lon="3.3277">
        <ele>143.19999694824</ele>
        <time>2021-07-19T13:26:47.000Z</time>
      </trkpt>
      <trkpt lat="43.64341" lon="3.32763">
        <ele>143.19999694824</ele>
        <time>2021-07-19T13:26:51.000Z</time>
      </trkpt>
      <trkpt lat="43.64336" lon="3.32763">
        <ele>143.19999694824</ele>
        <time>2021-07-19T13:26:52.000Z</time>
      </trkpt>
      <trkpt lat="43.64329" lon="3.32768">
        <ele>143.19999694824</ele>
        <time>2021-07-19T13:26:54.000Z</time>
      </trkpt>
      <trkpt lat="43.64323" lon="3.32776">
        <ele>143.19999694824</ele>
        <time>2021-07-19T13:26:56.000Z</time>
      </trkpt>
      <trkpt lat="43.64317" lon="3.32781">
        <ele>143.19999694824</ele>
        <time>2021-07-19T13:26:58.000Z</time>
      </trkpt>
      <trkpt lat="43.6431" lon="3.32779">
        <ele>143.19999694824</ele>
        <time>2021-07-19T13:27:00.000Z</time>
      </trkpt>
      <trkpt lat="43.64307" lon="3.32776">
        <ele>143.19999694824</ele>
        <time>2021-07-19T13:27:01.000Z</time>
      </trkpt>
      <trkpt lat="43.64301" lon="3.32762">
        <ele>143.19999694824</ele>
        <time>2021-07-19T13:27:04.000Z</time>
      </trkpt>
      <trkpt lat="43.64295" lon="3.32756">
        <ele>143.19999694824</ele>
        <time>2021-07-19T13:27:07.000Z</time>
      </trkpt>
      <trkpt lat="43.64283" lon="3.32757">
        <ele>143.19999694824</ele>
        <time>2021-07-19T13:27:11.000Z</time>
      </trkpt>
      <trkpt lat="43.64281" lon="3.32755">
        <ele>143.19999694824</ele>
        <time>2021-07-19T13:27:12.000Z</time>
      </trkpt>
      <trkpt lat="43.64279" lon="3.32751">
        <ele>142.80000305176</ele>
        <time>2021-07-19T13:27:13.000Z</time>
      </trkpt>
      <trkpt lat="43.64276" lon="3.32747">
        <ele>142.39999389648</ele>
        <time>2021-07-19T13:27:14.000Z</time>
      </trkpt>
      <trkpt lat="43.64273" lon="3.32745">
        <ele>142</ele>
        <time>2021-07-19T13:27:15.000Z</time>
      </trkpt>
      <trkpt lat="43.6427" lon="3.32744">
        <ele>141.60000610352</ele>
        <time>2021-07-19T13:27:16.000Z</time>
      </trkpt>
      <trkpt lat="43.64267" lon="3.32744">
        <ele>141.19999694824</ele>
        <time>2021-07-19T13:27:17.000Z</time>
      </trkpt>
      <trkpt lat="43.64261" lon="3.32741">
        <ele>141.19999694824</ele>
        <time>2021-07-19T13:27:19.000Z</time>
      </trkpt>
      <trkpt lat="43.64249" lon="3.3273">
        <ele>141.19999694824</ele>
        <time>2021-07-19T13:27:24.000Z</time>
      </trkpt>
      <trkpt lat="43.64236" lon="3.32726">
        <ele>141.19999694824</ele>
        <time>2021-07-19T13:27:29.000Z</time>
      </trkpt>
      <trkpt lat="43.64226" lon="3.32721">
        <ele>141.19999694824</ele>
        <time>2021-07-19T13:27:33.000Z</time>
      </trkpt>
      <trkpt lat="43.64219" lon="3.32722">
        <ele>141.19999694824</ele>
        <time>2021-07-19T13:27:35.000Z</time>
      </trkpt>
      <trkpt lat="43.64217" lon="3.32723">
        <ele>141.19999694824</ele>
        <time>2021-07-19T13:27:36.000Z</time>
      </trkpt>
      <trkpt lat="43.64213" lon="3.32724">
        <ele>141.60000610352</ele>
        <time>2021-07-19T13:27:39.000Z</time>
      </trkpt>
      <trkpt lat="43.64211" lon="3.32724">
        <ele>142</ele>
        <time>2021-07-19T13:27:40.000Z</time>
      </trkpt>
      <trkpt lat="43.64211" lon="3.32725">
        <ele>142.39999389648</ele>
        <time>2021-07-19T13:27:41.000Z</time>
      </trkpt>
      <trkpt lat="43.64209" lon="3.32723">
        <ele>143.19999694824</ele>
        <time>2021-07-19T13:27:58.000Z</time>
      </trkpt>
      <trkpt lat="43.64208" lon="3.3272">
        <ele>143.19999694824</ele>
        <time>2021-07-19T13:27:59.000Z</time>
      </trkpt>
      <trkpt lat="43.64202" lon="3.32709">
        <ele>143.19999694824</ele>
        <time>2021-07-19T13:28:02.000Z</time>
      </trkpt>
      <trkpt lat="43.64197" lon="3.32703">
        <ele>143.19999694824</ele>
        <time>2021-07-19T13:28:04.000Z</time>
      </trkpt>
      <trkpt lat="43.64191" lon="3.32694">
        <ele>142.80000305176</ele>
        <time>2021-07-19T13:28:06.000Z</time>
      </trkpt>
      <trkpt lat="43.64189" lon="3.3269">
        <ele>142.39999389648</ele>
        <time>2021-07-19T13:28:07.000Z</time>
      </trkpt>
      <trkpt lat="43.64186" lon="3.32688">
        <ele>142</ele>
        <time>2021-07-19T13:28:08.000Z</time>
      </trkpt>
      <trkpt lat="43.64184" lon="3.32687">
        <ele>141.19999694824</ele>
        <time>2021-07-19T13:28:09.000Z</time>
      </trkpt>
      <trkpt lat="43.64179" lon="3.32686">
        <ele>141.19999694824</ele>
        <time>2021-07-19T13:28:11.000Z</time>
      </trkpt>
      <trkpt lat="43.64176" lon="3.32684">
        <ele>141.19999694824</ele>
        <time>2021-07-19T13:28:12.000Z</time>
      </trkpt>
      <trkpt lat="43.64172" lon="3.32677">
        <ele>141.19999694824</ele>
        <time>2021-07-19T13:28:14.000Z</time>
      </trkpt>
      <trkpt lat="43.64163" lon="3.32666">
        <ele>141.19999694824</ele>
        <time>2021-07-19T13:28:17.000Z</time>
      </trkpt>
      <trkpt lat="43.64157" lon="3.32661">
        <ele>141.19999694824</ele>
        <time>2021-07-19T13:28:19.000Z</time>
      </trkpt>
      <trkpt lat="43.64142" lon="3.32642">
        <ele>141.19999694824</ele>
        <time>2021-07-19T13:28:25.000Z</time>
      </trkpt>
      <trkpt lat="43.64129" lon="3.32613">
        <ele>141.19999694824</ele>
        <time>2021-07-19T13:28:31.000Z</time>
      </trkpt>
      <trkpt lat="43.64126" lon="3.32608">
        <ele>141.19999694824</ele>
        <time>2021-07-19T13:28:32.000Z</time>
      </trkpt>
      <trkpt lat="43.64118" lon="3.32592">
        <ele>141.19999694824</ele>
        <time>2021-07-19T13:28:35.000Z</time>
      </trkpt>
      <trkpt lat="43.64115" lon="3.32588">
        <ele>141.19999694824</ele>
        <time>2021-07-19T13:28:36.000Z</time>
      </trkpt>
      <trkpt lat="43.64095" lon="3.32557">
        <ele>141.19999694824</ele>
        <time>2021-07-19T13:28:43.000Z</time>
      </trkpt>
      <trkpt lat="43.64089" lon="3.32548">
        <ele>141.19999694824</ele>
        <time>2021-07-19T13:28:45.000Z</time>
      </trkpt>
      <trkpt lat="43.64084" lon="3.32531">
        <ele>141.19999694824</ele>
        <time>2021-07-19T13:28:48.000Z</time>
      </trkpt>
      <trkpt lat="43.64075" lon="3.3251">
        <ele>141.19999694824</ele>
        <time>2021-07-19T13:28:52.000Z</time>
      </trkpt>
      <trkpt lat="43.64065" lon="3.32491">
        <ele>141.19999694824</ele>
        <time>2021-07-19T13:28:56.000Z</time>
      </trkpt>
      <trkpt lat="43.64054" lon="3.32474">
        <ele>141.19999694824</ele>
        <time>2021-07-19T13:29:00.000Z</time>
      </trkpt>
      <trkpt lat="43.64051" lon="3.32471">
        <ele>141.19999694824</ele>
        <time>2021-07-19T13:29:01.000Z</time>
      </trkpt>
      <trkpt lat="43.64043" lon="3.32465">
        <ele>141.19999694824</ele>
        <time>2021-07-19T13:29:03.000Z</time>
      </trkpt>
      <trkpt lat="43.64031" lon="3.32461">
        <ele>141.19999694824</ele>
        <time>2021-07-19T13:29:06.000Z</time>
      </trkpt>
      <trkpt lat="43.64007" lon="3.32461">
        <ele>141.19999694824</ele>
        <time>2021-07-19T13:29:12.000Z</time>
      </trkpt>
      <trkpt lat="43.64003" lon="3.3246">
        <ele>141.60000610352</ele>
        <time>2021-07-19T13:29:13.000Z</time>
      </trkpt>
      <trkpt lat="43.63999" lon="3.32459">
        <ele>142</ele>
        <time>2021-07-19T13:29:14.000Z</time>
      </trkpt>
      <trkpt lat="43.63995" lon="3.32459">
        <ele>142.39999389648</ele>
        <time>2021-07-19T13:29:15.000Z</time>
      </trkpt>
      <trkpt lat="43.63992" lon="3.32459">
        <ele>142.80000305176</ele>
        <time>2021-07-19T13:29:16.000Z</time>
      </trkpt>
      <trkpt lat="43.63988" lon="3.3246">
        <ele>143.19999694824</ele>
        <time>2021-07-19T13:29:17.000Z</time>
      </trkpt>
      <trkpt lat="43.63977" lon="3.3246">
        <ele>143.19999694824</ele>
        <time>2021-07-19T13:29:21.000Z</time>
      </trkpt>
      <trkpt lat="43.63975" lon="3.32458">
        <ele>143.19999694824</ele>
        <time>2021-07-19T13:29:22.000Z</time>
      </trkpt>
      <trkpt lat="43.63975" lon="3.32447">
        <ele>143.19999694824</ele>
        <time>2021-07-19T13:29:25.000Z</time>
      </trkpt>
      <trkpt lat="43.63977" lon="3.32444">
        <ele>143.19999694824</ele>
        <time>2021-07-19T13:29:26.000Z</time>
      </trkpt>
      <trkpt lat="43.63983" lon="3.32443">
        <ele>143.19999694824</ele>
        <time>2021-07-19T13:29:28.000Z</time>
      </trkpt>
      <trkpt lat="43.63996" lon="3.3244">
        <ele>143.19999694824</ele>
        <time>2021-07-19T13:29:32.000Z</time>
      </trkpt>
      <trkpt lat="43.63997" lon="3.3244">
        <ele>143.19999694824</ele>
        <time>2021-07-19T13:29:33.000Z</time>
      </trkpt>
      <trkpt lat="43.63998" lon="3.32439">
        <ele>143.19999694824</ele>
        <time>2021-07-19T13:29:37.000Z</time>
      </trkpt>
      <trkpt lat="43.64001" lon="3.32438">
        <ele>143.19999694824</ele>
        <time>2021-07-19T13:29:38.000Z</time>
      </trkpt>
      <trkpt lat="43.64011" lon="3.32435">
        <ele>143.19999694824</ele>
        <time>2021-07-19T13:29:41.000Z</time>
      </trkpt>
      <trkpt lat="43.64014" lon="3.32433">
        <ele>143.19999694824</ele>
        <time>2021-07-19T13:29:42.000Z</time>
      </trkpt>
      <trkpt lat="43.64033" lon="3.32424">
        <ele>143.19999694824</ele>
        <time>2021-07-19T13:29:47.000Z</time>
      </trkpt>
      <trkpt lat="43.64058" lon="3.32423">
        <ele>143.19999694824</ele>
        <time>2021-07-19T13:29:53.000Z</time>
      </trkpt>
      <trkpt lat="43.64062" lon="3.32424">
        <ele>143.19999694824</ele>
        <time>2021-07-19T13:29:54.000Z</time>
      </trkpt>
      <trkpt lat="43.6408" lon="3.32431">
        <ele>143.19999694824</ele>
        <time>2021-07-19T13:29:58.000Z</time>
      </trkpt>
      <trkpt lat="43.641" lon="3.32436">
        <ele>143.19999694824</ele>
        <time>2021-07-19T13:30:02.000Z</time>
      </trkpt>
      <trkpt lat="43.64104" lon="3.32437">
        <ele>142.80000305176</ele>
        <time>2021-07-19T13:30:03.000Z</time>
      </trkpt>
      <trkpt lat="43.64109" lon="3.32438">
        <ele>142.39999389648</ele>
        <time>2021-07-19T13:30:04.000Z</time>
      </trkpt>
      <trkpt lat="43.64113" lon="3.32439">
        <ele>142</ele>
        <time>2021-07-19T13:30:05.000Z</time>
      </trkpt>
      <trkpt lat="43.64117" lon="3.32439">
        <ele>141.60000610352</ele>
        <time>2021-07-19T13:30:06.000Z</time>
      </trkpt>
      <trkpt lat="43.64121" lon="3.32439">
        <ele>141.19999694824</ele>
        <time>2021-07-19T13:30:07.000Z</time>
      </trkpt>
      <trkpt lat="43.64134" lon="3.32442">
        <ele>141.19999694824</ele>
        <time>2021-07-19T13:30:10.000Z</time>
      </trkpt>
      <trkpt lat="43.64143" lon="3.32446">
        <ele>141.19999694824</ele>
        <time>2021-07-19T13:30:12.000Z</time>
      </trkpt>
      <trkpt lat="43.6416" lon="3.32456">
        <ele>141.19999694824</ele>
        <time>2021-07-19T13:30:16.000Z</time>
      </trkpt>
      <trkpt lat="43.64194" lon="3.32477">
        <ele>141.19999694824</ele>
        <time>2021-07-19T13:30:24.000Z</time>
      </trkpt>
      <trkpt lat="43.64204" lon="3.32482">
        <ele>141.19999694824</ele>
        <time>2021-07-19T13:30:26.000Z</time>
      </trkpt>
      <trkpt lat="43.64223" lon="3.3249">
        <ele>141.19999694824</ele>
        <time>2021-07-19T13:30:30.000Z</time>
      </trkpt>
      <trkpt lat="43.64251" lon="3.32505">
        <ele>141.19999694824</ele>
        <time>2021-07-19T13:30:36.000Z</time>
      </trkpt>
      <trkpt lat="43.64266" lon="3.32513">
        <ele>141.19999694824</ele>
        <time>2021-07-19T13:30:39.000Z</time>
      </trkpt>
      <trkpt lat="43.64281" lon="3.3252">
        <ele>141.19999694824</ele>
        <time>2021-07-19T13:30:43.000Z</time>
      </trkpt>
      <trkpt lat="43.64317" lon="3.32535">
        <ele>141.19999694824</ele>
        <time>2021-07-19T13:30:50.000Z</time>
      </trkpt>
      <trkpt lat="43.64345" lon="3.32538">
        <ele>141.19999694824</ele>
        <time>2021-07-19T13:30:55.000Z</time>
      </trkpt>
      <trkpt lat="43.64381" lon="3.32535">
        <ele>141.19999694824</ele>
        <time>2021-07-19T13:31:02.000Z</time>
      </trkpt>
      <trkpt lat="43.64422" lon="3.32527">
        <ele>141.19999694824</ele>
        <time>2021-07-19T13:31:10.000Z</time>
      </trkpt>
      <trkpt lat="43.64453" lon="3.32517">
        <ele>141.19999694824</ele>
        <time>2021-07-19T13:31:17.000Z</time>
      </trkpt>
      <trkpt lat="43.64484" lon="3.32506">
        <ele>141.19999694824</ele>
        <time>2021-07-19T13:31:24.000Z</time>
      </trkpt>
      <trkpt lat="43.64493" lon="3.32503">
        <ele>141.19999694824</ele>
        <time>2021-07-19T13:31:26.000Z</time>
      </trkpt>
      <trkpt lat="43.64505" lon="3.32497">
        <ele>141.19999694824</ele>
        <time>2021-07-19T13:31:29.000Z</time>
      </trkpt>
      <trkpt lat="43.64509" lon="3.32494">
        <ele>141.19999694824</ele>
        <time>2021-07-19T13:31:30.000Z</time>
      </trkpt>
      <trkpt lat="43.64517" lon="3.32488">
        <ele>141.19999694824</ele>
        <time>2021-07-19T13:31:32.000Z</time>
      </trkpt>
      <trkpt lat="43.64528" lon="3.3248">
        <ele>141.19999694824</ele>
        <time>2021-07-19T13:31:35.000Z</time>
      </trkpt>
      <trkpt lat="43.64533" lon="3.32478">
        <ele>141.19999694824</ele>
        <time>2021-07-19T13:31:36.000Z</time>
      </trkpt>
      <trkpt lat="43.64549" lon="3.32481">
        <ele>141.19999694824</ele>
        <time>2021-07-19T13:31:40.000Z</time>
      </trkpt>
      <trkpt lat="43.64581" lon="3.3249">
        <ele>141.19999694824</ele>
        <time>2021-07-19T13:31:47.000Z</time>
      </trkpt>
      <trkpt lat="43.64614" lon="3.32497">
        <ele>141.19999694824</ele>
        <time>2021-07-19T13:31:54.000Z</time>
      </trkpt>
      <trkpt lat="43.64652" lon="3.32503">
        <ele>141.19999694824</ele>
        <time>2021-07-19T13:32:02.000Z</time>
      </trkpt>
      <trkpt lat="43.64685" lon="3.32504">
        <ele>141.19999694824</ele>
        <time>2021-07-19T13:32:10.000Z</time>
      </trkpt>
      <trkpt lat="43.64699" lon="3.32515">
        <ele>141.19999694824</ele>
        <time>2021-07-19T13:32:15.000Z</time>
      </trkpt>
      <trkpt lat="43.64706" lon="3.3252">
        <ele>141.19999694824</ele>
        <time>2021-07-19T13:32:17.000Z</time>
      </trkpt>
      <trkpt lat="43.64715" lon="3.3252">
        <ele>141.19999694824</ele>
        <time>2021-07-19T13:32:19.000Z</time>
      </trkpt>
      <trkpt lat="43.64725" lon="3.32519">
        <ele>141.19999694824</ele>
        <time>2021-07-19T13:32:21.000Z</time>
      </trkpt>
      <trkpt lat="43.64734" lon="3.32516">
        <ele>141.19999694824</ele>
        <time>2021-07-19T13:32:23.000Z</time>
      </trkpt>
      <trkpt lat="43.64737" lon="3.32513">
        <ele>141.19999694824</ele>
        <time>2021-07-19T13:32:24.000Z</time>
      </trkpt>
      <trkpt lat="43.64758" lon="3.32507">
        <ele>141.19999694824</ele>
        <time>2021-07-19T13:32:30.000Z</time>
      </trkpt>
      <trkpt lat="43.64776" lon="3.32511">
        <ele>141.19999694824</ele>
        <time>2021-07-19T13:32:35.000Z</time>
      </trkpt>
      <trkpt lat="43.64804" lon="3.32504">
        <ele>141.19999694824</ele>
        <time>2021-07-19T13:32:42.000Z</time>
      </trkpt>
      <trkpt lat="43.6482" lon="3.32496">
        <ele>141.19999694824</ele>
        <time>2021-07-19T13:32:46.000Z</time>
      </trkpt>
      <trkpt lat="43.64828" lon="3.32493">
        <ele>141.19999694824</ele>
        <time>2021-07-19T13:32:48.000Z</time>
      </trkpt>
      <trkpt lat="43.64852" lon="3.3248">
        <ele>141.19999694824</ele>
        <time>2021-07-19T13:32:54.000Z</time>
      </trkpt>
      <trkpt lat="43.64869" lon="3.32471">
        <ele>141.19999694824</ele>
        <time>2021-07-19T13:32:59.000Z</time>
      </trkpt>
      <trkpt lat="43.64881" lon="3.32471">
        <ele>141.19999694824</ele>
        <time>2021-07-19T13:33:04.000Z</time>
      </trkpt>
      <trkpt lat="43.64893" lon="3.32485">
        <ele>141.19999694824</ele>
        <time>2021-07-19T13:33:09.000Z</time>
      </trkpt>
      <trkpt lat="43.64896" lon="3.32489">
        <ele>141.19999694824</ele>
        <time>2021-07-19T13:33:10.000Z</time>
      </trkpt>
      <trkpt lat="43.64915" lon="3.32513">
        <ele>141.19999694824</ele>
        <time>2021-07-19T13:33:17.000Z</time>
      </trkpt>
      <trkpt lat="43.64931" lon="3.32523">
        <ele>141.19999694824</ele>
        <time>2021-07-19T13:33:22.000Z</time>
      </trkpt>
      <trkpt lat="43.64939" lon="3.32528">
        <ele>141.19999694824</ele>
        <time>2021-07-19T13:33:24.000Z</time>
      </trkpt>
      <trkpt lat="43.6495" lon="3.32537">
        <ele>141.19999694824</ele>
        <time>2021-07-19T13:33:27.000Z</time>
      </trkpt>
      <trkpt lat="43.64954" lon="3.3254">
        <ele>141.19999694824</ele>
        <time>2021-07-19T13:33:28.000Z</time>
      </trkpt>
      <trkpt lat="43.6497" lon="3.32557">
        <ele>141.19999694824</ele>
        <time>2021-07-19T13:33:34.000Z</time>
      </trkpt>
      <trkpt lat="43.6499" lon="3.32568">
        <ele>141.19999694824</ele>
        <time>2021-07-19T13:33:40.000Z</time>
      </trkpt>
      <trkpt lat="43.65004" lon="3.32571">
        <ele>141.19999694824</ele>
        <time>2021-07-19T13:33:45.000Z</time>
      </trkpt>
      <trkpt lat="43.65021" lon="3.32568">
        <ele>141.19999694824</ele>
        <time>2021-07-19T13:33:51.000Z</time>
      </trkpt>
      <trkpt lat="43.65031" lon="3.32569">
        <ele>141.60000610352</ele>
        <time>2021-07-19T13:33:55.000Z</time>
      </trkpt>
      <trkpt lat="43.65034" lon="3.32568">
        <ele>142</ele>
        <time>2021-07-19T13:33:56.000Z</time>
      </trkpt>
      <trkpt lat="43.65037" lon="3.32567">
        <ele>142.80000305176</ele>
        <time>2021-07-19T13:33:57.000Z</time>
      </trkpt>
      <trkpt lat="43.65039" lon="3.32566">
        <ele>143.19999694824</ele>
        <time>2021-07-19T13:33:58.000Z</time>
      </trkpt>
      <trkpt lat="43.65053" lon="3.32555">
        <ele>143.19999694824</ele>
        <time>2021-07-19T13:34:04.000Z</time>
      </trkpt>
      <trkpt lat="43.65065" lon="3.32552">
        <ele>143.19999694824</ele>
        <time>2021-07-19T13:34:09.000Z</time>
      </trkpt>
      <trkpt lat="43.6508" lon="3.32555">
        <ele>143.19999694824</ele>
        <time>2021-07-19T13:34:15.000Z</time>
      </trkpt>
      <trkpt lat="43.65095" lon="3.32552">
        <ele>143.19999694824</ele>
        <time>2021-07-19T13:34:19.000Z</time>
      </trkpt>
      <trkpt lat="43.65115" lon="3.32544">
        <ele>143.19999694824</ele>
        <time>2021-07-19T13:34:23.000Z</time>
      </trkpt>
      <trkpt lat="43.65132" lon="3.32539">
        <ele>143.19999694824</ele>
        <time>2021-07-19T13:34:26.000Z</time>
      </trkpt>
      <trkpt lat="43.65137" lon="3.3254">
        <ele>143.19999694824</ele>
        <time>2021-07-19T13:34:27.000Z</time>
      </trkpt>
      <trkpt lat="43.65147" lon="3.32551">
        <ele>142.80000305176</ele>
        <time>2021-07-19T13:34:30.000Z</time>
      </trkpt>
      <trkpt lat="43.6515" lon="3.32556">
        <ele>142.39999389648</ele>
        <time>2021-07-19T13:34:31.000Z</time>
      </trkpt>
      <trkpt lat="43.65151" lon="3.32562">
        <ele>142</ele>
        <time>2021-07-19T13:34:32.000Z</time>
      </trkpt>
      <trkpt lat="43.65154" lon="3.32566">
        <ele>141.60000610352</ele>
        <time>2021-07-19T13:34:33.000Z</time>
      </trkpt>
      <trkpt lat="43.65157" lon="3.32569">
        <ele>141.19999694824</ele>
        <time>2021-07-19T13:34:34.000Z</time>
      </trkpt>
      <trkpt lat="43.65163" lon="3.32567">
        <ele>141.19999694824</ele>
        <time>2021-07-19T13:34:37.000Z</time>
      </trkpt>
      <trkpt lat="43.65167" lon="3.3256">
        <ele>141.19999694824</ele>
        <time>2021-07-19T13:34:39.000Z</time>
      </trkpt>
      <trkpt lat="43.65174" lon="3.32548">
        <ele>141.19999694824</ele>
        <time>2021-07-19T13:34:42.000Z</time>
      </trkpt>
      <trkpt lat="43.6518" lon="3.32535">
        <ele>141.19999694824</ele>
        <time>2021-07-19T13:34:46.000Z</time>
      </trkpt>
      <trkpt lat="43.6519" lon="3.32539">
        <ele>141.19999694824</ele>
        <time>2021-07-19T13:34:50.000Z</time>
      </trkpt>
      <trkpt lat="43.65205" lon="3.32553">
        <ele>141.19999694824</ele>
        <time>2021-07-19T13:34:56.000Z</time>
      </trkpt>
      <trkpt lat="43.65213" lon="3.3256">
        <ele>141.19999694824</ele>
        <time>2021-07-19T13:34:58.000Z</time>
      </trkpt>
      <trkpt lat="43.65218" lon="3.3257">
        <ele>141.19999694824</ele>
        <time>2021-07-19T13:35:00.000Z</time>
      </trkpt>
      <trkpt lat="43.65227" lon="3.32589">
        <ele>141.19999694824</ele>
        <time>2021-07-19T13:35:04.000Z</time>
      </trkpt>
      <trkpt lat="43.65229" lon="3.32594">
        <ele>141.19999694824</ele>
        <time>2021-07-19T13:35:05.000Z</time>
      </trkpt>
      <trkpt lat="43.65246" lon="3.32626">
        <ele>141.19999694824</ele>
        <time>2021-07-19T13:35:12.000Z</time>
      </trkpt>
      <trkpt lat="43.65259" lon="3.32657">
        <ele>141.19999694824</ele>
        <time>2021-07-19T13:35:19.000Z</time>
      </trkpt>
      <trkpt lat="43.6527" lon="3.3268">
        <ele>141.19999694824</ele>
        <time>2021-07-19T13:35:25.000Z</time>
      </trkpt>
      <trkpt lat="43.65286" lon="3.32707">
        <ele>141.19999694824</ele>
        <time>2021-07-19T13:35:31.000Z</time>
      </trkpt>
      <trkpt lat="43.65299" lon="3.32736">
        <ele>141.19999694824</ele>
        <time>2021-07-19T13:35:37.000Z</time>
      </trkpt>
      <trkpt lat="43.6531" lon="3.32757">
        <ele>141.19999694824</ele>
        <time>2021-07-19T13:35:42.000Z</time>
      </trkpt>
      <trkpt lat="43.65319" lon="3.32767">
        <ele>141.19999694824</ele>
        <time>2021-07-19T13:35:45.000Z</time>
      </trkpt>
      <trkpt lat="43.65327" lon="3.3277">
        <ele>141.19999694824</ele>
        <time>2021-07-19T13:35:47.000Z</time>
      </trkpt>
      <trkpt lat="43.65338" lon="3.32767">
        <ele>141.19999694824</ele>
        <time>2021-07-19T13:35:50.000Z</time>
      </trkpt>
      <trkpt lat="43.6534" lon="3.32769">
        <ele>141.19999694824</ele>
        <time>2021-07-19T13:35:51.000Z</time>
      </trkpt>
      <trkpt lat="43.65342" lon="3.32783">
        <ele>141.19999694824</ele>
        <time>2021-07-19T13:35:55.000Z</time>
      </trkpt>
      <trkpt lat="43.65343" lon="3.32792">
        <ele>141.19999694824</ele>
        <time>2021-07-19T13:35:57.000Z</time>
      </trkpt>
      <trkpt lat="43.65347" lon="3.32813">
        <ele>141.19999694824</ele>
        <time>2021-07-19T13:36:01.000Z</time>
      </trkpt>
      <trkpt lat="43.65354" lon="3.32854">
        <ele>141.19999694824</ele>
        <time>2021-07-19T13:36:09.000Z</time>
      </trkpt>
      <trkpt lat="43.65366" lon="3.32884">
        <ele>141.19999694824</ele>
        <time>2021-07-19T13:36:16.000Z</time>
      </trkpt>
      <trkpt lat="43.65375" lon="3.329">
        <ele>141.19999694824</ele>
        <time>2021-07-19T13:36:21.000Z</time>
      </trkpt>
      <trkpt lat="43.65375" lon="3.32904">
        <ele>141.19999694824</ele>
        <time>2021-07-19T13:36:22.000Z</time>
      </trkpt>
      <trkpt lat="43.65372" lon="3.32913">
        <ele>141.19999694824</ele>
        <time>2021-07-19T13:36:25.000Z</time>
      </trkpt>
      <trkpt lat="43.6537" lon="3.32916">
        <ele>141.19999694824</ele>
        <time>2021-07-19T13:36:26.000Z</time>
      </trkpt>
      <trkpt lat="43.65367" lon="3.32922">
        <ele>141.19999694824</ele>
        <time>2021-07-19T13:36:30.000Z</time>
      </trkpt>
      <trkpt lat="43.65368" lon="3.3292">
        <ele>141.19999694824</ele>
        <time>2021-07-19T13:39:42.000Z</time>
      </trkpt>
      <trkpt lat="43.65368" lon="3.32921">
        <ele>141.19999694824</ele>
        <time>2021-07-19T13:39:43.000Z</time>
      </trkpt>
      <trkpt lat="43.65369" lon="3.32917">
        <ele>141.19999694824</ele>
        <time>2021-07-19T13:39:47.000Z</time>
      </trkpt>
      <trkpt lat="43.6537" lon="3.32914">
        <ele>141.19999694824</ele>
        <time>2021-07-19T13:39:48.000Z</time>
      </trkpt>
      <trkpt lat="43.6538" lon="3.32898">
        <ele>141.19999694824</ele>
        <time>2021-07-19T13:39:53.000Z</time>
      </trkpt>
      <trkpt lat="43.65382" lon="3.32898">
        <ele>141.19999694824</ele>
        <time>2021-07-19T13:39:54.000Z</time>
      </trkpt>
      <trkpt lat="43.65389" lon="3.32902">
        <ele>141.19999694824</ele>
        <time>2021-07-19T13:39:56.000Z</time>
      </trkpt>
      <trkpt lat="43.65407" lon="3.32916">
        <ele>141.19999694824</ele>
        <time>2021-07-19T13:40:02.000Z</time>
      </trkpt>
      <trkpt lat="43.65412" lon="3.32923">
        <ele>141.19999694824</ele>
        <time>2021-07-19T13:40:04.000Z</time>
      </trkpt>
      <trkpt lat="43.65419" lon="3.32933">
        <ele>141.19999694824</ele>
        <time>2021-07-19T13:40:07.000Z</time>
      </trkpt>
      <trkpt lat="43.65428" lon="3.3294">
        <ele>141.19999694824</ele>
        <time>2021-07-19T13:40:10.000Z</time>
      </trkpt>
      <trkpt lat="43.65434" lon="3.32941">
        <ele>141.19999694824</ele>
        <time>2021-07-19T13:40:12.000Z</time>
      </trkpt>
      <trkpt lat="43.65444" lon="3.32943">
        <ele>141.60000610352</ele>
        <time>2021-07-19T13:40:16.000Z</time>
      </trkpt>
      <trkpt lat="43.65448" lon="3.32943">
        <ele>142</ele>
        <time>2021-07-19T13:40:17.000Z</time>
      </trkpt>
      <trkpt lat="43.6545" lon="3.32943">
        <ele>142.39999389648</ele>
        <time>2021-07-19T13:40:18.000Z</time>
      </trkpt>
      <trkpt lat="43.65453" lon="3.32943">
        <ele>142.80000305176</ele>
        <time>2021-07-19T13:40:19.000Z</time>
      </trkpt>
      <trkpt lat="43.65456" lon="3.32944">
        <ele>143.19999694824</ele>
        <time>2021-07-19T13:40:20.000Z</time>
      </trkpt>
      <trkpt lat="43.6546" lon="3.32945">
        <ele>143.19999694824</ele>
        <time>2021-07-19T13:40:22.000Z</time>
      </trkpt>
      <trkpt lat="43.65473" lon="3.32956">
        <ele>143.19999694824</ele>
        <time>2021-07-19T13:40:28.000Z</time>
      </trkpt>
      <trkpt lat="43.65475" lon="3.32957">
        <ele>143.60000610352</ele>
        <time>2021-07-19T13:40:29.000Z</time>
      </trkpt>
      <trkpt lat="43.65477" lon="3.3296">
        <ele>144.19999694824</ele>
        <time>2021-07-19T13:40:30.000Z</time>
      </trkpt>
      <trkpt lat="43.65478" lon="3.32962">
        <ele>144.60000610352</ele>
        <time>2021-07-19T13:40:31.000Z</time>
      </trkpt>
      <trkpt lat="43.65478" lon="3.32964">
        <ele>145</ele>
        <time>2021-07-19T13:40:32.000Z</time>
      </trkpt>
      <trkpt lat="43.65478" lon="3.32968">
        <ele>145.39999389648</ele>
        <time>2021-07-19T13:40:33.000Z</time>
      </trkpt>
      <trkpt lat="43.65482" lon="3.32985">
        <ele>145.39999389648</ele>
        <time>2021-07-19T13:40:37.000Z</time>
      </trkpt>
      <trkpt lat="43.65485" lon="3.32998">
        <ele>145</ele>
        <time>2021-07-19T13:40:42.000Z</time>
      </trkpt>
      <trkpt lat="43.65487" lon="3.33">
        <ele>144.60000610352</ele>
        <time>2021-07-19T13:40:43.000Z</time>
      </trkpt>
      <trkpt lat="43.65488" lon="3.33002">
        <ele>144.19999694824</ele>
        <time>2021-07-19T13:40:44.000Z</time>
      </trkpt>
      <trkpt lat="43.65491" lon="3.33006">
        <ele>143.80000305176</ele>
        <time>2021-07-19T13:40:45.000Z</time>
      </trkpt>
      <trkpt lat="43.65492" lon="3.33008">
        <ele>143.39999389648</ele>
        <time>2021-07-19T13:40:46.000Z</time>
      </trkpt>
      <trkpt lat="43.65505" lon="3.33027">
        <ele>143.39999389648</ele>
        <time>2021-07-19T13:40:52.000Z</time>
      </trkpt>
      <trkpt lat="43.65516" lon="3.33043">
        <ele>143.39999389648</ele>
        <time>2021-07-19T13:40:58.000Z</time>
      </trkpt>
      <trkpt lat="43.6552" lon="3.33056">
        <ele>143.39999389648</ele>
        <time>2021-07-19T13:41:02.000Z</time>
      </trkpt>
      <trkpt lat="43.65521" lon="3.33059">
        <ele>143.39999389648</ele>
        <time>2021-07-19T13:41:03.000Z</time>
      </trkpt>
      <trkpt lat="43.65524" lon="3.3307">
        <ele>143.39999389648</ele>
        <time>2021-07-19T13:41:07.000Z</time>
      </trkpt>
      <trkpt lat="43.65527" lon="3.33079">
        <ele>143.39999389648</ele>
        <time>2021-07-19T13:41:10.000Z</time>
      </trkpt>
      <trkpt lat="43.65531" lon="3.33085">
        <ele>143.39999389648</ele>
        <time>2021-07-19T13:41:12.000Z</time>
      </trkpt>
      <trkpt lat="43.65543" lon="3.33093">
        <ele>143.39999389648</ele>
        <time>2021-07-19T13:41:16.000Z</time>
      </trkpt>
      <trkpt lat="43.65545" lon="3.33093">
        <ele>143.39999389648</ele>
        <time>2021-07-19T13:41:18.000Z</time>
      </trkpt>
      <trkpt lat="43.65551" lon="3.33096">
        <ele>143.39999389648</ele>
        <time>2021-07-19T13:41:38.000Z</time>
      </trkpt>
      <trkpt lat="43.65555" lon="3.33105">
        <ele>143.39999389648</ele>
        <time>2021-07-19T13:41:41.000Z</time>
      </trkpt>
      <trkpt lat="43.65558" lon="3.3311">
        <ele>143.80000305176</ele>
        <time>2021-07-19T13:41:43.000Z</time>
      </trkpt>
      <trkpt lat="43.65559" lon="3.33115">
        <ele>144.19999694824</ele>
        <time>2021-07-19T13:41:44.000Z</time>
      </trkpt>
      <trkpt lat="43.65561" lon="3.33119">
        <ele>144.60000610352</ele>
        <time>2021-07-19T13:41:45.000Z</time>
      </trkpt>
      <trkpt lat="43.65562" lon="3.33121">
        <ele>145.39999389648</ele>
        <time>2021-07-19T13:41:46.000Z</time>
      </trkpt>
      <trkpt lat="43.65569" lon="3.33127">
        <ele>145.39999389648</ele>
        <time>2021-07-19T13:41:49.000Z</time>
      </trkpt>
      <trkpt lat="43.65581" lon="3.33132">
        <ele>145.39999389648</ele>
        <time>2021-07-19T13:41:53.000Z</time>
      </trkpt>
      <trkpt lat="43.65586" lon="3.33142">
        <ele>145.39999389648</ele>
        <time>2021-07-19T13:41:57.000Z</time>
      </trkpt>
      <trkpt lat="43.6559" lon="3.33161">
        <ele>145.39999389648</ele>
        <time>2021-07-19T13:42:01.000Z</time>
      </trkpt>
      <trkpt lat="43.65592" lon="3.33166">
        <ele>145</ele>
        <time>2021-07-19T13:42:02.000Z</time>
      </trkpt>
      <trkpt lat="43.65594" lon="3.3317">
        <ele>144.60000610352</ele>
        <time>2021-07-19T13:42:03.000Z</time>
      </trkpt>
      <trkpt lat="43.65595" lon="3.33175">
        <ele>144</ele>
        <time>2021-07-19T13:42:04.000Z</time>
      </trkpt>
      <trkpt lat="43.65597" lon="3.33179">
        <ele>143.60000610352</ele>
        <time>2021-07-19T13:42:05.000Z</time>
      </trkpt>
      <trkpt lat="43.656" lon="3.33183">
        <ele>143.19999694824</ele>
        <time>2021-07-19T13:42:06.000Z</time>
      </trkpt>
      <trkpt lat="43.65603" lon="3.33184">
        <ele>143.19999694824</ele>
        <time>2021-07-19T13:42:07.000Z</time>
      </trkpt>
      <trkpt lat="43.65607" lon="3.33178">
        <ele>143.19999694824</ele>
        <time>2021-07-19T13:42:10.000Z</time>
      </trkpt>
      <trkpt lat="43.65615" lon="3.33177">
        <ele>143.19999694824</ele>
        <time>2021-07-19T13:42:14.000Z</time>
      </trkpt>
      <trkpt lat="43.65619" lon="3.33187">
        <ele>143.19999694824</ele>
        <time>2021-07-19T13:42:17.000Z</time>
      </trkpt>
      <trkpt lat="43.65621" lon="3.33191">
        <ele>143.19999694824</ele>
        <time>2021-07-19T13:42:18.000Z</time>
      </trkpt>
      <trkpt lat="43.65624" lon="3.33207">
        <ele>143.19999694824</ele>
        <time>2021-07-19T13:42:22.000Z</time>
      </trkpt>
      <trkpt lat="43.65634" lon="3.33226">
        <ele>143.19999694824</ele>
        <time>2021-07-19T13:42:26.000Z</time>
      </trkpt>
      <trkpt lat="43.65638" lon="3.33229">
        <ele>143.19999694824</ele>
        <time>2021-07-19T13:42:27.000Z</time>
      </trkpt>
      <trkpt lat="43.65642" lon="3.33232">
        <ele>142.60000610352</ele>
        <time>2021-07-19T13:42:28.000Z</time>
      </trkpt>
      <trkpt lat="43.65645" lon="3.33236">
        <ele>142.19999694824</ele>
        <time>2021-07-19T13:42:29.000Z</time>
      </trkpt>
      <trkpt lat="43.65647" lon="3.3324">
        <ele>141.80000305176</ele>
        <time>2021-07-19T13:42:30.000Z</time>
      </trkpt>
      <trkpt lat="43.65648" lon="3.33244">
        <ele>141.39999389648</ele>
        <time>2021-07-19T13:42:31.000Z</time>
      </trkpt>
      <trkpt lat="43.6565" lon="3.33246">
        <ele>141</ele>
        <time>2021-07-19T13:42:32.000Z</time>
      </trkpt>
      <trkpt lat="43.6565" lon="3.33247">
        <ele>141</ele>
        <time>2021-07-19T13:42:33.000Z</time>
      </trkpt>
      <trkpt lat="43.65652" lon="3.33253">
        <ele>141</ele>
        <time>2021-07-19T13:42:38.000Z</time>
      </trkpt>
      <trkpt lat="43.65649" lon="3.33262">
        <ele>141</ele>
        <time>2021-07-19T13:42:42.000Z</time>
      </trkpt>
      <trkpt lat="43.65649" lon="3.33275">
        <ele>141</ele>
        <time>2021-07-19T13:42:45.000Z</time>
      </trkpt>
      <trkpt lat="43.65651" lon="3.33278">
        <ele>141</ele>
        <time>2021-07-19T13:42:46.000Z</time>
      </trkpt>
      <trkpt lat="43.65654" lon="3.33284">
        <ele>141.60000610352</ele>
        <time>2021-07-19T13:42:48.000Z</time>
      </trkpt>
      <trkpt lat="43.65655" lon="3.33289">
        <ele>142</ele>
        <time>2021-07-19T13:42:49.000Z</time>
      </trkpt>
      <trkpt lat="43.65656" lon="3.33293">
        <ele>142.39999389648</ele>
        <time>2021-07-19T13:42:50.000Z</time>
      </trkpt>
      <trkpt lat="43.65658" lon="3.33296">
        <ele>142.80000305176</ele>
        <time>2021-07-19T13:42:51.000Z</time>
      </trkpt>
      <trkpt lat="43.6566" lon="3.33298">
        <ele>143.39999389648</ele>
        <time>2021-07-19T13:42:52.000Z</time>
      </trkpt>
      <trkpt lat="43.65665" lon="3.33312">
        <ele>143.39999389648</ele>
        <time>2021-07-19T13:42:57.000Z</time>
      </trkpt>
      <trkpt lat="43.6567" lon="3.33322">
        <ele>143.39999389648</ele>
        <time>2021-07-19T13:43:01.000Z</time>
      </trkpt>
      <trkpt lat="43.6567" lon="3.33322">
        <ele>143.39999389648</ele>
        <time>2021-07-19T13:43:02.000Z</time>
      </trkpt>
      <trkpt lat="43.65672" lon="3.33324">
        <ele>143.39999389648</ele>
        <time>2021-07-19T13:43:22.000Z</time>
      </trkpt>
      <trkpt lat="43.65673" lon="3.33325">
        <ele>143.39999389648</ele>
        <time>2021-07-19T13:43:23.000Z</time>
      </trkpt>
      <trkpt lat="43.65675" lon="3.3333">
        <ele>143.39999389648</ele>
        <time>2021-07-19T13:43:24.000Z</time>
      </trkpt>
      <trkpt lat="43.65678" lon="3.33338">
        <ele>143.39999389648</ele>
        <time>2021-07-19T13:43:26.000Z</time>
      </trkpt>
      <trkpt lat="43.6568" lon="3.33338">
        <ele>143.39999389648</ele>
        <time>2021-07-19T13:43:27.000Z</time>
      </trkpt>
      <trkpt lat="43.65686" lon="3.3334">
        <ele>143.39999389648</ele>
        <time>2021-07-19T13:43:29.000Z</time>
      </trkpt>
      <trkpt lat="43.65699" lon="3.33347">
        <ele>143.39999389648</ele>
        <time>2021-07-19T13:43:33.000Z</time>
      </trkpt>
      <trkpt lat="43.65702" lon="3.33348">
        <ele>143.39999389648</ele>
        <time>2021-07-19T13:43:34.000Z</time>
      </trkpt>
      <trkpt lat="43.65713" lon="3.33353">
        <ele>143.39999389648</ele>
        <time>2021-07-19T13:43:38.000Z</time>
      </trkpt>
      <trkpt lat="43.65715" lon="3.33356">
        <ele>143</ele>
        <time>2021-07-19T13:43:39.000Z</time>
      </trkpt>
      <trkpt lat="43.65717" lon="3.33359">
        <ele>142.39999389648</ele>
        <time>2021-07-19T13:43:40.000Z</time>
      </trkpt>
      <trkpt lat="43.65719" lon="3.33362">
        <ele>142</ele>
        <time>2021-07-19T13:43:41.000Z</time>
      </trkpt>
      <trkpt lat="43.65721" lon="3.33366">
        <ele>141.60000610352</ele>
        <time>2021-07-19T13:43:42.000Z</time>
      </trkpt>
      <trkpt lat="43.65724" lon="3.33369">
        <ele>141.19999694824</ele>
        <time>2021-07-19T13:43:43.000Z</time>
      </trkpt>
      <trkpt lat="43.65737" lon="3.3339">
        <ele>141.19999694824</ele>
        <time>2021-07-19T13:43:49.000Z</time>
      </trkpt>
      <trkpt lat="43.65746" lon="3.33395">
        <ele>141.19999694824</ele>
        <time>2021-07-19T13:43:53.000Z</time>
      </trkpt>
      <trkpt lat="43.65758" lon="3.33405">
        <ele>141.60000610352</ele>
        <time>2021-07-19T13:43:58.000Z</time>
      </trkpt>
      <trkpt lat="43.65758" lon="3.33407">
        <ele>142.19999694824</ele>
        <time>2021-07-19T13:43:59.000Z</time>
      </trkpt>
      <trkpt lat="43.65759" lon="3.33409">
        <ele>142.60000610352</ele>
        <time>2021-07-19T13:44:00.000Z</time>
      </trkpt>
      <trkpt lat="43.6576" lon="3.3341">
        <ele>143</ele>
        <time>2021-07-19T13:44:01.000Z</time>
      </trkpt>
      <trkpt lat="43.65761" lon="3.33411">
        <ele>143.39999389648</ele>
        <time>2021-07-19T13:44:02.000Z</time>
      </trkpt>
      <trkpt lat="43.65768" lon="3.33419">
        <ele>143.39999389648</ele>
        <time>2021-07-19T13:44:06.000Z</time>
      </trkpt>
      <trkpt lat="43.65776" lon="3.33427">
        <ele>143.80000305176</ele>
        <time>2021-07-19T13:44:10.000Z</time>
      </trkpt>
      <trkpt lat="43.65778" lon="3.33429">
        <ele>144.19999694824</ele>
        <time>2021-07-19T13:44:11.000Z</time>
      </trkpt>
      <trkpt lat="43.65781" lon="3.33431">
        <ele>144.80000305176</ele>
        <time>2021-07-19T13:44:12.000Z</time>
      </trkpt>
      <trkpt lat="43.65784" lon="3.33433">
        <ele>145.19999694824</ele>
        <time>2021-07-19T13:44:13.000Z</time>
      </trkpt>
      <trkpt lat="43.65786" lon="3.33435">
        <ele>145.60000610352</ele>
        <time>2021-07-19T13:44:14.000Z</time>
      </trkpt>
      <trkpt lat="43.65795" lon="3.33439">
        <ele>145.60000610352</ele>
        <time>2021-07-19T13:44:17.000Z</time>
      </trkpt>
      <trkpt lat="43.65808" lon="3.33442">
        <ele>145.19999694824</ele>
        <time>2021-07-19T13:44:21.000Z</time>
      </trkpt>
      <trkpt lat="43.6581" lon="3.33443">
        <ele>144.80000305176</ele>
        <time>2021-07-19T13:44:22.000Z</time>
      </trkpt>
      <trkpt lat="43.65813" lon="3.33444">
        <ele>144.39999389648</ele>
        <time>2021-07-19T13:44:23.000Z</time>
      </trkpt>
      <trkpt lat="43.65816" lon="3.33445">
        <ele>144</ele>
        <time>2021-07-19T13:44:24.000Z</time>
      </trkpt>
      <trkpt lat="43.6582" lon="3.33446">
        <ele>143.39999389648</ele>
        <time>2021-07-19T13:44:25.000Z</time>
      </trkpt>
      <trkpt lat="43.65831" lon="3.33451">
        <ele>143.39999389648</ele>
        <time>2021-07-19T13:44:29.000Z</time>
      </trkpt>
      <trkpt lat="43.65833" lon="3.33449">
        <ele>143.39999389648</ele>
        <time>2021-07-19T13:44:30.000Z</time>
      </trkpt>
      <trkpt lat="43.65839" lon="3.3345">
        <ele>143.39999389648</ele>
        <time>2021-07-19T13:44:34.000Z</time>
      </trkpt>
      <trkpt lat="43.65839" lon="3.3345">
        <ele>143</ele>
        <time>2021-07-19T13:44:35.000Z</time>
      </trkpt>
      <trkpt lat="43.65849" lon="3.33454">
        <ele>141.39999389648</ele>
        <time>2021-07-19T13:44:57.000Z</time>
      </trkpt>
      <trkpt lat="43.65849" lon="3.33452">
        <ele>141.39999389648</ele>
        <time>2021-07-19T13:44:59.000Z</time>
      </trkpt>
      <trkpt lat="43.65853" lon="3.33446">
        <ele>141.39999389648</ele>
        <time>2021-07-19T13:45:04.000Z</time>
      </trkpt>
      <trkpt lat="43.65854" lon="3.33445">
        <ele>141.39999389648</ele>
        <time>2021-07-19T13:45:06.000Z</time>
      </trkpt>
      <trkpt lat="43.65859" lon="3.33441">
        <ele>141.80000305176</ele>
        <time>2021-07-19T13:45:13.000Z</time>
      </trkpt>
      <trkpt lat="43.6586" lon="3.33441">
        <ele>142.19999694824</ele>
        <time>2021-07-19T13:45:14.000Z</time>
      </trkpt>
      <trkpt lat="43.65861" lon="3.33441">
        <ele>142.60000610352</ele>
        <time>2021-07-19T13:45:15.000Z</time>
      </trkpt>
      <trkpt lat="43.65861" lon="3.33441">
        <ele>143</ele>
        <time>2021-07-19T13:45:16.000Z</time>
      </trkpt>
      <trkpt lat="43.65862" lon="3.33441">
        <ele>143.39999389648</ele>
        <time>2021-07-19T13:45:17.000Z</time>
      </trkpt>
      <trkpt lat="43.65862" lon="3.33441">
        <ele>143.39999389648</ele>
        <time>2021-07-19T13:45:19.000Z</time>
      </trkpt>
      <trkpt lat="43.65864" lon="3.33441">
        <ele>143.39999389648</ele>
        <time>2021-07-19T13:45:27.000Z</time>
      </trkpt>
      <trkpt lat="43.65866" lon="3.33441">
        <ele>144.19999694824</ele>
        <time>2021-07-19T13:45:30.000Z</time>
      </trkpt>
      <trkpt lat="43.65866" lon="3.33441">
        <ele>144.80000305176</ele>
        <time>2021-07-19T13:45:31.000Z</time>
      </trkpt>
      <trkpt lat="43.65869" lon="3.33442">
        <ele>145.60000610352</ele>
        <time>2021-07-19T13:45:48.000Z</time>
      </trkpt>
      <trkpt lat="43.65874" lon="3.33443">
        <ele>145.60000610352</ele>
        <time>2021-07-19T13:45:53.000Z</time>
      </trkpt>
      <trkpt lat="43.65882" lon="3.33441">
        <ele>145.60000610352</ele>
        <time>2021-07-19T13:45:59.000Z</time>
      </trkpt>
      <trkpt lat="43.65882" lon="3.33441">
        <ele>145.60000610352</ele>
        <time>2021-07-19T13:46:00.000Z</time>
      </trkpt>
      <trkpt lat="43.65881" lon="3.33455">
        <ele>145.19999694824</ele>
        <time>2021-07-19T13:46:33.000Z</time>
      </trkpt>
      <trkpt lat="43.65881" lon="3.33455">
        <ele>144.80000305176</ele>
        <time>2021-07-19T13:46:34.000Z</time>
      </trkpt>
      <trkpt lat="43.65881" lon="3.33456">
        <ele>144.39999389648</ele>
        <time>2021-07-19T13:46:35.000Z</time>
      </trkpt>
      <trkpt lat="43.65881" lon="3.33457">
        <ele>143.80000305176</ele>
        <time>2021-07-19T13:46:36.000Z</time>
      </trkpt>
      <trkpt lat="43.65881" lon="3.33458">
        <ele>143.39999389648</ele>
        <time>2021-07-19T13:46:37.000Z</time>
      </trkpt>
      <trkpt lat="43.65881" lon="3.33458">
        <ele>143.39999389648</ele>
        <time>2021-07-19T13:46:38.000Z</time>
      </trkpt>
      <trkpt lat="43.65881" lon="3.33462">
        <ele>143.39999389648</ele>
        <time>2021-07-19T13:46:40.000Z</time>
      </trkpt>
      <trkpt lat="43.65882" lon="3.33463">
        <ele>143</ele>
        <time>2021-07-19T13:46:41.000Z</time>
      </trkpt>
      <trkpt lat="43.65883" lon="3.33464">
        <ele>142.60000610352</ele>
        <time>2021-07-19T13:46:42.000Z</time>
      </trkpt>
      <trkpt lat="43.65883" lon="3.33464">
        <ele>142.19999694824</ele>
        <time>2021-07-19T13:46:43.000Z</time>
      </trkpt>
      <trkpt lat="43.65882" lon="3.33466">
        <ele>141.39999389648</ele>
        <time>2021-07-19T13:46:46.000Z</time>
      </trkpt>
      <trkpt lat="43.65882" lon="3.33466">
        <ele>141.39999389648</ele>
        <time>2021-07-19T13:46:47.000Z</time>
      </trkpt>
      <trkpt lat="43.65884" lon="3.33466">
        <ele>141.39999389648</ele>
        <time>2021-07-19T13:46:49.000Z</time>
      </trkpt>
      <trkpt lat="43.65887" lon="3.33466">
        <ele>141.39999389648</ele>
        <time>2021-07-19T13:46:59.000Z</time>
      </trkpt>
      <trkpt lat="43.65889" lon="3.33468">
        <ele>141.39999389648</ele>
        <time>2021-07-19T13:47:00.000Z</time>
      </trkpt>
      <trkpt lat="43.65901" lon="3.33474">
        <ele>141.39999389648</ele>
        <time>2021-07-19T13:47:06.000Z</time>
      </trkpt>
      <trkpt lat="43.65903" lon="3.33477">
        <ele>141.39999389648</ele>
        <time>2021-07-19T13:47:07.000Z</time>
      </trkpt>
      <trkpt lat="43.65914" lon="3.33487">
        <ele>141.39999389648</ele>
        <time>2021-07-19T13:47:12.000Z</time>
      </trkpt>
      <trkpt lat="43.65922" lon="3.33507">
        <ele>141.39999389648</ele>
        <time>2021-07-19T13:47:18.000Z</time>
      </trkpt>
      <trkpt lat="43.65927" lon="3.33523">
        <ele>141.39999389648</ele>
        <time>2021-07-19T13:47:23.000Z</time>
      </trkpt>
      <trkpt lat="43.6594" lon="3.33533">
        <ele>141.80000305176</ele>
        <time>2021-07-19T13:47:30.000Z</time>
      </trkpt>
      <trkpt lat="43.65943" lon="3.33532">
        <ele>142.19999694824</ele>
        <time>2021-07-19T13:47:31.000Z</time>
      </trkpt>
      <trkpt lat="43.65945" lon="3.33532">
        <ele>142.60000610352</ele>
        <time>2021-07-19T13:47:32.000Z</time>
      </trkpt>
      <trkpt lat="43.65947" lon="3.33531">
        <ele>143</ele>
        <time>2021-07-19T13:47:33.000Z</time>
      </trkpt>
      <trkpt lat="43.65949" lon="3.33529">
        <ele>143.39999389648</ele>
        <time>2021-07-19T13:47:34.000Z</time>
      </trkpt>
      <trkpt lat="43.6595" lon="3.33527">
        <ele>143.39999389648</ele>
        <time>2021-07-19T13:47:35.000Z</time>
      </trkpt>
      <trkpt lat="43.65952" lon="3.33527">
        <ele>143.39999389648</ele>
        <time>2021-07-19T13:47:36.000Z</time>
      </trkpt>
      <trkpt lat="43.65955" lon="3.33525">
        <ele>143.80000305176</ele>
        <time>2021-07-19T13:47:38.000Z</time>
      </trkpt>
      <trkpt lat="43.65956" lon="3.33524">
        <ele>144.39999389648</ele>
        <time>2021-07-19T13:47:39.000Z</time>
      </trkpt>
      <trkpt lat="43.65958" lon="3.33522">
        <ele>144.80000305176</ele>
        <time>2021-07-19T13:47:40.000Z</time>
      </trkpt>
      <trkpt lat="43.65959" lon="3.33521">
        <ele>145.19999694824</ele>
        <time>2021-07-19T13:47:41.000Z</time>
      </trkpt>
      <trkpt lat="43.65961" lon="3.33521">
        <ele>145.80000305176</ele>
        <time>2021-07-19T13:47:42.000Z</time>
      </trkpt>
      <trkpt lat="43.65969" lon="3.33519">
        <ele>145.80000305176</ele>
        <time>2021-07-19T13:47:46.000Z</time>
      </trkpt>
      <trkpt lat="43.65974" lon="3.33522">
        <ele>146.19999694824</ele>
        <time>2021-07-19T13:47:49.000Z</time>
      </trkpt>
      <trkpt lat="43.65977" lon="3.33523">
        <ele>146.60000610352</ele>
        <time>2021-07-19T13:47:50.000Z</time>
      </trkpt>
      <trkpt lat="43.65979" lon="3.33523">
        <ele>147</ele>
        <time>2021-07-19T13:47:51.000Z</time>
      </trkpt>
      <trkpt lat="43.65981" lon="3.33524">
        <ele>147.39999389648</ele>
        <time>2021-07-19T13:47:52.000Z</time>
      </trkpt>
      <trkpt lat="43.65983" lon="3.33525">
        <ele>147.80000305176</ele>
        <time>2021-07-19T13:47:53.000Z</time>
      </trkpt>
      <trkpt lat="43.65995" lon="3.33531">
        <ele>148.19999694824</ele>
        <time>2021-07-19T13:47:59.000Z</time>
      </trkpt>
      <trkpt lat="43.65997" lon="3.33533">
        <ele>148.60000610352</ele>
        <time>2021-07-19T13:48:00.000Z</time>
      </trkpt>
      <trkpt lat="43.65999" lon="3.33533">
        <ele>149</ele>
        <time>2021-07-19T13:48:01.000Z</time>
      </trkpt>
      <trkpt lat="43.66001" lon="3.33534">
        <ele>149.39999389648</ele>
        <time>2021-07-19T13:48:02.000Z</time>
      </trkpt>
      <trkpt lat="43.66003" lon="3.33535">
        <ele>149.80000305176</ele>
        <time>2021-07-19T13:48:03.000Z</time>
      </trkpt>
      <trkpt lat="43.66012" lon="3.33538">
        <ele>149.80000305176</ele>
        <time>2021-07-19T13:48:07.000Z</time>
      </trkpt>
      <trkpt lat="43.66019" lon="3.33537">
        <ele>150.19999694824</ele>
        <time>2021-07-19T13:48:10.000Z</time>
      </trkpt>
      <trkpt lat="43.66021" lon="3.33536">
        <ele>150.60000610352</ele>
        <time>2021-07-19T13:48:11.000Z</time>
      </trkpt>
      <trkpt lat="43.66024" lon="3.33536">
        <ele>151</ele>
        <time>2021-07-19T13:48:12.000Z</time>
      </trkpt>
      <trkpt lat="43.66026" lon="3.33537">
        <ele>151.39999389648</ele>
        <time>2021-07-19T13:48:13.000Z</time>
      </trkpt>
      <trkpt lat="43.66031" lon="3.33536">
        <ele>151.80000305176</ele>
        <time>2021-07-19T13:48:14.000Z</time>
      </trkpt>
      <trkpt lat="43.66042" lon="3.33541">
        <ele>151.80000305176</ele>
        <time>2021-07-19T13:48:17.000Z</time>
      </trkpt>
      <trkpt lat="43.66054" lon="3.33552">
        <ele>151.80000305176</ele>
        <time>2021-07-19T13:48:22.000Z</time>
      </trkpt>
      <trkpt lat="43.66067" lon="3.33554">
        <ele>151.80000305176</ele>
        <time>2021-07-19T13:48:27.000Z</time>
      </trkpt>
      <trkpt lat="43.66069" lon="3.33555">
        <ele>151.80000305176</ele>
        <time>2021-07-19T13:48:28.000Z</time>
      </trkpt>
      <trkpt lat="43.6607" lon="3.33554">
        <ele>151.80000305176</ele>
        <time>2021-07-19T13:48:31.000Z</time>
      </trkpt>
      <trkpt lat="43.66072" lon="3.33556">
        <ele>151.80000305176</ele>
        <time>2021-07-19T13:48:49.000Z</time>
      </trkpt>
      <trkpt lat="43.66076" lon="3.33555">
        <ele>151.80000305176</ele>
        <time>2021-07-19T13:48:51.000Z</time>
      </trkpt>
      <trkpt lat="43.66081" lon="3.33557">
        <ele>152.19999694824</ele>
        <time>2021-07-19T13:48:53.000Z</time>
      </trkpt>
      <trkpt lat="43.66084" lon="3.33557">
        <ele>152.60000610352</ele>
        <time>2021-07-19T13:48:54.000Z</time>
      </trkpt>
      <trkpt lat="43.66087" lon="3.33558">
        <ele>153.19999694824</ele>
        <time>2021-07-19T13:48:55.000Z</time>
      </trkpt>
      <trkpt lat="43.6609" lon="3.33558">
        <ele>153.60000610352</ele>
        <time>2021-07-19T13:48:56.000Z</time>
      </trkpt>
      <trkpt lat="43.66094" lon="3.33559">
        <ele>154</ele>
        <time>2021-07-19T13:48:57.000Z</time>
      </trkpt>
      <trkpt lat="43.66121" lon="3.33567">
        <ele>154</ele>
        <time>2021-07-19T13:49:05.000Z</time>
      </trkpt>
      <trkpt lat="43.66123" lon="3.33572">
        <ele>154</ele>
        <time>2021-07-19T13:49:06.000Z</time>
      </trkpt>
      <trkpt lat="43.66131" lon="3.33597">
        <ele>154</ele>
        <time>2021-07-19T13:49:12.000Z</time>
      </trkpt>
      <trkpt lat="43.66132" lon="3.336">
        <ele>154.39999389648</ele>
        <time>2021-07-19T13:49:13.000Z</time>
      </trkpt>
      <trkpt lat="43.66135" lon="3.33604">
        <ele>154.80000305176</ele>
        <time>2021-07-19T13:49:14.000Z</time>
      </trkpt>
      <trkpt lat="43.66137" lon="3.33607">
        <ele>155.19999694824</ele>
        <time>2021-07-19T13:49:15.000Z</time>
      </trkpt>
      <trkpt lat="43.6614" lon="3.33609">
        <ele>155.60000610352</ele>
        <time>2021-07-19T13:49:16.000Z</time>
      </trkpt>
      <trkpt lat="43.66143" lon="3.3361">
        <ele>156</ele>
        <time>2021-07-19T13:49:17.000Z</time>
      </trkpt>
      <trkpt lat="43.66159" lon="3.33612">
        <ele>156</ele>
        <time>2021-07-19T13:49:22.000Z</time>
      </trkpt>
      <trkpt lat="43.66165" lon="3.33611">
        <ele>156.39999389648</ele>
        <time>2021-07-19T13:49:24.000Z</time>
      </trkpt>
      <trkpt lat="43.66169" lon="3.33612">
        <ele>157</ele>
        <time>2021-07-19T13:49:25.000Z</time>
      </trkpt>
      <trkpt lat="43.66172" lon="3.33612">
        <ele>157.39999389648</ele>
        <time>2021-07-19T13:49:26.000Z</time>
      </trkpt>
      <trkpt lat="43.66176" lon="3.33612">
        <ele>157.80000305176</ele>
        <time>2021-07-19T13:49:27.000Z</time>
      </trkpt>
      <trkpt lat="43.66179" lon="3.33613">
        <ele>158.19999694824</ele>
        <time>2021-07-19T13:49:28.000Z</time>
      </trkpt>
      <trkpt lat="43.66188" lon="3.33613">
        <ele>158.19999694824</ele>
        <time>2021-07-19T13:49:31.000Z</time>
      </trkpt>
      <trkpt lat="43.66203" lon="3.33611">
        <ele>158.19999694824</ele>
        <time>2021-07-19T13:49:35.000Z</time>
      </trkpt>
      <trkpt lat="43.6621" lon="3.33613">
        <ele>158.19999694824</ele>
        <time>2021-07-19T13:49:36.000Z</time>
      </trkpt>
      <trkpt lat="43.66236" lon="3.33622">
        <ele>158.19999694824</ele>
        <time>2021-07-19T13:49:41.000Z</time>
      </trkpt>
      <trkpt lat="43.66254" lon="3.33622">
        <ele>158.19999694824</ele>
        <time>2021-07-19T13:49:46.000Z</time>
      </trkpt>
      <trkpt lat="43.66275" lon="3.33622">
        <ele>158.19999694824</ele>
        <time>2021-07-19T13:49:53.000Z</time>
      </trkpt>
      <trkpt lat="43.66278" lon="3.33622">
        <ele>158.60000610352</ele>
        <time>2021-07-19T13:49:54.000Z</time>
      </trkpt>
      <trkpt lat="43.66281" lon="3.33622">
        <ele>159</ele>
        <time>2021-07-19T13:49:55.000Z</time>
      </trkpt>
      <trkpt lat="43.66284" lon="3.33622">
        <ele>159.60000610352</ele>
        <time>2021-07-19T13:49:56.000Z</time>
      </trkpt>
      <trkpt lat="43.66287" lon="3.33622">
        <ele>160</ele>
        <time>2021-07-19T13:49:57.000Z</time>
      </trkpt>
      <trkpt lat="43.66291" lon="3.33623">
        <ele>160.39999389648</ele>
        <time>2021-07-19T13:49:58.000Z</time>
      </trkpt>
      <trkpt lat="43.66301" lon="3.33623">
        <ele>160.39999389648</ele>
        <time>2021-07-19T13:50:01.000Z</time>
      </trkpt>
      <trkpt lat="43.66325" lon="3.33621">
        <ele>160.39999389648</ele>
        <time>2021-07-19T13:50:08.000Z</time>
      </trkpt>
      <trkpt lat="43.66354" lon="3.33613">
        <ele>160.39999389648</ele>
        <time>2021-07-19T13:50:16.000Z</time>
      </trkpt>
      <trkpt lat="43.66371" lon="3.33607">
        <ele>160.80000305176</ele>
        <time>2021-07-19T13:50:21.000Z</time>
      </trkpt>
      <trkpt lat="43.66374" lon="3.33605">
        <ele>161.19999694824</ele>
        <time>2021-07-19T13:50:22.000Z</time>
      </trkpt>
      <trkpt lat="43.66376" lon="3.33604">
        <ele>161.60000610352</ele>
        <time>2021-07-19T13:50:23.000Z</time>
      </trkpt>
      <trkpt lat="43.66379" lon="3.33603">
        <ele>162</ele>
        <time>2021-07-19T13:50:24.000Z</time>
      </trkpt>
      <trkpt lat="43.66382" lon="3.33602">
        <ele>162.39999389648</ele>
        <time>2021-07-19T13:50:25.000Z</time>
      </trkpt>
      <trkpt lat="43.66391" lon="3.33602">
        <ele>162.39999389648</ele>
        <time>2021-07-19T13:50:28.000Z</time>
      </trkpt>
      <trkpt lat="43.66395" lon="3.3361">
        <ele>162.39999389648</ele>
        <time>2021-07-19T13:50:31.000Z</time>
      </trkpt>
      <trkpt lat="43.66387" lon="3.33621">
        <ele>162.39999389648</ele>
        <time>2021-07-19T13:50:34.000Z</time>
      </trkpt>
      <trkpt lat="43.66384" lon="3.33638">
        <ele>162</ele>
        <time>2021-07-19T13:50:36.000Z</time>
      </trkpt>
      <trkpt lat="43.66382" lon="3.33647">
        <ele>161.39999389648</ele>
        <time>2021-07-19T13:50:37.000Z</time>
      </trkpt>
      <trkpt lat="43.66382" lon="3.33658">
        <ele>161</ele>
        <time>2021-07-19T13:50:38.000Z</time>
      </trkpt>
      <trkpt lat="43.66382" lon="3.33669">
        <ele>160.19999694824</ele>
        <time>2021-07-19T13:50:39.000Z</time>
      </trkpt>
      <trkpt lat="43.66382" lon="3.33681">
        <ele>159.60000610352</ele>
        <time>2021-07-19T13:50:40.000Z</time>
      </trkpt>
      <trkpt lat="43.66383" lon="3.33693">
        <ele>159</ele>
        <time>2021-07-19T13:50:41.000Z</time>
      </trkpt>
      <trkpt lat="43.66384" lon="3.33707">
        <ele>158</ele>
        <time>2021-07-19T13:50:42.000Z</time>
      </trkpt>
      <trkpt lat="43.66382" lon="3.33722">
        <ele>157.19999694824</ele>
        <time>2021-07-19T13:50:43.000Z</time>
      </trkpt>
      <trkpt lat="43.66379" lon="3.33735">
        <ele>156.39999389648</ele>
        <time>2021-07-19T13:50:44.000Z</time>
      </trkpt>
      <trkpt lat="43.66374" lon="3.33748">
        <ele>155.60000610352</ele>
        <time>2021-07-19T13:50:45.000Z</time>
      </trkpt>
      <trkpt lat="43.66369" lon="3.33761">
        <ele>154.80000305176</ele>
        <time>2021-07-19T13:50:46.000Z</time>
      </trkpt>
      <trkpt lat="43.66365" lon="3.33774">
        <ele>154.19999694824</ele>
        <time>2021-07-19T13:50:47.000Z</time>
      </trkpt>
      <trkpt lat="43.66362" lon="3.33788">
        <ele>153.39999389648</ele>
        <time>2021-07-19T13:50:48.000Z</time>
      </trkpt>
      <trkpt lat="43.6636" lon="3.33803">
        <ele>152.39999389648</ele>
        <time>2021-07-19T13:50:49.000Z</time>
      </trkpt>
      <trkpt lat="43.66357" lon="3.33816">
        <ele>151.60000610352</ele>
        <time>2021-07-19T13:50:50.000Z</time>
      </trkpt>
      <trkpt lat="43.66351" lon="3.33828">
        <ele>150</ele>
        <time>2021-07-19T13:50:51.000Z</time>
      </trkpt>
      <trkpt lat="43.66344" lon="3.33834">
        <ele>149</ele>
        <time>2021-07-19T13:50:52.000Z</time>
      </trkpt>
      <trkpt lat="43.66336" lon="3.33837">
        <ele>148.19999694824</ele>
        <time>2021-07-19T13:50:53.000Z</time>
      </trkpt>
      <trkpt lat="43.66329" lon="3.33842">
        <ele>147.39999389648</ele>
        <time>2021-07-19T13:50:54.000Z</time>
      </trkpt>
      <trkpt lat="43.66323" lon="3.33849">
        <ele>147.39999389648</ele>
        <time>2021-07-19T13:50:55.000Z</time>
      </trkpt>
      <trkpt lat="43.66301" lon="3.33874">
        <ele>147.39999389648</ele>
        <time>2021-07-19T13:50:59.000Z</time>
      </trkpt>
      <trkpt lat="43.66296" lon="3.33877">
        <ele>147.39999389648</ele>
        <time>2021-07-19T13:51:00.000Z</time>
      </trkpt>
      <trkpt lat="43.66287" lon="3.33885">
        <ele>147.39999389648</ele>
        <time>2021-07-19T13:51:02.000Z</time>
      </trkpt>
      <trkpt lat="43.66284" lon="3.3389">
        <ele>147.39999389648</ele>
        <time>2021-07-19T13:51:03.000Z</time>
      </trkpt>
      <trkpt lat="43.66277" lon="3.33907">
        <ele>147.39999389648</ele>
        <time>2021-07-19T13:51:06.000Z</time>
      </trkpt>
      <trkpt lat="43.66272" lon="3.33928">
        <ele>147.39999389648</ele>
        <time>2021-07-19T13:51:09.000Z</time>
      </trkpt>
      <trkpt lat="43.66269" lon="3.33941">
        <ele>147</ele>
        <time>2021-07-19T13:51:11.000Z</time>
      </trkpt>
      <trkpt lat="43.66267" lon="3.33948">
        <ele>146.60000610352</ele>
        <time>2021-07-19T13:51:12.000Z</time>
      </trkpt>
      <trkpt lat="43.66264" lon="3.33955">
        <ele>146.19999694824</ele>
        <time>2021-07-19T13:51:13.000Z</time>
      </trkpt>
      <trkpt lat="43.6626" lon="3.33961">
        <ele>145.80000305176</ele>
        <time>2021-07-19T13:51:14.000Z</time>
      </trkpt>
      <trkpt lat="43.66255" lon="3.33965">
        <ele>145.39999389648</ele>
        <time>2021-07-19T13:51:15.000Z</time>
      </trkpt>
      <trkpt lat="43.6625" lon="3.33966">
        <ele>145.39999389648</ele>
        <time>2021-07-19T13:51:16.000Z</time>
      </trkpt>
      <trkpt lat="43.66239" lon="3.33962">
        <ele>145.39999389648</ele>
        <time>2021-07-19T13:51:18.000Z</time>
      </trkpt>
      <trkpt lat="43.66234" lon="3.33959">
        <ele>145.39999389648</ele>
        <time>2021-07-19T13:51:19.000Z</time>
      </trkpt>
      <trkpt lat="43.66213" lon="3.33949">
        <ele>145.39999389648</ele>
        <time>2021-07-19T13:51:23.000Z</time>
      </trkpt>
      <trkpt lat="43.66208" lon="3.33947">
        <ele>145</ele>
        <time>2021-07-19T13:51:24.000Z</time>
      </trkpt>
      <trkpt lat="43.66202" lon="3.33948">
        <ele>144.60000610352</ele>
        <time>2021-07-19T13:51:25.000Z</time>
      </trkpt>
      <trkpt lat="43.66196" lon="3.33951">
        <ele>144</ele>
        <time>2021-07-19T13:51:26.000Z</time>
      </trkpt>
      <trkpt lat="43.66191" lon="3.33955">
        <ele>143.60000610352</ele>
        <time>2021-07-19T13:51:27.000Z</time>
      </trkpt>
      <trkpt lat="43.66186" lon="3.3396">
        <ele>143.19999694824</ele>
        <time>2021-07-19T13:51:28.000Z</time>
      </trkpt>
      <trkpt lat="43.66178" lon="3.33971">
        <ele>143.19999694824</ele>
        <time>2021-07-19T13:51:30.000Z</time>
      </trkpt>
      <trkpt lat="43.66168" lon="3.33985">
        <ele>143.19999694824</ele>
        <time>2021-07-19T13:51:33.000Z</time>
      </trkpt>
      <trkpt lat="43.66151" lon="3.34007">
        <ele>143.19999694824</ele>
        <time>2021-07-19T13:51:39.000Z</time>
      </trkpt>
      <trkpt lat="43.66141" lon="3.34016">
        <ele>143.19999694824</ele>
        <time>2021-07-19T13:51:44.000Z</time>
      </trkpt>
      <trkpt lat="43.66134" lon="3.3403">
        <ele>143.19999694824</ele>
        <time>2021-07-19T13:51:49.000Z</time>
      </trkpt>
      <trkpt lat="43.66122" lon="3.34046">
        <ele>143.19999694824</ele>
        <time>2021-07-19T13:51:53.000Z</time>
      </trkpt>
      <trkpt lat="43.66119" lon="3.34057">
        <ele>143.19999694824</ele>
        <time>2021-07-19T13:51:55.000Z</time>
      </trkpt>
      <trkpt lat="43.66117" lon="3.34067">
        <ele>143.19999694824</ele>
        <time>2021-07-19T13:51:57.000Z</time>
      </trkpt>
      <trkpt lat="43.66114" lon="3.34081">
        <ele>143.19999694824</ele>
        <time>2021-07-19T13:52:00.000Z</time>
      </trkpt>
      <trkpt lat="43.66113" lon="3.34094">
        <ele>143.19999694824</ele>
        <time>2021-07-19T13:52:04.000Z</time>
      </trkpt>
      <trkpt lat="43.66112" lon="3.34113">
        <ele>143.19999694824</ele>
        <time>2021-07-19T13:52:11.000Z</time>
      </trkpt>
      <trkpt lat="43.66112" lon="3.34114">
        <ele>143.19999694824</ele>
        <time>2021-07-19T13:52:12.000Z</time>
      </trkpt>
      <trkpt lat="43.66117" lon="3.34115">
        <ele>143.19999694824</ele>
        <time>2021-07-19T14:03:36.000Z</time>
      </trkpt>
      <trkpt lat="43.66118" lon="3.34114">
        <ele>143.19999694824</ele>
        <time>2021-07-19T14:03:37.000Z</time>
      </trkpt>
      <trkpt lat="43.6612" lon="3.34106">
        <ele>143.19999694824</ele>
        <time>2021-07-19T14:03:40.000Z</time>
      </trkpt>
      <trkpt lat="43.6612" lon="3.34101">
        <ele>143.19999694824</ele>
        <time>2021-07-19T14:03:42.000Z</time>
      </trkpt>
      <trkpt lat="43.66117" lon="3.34085">
        <ele>143.19999694824</ele>
        <time>2021-07-19T14:03:47.000Z</time>
      </trkpt>
      <trkpt lat="43.66121" lon="3.34061">
        <ele>143.19999694824</ele>
        <time>2021-07-19T14:03:51.000Z</time>
      </trkpt>
      <trkpt lat="43.66129" lon="3.34039">
        <ele>143.19999694824</ele>
        <time>2021-07-19T14:03:55.000Z</time>
      </trkpt>
      <trkpt lat="43.66133" lon="3.34033">
        <ele>143.19999694824</ele>
        <time>2021-07-19T14:03:57.000Z</time>
      </trkpt>
      <trkpt lat="43.66136" lon="3.34026">
        <ele>143.19999694824</ele>
        <time>2021-07-19T14:03:59.000Z</time>
      </trkpt>
      <trkpt lat="43.66156" lon="3.34001">
        <ele>143.19999694824</ele>
        <time>2021-07-19T14:04:07.000Z</time>
      </trkpt>
      <trkpt lat="43.66167" lon="3.33986">
        <ele>143.19999694824</ele>
        <time>2021-07-19T14:04:11.000Z</time>
      </trkpt>
      <trkpt lat="43.66173" lon="3.33978">
        <ele>143.19999694824</ele>
        <time>2021-07-19T14:04:13.000Z</time>
      </trkpt>
      <trkpt lat="43.66191" lon="3.33955">
        <ele>143.19999694824</ele>
        <time>2021-07-19T14:04:18.000Z</time>
      </trkpt>
      <trkpt lat="43.66195" lon="3.33952">
        <ele>143.19999694824</ele>
        <time>2021-07-19T14:04:19.000Z</time>
      </trkpt>
      <trkpt lat="43.66203" lon="3.33946">
        <ele>143.19999694824</ele>
        <time>2021-07-19T14:04:21.000Z</time>
      </trkpt>
      <trkpt lat="43.66215" lon="3.33946">
        <ele>143.19999694824</ele>
        <time>2021-07-19T14:04:24.000Z</time>
      </trkpt>
      <trkpt lat="43.66222" lon="3.3395">
        <ele>143.19999694824</ele>
        <time>2021-07-19T14:04:26.000Z</time>
      </trkpt>
      <trkpt lat="43.66241" lon="3.3396">
        <ele>143.19999694824</ele>
        <time>2021-07-19T14:04:31.000Z</time>
      </trkpt>
      <trkpt lat="43.66253" lon="3.33965">
        <ele>143.19999694824</ele>
        <time>2021-07-19T14:04:34.000Z</time>
      </trkpt>
      <trkpt lat="43.6626" lon="3.33962">
        <ele>143.19999694824</ele>
        <time>2021-07-19T14:04:36.000Z</time>
      </trkpt>
      <trkpt lat="43.66268" lon="3.33949">
        <ele>143.19999694824</ele>
        <time>2021-07-19T14:04:39.000Z</time>
      </trkpt>
      <trkpt lat="43.6627" lon="3.33944">
        <ele>143.19999694824</ele>
        <time>2021-07-19T14:04:40.000Z</time>
      </trkpt>
      <trkpt lat="43.66276" lon="3.33925">
        <ele>143.19999694824</ele>
        <time>2021-07-19T14:04:44.000Z</time>
      </trkpt>
      <trkpt lat="43.66278" lon="3.33915">
        <ele>143.19999694824</ele>
        <time>2021-07-19T14:04:46.000Z</time>
      </trkpt>
      <trkpt lat="43.66282" lon="3.339">
        <ele>143.60000610352</ele>
        <time>2021-07-19T14:04:49.000Z</time>
      </trkpt>
      <trkpt lat="43.66283" lon="3.33896">
        <ele>144</ele>
        <time>2021-07-19T14:04:50.000Z</time>
      </trkpt>
      <trkpt lat="43.66285" lon="3.33891">
        <ele>144.80000305176</ele>
        <time>2021-07-19T14:04:51.000Z</time>
      </trkpt>
      <trkpt lat="43.66287" lon="3.33886">
        <ele>145.19999694824</ele>
        <time>2021-07-19T14:04:52.000Z</time>
      </trkpt>
      <trkpt lat="43.6629" lon="3.33882">
        <ele>145.19999694824</ele>
        <time>2021-07-19T14:04:53.000Z</time>
      </trkpt>
      <trkpt lat="43.66301" lon="3.33873">
        <ele>145.19999694824</ele>
        <time>2021-07-19T14:04:56.000Z</time>
      </trkpt>
      <trkpt lat="43.66306" lon="3.33871">
        <ele>145.19999694824</ele>
        <time>2021-07-19T14:04:57.000Z</time>
      </trkpt>
      <trkpt lat="43.66314" lon="3.33865">
        <ele>145.19999694824</ele>
        <time>2021-07-19T14:04:59.000Z</time>
      </trkpt>
      <trkpt lat="43.66321" lon="3.33855">
        <ele>145.19999694824</ele>
        <time>2021-07-19T14:05:01.000Z</time>
      </trkpt>
      <trkpt lat="43.66334" lon="3.33838">
        <ele>145.19999694824</ele>
        <time>2021-07-19T14:05:05.000Z</time>
      </trkpt>
      <trkpt lat="43.66342" lon="3.33833">
        <ele>145.19999694824</ele>
        <time>2021-07-19T14:05:07.000Z</time>
      </trkpt>
      <trkpt lat="43.66355" lon="3.33828">
        <ele>145.19999694824</ele>
        <time>2021-07-19T14:05:10.000Z</time>
      </trkpt>
      <trkpt lat="43.6636" lon="3.33818">
        <ele>145.19999694824</ele>
        <time>2021-07-19T14:05:12.000Z</time>
      </trkpt>
      <trkpt lat="43.66362" lon="3.33795">
        <ele>145.19999694824</ele>
        <time>2021-07-19T14:05:16.000Z</time>
      </trkpt>
      <trkpt lat="43.66365" lon="3.33775">
        <ele>145.60000610352</ele>
        <time>2021-07-19T14:05:21.000Z</time>
      </trkpt>
      <trkpt lat="43.66366" lon="3.33772">
        <ele>146</ele>
        <time>2021-07-19T14:05:22.000Z</time>
      </trkpt>
      <trkpt lat="43.66368" lon="3.33768">
        <ele>146.39999389648</ele>
        <time>2021-07-19T14:05:23.000Z</time>
      </trkpt>
      <trkpt lat="43.66369" lon="3.33765">
        <ele>146.80000305176</ele>
        <time>2021-07-19T14:05:24.000Z</time>
      </trkpt>
      <trkpt lat="43.66371" lon="3.33761">
        <ele>147.39999389648</ele>
        <time>2021-07-19T14:05:25.000Z</time>
      </trkpt>
      <trkpt lat="43.66376" lon="3.33748">
        <ele>147.80000305176</ele>
        <time>2021-07-19T14:05:29.000Z</time>
      </trkpt>
      <trkpt lat="43.66378" lon="3.33745">
        <ele>148.19999694824</ele>
        <time>2021-07-19T14:05:30.000Z</time>
      </trkpt>
      <trkpt lat="43.66379" lon="3.33742">
        <ele>148.60000610352</ele>
        <time>2021-07-19T14:05:31.000Z</time>
      </trkpt>
      <trkpt lat="43.6638" lon="3.33738">
        <ele>149</ele>
        <time>2021-07-19T14:05:32.000Z</time>
      </trkpt>
      <trkpt lat="43.66381" lon="3.33735">
        <ele>149.39999389648</ele>
        <time>2021-07-19T14:05:33.000Z</time>
      </trkpt>
      <trkpt lat="43.66385" lon="3.33725">
        <ele>149.39999389648</ele>
        <time>2021-07-19T14:05:36.000Z</time>
      </trkpt>
      <trkpt lat="43.66386" lon="3.33718">
        <ele>149.80000305176</ele>
        <time>2021-07-19T14:05:38.000Z</time>
      </trkpt>
      <trkpt lat="43.66385" lon="3.33714">
        <ele>150.60000610352</ele>
        <time>2021-07-19T14:05:39.000Z</time>
      </trkpt>
      <trkpt lat="43.66385" lon="3.3371">
        <ele>151.19999694824</ele>
        <time>2021-07-19T14:05:40.000Z</time>
      </trkpt>
      <trkpt lat="43.66385" lon="3.33707">
        <ele>151.60000610352</ele>
        <time>2021-07-19T14:05:41.000Z</time>
      </trkpt>
      <trkpt lat="43.66382" lon="3.33683">
        <ele>152</ele>
        <time>2021-07-19T14:05:48.000Z</time>
      </trkpt>
      <trkpt lat="43.66382" lon="3.3368">
        <ele>152.39999389648</ele>
        <time>2021-07-19T14:05:49.000Z</time>
      </trkpt>
      <trkpt lat="43.66382" lon="3.33677">
        <ele>152.80000305176</ele>
        <time>2021-07-19T14:05:50.000Z</time>
      </trkpt>
      <trkpt lat="43.66382" lon="3.33673">
        <ele>153.19999694824</ele>
        <time>2021-07-19T14:05:51.000Z</time>
      </trkpt>
      <trkpt lat="43.66382" lon="3.3367">
        <ele>153.60000610352</ele>
        <time>2021-07-19T14:05:52.000Z</time>
      </trkpt>
      <trkpt lat="43.66383" lon="3.33661">
        <ele>153.60000610352</ele>
        <time>2021-07-19T14:05:55.000Z</time>
      </trkpt>
      <trkpt lat="43.66383" lon="3.33655">
        <ele>154</ele>
        <time>2021-07-19T14:05:57.000Z</time>
      </trkpt>
      <trkpt lat="43.66383" lon="3.33652">
        <ele>154.39999389648</ele>
        <time>2021-07-19T14:05:58.000Z</time>
      </trkpt>
      <trkpt lat="43.66383" lon="3.33649">
        <ele>154.80000305176</ele>
        <time>2021-07-19T14:05:59.000Z</time>
      </trkpt>
      <trkpt lat="43.66383" lon="3.33646">
        <ele>155.19999694824</ele>
        <time>2021-07-19T14:06:00.000Z</time>
      </trkpt>
      <trkpt lat="43.66383" lon="3.33643">
        <ele>155.80000305176</ele>
        <time>2021-07-19T14:06:01.000Z</time>
      </trkpt>
      <trkpt lat="43.66384" lon="3.33635">
        <ele>156.19999694824</ele>
        <time>2021-07-19T14:06:04.000Z</time>
      </trkpt>
      <trkpt lat="43.66384" lon="3.33632">
        <ele>156.60000610352</ele>
        <time>2021-07-19T14:06:05.000Z</time>
      </trkpt>
      <trkpt lat="43.66384" lon="3.33629">
        <ele>157</ele>
        <time>2021-07-19T14:06:06.000Z</time>
      </trkpt>
      <trkpt lat="43.66385" lon="3.33626">
        <ele>157.39999389648</ele>
        <time>2021-07-19T14:06:07.000Z</time>
      </trkpt>
      <trkpt lat="43.66386" lon="3.33623">
        <ele>157.80000305176</ele>
        <time>2021-07-19T14:06:08.000Z</time>
      </trkpt>
      <trkpt lat="43.66389" lon="3.33617">
        <ele>158.19999694824</ele>
        <time>2021-07-19T14:06:11.000Z</time>
      </trkpt>
      <trkpt lat="43.66391" lon="3.33615">
        <ele>158.80000305176</ele>
        <time>2021-07-19T14:06:12.000Z</time>
      </trkpt>
      <trkpt lat="43.66392" lon="3.33613">
        <ele>159.19999694824</ele>
        <time>2021-07-19T14:06:13.000Z</time>
      </trkpt>
      <trkpt lat="43.66394" lon="3.3361">
        <ele>159.60000610352</ele>
        <time>2021-07-19T14:06:14.000Z</time>
      </trkpt>
      <trkpt lat="43.66395" lon="3.33609">
        <ele>160</ele>
        <time>2021-07-19T14:06:15.000Z</time>
      </trkpt>
      <trkpt lat="43.66403" lon="3.33605">
        <ele>160.39999389648</ele>
        <time>2021-07-19T14:06:19.000Z</time>
      </trkpt>
      <trkpt lat="43.66406" lon="3.33604">
        <ele>160.80000305176</ele>
        <time>2021-07-19T14:06:20.000Z</time>
      </trkpt>
      <trkpt lat="43.66408" lon="3.33603">
        <ele>161.19999694824</ele>
        <time>2021-07-19T14:06:21.000Z</time>
      </trkpt>
      <trkpt lat="43.6641" lon="3.33602">
        <ele>161.60000610352</ele>
        <time>2021-07-19T14:06:22.000Z</time>
      </trkpt>
      <trkpt lat="43.66412" lon="3.33601">
        <ele>162.19999694824</ele>
        <time>2021-07-19T14:06:23.000Z</time>
      </trkpt>
      <trkpt lat="43.66419" lon="3.33599">
        <ele>162.19999694824</ele>
        <time>2021-07-19T14:06:26.000Z</time>
      </trkpt>
      <trkpt lat="43.66425" lon="3.33597">
        <ele>162.60000610352</ele>
        <time>2021-07-19T14:06:29.000Z</time>
      </trkpt>
      <trkpt lat="43.66427" lon="3.33597">
        <ele>163</ele>
        <time>2021-07-19T14:06:30.000Z</time>
      </trkpt>
      <trkpt lat="43.66428" lon="3.33597">
        <ele>163.39999389648</ele>
        <time>2021-07-19T14:06:31.000Z</time>
      </trkpt>
      <trkpt lat="43.6643" lon="3.33596">
        <ele>163.80000305176</ele>
        <time>2021-07-19T14:06:32.000Z</time>
      </trkpt>
      <trkpt lat="43.66432" lon="3.33596">
        <ele>164.19999694824</ele>
        <time>2021-07-19T14:06:33.000Z</time>
      </trkpt>
      <trkpt lat="43.66445" lon="3.33592">
        <ele>164.60000610352</ele>
        <time>2021-07-19T14:06:40.000Z</time>
      </trkpt>
      <trkpt lat="43.66446" lon="3.33591">
        <ele>165</ele>
        <time>2021-07-19T14:06:41.000Z</time>
      </trkpt>
      <trkpt lat="43.66448" lon="3.3359">
        <ele>165.39999389648</ele>
        <time>2021-07-19T14:06:42.000Z</time>
      </trkpt>
      <trkpt lat="43.6645" lon="3.3359">
        <ele>165.80000305176</ele>
        <time>2021-07-19T14:06:43.000Z</time>
      </trkpt>
      <trkpt lat="43.66452" lon="3.33589">
        <ele>166.19999694824</ele>
        <time>2021-07-19T14:06:44.000Z</time>
      </trkpt>
      <trkpt lat="43.66459" lon="3.33586">
        <ele>166.19999694824</ele>
        <time>2021-07-19T14:06:48.000Z</time>
      </trkpt>
      <trkpt lat="43.66469" lon="3.33584">
        <ele>166.60000610352</ele>
        <time>2021-07-19T14:06:54.000Z</time>
      </trkpt>
      <trkpt lat="43.66471" lon="3.33584">
        <ele>167.39999389648</ele>
        <time>2021-07-19T14:06:55.000Z</time>
      </trkpt>
      <trkpt lat="43.66473" lon="3.33584">
        <ele>168</ele>
        <time>2021-07-19T14:06:56.000Z</time>
      </trkpt>
      <trkpt lat="43.66475" lon="3.33584">
        <ele>168.39999389648</ele>
        <time>2021-07-19T14:06:57.000Z</time>
      </trkpt>
      <trkpt lat="43.6649" lon="3.33588">
        <ele>168.39999389648</ele>
        <time>2021-07-19T14:07:05.000Z</time>
      </trkpt>
      <trkpt lat="43.66497" lon="3.33589">
        <ele>168.80000305176</ele>
        <time>2021-07-19T14:07:08.000Z</time>
      </trkpt>
      <trkpt lat="43.66499" lon="3.33589">
        <ele>169.19999694824</ele>
        <time>2021-07-19T14:07:09.000Z</time>
      </trkpt>
      <trkpt lat="43.66501" lon="3.33589">
        <ele>169.60000610352</ele>
        <time>2021-07-19T14:07:10.000Z</time>
      </trkpt>
      <trkpt lat="43.66503" lon="3.33589">
        <ele>170</ele>
        <time>2021-07-19T14:07:11.000Z</time>
      </trkpt>
      <trkpt lat="43.66505" lon="3.33589">
        <ele>170.39999389648</ele>
        <time>2021-07-19T14:07:12.000Z</time>
      </trkpt>
      <trkpt lat="43.66506" lon="3.33588">
        <ele>170.39999389648</ele>
        <time>2021-07-19T14:07:13.000Z</time>
      </trkpt>
      <trkpt lat="43.66514" lon="3.33575">
        <ele>171.19999694824</ele>
        <time>2021-07-19T14:07:19.000Z</time>
      </trkpt>
      <trkpt lat="43.66513" lon="3.33572">
        <ele>171.60000610352</ele>
        <time>2021-07-19T14:07:20.000Z</time>
      </trkpt>
      <trkpt lat="43.66512" lon="3.33568">
        <ele>172</ele>
        <time>2021-07-19T14:07:21.000Z</time>
      </trkpt>
      <trkpt lat="43.66511" lon="3.33566">
        <ele>172.39999389648</ele>
        <time>2021-07-19T14:07:22.000Z</time>
      </trkpt>
      <trkpt lat="43.66508" lon="3.33563">
        <ele>172.39999389648</ele>
        <time>2021-07-19T14:07:24.000Z</time>
      </trkpt>
      <trkpt lat="43.66503" lon="3.33559">
        <ele>172.80000305176</ele>
        <time>2021-07-19T14:07:27.000Z</time>
      </trkpt>
      <trkpt lat="43.66501" lon="3.33557">
        <ele>173.39999389648</ele>
        <time>2021-07-19T14:07:28.000Z</time>
      </trkpt>
      <trkpt lat="43.665" lon="3.33556">
        <ele>173.80000305176</ele>
        <time>2021-07-19T14:07:29.000Z</time>
      </trkpt>
      <trkpt lat="43.66498" lon="3.33554">
        <ele>174.19999694824</ele>
        <time>2021-07-19T14:07:30.000Z</time>
      </trkpt>
      <trkpt lat="43.66497" lon="3.33553">
        <ele>174.60000610352</ele>
        <time>2021-07-19T14:07:31.000Z</time>
      </trkpt>
      <trkpt lat="43.66488" lon="3.3354">
        <ele>174.60000610352</ele>
        <time>2021-07-19T14:07:37.000Z</time>
      </trkpt>
      <trkpt lat="43.66487" lon="3.33537">
        <ele>175</ele>
        <time>2021-07-19T14:07:38.000Z</time>
      </trkpt>
      <trkpt lat="43.66487" lon="3.33534">
        <ele>175.60000610352</ele>
        <time>2021-07-19T14:07:39.000Z</time>
      </trkpt>
      <trkpt lat="43.66487" lon="3.33531">
        <ele>176</ele>
        <time>2021-07-19T14:07:40.000Z</time>
      </trkpt>
      <trkpt lat="43.66489" lon="3.33529">
        <ele>176.39999389648</ele>
        <time>2021-07-19T14:07:41.000Z</time>
      </trkpt>
      <trkpt lat="43.66491" lon="3.33527">
        <ele>177</ele>
        <time>2021-07-19T14:07:42.000Z</time>
      </trkpt>
      <trkpt lat="43.66497" lon="3.33525">
        <ele>177</ele>
        <time>2021-07-19T14:07:44.000Z</time>
      </trkpt>
      <trkpt lat="43.66503" lon="3.33524">
        <ele>177</ele>
        <time>2021-07-19T14:07:46.000Z</time>
      </trkpt>
      <trkpt lat="43.66528" lon="3.33517">
        <ele>177</ele>
        <time>2021-07-19T14:07:54.000Z</time>
      </trkpt>
      <trkpt lat="43.66552" lon="3.33518">
        <ele>177</ele>
        <time>2021-07-19T14:08:01.000Z</time>
      </trkpt>
      <trkpt lat="43.66576" lon="3.33531">
        <ele>177</ele>
        <time>2021-07-19T14:08:08.000Z</time>
      </trkpt>
      <trkpt lat="43.666" lon="3.33547">
        <ele>177</ele>
        <time>2021-07-19T14:08:15.000Z</time>
      </trkpt>
      <trkpt lat="43.66626" lon="3.33564">
        <ele>177</ele>
        <time>2021-07-19T14:08:23.000Z</time>
      </trkpt>
      <trkpt lat="43.66629" lon="3.33565">
        <ele>177.39999389648</ele>
        <time>2021-07-19T14:08:24.000Z</time>
      </trkpt>
      <trkpt lat="43.66633" lon="3.33567">
        <ele>177.80000305176</ele>
        <time>2021-07-19T14:08:25.000Z</time>
      </trkpt>
      <trkpt lat="43.66636" lon="3.33569">
        <ele>178.19999694824</ele>
        <time>2021-07-19T14:08:26.000Z</time>
      </trkpt>
      <trkpt lat="43.6664" lon="3.33571">
        <ele>178.60000610352</ele>
        <time>2021-07-19T14:08:27.000Z</time>
      </trkpt>
      <trkpt lat="43.66643" lon="3.33572">
        <ele>179</ele>
        <time>2021-07-19T14:08:28.000Z</time>
      </trkpt>
      <trkpt lat="43.66654" lon="3.33576">
        <ele>179</ele>
        <time>2021-07-19T14:08:31.000Z</time>
      </trkpt>
      <trkpt lat="43.66665" lon="3.33579">
        <ele>179</ele>
        <time>2021-07-19T14:08:34.000Z</time>
      </trkpt>
      <trkpt lat="43.66684" lon="3.33582">
        <ele>179</ele>
        <time>2021-07-19T14:08:39.000Z</time>
      </trkpt>
      <trkpt lat="43.66716" lon="3.33581">
        <ele>179</ele>
        <time>2021-07-19T14:08:47.000Z</time>
      </trkpt>
      <trkpt lat="43.66732" lon="3.33577">
        <ele>179.39999389648</ele>
        <time>2021-07-19T14:08:51.000Z</time>
      </trkpt>
      <trkpt lat="43.66736" lon="3.33576">
        <ele>179.80000305176</ele>
        <time>2021-07-19T14:08:52.000Z</time>
      </trkpt>
      <trkpt lat="43.6674" lon="3.33575">
        <ele>180.19999694824</ele>
        <time>2021-07-19T14:08:53.000Z</time>
      </trkpt>
      <trkpt lat="43.66744" lon="3.33573">
        <ele>180.60000610352</ele>
        <time>2021-07-19T14:08:54.000Z</time>
      </trkpt>
      <trkpt lat="43.66748" lon="3.33572">
        <ele>181</ele>
        <time>2021-07-19T14:08:55.000Z</time>
      </trkpt>
      <trkpt lat="43.66763" lon="3.33562">
        <ele>181</ele>
        <time>2021-07-19T14:08:59.000Z</time>
      </trkpt>
      <trkpt lat="43.66781" lon="3.33554">
        <ele>181</ele>
        <time>2021-07-19T14:09:04.000Z</time>
      </trkpt>
      <trkpt lat="43.66785" lon="3.33555">
        <ele>181</ele>
        <time>2021-07-19T14:09:05.000Z</time>
      </trkpt>
      <trkpt lat="43.668" lon="3.33566">
        <ele>181</ele>
        <time>2021-07-19T14:09:09.000Z</time>
      </trkpt>
      <trkpt lat="43.66818" lon="3.33568">
        <ele>181</ele>
        <time>2021-07-19T14:09:14.000Z</time>
      </trkpt>
      <trkpt lat="43.66824" lon="3.33565">
        <ele>181</ele>
        <time>2021-07-19T14:09:16.000Z</time>
      </trkpt>
      <trkpt lat="43.66827" lon="3.33564">
        <ele>181.60000610352</ele>
        <time>2021-07-19T14:09:17.000Z</time>
      </trkpt>
      <trkpt lat="43.66829" lon="3.33563">
        <ele>182</ele>
        <time>2021-07-19T14:09:18.000Z</time>
      </trkpt>
      <trkpt lat="43.66831" lon="3.33562">
        <ele>182.60000610352</ele>
        <time>2021-07-19T14:09:19.000Z</time>
      </trkpt>
      <trkpt lat="43.66834" lon="3.33561">
        <ele>183</ele>
        <time>2021-07-19T14:09:20.000Z</time>
      </trkpt>
      <trkpt lat="43.66836" lon="3.33561">
        <ele>183.60000610352</ele>
        <time>2021-07-19T14:09:21.000Z</time>
      </trkpt>
      <trkpt lat="43.66846" lon="3.3356">
        <ele>183.60000610352</ele>
        <time>2021-07-19T14:09:25.000Z</time>
      </trkpt>
      <trkpt lat="43.66864" lon="3.33561">
        <ele>183.60000610352</ele>
        <time>2021-07-19T14:09:31.000Z</time>
      </trkpt>
      <trkpt lat="43.66882" lon="3.3356">
        <ele>183.60000610352</ele>
        <time>2021-07-19T14:09:37.000Z</time>
      </trkpt>
      <trkpt lat="43.66895" lon="3.33556">
        <ele>183.60000610352</ele>
        <time>2021-07-19T14:09:42.000Z</time>
      </trkpt>
      <trkpt lat="43.66912" lon="3.33552">
        <ele>183.60000610352</ele>
        <time>2021-07-19T14:09:46.000Z</time>
      </trkpt>
      <trkpt lat="43.66916" lon="3.33553">
        <ele>183.60000610352</ele>
        <time>2021-07-19T14:09:47.000Z</time>
      </trkpt>
      <trkpt lat="43.66925" lon="3.33554">
        <ele>183.60000610352</ele>
        <time>2021-07-19T14:09:49.000Z</time>
      </trkpt>
      <trkpt lat="43.66938" lon="3.33554">
        <ele>183.60000610352</ele>
        <time>2021-07-19T14:09:52.000Z</time>
      </trkpt>
      <trkpt lat="43.6695" lon="3.33554">
        <ele>183.60000610352</ele>
        <time>2021-07-19T14:09:55.000Z</time>
      </trkpt>
      <trkpt lat="43.66962" lon="3.33557">
        <ele>183.60000610352</ele>
        <time>2021-07-19T14:09:58.000Z</time>
      </trkpt>
      <trkpt lat="43.6697" lon="3.33557">
        <ele>183.60000610352</ele>
        <time>2021-07-19T14:10:00.000Z</time>
      </trkpt>
      <trkpt lat="43.66985" lon="3.33558">
        <ele>183.60000610352</ele>
        <time>2021-07-19T14:10:03.000Z</time>
      </trkpt>
      <trkpt lat="43.67003" lon="3.33564">
        <ele>183.60000610352</ele>
        <time>2021-07-19T14:10:07.000Z</time>
      </trkpt>
      <trkpt lat="43.67016" lon="3.33564">
        <ele>183.60000610352</ele>
        <time>2021-07-19T14:10:11.000Z</time>
      </trkpt>
      <trkpt lat="43.67022" lon="3.33553">
        <ele>183</ele>
        <time>2021-07-19T14:10:15.000Z</time>
      </trkpt>
      <trkpt lat="43.67023" lon="3.33551">
        <ele>182.60000610352</ele>
        <time>2021-07-19T14:10:16.000Z</time>
      </trkpt>
      <trkpt lat="43.67026" lon="3.33549">
        <ele>182</ele>
        <time>2021-07-19T14:10:17.000Z</time>
      </trkpt>
      <trkpt lat="43.67028" lon="3.33547">
        <ele>181.39999389648</ele>
        <time>2021-07-19T14:10:18.000Z</time>
      </trkpt>
      <trkpt lat="43.67031" lon="3.33545">
        <ele>180.80000305176</ele>
        <time>2021-07-19T14:10:19.000Z</time>
      </trkpt>
      <trkpt lat="43.67032" lon="3.33541">
        <ele>180.19999694824</ele>
        <time>2021-07-19T14:10:20.000Z</time>
      </trkpt>
      <trkpt lat="43.67032" lon="3.33536">
        <ele>179.60000610352</ele>
        <time>2021-07-19T14:10:21.000Z</time>
      </trkpt>
      <trkpt lat="43.67031" lon="3.33532">
        <ele>179</ele>
        <time>2021-07-19T14:10:22.000Z</time>
      </trkpt>
      <trkpt lat="43.67033" lon="3.33528">
        <ele>178.39999389648</ele>
        <time>2021-07-19T14:10:23.000Z</time>
      </trkpt>
      <trkpt lat="43.67036" lon="3.33526">
        <ele>177.80000305176</ele>
        <time>2021-07-19T14:10:24.000Z</time>
      </trkpt>
      <trkpt lat="43.67038" lon="3.33524">
        <ele>177.39999389648</ele>
        <time>2021-07-19T14:10:25.000Z</time>
      </trkpt>
      <trkpt lat="43.67041" lon="3.33522">
        <ele>177</ele>
        <time>2021-07-19T14:10:26.000Z</time>
      </trkpt>
      <trkpt lat="43.67045" lon="3.33521">
        <ele>176.60000610352</ele>
        <time>2021-07-19T14:10:27.000Z</time>
      </trkpt>
      <trkpt lat="43.6705" lon="3.3352">
        <ele>176.19999694824</ele>
        <time>2021-07-19T14:10:28.000Z</time>
      </trkpt>
      <trkpt lat="43.67054" lon="3.3352">
        <ele>176.19999694824</ele>
        <time>2021-07-19T14:10:29.000Z</time>
      </trkpt>
      <trkpt lat="43.67057" lon="3.33519">
        <ele>175.60000610352</ele>
        <time>2021-07-19T14:10:30.000Z</time>
      </trkpt>
      <trkpt lat="43.67059" lon="3.33519">
        <ele>175.19999694824</ele>
        <time>2021-07-19T14:10:31.000Z</time>
      </trkpt>
      <trkpt lat="43.6706" lon="3.33519">
        <ele>174.60000610352</ele>
        <time>2021-07-19T14:10:32.000Z</time>
      </trkpt>
      <trkpt lat="43.6706" lon="3.33519">
        <ele>174</ele>
        <time>2021-07-19T14:10:33.000Z</time>
      </trkpt>
      <trkpt lat="43.67061" lon="3.33519">
        <ele>173.60000610352</ele>
        <time>2021-07-19T14:10:34.000Z</time>
      </trkpt>
      <trkpt lat="43.67063" lon="3.33519">
        <ele>173.60000610352</ele>
        <time>2021-07-19T14:10:38.000Z</time>
      </trkpt>
      <trkpt lat="43.67063" lon="3.33519">
        <ele>173.60000610352</ele>
        <time>2021-07-19T14:10:39.000Z</time>
      </trkpt>
      <trkpt lat="43.67064" lon="3.3352">
        <ele>173.60000610352</ele>
        <time>2021-07-19T14:10:43.000Z</time>
      </trkpt>
      <trkpt lat="43.6707" lon="3.33518">
        <ele>173.19999694824</ele>
        <time>2021-07-19T14:10:45.000Z</time>
      </trkpt>
      <trkpt lat="43.67073" lon="3.33519">
        <ele>172.60000610352</ele>
        <time>2021-07-19T14:10:46.000Z</time>
      </trkpt>
      <trkpt lat="43.67077" lon="3.3352">
        <ele>172.19999694824</ele>
        <time>2021-07-19T14:10:47.000Z</time>
      </trkpt>
      <trkpt lat="43.67081" lon="3.3352">
        <ele>171.80000305176</ele>
        <time>2021-07-19T14:10:48.000Z</time>
      </trkpt>
      <trkpt lat="43.67086" lon="3.33521">
        <ele>171.19999694824</ele>
        <time>2021-07-19T14:10:49.000Z</time>
      </trkpt>
      <trkpt lat="43.6709" lon="3.3352">
        <ele>171.19999694824</ele>
        <time>2021-07-19T14:10:50.000Z</time>
      </trkpt>
      <trkpt lat="43.67102" lon="3.33516">
        <ele>171.19999694824</ele>
        <time>2021-07-19T14:10:53.000Z</time>
      </trkpt>
      <trkpt lat="43.67105" lon="3.33517">
        <ele>170.80000305176</ele>
        <time>2021-07-19T14:10:54.000Z</time>
      </trkpt>
      <trkpt lat="43.67108" lon="3.33515">
        <ele>170.39999389648</ele>
        <time>2021-07-19T14:10:55.000Z</time>
      </trkpt>
      <trkpt lat="43.67112" lon="3.33512">
        <ele>170</ele>
        <time>2021-07-19T14:10:56.000Z</time>
      </trkpt>
      <trkpt lat="43.67117" lon="3.3351">
        <ele>169.60000610352</ele>
        <time>2021-07-19T14:10:57.000Z</time>
      </trkpt>
      <trkpt lat="43.67122" lon="3.33508">
        <ele>169.19999694824</ele>
        <time>2021-07-19T14:10:58.000Z</time>
      </trkpt>
      <trkpt lat="43.67131" lon="3.33505">
        <ele>168.80000305176</ele>
        <time>2021-07-19T14:11:00.000Z</time>
      </trkpt>
      <trkpt lat="43.67135" lon="3.33506">
        <ele>168</ele>
        <time>2021-07-19T14:11:01.000Z</time>
      </trkpt>
      <trkpt lat="43.67138" lon="3.33506">
        <ele>167.60000610352</ele>
        <time>2021-07-19T14:11:02.000Z</time>
      </trkpt>
      <trkpt lat="43.6714" lon="3.33506">
        <ele>167.19999694824</ele>
        <time>2021-07-19T14:11:03.000Z</time>
      </trkpt>
      <trkpt lat="43.67143" lon="3.33506">
        <ele>166.80000305176</ele>
        <time>2021-07-19T14:11:04.000Z</time>
      </trkpt>
      <trkpt lat="43.67145" lon="3.33506">
        <ele>166.39999389648</ele>
        <time>2021-07-19T14:11:05.000Z</time>
      </trkpt>
      <trkpt lat="43.67146" lon="3.33507">
        <ele>165.80000305176</ele>
        <time>2021-07-19T14:11:06.000Z</time>
      </trkpt>
      <trkpt lat="43.67147" lon="3.33507">
        <ele>165.39999389648</ele>
        <time>2021-07-19T14:11:07.000Z</time>
      </trkpt>
      <trkpt lat="43.67146" lon="3.33507">
        <ele>165</ele>
        <time>2021-07-19T14:11:08.000Z</time>
      </trkpt>
      <trkpt lat="43.6715" lon="3.33505">
        <ele>165</ele>
        <time>2021-07-19T14:12:00.000Z</time>
      </trkpt>
      <trkpt lat="43.67159" lon="3.33497">
        <ele>165</ele>
        <time>2021-07-19T14:12:04.000Z</time>
      </trkpt>
      <trkpt lat="43.67167" lon="3.33494">
        <ele>165</ele>
        <time>2021-07-19T14:12:06.000Z</time>
      </trkpt>
      <trkpt lat="43.67173" lon="3.33489">
        <ele>164.60000610352</ele>
        <time>2021-07-19T14:12:08.000Z</time>
      </trkpt>
      <trkpt lat="43.67177" lon="3.33487">
        <ele>164.19999694824</ele>
        <time>2021-07-19T14:12:09.000Z</time>
      </trkpt>
      <trkpt lat="43.6718" lon="3.33487">
        <ele>163.80000305176</ele>
        <time>2021-07-19T14:12:10.000Z</time>
      </trkpt>
      <trkpt lat="43.67184" lon="3.3349">
        <ele>163.39999389648</ele>
        <time>2021-07-19T14:12:11.000Z</time>
      </trkpt>
      <trkpt lat="43.67187" lon="3.33494">
        <ele>163</ele>
        <time>2021-07-19T14:12:12.000Z</time>
      </trkpt>
      <trkpt lat="43.67197" lon="3.33502">
        <ele>163</ele>
        <time>2021-07-19T14:12:15.000Z</time>
      </trkpt>
      <trkpt lat="43.6721" lon="3.33514">
        <ele>163</ele>
        <time>2021-07-19T14:12:20.000Z</time>
      </trkpt>
      <trkpt lat="43.67213" lon="3.33514">
        <ele>163</ele>
        <time>2021-07-19T14:12:21.000Z</time>
      </trkpt>
      <trkpt lat="43.6722" lon="3.33515">
        <ele>163</ele>
        <time>2021-07-19T14:12:23.000Z</time>
      </trkpt>
      <trkpt lat="43.67225" lon="3.33522">
        <ele>163</ele>
        <time>2021-07-19T14:12:26.000Z</time>
      </trkpt>
      <trkpt lat="43.67225" lon="3.33522">
        <ele>163</ele>
        <time>2021-07-19T14:12:27.000Z</time>
      </trkpt>
      <trkpt lat="43.67229" lon="3.33521">
        <ele>163</ele>
        <time>2021-07-19T14:12:51.000Z</time>
      </trkpt>
      <trkpt lat="43.67231" lon="3.33518">
        <ele>163</ele>
        <time>2021-07-19T14:12:52.000Z</time>
      </trkpt>
      <trkpt lat="43.67237" lon="3.33509">
        <ele>162.60000610352</ele>
        <time>2021-07-19T14:12:55.000Z</time>
      </trkpt>
      <trkpt lat="43.6724" lon="3.33506">
        <ele>162.19999694824</ele>
        <time>2021-07-19T14:12:56.000Z</time>
      </trkpt>
      <trkpt lat="43.67244" lon="3.33504">
        <ele>161.80000305176</ele>
        <time>2021-07-19T14:12:57.000Z</time>
      </trkpt>
      <trkpt lat="43.67249" lon="3.33503">
        <ele>161.19999694824</ele>
        <time>2021-07-19T14:12:58.000Z</time>
      </trkpt>
      <trkpt lat="43.67254" lon="3.33502">
        <ele>160.80000305176</ele>
        <time>2021-07-19T14:12:59.000Z</time>
      </trkpt>
      <trkpt lat="43.67257" lon="3.33501">
        <ele>160.19999694824</ele>
        <time>2021-07-19T14:13:00.000Z</time>
      </trkpt>
      <trkpt lat="43.67262" lon="3.33503">
        <ele>159.60000610352</ele>
        <time>2021-07-19T14:13:01.000Z</time>
      </trkpt>
      <trkpt lat="43.67266" lon="3.33505">
        <ele>159</ele>
        <time>2021-07-19T14:13:02.000Z</time>
      </trkpt>
      <trkpt lat="43.6727" lon="3.33509">
        <ele>158.60000610352</ele>
        <time>2021-07-19T14:13:03.000Z</time>
      </trkpt>
      <trkpt lat="43.67273" lon="3.33514">
        <ele>158</ele>
        <time>2021-07-19T14:13:04.000Z</time>
      </trkpt>
      <trkpt lat="43.67276" lon="3.33519">
        <ele>157</ele>
        <time>2021-07-19T14:13:05.000Z</time>
      </trkpt>
      <trkpt lat="43.67278" lon="3.33524">
        <ele>156.39999389648</ele>
        <time>2021-07-19T14:13:06.000Z</time>
      </trkpt>
      <trkpt lat="43.67289" lon="3.33527">
        <ele>156.39999389648</ele>
        <time>2021-07-19T14:13:09.000Z</time>
      </trkpt>
      <trkpt lat="43.673" lon="3.33535">
        <ele>156.39999389648</ele>
        <time>2021-07-19T14:13:13.000Z</time>
      </trkpt>
      <trkpt lat="43.67306" lon="3.33541">
        <ele>156.39999389648</ele>
        <time>2021-07-19T14:13:15.000Z</time>
      </trkpt>
      <trkpt lat="43.67309" lon="3.33547">
        <ele>156.39999389648</ele>
        <time>2021-07-19T14:13:16.000Z</time>
      </trkpt>
      <trkpt lat="43.6731" lon="3.33554">
        <ele>156.39999389648</ele>
        <time>2021-07-19T14:13:17.000Z</time>
      </trkpt>
      <trkpt lat="43.6732" lon="3.33558">
        <ele>156.39999389648</ele>
        <time>2021-07-19T14:13:20.000Z</time>
      </trkpt>
      <trkpt lat="43.67324" lon="3.33559">
        <ele>156.39999389648</ele>
        <time>2021-07-19T14:13:21.000Z</time>
      </trkpt>
      <trkpt lat="43.67329" lon="3.33562">
        <ele>156.39999389648</ele>
        <time>2021-07-19T14:13:23.000Z</time>
      </trkpt>
      <trkpt lat="43.67333" lon="3.33567">
        <ele>156.39999389648</ele>
        <time>2021-07-19T14:13:25.000Z</time>
      </trkpt>
      <trkpt lat="43.67342" lon="3.33585">
        <ele>156.39999389648</ele>
        <time>2021-07-19T14:13:30.000Z</time>
      </trkpt>
      <trkpt lat="43.6735" lon="3.33599">
        <ele>156.39999389648</ele>
        <time>2021-07-19T14:13:34.000Z</time>
      </trkpt>
      <trkpt lat="43.67354" lon="3.33608">
        <ele>156.39999389648</ele>
        <time>2021-07-19T14:13:36.000Z</time>
      </trkpt>
      <trkpt lat="43.67361" lon="3.33613">
        <ele>156.39999389648</ele>
        <time>2021-07-19T14:13:38.000Z</time>
      </trkpt>
      <trkpt lat="43.67366" lon="3.3362">
        <ele>157</ele>
        <time>2021-07-19T14:13:41.000Z</time>
      </trkpt>
      <trkpt lat="43.67368" lon="3.33622">
        <ele>157.39999389648</ele>
        <time>2021-07-19T14:13:42.000Z</time>
      </trkpt>
      <trkpt lat="43.67369" lon="3.33626">
        <ele>157.80000305176</ele>
        <time>2021-07-19T14:13:43.000Z</time>
      </trkpt>
      <trkpt lat="43.67371" lon="3.3363">
        <ele>158.19999694824</ele>
        <time>2021-07-19T14:13:44.000Z</time>
      </trkpt>
      <trkpt lat="43.67372" lon="3.33634">
        <ele>158.60000610352</ele>
        <time>2021-07-19T14:13:45.000Z</time>
      </trkpt>
      <trkpt lat="43.67373" lon="3.33638">
        <ele>158.60000610352</ele>
        <time>2021-07-19T14:13:46.000Z</time>
      </trkpt>
      <trkpt lat="43.67378" lon="3.33652">
        <ele>158.60000610352</ele>
        <time>2021-07-19T14:13:50.000Z</time>
      </trkpt>
      <trkpt lat="43.6738" lon="3.33651">
        <ele>158.60000610352</ele>
        <time>2021-07-19T14:13:51.000Z</time>
      </trkpt>
      <trkpt lat="43.67389" lon="3.33642">
        <ele>158.60000610352</ele>
        <time>2021-07-19T14:13:54.000Z</time>
      </trkpt>
      <trkpt lat="43.67396" lon="3.33643">
        <ele>158.60000610352</ele>
        <time>2021-07-19T14:13:57.000Z</time>
      </trkpt>
      <trkpt lat="43.67403" lon="3.33644">
        <ele>158.60000610352</ele>
        <time>2021-07-19T14:14:00.000Z</time>
      </trkpt>
      <trkpt lat="43.67408" lon="3.33641">
        <ele>158.60000610352</ele>
        <time>2021-07-19T14:14:02.000Z</time>
      </trkpt>
      <trkpt lat="43.67411" lon="3.33639">
        <ele>158.19999694824</ele>
        <time>2021-07-19T14:14:03.000Z</time>
      </trkpt>
      <trkpt lat="43.67414" lon="3.33637">
        <ele>157.80000305176</ele>
        <time>2021-07-19T14:14:04.000Z</time>
      </trkpt>
      <trkpt lat="43.67418" lon="3.33634">
        <ele>157.39999389648</ele>
        <time>2021-07-19T14:14:05.000Z</time>
      </trkpt>
      <trkpt lat="43.67422" lon="3.33632">
        <ele>157</ele>
        <time>2021-07-19T14:14:06.000Z</time>
      </trkpt>
      <trkpt lat="43.67425" lon="3.3363">
        <ele>156.60000610352</ele>
        <time>2021-07-19T14:14:07.000Z</time>
      </trkpt>
      <trkpt lat="43.67433" lon="3.3363">
        <ele>156.19999694824</ele>
        <time>2021-07-19T14:14:10.000Z</time>
      </trkpt>
      <trkpt lat="43.67434" lon="3.33629">
        <ele>155.80000305176</ele>
        <time>2021-07-19T14:14:11.000Z</time>
      </trkpt>
      <trkpt lat="43.67434" lon="3.33629">
        <ele>155.39999389648</ele>
        <time>2021-07-19T14:14:12.000Z</time>
      </trkpt>
      <trkpt lat="43.67437" lon="3.33627">
        <ele>154.39999389648</ele>
        <time>2021-07-19T14:14:36.000Z</time>
      </trkpt>
      <trkpt lat="43.67439" lon="3.33625">
        <ele>154.39999389648</ele>
        <time>2021-07-19T14:14:37.000Z</time>
      </trkpt>
      <trkpt lat="43.67444" lon="3.33624">
        <ele>154.39999389648</ele>
        <time>2021-07-19T14:14:39.000Z</time>
      </trkpt>
      <trkpt lat="43.6745" lon="3.33623">
        <ele>154</ele>
        <time>2021-07-19T14:14:41.000Z</time>
      </trkpt>
      <trkpt lat="43.67453" lon="3.33624">
        <ele>153.39999389648</ele>
        <time>2021-07-19T14:14:42.000Z</time>
      </trkpt>
      <trkpt lat="43.67457" lon="3.33624">
        <ele>153</ele>
        <time>2021-07-19T14:14:43.000Z</time>
      </trkpt>
      <trkpt lat="43.67461" lon="3.33623">
        <ele>151.80000305176</ele>
        <time>2021-07-19T14:14:44.000Z</time>
      </trkpt>
      <trkpt lat="43.67464" lon="3.33622">
        <ele>151</ele>
        <time>2021-07-19T14:14:45.000Z</time>
      </trkpt>
      <trkpt lat="43.67467" lon="3.33621">
        <ele>150.39999389648</ele>
        <time>2021-07-19T14:14:46.000Z</time>
      </trkpt>
      <trkpt lat="43.67469" lon="3.3362">
        <ele>149.80000305176</ele>
        <time>2021-07-19T14:14:47.000Z</time>
      </trkpt>
      <trkpt lat="43.67472" lon="3.3362">
        <ele>149.19999694824</ele>
        <time>2021-07-19T14:14:48.000Z</time>
      </trkpt>
      <trkpt lat="43.67476" lon="3.3362">
        <ele>148.60000610352</ele>
        <time>2021-07-19T14:14:49.000Z</time>
      </trkpt>
      <trkpt lat="43.6748" lon="3.33624">
        <ele>148</ele>
        <time>2021-07-19T14:14:50.000Z</time>
      </trkpt>
      <trkpt lat="43.67485" lon="3.33628">
        <ele>147.60000610352</ele>
        <time>2021-07-19T14:14:51.000Z</time>
      </trkpt>
      <trkpt lat="43.6749" lon="3.33631">
        <ele>147</ele>
        <time>2021-07-19T14:14:52.000Z</time>
      </trkpt>
      <trkpt lat="43.67492" lon="3.33631">
        <ele>146.39999389648</ele>
        <time>2021-07-19T14:14:53.000Z</time>
      </trkpt>
      <trkpt lat="43.67495" lon="3.33632">
        <ele>146</ele>
        <time>2021-07-19T14:14:54.000Z</time>
      </trkpt>
      <trkpt lat="43.67497" lon="3.33634">
        <ele>145.39999389648</ele>
        <time>2021-07-19T14:14:55.000Z</time>
      </trkpt>
      <trkpt lat="43.67501" lon="3.33639">
        <ele>145.80000305176</ele>
        <time>2021-07-19T14:14:57.000Z</time>
      </trkpt>
      <trkpt lat="43.67502" lon="3.33643">
        <ele>146.19999694824</ele>
        <time>2021-07-19T14:14:58.000Z</time>
      </trkpt>
      <trkpt lat="43.67502" lon="3.33646">
        <ele>146.60000610352</ele>
        <time>2021-07-19T14:14:59.000Z</time>
      </trkpt>
      <trkpt lat="43.67503" lon="3.33649">
        <ele>147</ele>
        <time>2021-07-19T14:15:00.000Z</time>
      </trkpt>
      <trkpt lat="43.67504" lon="3.33652">
        <ele>147.39999389648</ele>
        <time>2021-07-19T14:15:01.000Z</time>
      </trkpt>
      <trkpt lat="43.67505" lon="3.33655">
        <ele>147.39999389648</ele>
        <time>2021-07-19T14:15:02.000Z</time>
      </trkpt>
      <trkpt lat="43.67505" lon="3.33662">
        <ele>147.80000305176</ele>
        <time>2021-07-19T14:15:04.000Z</time>
      </trkpt>
      <trkpt lat="43.67505" lon="3.33665">
        <ele>148.19999694824</ele>
        <time>2021-07-19T14:15:05.000Z</time>
      </trkpt>
      <trkpt lat="43.67505" lon="3.33668">
        <ele>148.60000610352</ele>
        <time>2021-07-19T14:15:06.000Z</time>
      </trkpt>
      <trkpt lat="43.67504" lon="3.33671">
        <ele>149</ele>
        <time>2021-07-19T14:15:07.000Z</time>
      </trkpt>
      <trkpt lat="43.67504" lon="3.33675">
        <ele>149.39999389648</ele>
        <time>2021-07-19T14:15:08.000Z</time>
      </trkpt>
      <trkpt lat="43.67508" lon="3.33689">
        <ele>149.39999389648</ele>
        <time>2021-07-19T14:15:12.000Z</time>
      </trkpt>
      <trkpt lat="43.6751" lon="3.3369">
        <ele>149.39999389648</ele>
        <time>2021-07-19T14:15:14.000Z</time>
      </trkpt>
      <trkpt lat="43.67511" lon="3.33691">
        <ele>149.39999389648</ele>
        <time>2021-07-19T14:15:29.000Z</time>
      </trkpt>
      <trkpt lat="43.67521" lon="3.33704">
        <ele>149.39999389648</ele>
        <time>2021-07-19T14:15:33.000Z</time>
      </trkpt>
      <trkpt lat="43.67528" lon="3.33722">
        <ele>149</ele>
        <time>2021-07-19T14:15:36.000Z</time>
      </trkpt>
      <trkpt lat="43.6753" lon="3.33727">
        <ele>148.60000610352</ele>
        <time>2021-07-19T14:15:37.000Z</time>
      </trkpt>
      <trkpt lat="43.67532" lon="3.3373">
        <ele>148.19999694824</ele>
        <time>2021-07-19T14:15:38.000Z</time>
      </trkpt>
      <trkpt lat="43.67533" lon="3.33733">
        <ele>147.80000305176</ele>
        <time>2021-07-19T14:15:39.000Z</time>
      </trkpt>
      <trkpt lat="43.67534" lon="3.33737">
        <ele>147.39999389648</ele>
        <time>2021-07-19T14:15:40.000Z</time>
      </trkpt>
      <trkpt lat="43.67535" lon="3.33744">
        <ele>147.80000305176</ele>
        <time>2021-07-19T14:15:42.000Z</time>
      </trkpt>
      <trkpt lat="43.67534" lon="3.33747">
        <ele>148.19999694824</ele>
        <time>2021-07-19T14:15:43.000Z</time>
      </trkpt>
      <trkpt lat="43.67534" lon="3.3375">
        <ele>148.60000610352</ele>
        <time>2021-07-19T14:15:44.000Z</time>
      </trkpt>
      <trkpt lat="43.67534" lon="3.33752">
        <ele>149</ele>
        <time>2021-07-19T14:15:45.000Z</time>
      </trkpt>
      <trkpt lat="43.67535" lon="3.33754">
        <ele>149.39999389648</ele>
        <time>2021-07-19T14:15:46.000Z</time>
      </trkpt>
      <trkpt lat="43.67535" lon="3.33759">
        <ele>149.39999389648</ele>
        <time>2021-07-19T14:15:48.000Z</time>
      </trkpt>
      <trkpt lat="43.67535" lon="3.33762">
        <ele>149.80000305176</ele>
        <time>2021-07-19T14:15:49.000Z</time>
      </trkpt>
      <trkpt lat="43.67535" lon="3.33764">
        <ele>150.19999694824</ele>
        <time>2021-07-19T14:15:50.000Z</time>
      </trkpt>
      <trkpt lat="43.67536" lon="3.33766">
        <ele>150.80000305176</ele>
        <time>2021-07-19T14:15:51.000Z</time>
      </trkpt>
      <trkpt lat="43.67536" lon="3.33768">
        <ele>151.19999694824</ele>
        <time>2021-07-19T14:15:52.000Z</time>
      </trkpt>
      <trkpt lat="43.67537" lon="3.33771">
        <ele>151.60000610352</ele>
        <time>2021-07-19T14:15:53.000Z</time>
      </trkpt>
      <trkpt lat="43.67539" lon="3.33775">
        <ele>151.60000610352</ele>
        <time>2021-07-19T14:15:55.000Z</time>
      </trkpt>
      <trkpt lat="43.67541" lon="3.33777">
        <ele>152.19999694824</ele>
        <time>2021-07-19T14:15:56.000Z</time>
      </trkpt>
      <trkpt lat="43.67542" lon="3.33779">
        <ele>152.60000610352</ele>
        <time>2021-07-19T14:15:57.000Z</time>
      </trkpt>
      <trkpt lat="43.67543" lon="3.33782">
        <ele>153.39999389648</ele>
        <time>2021-07-19T14:15:58.000Z</time>
      </trkpt>
      <trkpt lat="43.67543" lon="3.33784">
        <ele>154</ele>
        <time>2021-07-19T14:15:59.000Z</time>
      </trkpt>
      <trkpt lat="43.67545" lon="3.33788">
        <ele>154</ele>
        <time>2021-07-19T14:16:01.000Z</time>
      </trkpt>
      <trkpt lat="43.67547" lon="3.33795">
        <ele>154</ele>
        <time>2021-07-19T14:16:05.000Z</time>
      </trkpt>
      <trkpt lat="43.67549" lon="3.33795">
        <ele>156</ele>
        <time>2021-07-19T14:16:29.000Z</time>
      </trkpt>
      <trkpt lat="43.67549" lon="3.33793">
        <ele>156</ele>
        <time>2021-07-19T14:16:32.000Z</time>
      </trkpt>
      <trkpt lat="43.67547" lon="3.33796">
        <ele>156</ele>
        <time>2021-07-19T14:18:43.000Z</time>
      </trkpt>
      <trkpt lat="43.67547" lon="3.33795">
        <ele>156</ele>
        <time>2021-07-19T14:18:44.000Z</time>
      </trkpt>
      <trkpt lat="43.67547" lon="3.33798">
        <ele>156</ele>
        <time>2021-07-19T14:18:46.000Z</time>
      </trkpt>
      <trkpt lat="43.67547" lon="3.33802">
        <ele>156</ele>
        <time>2021-07-19T14:18:50.000Z</time>
      </trkpt>
      <trkpt lat="43.67547" lon="3.33804">
        <ele>156</ele>
        <time>2021-07-19T14:18:51.000Z</time>
      </trkpt>
      <trkpt lat="43.67544" lon="3.33811">
        <ele>156</ele>
        <time>2021-07-19T14:18:53.000Z</time>
      </trkpt>
      <trkpt lat="43.67546" lon="3.33823">
        <ele>156</ele>
        <time>2021-07-19T14:18:56.000Z</time>
      </trkpt>
      <trkpt lat="43.6755" lon="3.33826">
        <ele>156</ele>
        <time>2021-07-19T14:18:57.000Z</time>
      </trkpt>
      <trkpt lat="43.67555" lon="3.3383">
        <ele>156</ele>
        <time>2021-07-19T14:19:00.000Z</time>
      </trkpt>
      <trkpt lat="43.67554" lon="3.33845">
        <ele>156</ele>
        <time>2021-07-19T14:19:04.000Z</time>
      </trkpt>
      <trkpt lat="43.6756" lon="3.33857">
        <ele>156</ele>
        <time>2021-07-19T14:19:07.000Z</time>
      </trkpt>
      <trkpt lat="43.67569" lon="3.33864">
        <ele>156.39999389648</ele>
        <time>2021-07-19T14:19:11.000Z</time>
      </trkpt>
      <trkpt lat="43.6757" lon="3.33867">
        <ele>156.80000305176</ele>
        <time>2021-07-19T14:19:12.000Z</time>
      </trkpt>
      <trkpt lat="43.67569" lon="3.33871">
        <ele>157.19999694824</ele>
        <time>2021-07-19T14:19:13.000Z</time>
      </trkpt>
      <trkpt lat="43.67568" lon="3.33875">
        <ele>157.80000305176</ele>
        <time>2021-07-19T14:19:14.000Z</time>
      </trkpt>
      <trkpt lat="43.67567" lon="3.33879">
        <ele>158.19999694824</ele>
        <time>2021-07-19T14:19:15.000Z</time>
      </trkpt>
      <trkpt lat="43.67565" lon="3.33884">
        <ele>158.60000610352</ele>
        <time>2021-07-19T14:19:17.000Z</time>
      </trkpt>
      <trkpt lat="43.67563" lon="3.33887">
        <ele>159</ele>
        <time>2021-07-19T14:19:18.000Z</time>
      </trkpt>
      <trkpt lat="43.67563" lon="3.3389">
        <ele>159.39999389648</ele>
        <time>2021-07-19T14:19:19.000Z</time>
      </trkpt>
      <trkpt lat="43.67562" lon="3.33894">
        <ele>159.80000305176</ele>
        <time>2021-07-19T14:19:20.000Z</time>
      </trkpt>
      <trkpt lat="43.67562" lon="3.33898">
        <ele>160.19999694824</ele>
        <time>2021-07-19T14:19:21.000Z</time>
      </trkpt>
      <trkpt lat="43.67564" lon="3.33916">
        <ele>160.19999694824</ele>
        <time>2021-07-19T14:19:26.000Z</time>
      </trkpt>
      <trkpt lat="43.67565" lon="3.33923">
        <ele>160.80000305176</ele>
        <time>2021-07-19T14:19:28.000Z</time>
      </trkpt>
      <trkpt lat="43.67566" lon="3.33926">
        <ele>161.19999694824</ele>
        <time>2021-07-19T14:19:29.000Z</time>
      </trkpt>
      <trkpt lat="43.67566" lon="3.3393">
        <ele>161.60000610352</ele>
        <time>2021-07-19T14:19:30.000Z</time>
      </trkpt>
      <trkpt lat="43.67567" lon="3.33934">
        <ele>162</ele>
        <time>2021-07-19T14:19:31.000Z</time>
      </trkpt>
      <trkpt lat="43.67569" lon="3.33938">
        <ele>162.39999389648</ele>
        <time>2021-07-19T14:19:32.000Z</time>
      </trkpt>
      <trkpt lat="43.67576" lon="3.33973">
        <ele>162.39999389648</ele>
        <time>2021-07-19T14:19:40.000Z</time>
      </trkpt>
      <trkpt lat="43.67579" lon="3.33977">
        <ele>162.39999389648</ele>
        <time>2021-07-19T14:19:41.000Z</time>
      </trkpt>
      <trkpt lat="43.67592" lon="3.33989">
        <ele>162.39999389648</ele>
        <time>2021-07-19T14:19:44.000Z</time>
      </trkpt>
      <trkpt lat="43.67598" lon="3.33994">
        <ele>162.39999389648</ele>
        <time>2021-07-19T14:19:45.000Z</time>
      </trkpt>
      <trkpt lat="43.67603" lon="3.34">
        <ele>162.39999389648</ele>
        <time>2021-07-19T14:19:46.000Z</time>
      </trkpt>
      <trkpt lat="43.67608" lon="3.34007">
        <ele>162</ele>
        <time>2021-07-19T14:19:47.000Z</time>
      </trkpt>
      <trkpt lat="43.67613" lon="3.34014">
        <ele>161.60000610352</ele>
        <time>2021-07-19T14:19:48.000Z</time>
      </trkpt>
      <trkpt lat="43.67618" lon="3.34021">
        <ele>161.19999694824</ele>
        <time>2021-07-19T14:19:49.000Z</time>
      </trkpt>
      <trkpt lat="43.67623" lon="3.3403">
        <ele>160.80000305176</ele>
        <time>2021-07-19T14:19:50.000Z</time>
      </trkpt>
      <trkpt lat="43.67628" lon="3.34039">
        <ele>160.19999694824</ele>
        <time>2021-07-19T14:19:51.000Z</time>
      </trkpt>
      <trkpt lat="43.67633" lon="3.34047">
        <ele>159.60000610352</ele>
        <time>2021-07-19T14:19:52.000Z</time>
      </trkpt>
      <trkpt lat="43.67639" lon="3.34054">
        <ele>158.80000305176</ele>
        <time>2021-07-19T14:19:53.000Z</time>
      </trkpt>
      <trkpt lat="43.67645" lon="3.34059">
        <ele>158.19999694824</ele>
        <time>2021-07-19T14:19:54.000Z</time>
      </trkpt>
      <trkpt lat="43.6765" lon="3.34062">
        <ele>157.80000305176</ele>
        <time>2021-07-19T14:19:55.000Z</time>
      </trkpt>
      <trkpt lat="43.67653" lon="3.34065">
        <ele>157.19999694824</ele>
        <time>2021-07-19T14:19:56.000Z</time>
      </trkpt>
      <trkpt lat="43.67657" lon="3.34066">
        <ele>156.60000610352</ele>
        <time>2021-07-19T14:19:57.000Z</time>
      </trkpt>
      <trkpt lat="43.6766" lon="3.34064">
        <ele>156</ele>
        <time>2021-07-19T14:19:58.000Z</time>
      </trkpt>
      <trkpt lat="43.67664" lon="3.34061">
        <ele>155.39999389648</ele>
        <time>2021-07-19T14:19:59.000Z</time>
      </trkpt>
      <trkpt lat="43.67672" lon="3.3407">
        <ele>155.39999389648</ele>
        <time>2021-07-19T14:20:02.000Z</time>
      </trkpt>
      <trkpt lat="43.67674" lon="3.34072">
        <ele>155</ele>
        <time>2021-07-19T14:20:03.000Z</time>
      </trkpt>
      <trkpt lat="43.67676" lon="3.34073">
        <ele>154.60000610352</ele>
        <time>2021-07-19T14:20:04.000Z</time>
      </trkpt>
      <trkpt lat="43.67679" lon="3.34073">
        <ele>154.19999694824</ele>
        <time>2021-07-19T14:20:05.000Z</time>
      </trkpt>
      <trkpt lat="43.67683" lon="3.34074">
        <ele>153.39999389648</ele>
        <time>2021-07-19T14:20:06.000Z</time>
      </trkpt>
      <trkpt lat="43.6769" lon="3.34078">
        <ele>153</ele>
        <time>2021-07-19T14:20:08.000Z</time>
      </trkpt>
      <trkpt lat="43.67693" lon="3.34079">
        <ele>152.60000610352</ele>
        <time>2021-07-19T14:20:09.000Z</time>
      </trkpt>
      <trkpt lat="43.67694" lon="3.34079">
        <ele>152.19999694824</ele>
        <time>2021-07-19T14:20:10.000Z</time>
      </trkpt>
      <trkpt lat="43.67694" lon="3.3408">
        <ele>151.80000305176</ele>
        <time>2021-07-19T14:20:11.000Z</time>
      </trkpt>
      <trkpt lat="43.67695" lon="3.34083">
        <ele>151.19999694824</ele>
        <time>2021-07-19T14:20:12.000Z</time>
      </trkpt>
      <trkpt lat="43.67698" lon="3.34089">
        <ele>151.19999694824</ele>
        <time>2021-07-19T14:20:14.000Z</time>
      </trkpt>
      <trkpt lat="43.67701" lon="3.34092">
        <ele>150.80000305176</ele>
        <time>2021-07-19T14:20:15.000Z</time>
      </trkpt>
      <trkpt lat="43.67705" lon="3.34097">
        <ele>150.19999694824</ele>
        <time>2021-07-19T14:20:16.000Z</time>
      </trkpt>
      <trkpt lat="43.67709" lon="3.34102">
        <ele>149.39999389648</ele>
        <time>2021-07-19T14:20:17.000Z</time>
      </trkpt>
      <trkpt lat="43.67712" lon="3.34111">
        <ele>148.60000610352</ele>
        <time>2021-07-19T14:20:18.000Z</time>
      </trkpt>
      <trkpt lat="43.67715" lon="3.34118">
        <ele>147.80000305176</ele>
        <time>2021-07-19T14:20:19.000Z</time>
      </trkpt>
      <trkpt lat="43.67719" lon="3.34123">
        <ele>147.19999694824</ele>
        <time>2021-07-19T14:20:20.000Z</time>
      </trkpt>
      <trkpt lat="43.67723" lon="3.34125">
        <ele>146.39999389648</ele>
        <time>2021-07-19T14:20:21.000Z</time>
      </trkpt>
      <trkpt lat="43.67726" lon="3.34125">
        <ele>145.60000610352</ele>
        <time>2021-07-19T14:20:22.000Z</time>
      </trkpt>
      <trkpt lat="43.67729" lon="3.34127">
        <ele>145</ele>
        <time>2021-07-19T14:20:23.000Z</time>
      </trkpt>
      <trkpt lat="43.67732" lon="3.34131">
        <ele>144.19999694824</ele>
        <time>2021-07-19T14:20:24.000Z</time>
      </trkpt>
      <trkpt lat="43.67734" lon="3.3414">
        <ele>144.19999694824</ele>
        <time>2021-07-19T14:20:26.000Z</time>
      </trkpt>
      <trkpt lat="43.67735" lon="3.34144">
        <ele>143.80000305176</ele>
        <time>2021-07-19T14:20:27.000Z</time>
      </trkpt>
      <trkpt lat="43.67738" lon="3.34146">
        <ele>143.19999694824</ele>
        <time>2021-07-19T14:20:28.000Z</time>
      </trkpt>
      <trkpt lat="43.67743" lon="3.3415">
        <ele>142.80000305176</ele>
        <time>2021-07-19T14:20:29.000Z</time>
      </trkpt>
      <trkpt lat="43.67746" lon="3.34157">
        <ele>142</ele>
        <time>2021-07-19T14:20:30.000Z</time>
      </trkpt>
      <trkpt lat="43.67748" lon="3.34165">
        <ele>141.39999389648</ele>
        <time>2021-07-19T14:20:31.000Z</time>
      </trkpt>
      <trkpt lat="43.6775" lon="3.34173">
        <ele>140.80000305176</ele>
        <time>2021-07-19T14:20:32.000Z</time>
      </trkpt>
      <trkpt lat="43.67753" lon="3.34181">
        <ele>140.39999389648</ele>
        <time>2021-07-19T14:20:33.000Z</time>
      </trkpt>
      <trkpt lat="43.67754" lon="3.3419">
        <ele>139.80000305176</ele>
        <time>2021-07-19T14:20:34.000Z</time>
      </trkpt>
      <trkpt lat="43.67761" lon="3.34203">
        <ele>139.39999389648</ele>
        <time>2021-07-19T14:20:36.000Z</time>
      </trkpt>
      <trkpt lat="43.67766" lon="3.34208">
        <ele>139</ele>
        <time>2021-07-19T14:20:37.000Z</time>
      </trkpt>
      <trkpt lat="43.6777" lon="3.34214">
        <ele>138.60000610352</ele>
        <time>2021-07-19T14:20:38.000Z</time>
      </trkpt>
      <trkpt lat="43.67774" lon="3.34222">
        <ele>138.19999694824</ele>
        <time>2021-07-19T14:20:39.000Z</time>
      </trkpt>
      <trkpt lat="43.67777" lon="3.34229">
        <ele>137.60000610352</ele>
        <time>2021-07-19T14:20:40.000Z</time>
      </trkpt>
      <trkpt lat="43.67781" lon="3.34237">
        <ele>137.19999694824</ele>
        <time>2021-07-19T14:20:41.000Z</time>
      </trkpt>
      <trkpt lat="43.67783" lon="3.34245">
        <ele>136.80000305176</ele>
        <time>2021-07-19T14:20:42.000Z</time>
      </trkpt>
      <trkpt lat="43.67786" lon="3.34252">
        <ele>136.19999694824</ele>
        <time>2021-07-19T14:20:43.000Z</time>
      </trkpt>
      <trkpt lat="43.67789" lon="3.34259">
        <ele>135.80000305176</ele>
        <time>2021-07-19T14:20:44.000Z</time>
      </trkpt>
      <trkpt lat="43.67791" lon="3.34266">
        <ele>135.39999389648</ele>
        <time>2021-07-19T14:20:45.000Z</time>
      </trkpt>
      <trkpt lat="43.6779" lon="3.34273">
        <ele>134.80000305176</ele>
        <time>2021-07-19T14:20:46.000Z</time>
      </trkpt>
      <trkpt lat="43.67788" lon="3.34279">
        <ele>134.39999389648</ele>
        <time>2021-07-19T14:20:47.000Z</time>
      </trkpt>
      <trkpt lat="43.67788" lon="3.34284">
        <ele>134</ele>
        <time>2021-07-19T14:20:48.000Z</time>
      </trkpt>
      <trkpt lat="43.67788" lon="3.3429">
        <ele>133.60000610352</ele>
        <time>2021-07-19T14:20:49.000Z</time>
      </trkpt>
      <trkpt lat="43.67789" lon="3.34295">
        <ele>133</ele>
        <time>2021-07-19T14:20:50.000Z</time>
      </trkpt>
      <trkpt lat="43.67789" lon="3.343">
        <ele>132.60000610352</ele>
        <time>2021-07-19T14:20:51.000Z</time>
      </trkpt>
      <trkpt lat="43.67789" lon="3.34304">
        <ele>132</ele>
        <time>2021-07-19T14:20:52.000Z</time>
      </trkpt>
      <trkpt lat="43.67789" lon="3.34304">
        <ele>131.60000610352</ele>
        <time>2021-07-19T14:20:53.000Z</time>
      </trkpt>
      <trkpt lat="43.67789" lon="3.34304">
        <ele>131.60000610352</ele>
        <time>2021-07-19T14:20:54.000Z</time>
      </trkpt>
      <trkpt lat="43.67788" lon="3.34305">
        <ele>131.60000610352</ele>
        <time>2021-07-19T14:21:04.000Z</time>
      </trkpt>
      <trkpt lat="43.67789" lon="3.34322">
        <ele>131.60000610352</ele>
        <time>2021-07-19T14:21:08.000Z</time>
      </trkpt>
      <trkpt lat="43.6779" lon="3.34329">
        <ele>131</ele>
        <time>2021-07-19T14:21:09.000Z</time>
      </trkpt>
      <trkpt lat="43.67791" lon="3.34336">
        <ele>130.60000610352</ele>
        <time>2021-07-19T14:21:10.000Z</time>
      </trkpt>
      <trkpt lat="43.67792" lon="3.34344">
        <ele>130.19999694824</ele>
        <time>2021-07-19T14:21:11.000Z</time>
      </trkpt>
      <trkpt lat="43.67791" lon="3.34351">
        <ele>129.60000610352</ele>
        <time>2021-07-19T14:21:12.000Z</time>
      </trkpt>
      <trkpt lat="43.67791" lon="3.34356">
        <ele>129.19999694824</ele>
        <time>2021-07-19T14:21:13.000Z</time>
      </trkpt>
      <trkpt lat="43.6779" lon="3.34362">
        <ele>129.19999694824</ele>
        <time>2021-07-19T14:21:14.000Z</time>
      </trkpt>
      <trkpt lat="43.67789" lon="3.34367">
        <ele>129.19999694824</ele>
        <time>2021-07-19T14:21:15.000Z</time>
      </trkpt>
      <trkpt lat="43.67787" lon="3.34372">
        <ele>129.19999694824</ele>
        <time>2021-07-19T14:21:16.000Z</time>
      </trkpt>
      <trkpt lat="43.6778" lon="3.34405">
        <ele>129.19999694824</ele>
        <time>2021-07-19T14:21:22.000Z</time>
      </trkpt>
      <trkpt lat="43.67778" lon="3.34416">
        <ele>129.19999694824</ele>
        <time>2021-07-19T14:21:24.000Z</time>
      </trkpt>
      <trkpt lat="43.67776" lon="3.3444">
        <ele>129.19999694824</ele>
        <time>2021-07-19T14:21:28.000Z</time>
      </trkpt>
      <trkpt lat="43.67768" lon="3.34462">
        <ele>129.19999694824</ele>
        <time>2021-07-19T14:21:33.000Z</time>
      </trkpt>
      <trkpt lat="43.67767" lon="3.34466">
        <ele>129.19999694824</ele>
        <time>2021-07-19T14:21:35.000Z</time>
      </trkpt>
      <trkpt lat="43.67767" lon="3.34467">
        <ele>129.60000610352</ele>
        <time>2021-07-19T14:21:36.000Z</time>
      </trkpt>
      <trkpt lat="43.67768" lon="3.34468">
        <ele>130</ele>
        <time>2021-07-19T14:21:37.000Z</time>
      </trkpt>
      <trkpt lat="43.67769" lon="3.34468">
        <ele>130.39999389648</ele>
        <time>2021-07-19T14:21:38.000Z</time>
      </trkpt>
      <trkpt lat="43.67769" lon="3.34468">
        <ele>130.80000305176</ele>
        <time>2021-07-19T14:21:39.000Z</time>
      </trkpt>
      <trkpt lat="43.67768" lon="3.34472">
        <ele>131.19999694824</ele>
        <time>2021-07-19T14:24:05.000Z</time>
      </trkpt>
      <trkpt lat="43.67757" lon="3.34482">
        <ele>131.19999694824</ele>
        <time>2021-07-19T14:24:10.000Z</time>
      </trkpt>
      <trkpt lat="43.67752" lon="3.34486">
        <ele>131.19999694824</ele>
        <time>2021-07-19T14:24:12.000Z</time>
      </trkpt>
      <trkpt lat="43.6774" lon="3.34491">
        <ele>131.19999694824</ele>
        <time>2021-07-19T14:24:16.000Z</time>
      </trkpt>
      <trkpt lat="43.67721" lon="3.34497">
        <ele>131.19999694824</ele>
        <time>2021-07-19T14:24:22.000Z</time>
      </trkpt>
      <trkpt lat="43.67719" lon="3.34499">
        <ele>131.60000610352</ele>
        <time>2021-07-19T14:24:23.000Z</time>
      </trkpt>
      <trkpt lat="43.67716" lon="3.345">
        <ele>132</ele>
        <time>2021-07-19T14:24:24.000Z</time>
      </trkpt>
      <trkpt lat="43.67712" lon="3.34502">
        <ele>132.39999389648</ele>
        <time>2021-07-19T14:24:25.000Z</time>
      </trkpt>
      <trkpt lat="43.6771" lon="3.34504">
        <ele>133</ele>
        <time>2021-07-19T14:24:26.000Z</time>
      </trkpt>
      <trkpt lat="43.67707" lon="3.34507">
        <ele>133.39999389648</ele>
        <time>2021-07-19T14:24:27.000Z</time>
      </trkpt>
      <trkpt lat="43.67704" lon="3.3451">
        <ele>133.39999389648</ele>
        <time>2021-07-19T14:24:28.000Z</time>
      </trkpt>
      <trkpt lat="43.67689" lon="3.34518">
        <ele>133.39999389648</ele>
        <time>2021-07-19T14:24:33.000Z</time>
      </trkpt>
      <trkpt lat="43.67686" lon="3.34519">
        <ele>133.80000305176</ele>
        <time>2021-07-19T14:24:34.000Z</time>
      </trkpt>
      <trkpt lat="43.67684" lon="3.34523">
        <ele>134.19999694824</ele>
        <time>2021-07-19T14:24:35.000Z</time>
      </trkpt>
      <trkpt lat="43.67682" lon="3.34527">
        <ele>134.60000610352</ele>
        <time>2021-07-19T14:24:36.000Z</time>
      </trkpt>
      <trkpt lat="43.67679" lon="3.34531">
        <ele>135.39999389648</ele>
        <time>2021-07-19T14:24:37.000Z</time>
      </trkpt>
      <trkpt lat="43.67676" lon="3.34535">
        <ele>135.39999389648</ele>
        <time>2021-07-19T14:24:38.000Z</time>
      </trkpt>
      <trkpt lat="43.67673" lon="3.3454">
        <ele>135.39999389648</ele>
        <time>2021-07-19T14:24:39.000Z</time>
      </trkpt>
      <trkpt lat="43.6766" lon="3.34553">
        <ele>135.39999389648</ele>
        <time>2021-07-19T14:24:43.000Z</time>
      </trkpt>
      <trkpt lat="43.67646" lon="3.34563">
        <ele>135.39999389648</ele>
        <time>2021-07-19T14:24:47.000Z</time>
      </trkpt>
      <trkpt lat="43.67645" lon="3.34568">
        <ele>135.39999389648</ele>
        <time>2021-07-19T14:24:48.000Z</time>
      </trkpt>
      <trkpt lat="43.67636" lon="3.34585">
        <ele>135.39999389648</ele>
        <time>2021-07-19T14:24:53.000Z</time>
      </trkpt>
      <trkpt lat="43.67632" lon="3.34588">
        <ele>135.39999389648</ele>
        <time>2021-07-19T14:24:55.000Z</time>
      </trkpt>
      <trkpt lat="43.67627" lon="3.34586">
        <ele>135.39999389648</ele>
        <time>2021-07-19T14:24:57.000Z</time>
      </trkpt>
      <trkpt lat="43.67622" lon="3.34587">
        <ele>135.39999389648</ele>
        <time>2021-07-19T14:24:59.000Z</time>
      </trkpt>
      <trkpt lat="43.67619" lon="3.34589">
        <ele>135.80000305176</ele>
        <time>2021-07-19T14:25:00.000Z</time>
      </trkpt>
      <trkpt lat="43.67618" lon="3.34592">
        <ele>136.39999389648</ele>
        <time>2021-07-19T14:25:01.000Z</time>
      </trkpt>
      <trkpt lat="43.67615" lon="3.34593">
        <ele>137.19999694824</ele>
        <time>2021-07-19T14:25:02.000Z</time>
      </trkpt>
      <trkpt lat="43.67613" lon="3.34593">
        <ele>137.60000610352</ele>
        <time>2021-07-19T14:25:03.000Z</time>
      </trkpt>
      <trkpt lat="43.67605" lon="3.34601">
        <ele>137.60000610352</ele>
        <time>2021-07-19T14:25:07.000Z</time>
      </trkpt>
      <trkpt lat="43.6759" lon="3.34615">
        <ele>137.60000610352</ele>
        <time>2021-07-19T14:25:13.000Z</time>
      </trkpt>
      <trkpt lat="43.67587" lon="3.34617">
        <ele>138</ele>
        <time>2021-07-19T14:25:14.000Z</time>
      </trkpt>
      <trkpt lat="43.67584" lon="3.3462">
        <ele>138.39999389648</ele>
        <time>2021-07-19T14:25:15.000Z</time>
      </trkpt>
      <trkpt lat="43.67582" lon="3.34622">
        <ele>138.80000305176</ele>
        <time>2021-07-19T14:25:16.000Z</time>
      </trkpt>
      <trkpt lat="43.67579" lon="3.34623">
        <ele>139.39999389648</ele>
        <time>2021-07-19T14:25:17.000Z</time>
      </trkpt>
      <trkpt lat="43.67576" lon="3.34625">
        <ele>139.80000305176</ele>
        <time>2021-07-19T14:25:18.000Z</time>
      </trkpt>
      <trkpt lat="43.67568" lon="3.34635">
        <ele>139.80000305176</ele>
        <time>2021-07-19T14:25:21.000Z</time>
      </trkpt>
      <trkpt lat="43.67554" lon="3.34661">
        <ele>139.80000305176</ele>
        <time>2021-07-19T14:25:28.000Z</time>
      </trkpt>
      <trkpt lat="43.67545" lon="3.34689">
        <ele>139.80000305176</ele>
        <time>2021-07-19T14:25:34.000Z</time>
      </trkpt>
      <trkpt lat="43.67538" lon="3.34699">
        <ele>139.80000305176</ele>
        <time>2021-07-19T14:25:36.000Z</time>
      </trkpt>
      <trkpt lat="43.67533" lon="3.34704">
        <ele>139.80000305176</ele>
        <time>2021-07-19T14:25:37.000Z</time>
      </trkpt>
      <trkpt lat="43.6753" lon="3.34708">
        <ele>139.80000305176</ele>
        <time>2021-07-19T14:25:38.000Z</time>
      </trkpt>
      <trkpt lat="43.67526" lon="3.34719">
        <ele>139.80000305176</ele>
        <time>2021-07-19T14:25:40.000Z</time>
      </trkpt>
      <trkpt lat="43.67524" lon="3.34725">
        <ele>139.80000305176</ele>
        <time>2021-07-19T14:25:41.000Z</time>
      </trkpt>
      <trkpt lat="43.67517" lon="3.34731">
        <ele>140.19999694824</ele>
        <time>2021-07-19T14:25:44.000Z</time>
      </trkpt>
      <trkpt lat="43.67515" lon="3.34735">
        <ele>140.60000610352</ele>
        <time>2021-07-19T14:25:45.000Z</time>
      </trkpt>
      <trkpt lat="43.67515" lon="3.34738">
        <ele>141</ele>
        <time>2021-07-19T14:25:46.000Z</time>
      </trkpt>
      <trkpt lat="43.67515" lon="3.34742">
        <ele>141.39999389648</ele>
        <time>2021-07-19T14:25:47.000Z</time>
      </trkpt>
      <trkpt lat="43.67515" lon="3.34747">
        <ele>141.80000305176</ele>
        <time>2021-07-19T14:25:48.000Z</time>
      </trkpt>
      <trkpt lat="43.67515" lon="3.3476">
        <ele>141.80000305176</ele>
        <time>2021-07-19T14:25:50.000Z</time>
      </trkpt>
      <trkpt lat="43.67513" lon="3.34776">
        <ele>141.80000305176</ele>
        <time>2021-07-19T14:25:52.000Z</time>
      </trkpt>
      <trkpt lat="43.67512" lon="3.34794">
        <ele>141.80000305176</ele>
        <time>2021-07-19T14:25:54.000Z</time>
      </trkpt>
      <trkpt lat="43.67511" lon="3.34815">
        <ele>141.80000305176</ele>
        <time>2021-07-19T14:25:56.000Z</time>
      </trkpt>
      <trkpt lat="43.67513" lon="3.34837">
        <ele>141.80000305176</ele>
        <time>2021-07-19T14:25:59.000Z</time>
      </trkpt>
      <trkpt lat="43.67513" lon="3.34844">
        <ele>141.80000305176</ele>
        <time>2021-07-19T14:26:00.000Z</time>
      </trkpt>
      <trkpt lat="43.67507" lon="3.34865">
        <ele>141.80000305176</ele>
        <time>2021-07-19T14:26:03.000Z</time>
      </trkpt>
      <trkpt lat="43.67492" lon="3.34885">
        <ele>141.80000305176</ele>
        <time>2021-07-19T14:26:07.000Z</time>
      </trkpt>
      <trkpt lat="43.67488" lon="3.34888">
        <ele>141.80000305176</ele>
        <time>2021-07-19T14:26:08.000Z</time>
      </trkpt>
      <trkpt lat="43.67485" lon="3.34891">
        <ele>141.80000305176</ele>
        <time>2021-07-19T14:26:09.000Z</time>
      </trkpt>
      <trkpt lat="43.67474" lon="3.34896">
        <ele>141.80000305176</ele>
        <time>2021-07-19T14:26:12.000Z</time>
      </trkpt>
      <trkpt lat="43.67471" lon="3.349">
        <ele>141.80000305176</ele>
        <time>2021-07-19T14:26:13.000Z</time>
      </trkpt>
      <trkpt lat="43.67467" lon="3.34904">
        <ele>141.80000305176</ele>
        <time>2021-07-19T14:26:15.000Z</time>
      </trkpt>
      <trkpt lat="43.67465" lon="3.34906">
        <ele>142.60000610352</ele>
        <time>2021-07-19T14:26:16.000Z</time>
      </trkpt>
      <trkpt lat="43.67463" lon="3.34908">
        <ele>143</ele>
        <time>2021-07-19T14:26:17.000Z</time>
      </trkpt>
      <trkpt lat="43.6746" lon="3.3491">
        <ele>143.39999389648</ele>
        <time>2021-07-19T14:26:18.000Z</time>
      </trkpt>
      <trkpt lat="43.67457" lon="3.34912">
        <ele>143.80000305176</ele>
        <time>2021-07-19T14:26:19.000Z</time>
      </trkpt>
      <trkpt lat="43.67455" lon="3.34916">
        <ele>143.80000305176</ele>
        <time>2021-07-19T14:26:20.000Z</time>
      </trkpt>
      <trkpt lat="43.67449" lon="3.34929">
        <ele>143.80000305176</ele>
        <time>2021-07-19T14:26:24.000Z</time>
      </trkpt>
      <trkpt lat="43.67442" lon="3.34941">
        <ele>143.80000305176</ele>
        <time>2021-07-19T14:26:29.000Z</time>
      </trkpt>
      <trkpt lat="43.67441" lon="3.34941">
        <ele>143.80000305176</ele>
        <time>2021-07-19T14:26:45.000Z</time>
      </trkpt>
      <trkpt lat="43.67437" lon="3.34944">
        <ele>143.80000305176</ele>
        <time>2021-07-19T14:26:47.000Z</time>
      </trkpt>
      <trkpt lat="43.67426" lon="3.34956">
        <ele>143.80000305176</ele>
        <time>2021-07-19T14:26:51.000Z</time>
      </trkpt>
      <trkpt lat="43.67423" lon="3.34961">
        <ele>143.80000305176</ele>
        <time>2021-07-19T14:26:52.000Z</time>
      </trkpt>
      <trkpt lat="43.67414" lon="3.34977">
        <ele>143.80000305176</ele>
        <time>2021-07-19T14:26:55.000Z</time>
      </trkpt>
      <trkpt lat="43.6741" lon="3.34982">
        <ele>143.80000305176</ele>
        <time>2021-07-19T14:26:56.000Z</time>
      </trkpt>
      <trkpt lat="43.67406" lon="3.34987">
        <ele>143.80000305176</ele>
        <time>2021-07-19T14:26:57.000Z</time>
      </trkpt>
      <trkpt lat="43.67398" lon="3.34995">
        <ele>143.80000305176</ele>
        <time>2021-07-19T14:26:59.000Z</time>
      </trkpt>
      <trkpt lat="43.67392" lon="3.35">
        <ele>143.80000305176</ele>
        <time>2021-07-19T14:27:01.000Z</time>
      </trkpt>
      <trkpt lat="43.67389" lon="3.35001">
        <ele>144.39999389648</ele>
        <time>2021-07-19T14:27:02.000Z</time>
      </trkpt>
      <trkpt lat="43.67388" lon="3.35003">
        <ele>144.80000305176</ele>
        <time>2021-07-19T14:27:03.000Z</time>
      </trkpt>
      <trkpt lat="43.67387" lon="3.35005">
        <ele>145.19999694824</ele>
        <time>2021-07-19T14:27:04.000Z</time>
      </trkpt>
      <trkpt lat="43.67385" lon="3.35007">
        <ele>145.60000610352</ele>
        <time>2021-07-19T14:27:05.000Z</time>
      </trkpt>
      <trkpt lat="43.67384" lon="3.35011">
        <ele>146</ele>
        <time>2021-07-19T14:27:06.000Z</time>
      </trkpt>
      <trkpt lat="43.67383" lon="3.35017">
        <ele>146</ele>
        <time>2021-07-19T14:27:07.000Z</time>
      </trkpt>
      <trkpt lat="43.67382" lon="3.35023">
        <ele>146</ele>
        <time>2021-07-19T14:27:08.000Z</time>
      </trkpt>
      <trkpt lat="43.6738" lon="3.35036">
        <ele>146</ele>
        <time>2021-07-19T14:27:10.000Z</time>
      </trkpt>
      <trkpt lat="43.67381" lon="3.3506">
        <ele>146</ele>
        <time>2021-07-19T14:27:13.000Z</time>
      </trkpt>
      <trkpt lat="43.6738" lon="3.35068">
        <ele>146</ele>
        <time>2021-07-19T14:27:14.000Z</time>
      </trkpt>
      <trkpt lat="43.67378" lon="3.35075">
        <ele>145.60000610352</ele>
        <time>2021-07-19T14:27:15.000Z</time>
      </trkpt>
      <trkpt lat="43.67375" lon="3.35081">
        <ele>145</ele>
        <time>2021-07-19T14:27:16.000Z</time>
      </trkpt>
      <trkpt lat="43.6737" lon="3.35086">
        <ele>144.60000610352</ele>
        <time>2021-07-19T14:27:17.000Z</time>
      </trkpt>
      <trkpt lat="43.67365" lon="3.35091">
        <ele>144.19999694824</ele>
        <time>2021-07-19T14:27:18.000Z</time>
      </trkpt>
      <trkpt lat="43.6736" lon="3.35096">
        <ele>143.60000610352</ele>
        <time>2021-07-19T14:27:19.000Z</time>
      </trkpt>
      <trkpt lat="43.67356" lon="3.35102">
        <ele>143.19999694824</ele>
        <time>2021-07-19T14:27:20.000Z</time>
      </trkpt>
      <trkpt lat="43.67354" lon="3.35105">
        <ele>142.60000610352</ele>
        <time>2021-07-19T14:27:21.000Z</time>
      </trkpt>
      <trkpt lat="43.67353" lon="3.35105">
        <ele>142.19999694824</ele>
        <time>2021-07-19T14:27:22.000Z</time>
      </trkpt>
      <trkpt lat="43.67352" lon="3.35106">
        <ele>141.60000610352</ele>
        <time>2021-07-19T14:27:23.000Z</time>
      </trkpt>
      <trkpt lat="43.67352" lon="3.35107">
        <ele>141.60000610352</ele>
        <time>2021-07-19T14:28:22.000Z</time>
      </trkpt>
      <trkpt lat="43.67352" lon="3.35108">
        <ele>141.60000610352</ele>
        <time>2021-07-19T14:28:23.000Z</time>
      </trkpt>
      <trkpt lat="43.67352" lon="3.35111">
        <ele>141.60000610352</ele>
        <time>2021-07-19T14:28:26.000Z</time>
      </trkpt>
      <trkpt lat="43.67351" lon="3.35115">
        <ele>141.60000610352</ele>
        <time>2021-07-19T14:28:27.000Z</time>
      </trkpt>
      <trkpt lat="43.67346" lon="3.35133">
        <ele>141.60000610352</ele>
        <time>2021-07-19T14:28:31.000Z</time>
      </trkpt>
      <trkpt lat="43.67344" lon="3.35139">
        <ele>141.60000610352</ele>
        <time>2021-07-19T14:28:32.000Z</time>
      </trkpt>
      <trkpt lat="43.67338" lon="3.35154">
        <ele>141.60000610352</ele>
        <time>2021-07-19T14:28:35.000Z</time>
      </trkpt>
      <trkpt lat="43.67331" lon="3.35169">
        <ele>141.60000610352</ele>
        <time>2021-07-19T14:28:38.000Z</time>
      </trkpt>
      <trkpt lat="43.67329" lon="3.35175">
        <ele>141.60000610352</ele>
        <time>2021-07-19T14:28:39.000Z</time>
      </trkpt>
      <trkpt lat="43.67317" lon="3.35188">
        <ele>141.60000610352</ele>
        <time>2021-07-19T14:28:42.000Z</time>
      </trkpt>
      <trkpt lat="43.67307" lon="3.35194">
        <ele>141.60000610352</ele>
        <time>2021-07-19T14:28:44.000Z</time>
      </trkpt>
      <trkpt lat="43.67299" lon="3.352">
        <ele>141.60000610352</ele>
        <time>2021-07-19T14:28:46.000Z</time>
      </trkpt>
      <trkpt lat="43.67292" lon="3.35207">
        <ele>141.60000610352</ele>
        <time>2021-07-19T14:28:48.000Z</time>
      </trkpt>
      <trkpt lat="43.6728" lon="3.35214">
        <ele>141.60000610352</ele>
        <time>2021-07-19T14:28:51.000Z</time>
      </trkpt>
      <trkpt lat="43.67269" lon="3.35222">
        <ele>141.60000610352</ele>
        <time>2021-07-19T14:28:54.000Z</time>
      </trkpt>
      <trkpt lat="43.67262" lon="3.35228">
        <ele>141.60000610352</ele>
        <time>2021-07-19T14:28:56.000Z</time>
      </trkpt>
      <trkpt lat="43.67258" lon="3.3523">
        <ele>141.60000610352</ele>
        <time>2021-07-19T14:28:57.000Z</time>
      </trkpt>
      <trkpt lat="43.67238" lon="3.35247">
        <ele>141.60000610352</ele>
        <time>2021-07-19T14:29:03.000Z</time>
      </trkpt>
      <trkpt lat="43.67231" lon="3.35253">
        <ele>142</ele>
        <time>2021-07-19T14:29:05.000Z</time>
      </trkpt>
      <trkpt lat="43.67228" lon="3.35257">
        <ele>142.39999389648</ele>
        <time>2021-07-19T14:29:06.000Z</time>
      </trkpt>
      <trkpt lat="43.67224" lon="3.3526">
        <ele>143</ele>
        <time>2021-07-19T14:29:07.000Z</time>
      </trkpt>
      <trkpt lat="43.67221" lon="3.35265">
        <ele>143.39999389648</ele>
        <time>2021-07-19T14:29:08.000Z</time>
      </trkpt>
      <trkpt lat="43.67219" lon="3.35269">
        <ele>143.80000305176</ele>
        <time>2021-07-19T14:29:09.000Z</time>
      </trkpt>
      <trkpt lat="43.67207" lon="3.35294">
        <ele>143.80000305176</ele>
        <time>2021-07-19T14:29:14.000Z</time>
      </trkpt>
      <trkpt lat="43.67197" lon="3.35315">
        <ele>143.80000305176</ele>
        <time>2021-07-19T14:29:18.000Z</time>
      </trkpt>
      <trkpt lat="43.6719" lon="3.35324">
        <ele>143.80000305176</ele>
        <time>2021-07-19T14:29:20.000Z</time>
      </trkpt>
      <trkpt lat="43.67166" lon="3.35356">
        <ele>143.80000305176</ele>
        <time>2021-07-19T14:29:27.000Z</time>
      </trkpt>
      <trkpt lat="43.67159" lon="3.35363">
        <ele>143.80000305176</ele>
        <time>2021-07-19T14:29:29.000Z</time>
      </trkpt>
      <trkpt lat="43.6715" lon="3.35367">
        <ele>143.80000305176</ele>
        <time>2021-07-19T14:29:31.000Z</time>
      </trkpt>
      <trkpt lat="43.67139" lon="3.35377">
        <ele>143.80000305176</ele>
        <time>2021-07-19T14:29:34.000Z</time>
      </trkpt>
      <trkpt lat="43.67135" lon="3.35381">
        <ele>143.80000305176</ele>
        <time>2021-07-19T14:29:35.000Z</time>
      </trkpt>
      <trkpt lat="43.67126" lon="3.35386">
        <ele>143.80000305176</ele>
        <time>2021-07-19T14:29:37.000Z</time>
      </trkpt>
      <trkpt lat="43.67095" lon="3.35398">
        <ele>143.80000305176</ele>
        <time>2021-07-19T14:29:44.000Z</time>
      </trkpt>
      <trkpt lat="43.67065" lon="3.35415">
        <ele>143.80000305176</ele>
        <time>2021-07-19T14:29:51.000Z</time>
      </trkpt>
      <trkpt lat="43.67062" lon="3.35418">
        <ele>143.80000305176</ele>
        <time>2021-07-19T14:29:52.000Z</time>
      </trkpt>
      <trkpt lat="43.67049" lon="3.35431">
        <ele>143.80000305176</ele>
        <time>2021-07-19T14:29:56.000Z</time>
      </trkpt>
      <trkpt lat="43.67031" lon="3.35448">
        <ele>143.80000305176</ele>
        <time>2021-07-19T14:30:03.000Z</time>
      </trkpt>
      <trkpt lat="43.67028" lon="3.35451">
        <ele>143.80000305176</ele>
        <time>2021-07-19T14:30:04.000Z</time>
      </trkpt>
      <trkpt lat="43.67024" lon="3.35458">
        <ele>143.80000305176</ele>
        <time>2021-07-19T14:30:05.000Z</time>
      </trkpt>
      <trkpt lat="43.67016" lon="3.35481">
        <ele>143.39999389648</ele>
        <time>2021-07-19T14:30:08.000Z</time>
      </trkpt>
      <trkpt lat="43.67014" lon="3.35488">
        <ele>143</ele>
        <time>2021-07-19T14:30:09.000Z</time>
      </trkpt>
      <trkpt lat="43.67012" lon="3.35495">
        <ele>142.60000610352</ele>
        <time>2021-07-19T14:30:10.000Z</time>
      </trkpt>
      <trkpt lat="43.6701" lon="3.35501">
        <ele>142.19999694824</ele>
        <time>2021-07-19T14:30:11.000Z</time>
      </trkpt>
      <trkpt lat="43.67007" lon="3.35508">
        <ele>141.80000305176</ele>
        <time>2021-07-19T14:30:12.000Z</time>
      </trkpt>
      <trkpt lat="43.67001" lon="3.35518">
        <ele>141.80000305176</ele>
        <time>2021-07-19T14:30:14.000Z</time>
      </trkpt>
      <trkpt lat="43.6699" lon="3.35522">
        <ele>141.80000305176</ele>
        <time>2021-07-19T14:30:17.000Z</time>
      </trkpt>
      <trkpt lat="43.66976" lon="3.3552">
        <ele>141.80000305176</ele>
        <time>2021-07-19T14:30:21.000Z</time>
      </trkpt>
      <trkpt lat="43.66972" lon="3.35521">
        <ele>141.80000305176</ele>
        <time>2021-07-19T14:30:22.000Z</time>
      </trkpt>
      <trkpt lat="43.66952" lon="3.35528">
        <ele>141.80000305176</ele>
        <time>2021-07-19T14:30:29.000Z</time>
      </trkpt>
      <trkpt lat="43.66937" lon="3.35529">
        <ele>141.80000305176</ele>
        <time>2021-07-19T14:30:34.000Z</time>
      </trkpt>
      <trkpt lat="43.6692" lon="3.35537">
        <ele>141.80000305176</ele>
        <time>2021-07-19T14:30:39.000Z</time>
      </trkpt>
      <trkpt lat="43.66915" lon="3.3555">
        <ele>141.80000305176</ele>
        <time>2021-07-19T14:30:43.000Z</time>
      </trkpt>
      <trkpt lat="43.66914" lon="3.35554">
        <ele>141.80000305176</ele>
        <time>2021-07-19T14:30:44.000Z</time>
      </trkpt>
      <trkpt lat="43.66907" lon="3.35579">
        <ele>141.80000305176</ele>
        <time>2021-07-19T14:30:51.000Z</time>
      </trkpt>
      <trkpt lat="43.66896" lon="3.35604">
        <ele>141.80000305176</ele>
        <time>2021-07-19T14:30:58.000Z</time>
      </trkpt>
      <trkpt lat="43.66884" lon="3.35628">
        <ele>141.80000305176</ele>
        <time>2021-07-19T14:31:05.000Z</time>
      </trkpt>
      <trkpt lat="43.66864" lon="3.35659">
        <ele>141.80000305176</ele>
        <time>2021-07-19T14:31:13.000Z</time>
      </trkpt>
      <trkpt lat="43.66852" lon="3.35683">
        <ele>141.80000305176</ele>
        <time>2021-07-19T14:31:19.000Z</time>
      </trkpt>
      <trkpt lat="43.66839" lon="3.35703">
        <ele>141.80000305176</ele>
        <time>2021-07-19T14:31:23.000Z</time>
      </trkpt>
      <trkpt lat="43.66836" lon="3.35706">
        <ele>141.80000305176</ele>
        <time>2021-07-19T14:31:24.000Z</time>
      </trkpt>
      <trkpt lat="43.66829" lon="3.35714">
        <ele>141.80000305176</ele>
        <time>2021-07-19T14:31:27.000Z</time>
      </trkpt>
      <trkpt lat="43.66825" lon="3.35715">
        <ele>141.80000305176</ele>
        <time>2021-07-19T14:31:28.000Z</time>
      </trkpt>
      <trkpt lat="43.66816" lon="3.35721">
        <ele>141.80000305176</ele>
        <time>2021-07-19T14:31:31.000Z</time>
      </trkpt>
      <trkpt lat="43.66806" lon="3.35736">
        <ele>141.80000305176</ele>
        <time>2021-07-19T14:31:35.000Z</time>
      </trkpt>
      <trkpt lat="43.66802" lon="3.35738">
        <ele>141.80000305176</ele>
        <time>2021-07-19T14:31:36.000Z</time>
      </trkpt>
      <trkpt lat="43.6679" lon="3.35746">
        <ele>141.80000305176</ele>
        <time>2021-07-19T14:31:40.000Z</time>
      </trkpt>
      <trkpt lat="43.66774" lon="3.35751">
        <ele>141.80000305176</ele>
        <time>2021-07-19T14:31:46.000Z</time>
      </trkpt>
      <trkpt lat="43.66766" lon="3.35758">
        <ele>142.19999694824</ele>
        <time>2021-07-19T14:31:49.000Z</time>
      </trkpt>
      <trkpt lat="43.66765" lon="3.3576">
        <ele>142.60000610352</ele>
        <time>2021-07-19T14:31:50.000Z</time>
      </trkpt>
      <trkpt lat="43.66763" lon="3.35762">
        <ele>143.19999694824</ele>
        <time>2021-07-19T14:31:51.000Z</time>
      </trkpt>
      <trkpt lat="43.66761" lon="3.35764">
        <ele>143.60000610352</ele>
        <time>2021-07-19T14:31:52.000Z</time>
      </trkpt>
      <trkpt lat="43.6676" lon="3.35767">
        <ele>144.19999694824</ele>
        <time>2021-07-19T14:31:53.000Z</time>
      </trkpt>
      <trkpt lat="43.66757" lon="3.3577">
        <ele>144.19999694824</ele>
        <time>2021-07-19T14:31:55.000Z</time>
      </trkpt>
      <trkpt lat="43.66754" lon="3.35774">
        <ele>144.19999694824</ele>
        <time>2021-07-19T14:31:58.000Z</time>
      </trkpt>
      <trkpt lat="43.6675" lon="3.35777">
        <ele>144.19999694824</ele>
        <time>2021-07-19T14:32:13.000Z</time>
      </trkpt>
      <trkpt lat="43.66743" lon="3.35787">
        <ele>144.19999694824</ele>
        <time>2021-07-19T14:32:16.000Z</time>
      </trkpt>
      <trkpt lat="43.6674" lon="3.35792">
        <ele>144.19999694824</ele>
        <time>2021-07-19T14:32:17.000Z</time>
      </trkpt>
      <trkpt lat="43.66731" lon="3.35808">
        <ele>143.60000610352</ele>
        <time>2021-07-19T14:32:19.000Z</time>
      </trkpt>
      <trkpt lat="43.66726" lon="3.35815">
        <ele>143.19999694824</ele>
        <time>2021-07-19T14:32:20.000Z</time>
      </trkpt>
      <trkpt lat="43.66722" lon="3.3582">
        <ele>142.60000610352</ele>
        <time>2021-07-19T14:32:21.000Z</time>
      </trkpt>
      <trkpt lat="43.66719" lon="3.35825">
        <ele>142.19999694824</ele>
        <time>2021-07-19T14:32:22.000Z</time>
      </trkpt>
      <trkpt lat="43.66716" lon="3.35829">
        <ele>141.60000610352</ele>
        <time>2021-07-19T14:32:23.000Z</time>
      </trkpt>
      <trkpt lat="43.66713" lon="3.35833">
        <ele>141.60000610352</ele>
        <time>2021-07-19T14:32:24.000Z</time>
      </trkpt>
      <trkpt lat="43.66702" lon="3.35847">
        <ele>141.60000610352</ele>
        <time>2021-07-19T14:32:28.000Z</time>
      </trkpt>
      <trkpt lat="43.66699" lon="3.35851">
        <ele>141.60000610352</ele>
        <time>2021-07-19T14:32:29.000Z</time>
      </trkpt>
      <trkpt lat="43.66685" lon="3.35867">
        <ele>141.60000610352</ele>
        <time>2021-07-19T14:32:34.000Z</time>
      </trkpt>
      <trkpt lat="43.66666" lon="3.35889">
        <ele>141.60000610352</ele>
        <time>2021-07-19T14:32:40.000Z</time>
      </trkpt>
      <trkpt lat="43.66656" lon="3.35905">
        <ele>141.60000610352</ele>
        <time>2021-07-19T14:32:45.000Z</time>
      </trkpt>
      <trkpt lat="43.66654" lon="3.35907">
        <ele>141.60000610352</ele>
        <time>2021-07-19T14:32:47.000Z</time>
      </trkpt>
      <trkpt lat="43.6665" lon="3.35908">
        <ele>141.60000610352</ele>
        <time>2021-07-19T14:32:49.000Z</time>
      </trkpt>
      <trkpt lat="43.66647" lon="3.35909">
        <ele>141.60000610352</ele>
        <time>2021-07-19T14:32:50.000Z</time>
      </trkpt>
      <trkpt lat="43.66643" lon="3.35916">
        <ele>141.60000610352</ele>
        <time>2021-07-19T14:32:52.000Z</time>
      </trkpt>
      <trkpt lat="43.66639" lon="3.35925">
        <ele>141.60000610352</ele>
        <time>2021-07-19T14:32:54.000Z</time>
      </trkpt>
      <trkpt lat="43.6663" lon="3.35943">
        <ele>141.60000610352</ele>
        <time>2021-07-19T14:32:58.000Z</time>
      </trkpt>
      <trkpt lat="43.66624" lon="3.35966">
        <ele>141.60000610352</ele>
        <time>2021-07-19T14:33:03.000Z</time>
      </trkpt>
      <trkpt lat="43.66612" lon="3.35983">
        <ele>141.60000610352</ele>
        <time>2021-07-19T14:33:07.000Z</time>
      </trkpt>
      <trkpt lat="43.66604" lon="3.35998">
        <ele>141.60000610352</ele>
        <time>2021-07-19T14:33:10.000Z</time>
      </trkpt>
      <trkpt lat="43.66597" lon="3.36006">
        <ele>141.60000610352</ele>
        <time>2021-07-19T14:33:12.000Z</time>
      </trkpt>
      <trkpt lat="43.66591" lon="3.36012">
        <ele>141.60000610352</ele>
        <time>2021-07-19T14:33:14.000Z</time>
      </trkpt>
      <trkpt lat="43.66583" lon="3.36022">
        <ele>141.60000610352</ele>
        <time>2021-07-19T14:33:17.000Z</time>
      </trkpt>
      <trkpt lat="43.66582" lon="3.36027">
        <ele>141.60000610352</ele>
        <time>2021-07-19T14:33:18.000Z</time>
      </trkpt>
      <trkpt lat="43.66582" lon="3.36037">
        <ele>141.60000610352</ele>
        <time>2021-07-19T14:33:20.000Z</time>
      </trkpt>
      <trkpt lat="43.66584" lon="3.36054">
        <ele>141.60000610352</ele>
        <time>2021-07-19T14:33:25.000Z</time>
      </trkpt>
      <trkpt lat="43.66584" lon="3.36055">
        <ele>141.60000610352</ele>
        <time>2021-07-19T14:33:51.000Z</time>
      </trkpt>
      <trkpt lat="43.66585" lon="3.36056">
        <ele>141.60000610352</ele>
        <time>2021-07-19T14:33:52.000Z</time>
      </trkpt>
      <trkpt lat="43.66587" lon="3.36056">
        <ele>141.60000610352</ele>
        <time>2021-07-19T14:33:53.000Z</time>
      </trkpt>
      <trkpt lat="43.66594" lon="3.36061">
        <ele>141.60000610352</ele>
        <time>2021-07-19T14:33:56.000Z</time>
      </trkpt>
      <trkpt lat="43.66598" lon="3.36065">
        <ele>141.60000610352</ele>
        <time>2021-07-19T14:33:58.000Z</time>
      </trkpt>
      <trkpt lat="43.66609" lon="3.3608">
        <ele>141.60000610352</ele>
        <time>2021-07-19T14:34:05.000Z</time>
      </trkpt>
      <trkpt lat="43.6661" lon="3.36081">
        <ele>141.60000610352</ele>
        <time>2021-07-19T14:34:07.000Z</time>
      </trkpt>
      <trkpt lat="43.66611" lon="3.36082">
        <ele>141.60000610352</ele>
        <time>2021-07-19T14:35:07.000Z</time>
      </trkpt>
      <trkpt lat="43.66611" lon="3.36085">
        <ele>141.60000610352</ele>
        <time>2021-07-19T14:35:08.000Z</time>
      </trkpt>
      <trkpt lat="43.66618" lon="3.36099">
        <ele>141.60000610352</ele>
        <time>2021-07-19T14:35:14.000Z</time>
      </trkpt>
      <trkpt lat="43.66621" lon="3.36108">
        <ele>141.60000610352</ele>
        <time>2021-07-19T14:35:16.000Z</time>
      </trkpt>
      <trkpt lat="43.66626" lon="3.36118">
        <ele>141.60000610352</ele>
        <time>2021-07-19T14:35:18.000Z</time>
      </trkpt>
      <trkpt lat="43.66629" lon="3.36136">
        <ele>141.60000610352</ele>
        <time>2021-07-19T14:35:22.000Z</time>
      </trkpt>
      <trkpt lat="43.66627" lon="3.36142">
        <ele>141.60000610352</ele>
        <time>2021-07-19T14:35:24.000Z</time>
      </trkpt>
      <trkpt lat="43.66624" lon="3.36146">
        <ele>141.60000610352</ele>
        <time>2021-07-19T14:35:26.000Z</time>
      </trkpt>
      <trkpt lat="43.66621" lon="3.36149">
        <ele>141.60000610352</ele>
        <time>2021-07-19T14:35:28.000Z</time>
      </trkpt>
      <trkpt lat="43.66621" lon="3.36149">
        <ele>141.60000610352</ele>
        <time>2021-07-19T14:35:29.000Z</time>
      </trkpt>
      <trkpt lat="43.66619" lon="3.36151">
        <ele>141.60000610352</ele>
        <time>2021-07-19T14:40:44.000Z</time>
      </trkpt>
      <trkpt lat="43.66618" lon="3.36153">
        <ele>141.60000610352</ele>
        <time>2021-07-19T14:40:45.000Z</time>
      </trkpt>
      <trkpt lat="43.66616" lon="3.36168">
        <ele>141.60000610352</ele>
        <time>2021-07-19T14:40:49.000Z</time>
      </trkpt>
      <trkpt lat="43.66616" lon="3.36178">
        <ele>141.60000610352</ele>
        <time>2021-07-19T14:40:51.000Z</time>
      </trkpt>
      <trkpt lat="43.66617" lon="3.36187">
        <ele>141.19999694824</ele>
        <time>2021-07-19T14:40:53.000Z</time>
      </trkpt>
      <trkpt lat="43.66618" lon="3.36192">
        <ele>140.80000305176</ele>
        <time>2021-07-19T14:40:54.000Z</time>
      </trkpt>
      <trkpt lat="43.66619" lon="3.36196">
        <ele>140.39999389648</ele>
        <time>2021-07-19T14:40:55.000Z</time>
      </trkpt>
      <trkpt lat="43.66621" lon="3.362">
        <ele>140</ele>
        <time>2021-07-19T14:40:56.000Z</time>
      </trkpt>
      <trkpt lat="43.66623" lon="3.36204">
        <ele>139.60000610352</ele>
        <time>2021-07-19T14:40:57.000Z</time>
      </trkpt>
      <trkpt lat="43.66625" lon="3.36207">
        <ele>139.60000610352</ele>
        <time>2021-07-19T14:40:58.000Z</time>
      </trkpt>
      <trkpt lat="43.6663" lon="3.36225">
        <ele>139.60000610352</ele>
        <time>2021-07-19T14:41:03.000Z</time>
      </trkpt>
      <trkpt lat="43.66634" lon="3.36246">
        <ele>139.60000610352</ele>
        <time>2021-07-19T14:41:08.000Z</time>
      </trkpt>
      <trkpt lat="43.66634" lon="3.36248">
        <ele>139.60000610352</ele>
        <time>2021-07-19T14:41:09.000Z</time>
      </trkpt>
      <trkpt lat="43.66632" lon="3.36252">
        <ele>139.60000610352</ele>
        <time>2021-07-19T14:41:11.000Z</time>
      </trkpt>
      <trkpt lat="43.66627" lon="3.36267">
        <ele>139.60000610352</ele>
        <time>2021-07-19T14:41:15.000Z</time>
      </trkpt>
      <trkpt lat="43.66626" lon="3.36268">
        <ele>139.60000610352</ele>
        <time>2021-07-19T14:41:16.000Z</time>
      </trkpt>
      <trkpt lat="43.66622" lon="3.36268">
        <ele>139.60000610352</ele>
        <time>2021-07-19T14:41:18.000Z</time>
      </trkpt>
      <trkpt lat="43.66615" lon="3.36271">
        <ele>139.60000610352</ele>
        <time>2021-07-19T14:41:21.000Z</time>
      </trkpt>
      <trkpt lat="43.66612" lon="3.36272">
        <ele>140.19999694824</ele>
        <time>2021-07-19T14:41:23.000Z</time>
      </trkpt>
      <trkpt lat="43.6661" lon="3.36272">
        <ele>140.60000610352</ele>
        <time>2021-07-19T14:41:24.000Z</time>
      </trkpt>
      <trkpt lat="43.66608" lon="3.36272">
        <ele>141</ele>
        <time>2021-07-19T14:41:25.000Z</time>
      </trkpt>
      <trkpt lat="43.66606" lon="3.36272">
        <ele>141.60000610352</ele>
        <time>2021-07-19T14:41:26.000Z</time>
      </trkpt>
      <trkpt lat="43.66604" lon="3.36273">
        <ele>142</ele>
        <time>2021-07-19T14:41:27.000Z</time>
      </trkpt>
      <trkpt lat="43.66602" lon="3.36273">
        <ele>142</ele>
        <time>2021-07-19T14:41:28.000Z</time>
      </trkpt>
      <trkpt lat="43.6659" lon="3.36272">
        <ele>142</ele>
        <time>2021-07-19T14:41:32.000Z</time>
      </trkpt>
      <trkpt lat="43.66582" lon="3.36274">
        <ele>142</ele>
        <time>2021-07-19T14:41:34.000Z</time>
      </trkpt>
      <trkpt lat="43.66575" lon="3.36276">
        <ele>142</ele>
        <time>2021-07-19T14:41:36.000Z</time>
      </trkpt>
      <trkpt lat="43.66563" lon="3.3628">
        <ele>142</ele>
        <time>2021-07-19T14:41:40.000Z</time>
      </trkpt>
      <trkpt lat="43.6655" lon="3.36299">
        <ele>142</ele>
        <time>2021-07-19T14:41:45.000Z</time>
      </trkpt>
      <trkpt lat="43.66548" lon="3.36303">
        <ele>142</ele>
        <time>2021-07-19T14:41:46.000Z</time>
      </trkpt>
      <trkpt lat="43.66543" lon="3.3632">
        <ele>142</ele>
        <time>2021-07-19T14:41:49.000Z</time>
      </trkpt>
      <trkpt lat="43.66542" lon="3.36326">
        <ele>142</ele>
        <time>2021-07-19T14:41:50.000Z</time>
      </trkpt>
      <trkpt lat="43.6654" lon="3.3635">
        <ele>142</ele>
        <time>2021-07-19T14:41:54.000Z</time>
      </trkpt>
      <trkpt lat="43.66541" lon="3.36362">
        <ele>142</ele>
        <time>2021-07-19T14:41:56.000Z</time>
      </trkpt>
      <trkpt lat="43.66542" lon="3.36368">
        <ele>142</ele>
        <time>2021-07-19T14:41:57.000Z</time>
      </trkpt>
      <trkpt lat="43.66548" lon="3.36395">
        <ele>142</ele>
        <time>2021-07-19T14:42:02.000Z</time>
      </trkpt>
      <trkpt lat="43.66551" lon="3.36422">
        <ele>142</ele>
        <time>2021-07-19T14:42:07.000Z</time>
      </trkpt>
      <trkpt lat="43.66546" lon="3.3644">
        <ele>142</ele>
        <time>2021-07-19T14:42:11.000Z</time>
      </trkpt>
      <trkpt lat="43.66543" lon="3.3645">
        <ele>142</ele>
        <time>2021-07-19T14:42:13.000Z</time>
      </trkpt>
      <trkpt lat="43.66537" lon="3.36459">
        <ele>142</ele>
        <time>2021-07-19T14:42:15.000Z</time>
      </trkpt>
      <trkpt lat="43.66526" lon="3.36482">
        <ele>142</ele>
        <time>2021-07-19T14:42:20.000Z</time>
      </trkpt>
      <trkpt lat="43.66517" lon="3.36497">
        <ele>142</ele>
        <time>2021-07-19T14:42:24.000Z</time>
      </trkpt>
      <trkpt lat="43.665" lon="3.36516">
        <ele>142</ele>
        <time>2021-07-19T14:42:30.000Z</time>
      </trkpt>
      <trkpt lat="43.6649" lon="3.36539">
        <ele>142</ele>
        <time>2021-07-19T14:42:34.000Z</time>
      </trkpt>
      <trkpt lat="43.66488" lon="3.36555">
        <ele>142</ele>
        <time>2021-07-19T14:42:37.000Z</time>
      </trkpt>
      <trkpt lat="43.66488" lon="3.36561">
        <ele>142</ele>
        <time>2021-07-19T14:42:38.000Z</time>
      </trkpt>
      <trkpt lat="43.66486" lon="3.36573">
        <ele>142</ele>
        <time>2021-07-19T14:42:40.000Z</time>
      </trkpt>
      <trkpt lat="43.66485" lon="3.36589">
        <ele>142</ele>
        <time>2021-07-19T14:42:42.000Z</time>
      </trkpt>
      <trkpt lat="43.66482" lon="3.36596">
        <ele>142</ele>
        <time>2021-07-19T14:42:43.000Z</time>
      </trkpt>
      <trkpt lat="43.66472" lon="3.36603">
        <ele>142</ele>
        <time>2021-07-19T14:42:46.000Z</time>
      </trkpt>
      <trkpt lat="43.66465" lon="3.36613">
        <ele>142</ele>
        <time>2021-07-19T14:42:50.000Z</time>
      </trkpt>
      <trkpt lat="43.66457" lon="3.36639">
        <ele>142</ele>
        <time>2021-07-19T14:42:56.000Z</time>
      </trkpt>
      <trkpt lat="43.66453" lon="3.36652">
        <ele>142.39999389648</ele>
        <time>2021-07-19T14:42:59.000Z</time>
      </trkpt>
      <trkpt lat="43.66452" lon="3.36657">
        <ele>142.80000305176</ele>
        <time>2021-07-19T14:43:00.000Z</time>
      </trkpt>
      <trkpt lat="43.66451" lon="3.36662">
        <ele>143.19999694824</ele>
        <time>2021-07-19T14:43:01.000Z</time>
      </trkpt>
      <trkpt lat="43.66451" lon="3.36667">
        <ele>143.60000610352</ele>
        <time>2021-07-19T14:43:02.000Z</time>
      </trkpt>
      <trkpt lat="43.66451" lon="3.36673">
        <ele>144</ele>
        <time>2021-07-19T14:43:03.000Z</time>
      </trkpt>
      <trkpt lat="43.66447" lon="3.36689">
        <ele>144</ele>
        <time>2021-07-19T14:43:06.000Z</time>
      </trkpt>
      <trkpt lat="43.66443" lon="3.36695">
        <ele>144</ele>
        <time>2021-07-19T14:43:08.000Z</time>
      </trkpt>
      <trkpt lat="43.66441" lon="3.36698">
        <ele>144</ele>
        <time>2021-07-19T14:43:09.000Z</time>
      </trkpt>
      <trkpt lat="43.66433" lon="3.36726">
        <ele>144</ele>
        <time>2021-07-19T14:43:16.000Z</time>
      </trkpt>
      <trkpt lat="43.66426" lon="3.36755">
        <ele>144</ele>
        <time>2021-07-19T14:43:22.000Z</time>
      </trkpt>
      <trkpt lat="43.66424" lon="3.36767">
        <ele>144</ele>
        <time>2021-07-19T14:43:26.000Z</time>
      </trkpt>
      <trkpt lat="43.66422" lon="3.36779">
        <ele>144</ele>
        <time>2021-07-19T14:43:30.000Z</time>
      </trkpt>
      <trkpt lat="43.66421" lon="3.36804">
        <ele>144</ele>
        <time>2021-07-19T14:43:34.000Z</time>
      </trkpt>
      <trkpt lat="43.66421" lon="3.36812">
        <ele>144</ele>
        <time>2021-07-19T14:43:35.000Z</time>
      </trkpt>
      <trkpt lat="43.66419" lon="3.3684">
        <ele>144</ele>
        <time>2021-07-19T14:43:39.000Z</time>
      </trkpt>
      <trkpt lat="43.66416" lon="3.36846">
        <ele>144</ele>
        <time>2021-07-19T14:43:40.000Z</time>
      </trkpt>
      <trkpt lat="43.66402" lon="3.3687">
        <ele>144</ele>
        <time>2021-07-19T14:43:45.000Z</time>
      </trkpt>
      <trkpt lat="43.6639" lon="3.36895">
        <ele>144</ele>
        <time>2021-07-19T14:43:51.000Z</time>
      </trkpt>
      <trkpt lat="43.66385" lon="3.36904">
        <ele>144</ele>
        <time>2021-07-19T14:43:53.000Z</time>
      </trkpt>
      <trkpt lat="43.66379" lon="3.36912">
        <ele>144</ele>
        <time>2021-07-19T14:43:55.000Z</time>
      </trkpt>
      <trkpt lat="43.66376" lon="3.36917">
        <ele>144</ele>
        <time>2021-07-19T14:43:57.000Z</time>
      </trkpt>
      <trkpt lat="43.66375" lon="3.3692">
        <ele>144</ele>
        <time>2021-07-19T14:43:58.000Z</time>
      </trkpt>
      <trkpt lat="43.66374" lon="3.36922">
        <ele>144.39999389648</ele>
        <time>2021-07-19T14:43:59.000Z</time>
      </trkpt>
      <trkpt lat="43.66373" lon="3.36924">
        <ele>145.39999389648</ele>
        <time>2021-07-19T14:44:00.000Z</time>
      </trkpt>
      <trkpt lat="43.66372" lon="3.36927">
        <ele>145.80000305176</ele>
        <time>2021-07-19T14:44:01.000Z</time>
      </trkpt>
      <trkpt lat="43.6637" lon="3.3693">
        <ele>146.19999694824</ele>
        <time>2021-07-19T14:44:02.000Z</time>
      </trkpt>
      <trkpt lat="43.66368" lon="3.36934">
        <ele>146.19999694824</ele>
        <time>2021-07-19T14:44:03.000Z</time>
      </trkpt>
      <trkpt lat="43.66362" lon="3.36956">
        <ele>146.19999694824</ele>
        <time>2021-07-19T14:44:08.000Z</time>
      </trkpt>
      <trkpt lat="43.66355" lon="3.36983">
        <ele>146.19999694824</ele>
        <time>2021-07-19T14:44:13.000Z</time>
      </trkpt>
      <trkpt lat="43.66353" lon="3.36989">
        <ele>146.19999694824</ele>
        <time>2021-07-19T14:44:14.000Z</time>
      </trkpt>
      <trkpt lat="43.66349" lon="3.37001">
        <ele>146.19999694824</ele>
        <time>2021-07-19T14:44:17.000Z</time>
      </trkpt>
      <trkpt lat="43.66343" lon="3.37006">
        <ele>145.80000305176</ele>
        <time>2021-07-19T14:44:20.000Z</time>
      </trkpt>
      <trkpt lat="43.6634" lon="3.37008">
        <ele>145.39999389648</ele>
        <time>2021-07-19T14:44:21.000Z</time>
      </trkpt>
      <trkpt lat="43.66337" lon="3.37011">
        <ele>145</ele>
        <time>2021-07-19T14:44:22.000Z</time>
      </trkpt>
      <trkpt lat="43.66335" lon="3.37015">
        <ele>144.60000610352</ele>
        <time>2021-07-19T14:44:23.000Z</time>
      </trkpt>
      <trkpt lat="43.66333" lon="3.37018">
        <ele>144.19999694824</ele>
        <time>2021-07-19T14:44:24.000Z</time>
      </trkpt>
      <trkpt lat="43.6633" lon="3.37021">
        <ele>144.19999694824</ele>
        <time>2021-07-19T14:44:25.000Z</time>
      </trkpt>
      <trkpt lat="43.66328" lon="3.37028">
        <ele>143.80000305176</ele>
        <time>2021-07-19T14:44:27.000Z</time>
      </trkpt>
      <trkpt lat="43.66327" lon="3.37031">
        <ele>143.39999389648</ele>
        <time>2021-07-19T14:44:28.000Z</time>
      </trkpt>
      <trkpt lat="43.66325" lon="3.37034">
        <ele>142.80000305176</ele>
        <time>2021-07-19T14:44:29.000Z</time>
      </trkpt>
      <trkpt lat="43.66324" lon="3.37035">
        <ele>142.39999389648</ele>
        <time>2021-07-19T14:44:30.000Z</time>
      </trkpt>
      <trkpt lat="43.66324" lon="3.37035">
        <ele>142</ele>
        <time>2021-07-19T14:44:31.000Z</time>
      </trkpt>
      <trkpt lat="43.66317" lon="3.37045">
        <ele>142</ele>
        <time>2021-07-19T14:44:48.000Z</time>
      </trkpt>
      <trkpt lat="43.66315" lon="3.37046">
        <ele>142</ele>
        <time>2021-07-19T14:44:49.000Z</time>
      </trkpt>
      <trkpt lat="43.66307" lon="3.37051">
        <ele>142</ele>
        <time>2021-07-19T14:44:52.000Z</time>
      </trkpt>
      <trkpt lat="43.66302" lon="3.37058">
        <ele>142</ele>
        <time>2021-07-19T14:44:54.000Z</time>
      </trkpt>
      <trkpt lat="43.66298" lon="3.37065">
        <ele>142.39999389648</ele>
        <time>2021-07-19T14:44:56.000Z</time>
      </trkpt>
      <trkpt lat="43.66295" lon="3.37067">
        <ele>142.80000305176</ele>
        <time>2021-07-19T14:44:57.000Z</time>
      </trkpt>
      <trkpt lat="43.66293" lon="3.3707">
        <ele>143.19999694824</ele>
        <time>2021-07-19T14:44:58.000Z</time>
      </trkpt>
      <trkpt lat="43.66291" lon="3.37073">
        <ele>143.60000610352</ele>
        <time>2021-07-19T14:44:59.000Z</time>
      </trkpt>
      <trkpt lat="43.6629" lon="3.37077">
        <ele>144.19999694824</ele>
        <time>2021-07-19T14:45:00.000Z</time>
      </trkpt>
      <trkpt lat="43.66284" lon="3.37089">
        <ele>144.19999694824</ele>
        <time>2021-07-19T14:45:04.000Z</time>
      </trkpt>
      <trkpt lat="43.6628" lon="3.37118">
        <ele>144.19999694824</ele>
        <time>2021-07-19T14:45:11.000Z</time>
      </trkpt>
      <trkpt lat="43.66285" lon="3.3715">
        <ele>144.19999694824</ele>
        <time>2021-07-19T14:45:17.000Z</time>
      </trkpt>
      <trkpt lat="43.66295" lon="3.37171">
        <ele>144.60000610352</ele>
        <time>2021-07-19T14:45:22.000Z</time>
      </trkpt>
      <trkpt lat="43.66298" lon="3.37174">
        <ele>145</ele>
        <time>2021-07-19T14:45:23.000Z</time>
      </trkpt>
      <trkpt lat="43.66301" lon="3.37175">
        <ele>145.39999389648</ele>
        <time>2021-07-19T14:45:24.000Z</time>
      </trkpt>
      <trkpt lat="43.66303" lon="3.37177">
        <ele>145.80000305176</ele>
        <time>2021-07-19T14:45:25.000Z</time>
      </trkpt>
      <trkpt lat="43.66306" lon="3.3718">
        <ele>146.19999694824</ele>
        <time>2021-07-19T14:45:26.000Z</time>
      </trkpt>
      <trkpt lat="43.66308" lon="3.37182">
        <ele>146.19999694824</ele>
        <time>2021-07-19T14:45:27.000Z</time>
      </trkpt>
      <trkpt lat="43.66318" lon="3.37198">
        <ele>146.19999694824</ele>
        <time>2021-07-19T14:45:33.000Z</time>
      </trkpt>
      <trkpt lat="43.66323" lon="3.37208">
        <ele>146.60000610352</ele>
        <time>2021-07-19T14:45:36.000Z</time>
      </trkpt>
      <trkpt lat="43.66325" lon="3.37211">
        <ele>147</ele>
        <time>2021-07-19T14:45:37.000Z</time>
      </trkpt>
      <trkpt lat="43.66326" lon="3.37213">
        <ele>147.39999389648</ele>
        <time>2021-07-19T14:45:38.000Z</time>
      </trkpt>
      <trkpt lat="43.66328" lon="3.37215">
        <ele>148.19999694824</ele>
        <time>2021-07-19T14:45:39.000Z</time>
      </trkpt>
      <trkpt lat="43.66336" lon="3.37227">
        <ele>148.19999694824</ele>
        <time>2021-07-19T14:45:44.000Z</time>
      </trkpt>
      <trkpt lat="43.66341" lon="3.37232">
        <ele>148.60000610352</ele>
        <time>2021-07-19T14:45:47.000Z</time>
      </trkpt>
      <trkpt lat="43.66342" lon="3.37234">
        <ele>149</ele>
        <time>2021-07-19T14:45:48.000Z</time>
      </trkpt>
      <trkpt lat="43.66344" lon="3.37236">
        <ele>149.60000610352</ele>
        <time>2021-07-19T14:45:49.000Z</time>
      </trkpt>
      <trkpt lat="43.66346" lon="3.37238">
        <ele>150</ele>
        <time>2021-07-19T14:45:50.000Z</time>
      </trkpt>
      <trkpt lat="43.66347" lon="3.3724">
        <ele>150.39999389648</ele>
        <time>2021-07-19T14:45:51.000Z</time>
      </trkpt>
      <trkpt lat="43.66358" lon="3.37247">
        <ele>150.39999389648</ele>
        <time>2021-07-19T14:45:57.000Z</time>
      </trkpt>
      <trkpt lat="43.66366" lon="3.37248">
        <ele>150.80000305176</ele>
        <time>2021-07-19T14:46:01.000Z</time>
      </trkpt>
      <trkpt lat="43.66368" lon="3.37248">
        <ele>151.39999389648</ele>
        <time>2021-07-19T14:46:02.000Z</time>
      </trkpt>
      <trkpt lat="43.6637" lon="3.37248">
        <ele>151.80000305176</ele>
        <time>2021-07-19T14:46:03.000Z</time>
      </trkpt>
      <trkpt lat="43.66372" lon="3.37248">
        <ele>152.60000610352</ele>
        <time>2021-07-19T14:46:04.000Z</time>
      </trkpt>
      <trkpt lat="43.66382" lon="3.37243">
        <ele>153</ele>
        <time>2021-07-19T14:46:09.000Z</time>
      </trkpt>
      <trkpt lat="43.66383" lon="3.37243">
        <ele>153.39999389648</ele>
        <time>2021-07-19T14:46:10.000Z</time>
      </trkpt>
      <trkpt lat="43.66385" lon="3.37243">
        <ele>153.80000305176</ele>
        <time>2021-07-19T14:46:11.000Z</time>
      </trkpt>
      <trkpt lat="43.66386" lon="3.37243">
        <ele>154.19999694824</ele>
        <time>2021-07-19T14:46:12.000Z</time>
      </trkpt>
      <trkpt lat="43.66388" lon="3.37243">
        <ele>154.60000610352</ele>
        <time>2021-07-19T14:46:13.000Z</time>
      </trkpt>
      <trkpt lat="43.6639" lon="3.37245">
        <ele>154.60000610352</ele>
        <time>2021-07-19T14:46:14.000Z</time>
      </trkpt>
      <trkpt lat="43.66392" lon="3.37247">
        <ele>154.60000610352</ele>
        <time>2021-07-19T14:46:15.000Z</time>
      </trkpt>
      <trkpt lat="43.66395" lon="3.37251">
        <ele>155</ele>
        <time>2021-07-19T14:46:17.000Z</time>
      </trkpt>
      <trkpt lat="43.66396" lon="3.37252">
        <ele>155.39999389648</ele>
        <time>2021-07-19T14:46:18.000Z</time>
      </trkpt>
      <trkpt lat="43.66397" lon="3.37254">
        <ele>155.80000305176</ele>
        <time>2021-07-19T14:46:19.000Z</time>
      </trkpt>
      <trkpt lat="43.66399" lon="3.37255">
        <ele>156.39999389648</ele>
        <time>2021-07-19T14:46:20.000Z</time>
      </trkpt>
      <trkpt lat="43.66401" lon="3.37257">
        <ele>156.80000305176</ele>
        <time>2021-07-19T14:46:21.000Z</time>
      </trkpt>
      <trkpt lat="43.66407" lon="3.37262">
        <ele>156.80000305176</ele>
        <time>2021-07-19T14:46:25.000Z</time>
      </trkpt>
      <trkpt lat="43.66415" lon="3.37265">
        <ele>157.60000610352</ele>
        <time>2021-07-19T14:46:29.000Z</time>
      </trkpt>
      <trkpt lat="43.66417" lon="3.37266">
        <ele>158</ele>
        <time>2021-07-19T14:46:30.000Z</time>
      </trkpt>
      <trkpt lat="43.66419" lon="3.37267">
        <ele>158.39999389648</ele>
        <time>2021-07-19T14:46:31.000Z</time>
      </trkpt>
      <trkpt lat="43.6642" lon="3.37268">
        <ele>159</ele>
        <time>2021-07-19T14:46:32.000Z</time>
      </trkpt>
      <trkpt lat="43.66429" lon="3.37275">
        <ele>159.39999389648</ele>
        <time>2021-07-19T14:46:38.000Z</time>
      </trkpt>
      <trkpt lat="43.66431" lon="3.37276">
        <ele>159.80000305176</ele>
        <time>2021-07-19T14:46:39.000Z</time>
      </trkpt>
      <trkpt lat="43.66432" lon="3.37277">
        <ele>160.19999694824</ele>
        <time>2021-07-19T14:46:40.000Z</time>
      </trkpt>
      <trkpt lat="43.66433" lon="3.37279">
        <ele>160.80000305176</ele>
        <time>2021-07-19T14:46:41.000Z</time>
      </trkpt>
      <trkpt lat="43.66434" lon="3.3728">
        <ele>161.19999694824</ele>
        <time>2021-07-19T14:46:42.000Z</time>
      </trkpt>
      <trkpt lat="43.66436" lon="3.37283">
        <ele>161.19999694824</ele>
        <time>2021-07-19T14:46:44.000Z</time>
      </trkpt>
      <trkpt lat="43.66437" lon="3.37285">
        <ele>161.19999694824</ele>
        <time>2021-07-19T14:46:45.000Z</time>
      </trkpt>
      <trkpt lat="43.66437" lon="3.37295">
        <ele>161.19999694824</ele>
        <time>2021-07-19T14:46:49.000Z</time>
      </trkpt>
      <trkpt lat="43.66436" lon="3.37296">
        <ele>161.19999694824</ele>
        <time>2021-07-19T14:46:50.000Z</time>
      </trkpt>
      <trkpt lat="43.66433" lon="3.37303">
        <ele>161.19999694824</ele>
        <time>2021-07-19T14:46:53.000Z</time>
      </trkpt>
      <trkpt lat="43.66423" lon="3.37311">
        <ele>161.19999694824</ele>
        <time>2021-07-19T14:46:58.000Z</time>
      </trkpt>
      <trkpt lat="43.66421" lon="3.37313">
        <ele>161.19999694824</ele>
        <time>2021-07-19T14:46:59.000Z</time>
      </trkpt>
      <trkpt lat="43.66413" lon="3.37327">
        <ele>161.19999694824</ele>
        <time>2021-07-19T14:47:04.000Z</time>
      </trkpt>
      <trkpt lat="43.66413" lon="3.37329">
        <ele>161.19999694824</ele>
        <time>2021-07-19T14:47:05.000Z</time>
      </trkpt>
      <trkpt lat="43.66414" lon="3.37331">
        <ele>161.19999694824</ele>
        <time>2021-07-19T14:47:07.000Z</time>
      </trkpt>
      <trkpt lat="43.66416" lon="3.37323">
        <ele>163.19999694824</ele>
        <time>2021-07-19T14:51:25.000Z</time>
      </trkpt>
      <trkpt lat="43.66425" lon="3.37311">
        <ele>163.19999694824</ele>
        <time>2021-07-19T14:51:30.000Z</time>
      </trkpt>
      <trkpt lat="43.66433" lon="3.37307">
        <ele>163.19999694824</ele>
        <time>2021-07-19T14:51:34.000Z</time>
      </trkpt>
      <trkpt lat="43.66446" lon="3.37302">
        <ele>163.19999694824</ele>
        <time>2021-07-19T14:51:40.000Z</time>
      </trkpt>
      <trkpt lat="43.66455" lon="3.37305">
        <ele>163.60000610352</ele>
        <time>2021-07-19T14:51:45.000Z</time>
      </trkpt>
      <trkpt lat="43.66457" lon="3.37305">
        <ele>164</ele>
        <time>2021-07-19T14:51:46.000Z</time>
      </trkpt>
      <trkpt lat="43.66458" lon="3.37306">
        <ele>164.39999389648</ele>
        <time>2021-07-19T14:51:47.000Z</time>
      </trkpt>
      <trkpt lat="43.6646" lon="3.37307">
        <ele>164.80000305176</ele>
        <time>2021-07-19T14:51:48.000Z</time>
      </trkpt>
      <trkpt lat="43.66461" lon="3.37307">
        <ele>165.39999389648</ele>
        <time>2021-07-19T14:51:49.000Z</time>
      </trkpt>
      <trkpt lat="43.66465" lon="3.37306">
        <ele>165.39999389648</ele>
        <time>2021-07-19T14:51:51.000Z</time>
      </trkpt>
      <trkpt lat="43.66467" lon="3.37306">
        <ele>165.80000305176</ele>
        <time>2021-07-19T14:51:52.000Z</time>
      </trkpt>
      <trkpt lat="43.66469" lon="3.37306">
        <ele>166.19999694824</ele>
        <time>2021-07-19T14:51:53.000Z</time>
      </trkpt>
      <trkpt lat="43.66469" lon="3.37308">
        <ele>166.60000610352</ele>
        <time>2021-07-19T14:51:54.000Z</time>
      </trkpt>
      <trkpt lat="43.6647" lon="3.3731">
        <ele>167</ele>
        <time>2021-07-19T14:51:55.000Z</time>
      </trkpt>
      <trkpt lat="43.66472" lon="3.37312">
        <ele>167.39999389648</ele>
        <time>2021-07-19T14:51:56.000Z</time>
      </trkpt>
      <trkpt lat="43.66479" lon="3.37318">
        <ele>167.80000305176</ele>
        <time>2021-07-19T14:52:01.000Z</time>
      </trkpt>
      <trkpt lat="43.6648" lon="3.37318">
        <ele>168.19999694824</ele>
        <time>2021-07-19T14:52:02.000Z</time>
      </trkpt>
      <trkpt lat="43.66482" lon="3.37317">
        <ele>168.60000610352</ele>
        <time>2021-07-19T14:52:03.000Z</time>
      </trkpt>
      <trkpt lat="43.66484" lon="3.37318">
        <ele>169</ele>
        <time>2021-07-19T14:52:04.000Z</time>
      </trkpt>
      <trkpt lat="43.66485" lon="3.37317">
        <ele>169.39999389648</ele>
        <time>2021-07-19T14:52:05.000Z</time>
      </trkpt>
      <trkpt lat="43.66492" lon="3.37321">
        <ele>169.39999389648</ele>
        <time>2021-07-19T14:52:09.000Z</time>
      </trkpt>
      <trkpt lat="43.66495" lon="3.37325">
        <ele>170</ele>
        <time>2021-07-19T14:52:11.000Z</time>
      </trkpt>
      <trkpt lat="43.66496" lon="3.37326">
        <ele>170.39999389648</ele>
        <time>2021-07-19T14:52:12.000Z</time>
      </trkpt>
      <trkpt lat="43.66497" lon="3.37328">
        <ele>170.80000305176</ele>
        <time>2021-07-19T14:52:13.000Z</time>
      </trkpt>
      <trkpt lat="43.66498" lon="3.3733">
        <ele>171.19999694824</ele>
        <time>2021-07-19T14:52:14.000Z</time>
      </trkpt>
      <trkpt lat="43.66499" lon="3.37333">
        <ele>171.60000610352</ele>
        <time>2021-07-19T14:52:15.000Z</time>
      </trkpt>
      <trkpt lat="43.66503" lon="3.3734">
        <ele>172.19999694824</ele>
        <time>2021-07-19T14:52:19.000Z</time>
      </trkpt>
      <trkpt lat="43.66505" lon="3.37342">
        <ele>172.60000610352</ele>
        <time>2021-07-19T14:52:20.000Z</time>
      </trkpt>
      <trkpt lat="43.66506" lon="3.37343">
        <ele>173.19999694824</ele>
        <time>2021-07-19T14:52:21.000Z</time>
      </trkpt>
      <trkpt lat="43.66508" lon="3.37343">
        <ele>173.60000610352</ele>
        <time>2021-07-19T14:52:22.000Z</time>
      </trkpt>
      <trkpt lat="43.6651" lon="3.37344">
        <ele>174</ele>
        <time>2021-07-19T14:52:23.000Z</time>
      </trkpt>
      <trkpt lat="43.66513" lon="3.37343">
        <ele>174</ele>
        <time>2021-07-19T14:52:25.000Z</time>
      </trkpt>
      <trkpt lat="43.66516" lon="3.3734">
        <ele>174.60000610352</ele>
        <time>2021-07-19T14:52:27.000Z</time>
      </trkpt>
      <trkpt lat="43.66518" lon="3.37339">
        <ele>175</ele>
        <time>2021-07-19T14:52:28.000Z</time>
      </trkpt>
      <trkpt lat="43.66519" lon="3.37338">
        <ele>175.39999389648</ele>
        <time>2021-07-19T14:52:29.000Z</time>
      </trkpt>
      <trkpt lat="43.6652" lon="3.37336">
        <ele>175.80000305176</ele>
        <time>2021-07-19T14:52:30.000Z</time>
      </trkpt>
      <trkpt lat="43.66521" lon="3.37334">
        <ele>176.19999694824</ele>
        <time>2021-07-19T14:52:31.000Z</time>
      </trkpt>
      <trkpt lat="43.66523" lon="3.37333">
        <ele>176.19999694824</ele>
        <time>2021-07-19T14:52:32.000Z</time>
      </trkpt>
      <trkpt lat="43.66531" lon="3.3732">
        <ele>177</ele>
        <time>2021-07-19T14:52:39.000Z</time>
      </trkpt>
      <trkpt lat="43.66532" lon="3.37318">
        <ele>177.60000610352</ele>
        <time>2021-07-19T14:52:40.000Z</time>
      </trkpt>
      <trkpt lat="43.66534" lon="3.37317">
        <ele>178</ele>
        <time>2021-07-19T14:52:41.000Z</time>
      </trkpt>
      <trkpt lat="43.66535" lon="3.37315">
        <ele>178.39999389648</ele>
        <time>2021-07-19T14:52:42.000Z</time>
      </trkpt>
      <trkpt lat="43.66543" lon="3.37309">
        <ele>178.39999389648</ele>
        <time>2021-07-19T14:52:47.000Z</time>
      </trkpt>
      <trkpt lat="43.66554" lon="3.37305">
        <ele>178.39999389648</ele>
        <time>2021-07-19T14:52:53.000Z</time>
      </trkpt>
      <trkpt lat="43.66555" lon="3.37304">
        <ele>178.80000305176</ele>
        <time>2021-07-19T14:52:54.000Z</time>
      </trkpt>
      <trkpt lat="43.66557" lon="3.37303">
        <ele>179.19999694824</ele>
        <time>2021-07-19T14:52:55.000Z</time>
      </trkpt>
      <trkpt lat="43.66559" lon="3.37302">
        <ele>179.60000610352</ele>
        <time>2021-07-19T14:52:56.000Z</time>
      </trkpt>
      <trkpt lat="43.6656" lon="3.37302">
        <ele>180</ele>
        <time>2021-07-19T14:52:57.000Z</time>
      </trkpt>
      <trkpt lat="43.66562" lon="3.37301">
        <ele>180.39999389648</ele>
        <time>2021-07-19T14:52:58.000Z</time>
      </trkpt>
      <trkpt lat="43.66571" lon="3.37297">
        <ele>180.39999389648</ele>
        <time>2021-07-19T14:53:03.000Z</time>
      </trkpt>
      <trkpt lat="43.66576" lon="3.37294">
        <ele>180.80000305176</ele>
        <time>2021-07-19T14:53:06.000Z</time>
      </trkpt>
      <trkpt lat="43.66578" lon="3.37293">
        <ele>181.19999694824</ele>
        <time>2021-07-19T14:53:07.000Z</time>
      </trkpt>
      <trkpt lat="43.6658" lon="3.37291">
        <ele>181.60000610352</ele>
        <time>2021-07-19T14:53:08.000Z</time>
      </trkpt>
      <trkpt lat="43.66582" lon="3.37289">
        <ele>182.19999694824</ele>
        <time>2021-07-19T14:53:09.000Z</time>
      </trkpt>
      <trkpt lat="43.66583" lon="3.37288">
        <ele>182.60000610352</ele>
        <time>2021-07-19T14:53:10.000Z</time>
      </trkpt>
      <trkpt lat="43.66585" lon="3.37286">
        <ele>182.60000610352</ele>
        <time>2021-07-19T14:53:11.000Z</time>
      </trkpt>
      <trkpt lat="43.66594" lon="3.37279">
        <ele>183</ele>
        <time>2021-07-19T14:53:16.000Z</time>
      </trkpt>
      <trkpt lat="43.66596" lon="3.37279">
        <ele>183.39999389648</ele>
        <time>2021-07-19T14:53:17.000Z</time>
      </trkpt>
      <trkpt lat="43.66598" lon="3.3728">
        <ele>183.80000305176</ele>
        <time>2021-07-19T14:53:18.000Z</time>
      </trkpt>
      <trkpt lat="43.66599" lon="3.37282">
        <ele>184.19999694824</ele>
        <time>2021-07-19T14:53:19.000Z</time>
      </trkpt>
      <trkpt lat="43.666" lon="3.37285">
        <ele>184.80000305176</ele>
        <time>2021-07-19T14:53:20.000Z</time>
      </trkpt>
      <trkpt lat="43.66598" lon="3.37289">
        <ele>184.80000305176</ele>
        <time>2021-07-19T14:53:22.000Z</time>
      </trkpt>
      <trkpt lat="43.66589" lon="3.37297">
        <ele>184.80000305176</ele>
        <time>2021-07-19T14:53:26.000Z</time>
      </trkpt>
      <trkpt lat="43.66586" lon="3.373">
        <ele>184.80000305176</ele>
        <time>2021-07-19T14:53:27.000Z</time>
      </trkpt>
      <trkpt lat="43.66575" lon="3.37313">
        <ele>184.80000305176</ele>
        <time>2021-07-19T14:53:32.000Z</time>
      </trkpt>
      <trkpt lat="43.66561" lon="3.37331">
        <ele>184.80000305176</ele>
        <time>2021-07-19T14:53:38.000Z</time>
      </trkpt>
      <trkpt lat="43.66545" lon="3.37352">
        <ele>184.80000305176</ele>
        <time>2021-07-19T14:53:45.000Z</time>
      </trkpt>
      <trkpt lat="43.66531" lon="3.37374">
        <ele>184.80000305176</ele>
        <time>2021-07-19T14:53:51.000Z</time>
      </trkpt>
      <trkpt lat="43.66519" lon="3.37402">
        <ele>184.80000305176</ele>
        <time>2021-07-19T14:53:57.000Z</time>
      </trkpt>
      <trkpt lat="43.66514" lon="3.3741">
        <ele>184.80000305176</ele>
        <time>2021-07-19T14:53:59.000Z</time>
      </trkpt>
      <trkpt lat="43.66502" lon="3.37419">
        <ele>184.80000305176</ele>
        <time>2021-07-19T14:54:02.000Z</time>
      </trkpt>
      <trkpt lat="43.66474" lon="3.37438">
        <ele>184.80000305176</ele>
        <time>2021-07-19T14:54:09.000Z</time>
      </trkpt>
      <trkpt lat="43.6647" lon="3.37441">
        <ele>184.80000305176</ele>
        <time>2021-07-19T14:54:10.000Z</time>
      </trkpt>
      <trkpt lat="43.6646" lon="3.37454">
        <ele>184.80000305176</ele>
        <time>2021-07-19T14:54:13.000Z</time>
      </trkpt>
      <trkpt lat="43.66455" lon="3.37465">
        <ele>184.80000305176</ele>
        <time>2021-07-19T14:54:15.000Z</time>
      </trkpt>
      <trkpt lat="43.66445" lon="3.37499">
        <ele>184.80000305176</ele>
        <time>2021-07-19T14:54:21.000Z</time>
      </trkpt>
      <trkpt lat="43.66431" lon="3.37539">
        <ele>184.80000305176</ele>
        <time>2021-07-19T14:54:28.000Z</time>
      </trkpt>
      <trkpt lat="43.66421" lon="3.37582">
        <ele>184.80000305176</ele>
        <time>2021-07-19T14:54:35.000Z</time>
      </trkpt>
      <trkpt lat="43.66412" lon="3.37629">
        <ele>184.80000305176</ele>
        <time>2021-07-19T14:54:43.000Z</time>
      </trkpt>
      <trkpt lat="43.66411" lon="3.37648">
        <ele>184.80000305176</ele>
        <time>2021-07-19T14:54:46.000Z</time>
      </trkpt>
      <trkpt lat="43.66409" lon="3.37667">
        <ele>184.80000305176</ele>
        <time>2021-07-19T14:54:49.000Z</time>
      </trkpt>
      <trkpt lat="43.66413" lon="3.37707">
        <ele>184.80000305176</ele>
        <time>2021-07-19T14:54:55.000Z</time>
      </trkpt>
      <trkpt lat="43.66416" lon="3.37732">
        <ele>184.80000305176</ele>
        <time>2021-07-19T14:54:59.000Z</time>
      </trkpt>
      <trkpt lat="43.66419" lon="3.37745">
        <ele>184.80000305176</ele>
        <time>2021-07-19T14:55:01.000Z</time>
      </trkpt>
      <trkpt lat="43.66432" lon="3.37789">
        <ele>184.80000305176</ele>
        <time>2021-07-19T14:55:08.000Z</time>
      </trkpt>
      <trkpt lat="43.66441" lon="3.37806">
        <ele>184.80000305176</ele>
        <time>2021-07-19T14:55:11.000Z</time>
      </trkpt>
      <trkpt lat="43.66452" lon="3.37829">
        <ele>184.80000305176</ele>
        <time>2021-07-19T14:55:15.000Z</time>
      </trkpt>
      <trkpt lat="43.66468" lon="3.37866">
        <ele>184.80000305176</ele>
        <time>2021-07-19T14:55:21.000Z</time>
      </trkpt>
      <trkpt lat="43.66485" lon="3.37899">
        <ele>184.80000305176</ele>
        <time>2021-07-19T14:55:27.000Z</time>
      </trkpt>
      <trkpt lat="43.66496" lon="3.37922">
        <ele>184.80000305176</ele>
        <time>2021-07-19T14:55:31.000Z</time>
      </trkpt>
      <trkpt lat="43.66496" lon="3.37936">
        <ele>184.80000305176</ele>
        <time>2021-07-19T14:55:33.000Z</time>
      </trkpt>
      <trkpt lat="43.66489" lon="3.37942">
        <ele>184.80000305176</ele>
        <time>2021-07-19T14:55:35.000Z</time>
      </trkpt>
      <trkpt lat="43.66475" lon="3.37946">
        <ele>184.80000305176</ele>
        <time>2021-07-19T14:55:38.000Z</time>
      </trkpt>
      <trkpt lat="43.6647" lon="3.37946">
        <ele>184.80000305176</ele>
        <time>2021-07-19T14:55:39.000Z</time>
      </trkpt>
      <trkpt lat="43.66465" lon="3.37947">
        <ele>184.80000305176</ele>
        <time>2021-07-19T14:55:40.000Z</time>
      </trkpt>
      <trkpt lat="43.66428" lon="3.37952">
        <ele>184.80000305176</ele>
        <time>2021-07-19T14:55:47.000Z</time>
      </trkpt>
      <trkpt lat="43.66388" lon="3.3796">
        <ele>184.80000305176</ele>
        <time>2021-07-19T14:55:55.000Z</time>
      </trkpt>
      <trkpt lat="43.66383" lon="3.37961">
        <ele>184.80000305176</ele>
        <time>2021-07-19T14:55:56.000Z</time>
      </trkpt>
      <trkpt lat="43.6637" lon="3.37965">
        <ele>184.80000305176</ele>
        <time>2021-07-19T14:55:59.000Z</time>
      </trkpt>
      <trkpt lat="43.66361" lon="3.37969">
        <ele>184.80000305176</ele>
        <time>2021-07-19T14:56:01.000Z</time>
      </trkpt>
      <trkpt lat="43.66349" lon="3.37978">
        <ele>184.80000305176</ele>
        <time>2021-07-19T14:56:04.000Z</time>
      </trkpt>
      <trkpt lat="43.66334" lon="3.37994">
        <ele>184.80000305176</ele>
        <time>2021-07-19T14:56:08.000Z</time>
      </trkpt>
      <trkpt lat="43.66315" lon="3.38022">
        <ele>184.80000305176</ele>
        <time>2021-07-19T14:56:14.000Z</time>
      </trkpt>
      <trkpt lat="43.66297" lon="3.38055">
        <ele>184.80000305176</ele>
        <time>2021-07-19T14:56:20.000Z</time>
      </trkpt>
      <trkpt lat="43.66294" lon="3.38059">
        <ele>184.80000305176</ele>
        <time>2021-07-19T14:56:21.000Z</time>
      </trkpt>
      <trkpt lat="43.66272" lon="3.38091">
        <ele>184.80000305176</ele>
        <time>2021-07-19T14:56:28.000Z</time>
      </trkpt>
      <trkpt lat="43.66267" lon="3.38102">
        <ele>184.80000305176</ele>
        <time>2021-07-19T14:56:30.000Z</time>
      </trkpt>
      <trkpt lat="43.66264" lon="3.38114">
        <ele>184.80000305176</ele>
        <time>2021-07-19T14:56:32.000Z</time>
      </trkpt>
      <trkpt lat="43.6626" lon="3.38125">
        <ele>184.80000305176</ele>
        <time>2021-07-19T14:56:34.000Z</time>
      </trkpt>
      <trkpt lat="43.66248" lon="3.38165">
        <ele>184.80000305176</ele>
        <time>2021-07-19T14:56:41.000Z</time>
      </trkpt>
      <trkpt lat="43.66241" lon="3.38187">
        <ele>184.80000305176</ele>
        <time>2021-07-19T14:56:45.000Z</time>
      </trkpt>
      <trkpt lat="43.66239" lon="3.38205">
        <ele>184.80000305176</ele>
        <time>2021-07-19T14:56:48.000Z</time>
      </trkpt>
      <trkpt lat="43.66237" lon="3.38251">
        <ele>184.80000305176</ele>
        <time>2021-07-19T14:56:55.000Z</time>
      </trkpt>
      <trkpt lat="43.66244" lon="3.38296">
        <ele>184.80000305176</ele>
        <time>2021-07-19T14:57:02.000Z</time>
      </trkpt>
      <trkpt lat="43.66254" lon="3.38324">
        <ele>184.80000305176</ele>
        <time>2021-07-19T14:57:07.000Z</time>
      </trkpt>
      <trkpt lat="43.66256" lon="3.3833">
        <ele>184.80000305176</ele>
        <time>2021-07-19T14:57:08.000Z</time>
      </trkpt>
      <trkpt lat="43.66257" lon="3.38356">
        <ele>184.80000305176</ele>
        <time>2021-07-19T14:57:12.000Z</time>
      </trkpt>
      <trkpt lat="43.66255" lon="3.38367">
        <ele>184.80000305176</ele>
        <time>2021-07-19T14:57:14.000Z</time>
      </trkpt>
      <trkpt lat="43.66253" lon="3.38384">
        <ele>184.80000305176</ele>
        <time>2021-07-19T14:57:17.000Z</time>
      </trkpt>
      <trkpt lat="43.66253" lon="3.38394">
        <ele>185.19999694824</ele>
        <time>2021-07-19T14:57:19.000Z</time>
      </trkpt>
      <trkpt lat="43.66253" lon="3.38399">
        <ele>185.60000610352</ele>
        <time>2021-07-19T14:57:20.000Z</time>
      </trkpt>
      <trkpt lat="43.66254" lon="3.38404">
        <ele>186</ele>
        <time>2021-07-19T14:57:21.000Z</time>
      </trkpt>
      <trkpt lat="43.66254" lon="3.3841">
        <ele>186.60000610352</ele>
        <time>2021-07-19T14:57:22.000Z</time>
      </trkpt>
      <trkpt lat="43.66255" lon="3.38415">
        <ele>187</ele>
        <time>2021-07-19T14:57:23.000Z</time>
      </trkpt>
      <trkpt lat="43.6626" lon="3.38437">
        <ele>187</ele>
        <time>2021-07-19T14:57:28.000Z</time>
      </trkpt>
      <trkpt lat="43.66262" lon="3.38459">
        <ele>187.39999389648</ele>
        <time>2021-07-19T14:57:33.000Z</time>
      </trkpt>
      <trkpt lat="43.66263" lon="3.38463">
        <ele>187.80000305176</ele>
        <time>2021-07-19T14:57:34.000Z</time>
      </trkpt>
      <trkpt lat="43.66263" lon="3.38467">
        <ele>188.19999694824</ele>
        <time>2021-07-19T14:57:35.000Z</time>
      </trkpt>
      <trkpt lat="43.66263" lon="3.38471">
        <ele>188.60000610352</ele>
        <time>2021-07-19T14:57:36.000Z</time>
      </trkpt>
      <trkpt lat="43.66263" lon="3.38475">
        <ele>189</ele>
        <time>2021-07-19T14:57:37.000Z</time>
      </trkpt>
      <trkpt lat="43.66256" lon="3.38499">
        <ele>189</ele>
        <time>2021-07-19T14:57:43.000Z</time>
      </trkpt>
      <trkpt lat="43.66254" lon="3.38511">
        <ele>189.39999389648</ele>
        <time>2021-07-19T14:57:46.000Z</time>
      </trkpt>
      <trkpt lat="43.66253" lon="3.38515">
        <ele>189.80000305176</ele>
        <time>2021-07-19T14:57:47.000Z</time>
      </trkpt>
      <trkpt lat="43.66253" lon="3.38519">
        <ele>190.19999694824</ele>
        <time>2021-07-19T14:57:48.000Z</time>
      </trkpt>
      <trkpt lat="43.66252" lon="3.38523">
        <ele>190.60000610352</ele>
        <time>2021-07-19T14:57:49.000Z</time>
      </trkpt>
      <trkpt lat="43.66252" lon="3.38527">
        <ele>191</ele>
        <time>2021-07-19T14:57:50.000Z</time>
      </trkpt>
      <trkpt lat="43.66249" lon="3.38557">
        <ele>191</ele>
        <time>2021-07-19T14:57:57.000Z</time>
      </trkpt>
      <trkpt lat="43.66248" lon="3.38565">
        <ele>191</ele>
        <time>2021-07-19T14:57:59.000Z</time>
      </trkpt>
      <trkpt lat="43.66249" lon="3.38577">
        <ele>191.39999389648</ele>
        <time>2021-07-19T14:58:02.000Z</time>
      </trkpt>
      <trkpt lat="43.6625" lon="3.38582">
        <ele>192</ele>
        <time>2021-07-19T14:58:03.000Z</time>
      </trkpt>
      <trkpt lat="43.6625" lon="3.38586">
        <ele>192.39999389648</ele>
        <time>2021-07-19T14:58:04.000Z</time>
      </trkpt>
      <trkpt lat="43.66251" lon="3.3859">
        <ele>192.80000305176</ele>
        <time>2021-07-19T14:58:05.000Z</time>
      </trkpt>
      <trkpt lat="43.66251" lon="3.38595">
        <ele>193.19999694824</ele>
        <time>2021-07-19T14:58:06.000Z</time>
      </trkpt>
      <trkpt lat="43.66251" lon="3.38618">
        <ele>193.19999694824</ele>
        <time>2021-07-19T14:58:12.000Z</time>
      </trkpt>
      <trkpt lat="43.66252" lon="3.3863">
        <ele>193.60000610352</ele>
        <time>2021-07-19T14:58:15.000Z</time>
      </trkpt>
      <trkpt lat="43.66252" lon="3.38634">
        <ele>194</ele>
        <time>2021-07-19T14:58:16.000Z</time>
      </trkpt>
      <trkpt lat="43.66252" lon="3.38638">
        <ele>194.39999389648</ele>
        <time>2021-07-19T14:58:17.000Z</time>
      </trkpt>
      <trkpt lat="43.66252" lon="3.38642">
        <ele>194.80000305176</ele>
        <time>2021-07-19T14:58:18.000Z</time>
      </trkpt>
      <trkpt lat="43.66252" lon="3.38646">
        <ele>195.39999389648</ele>
        <time>2021-07-19T14:58:19.000Z</time>
      </trkpt>
      <trkpt lat="43.66252" lon="3.38654">
        <ele>195.39999389648</ele>
        <time>2021-07-19T14:58:21.000Z</time>
      </trkpt>
      <trkpt lat="43.66256" lon="3.38682">
        <ele>195.39999389648</ele>
        <time>2021-07-19T14:58:28.000Z</time>
      </trkpt>
      <trkpt lat="43.66257" lon="3.3869">
        <ele>195.80000305176</ele>
        <time>2021-07-19T14:58:30.000Z</time>
      </trkpt>
      <trkpt lat="43.66258" lon="3.38694">
        <ele>196.60000610352</ele>
        <time>2021-07-19T14:58:31.000Z</time>
      </trkpt>
      <trkpt lat="43.66259" lon="3.38698">
        <ele>197</ele>
        <time>2021-07-19T14:58:32.000Z</time>
      </trkpt>
      <trkpt lat="43.6626" lon="3.38701">
        <ele>197.39999389648</ele>
        <time>2021-07-19T14:58:33.000Z</time>
      </trkpt>
      <trkpt lat="43.66263" lon="3.3871">
        <ele>197.39999389648</ele>
        <time>2021-07-19T14:58:35.000Z</time>
      </trkpt>
      <trkpt lat="43.66276" lon="3.38734">
        <ele>197.39999389648</ele>
        <time>2021-07-19T14:58:42.000Z</time>
      </trkpt>
      <trkpt lat="43.66288" lon="3.38754">
        <ele>197.80000305176</ele>
        <time>2021-07-19T14:58:48.000Z</time>
      </trkpt>
      <trkpt lat="43.66288" lon="3.38759">
        <ele>198.19999694824</ele>
        <time>2021-07-19T14:58:49.000Z</time>
      </trkpt>
      <trkpt lat="43.66287" lon="3.38762">
        <ele>198.60000610352</ele>
        <time>2021-07-19T14:58:50.000Z</time>
      </trkpt>
      <trkpt lat="43.66286" lon="3.38766">
        <ele>199</ele>
        <time>2021-07-19T14:58:51.000Z</time>
      </trkpt>
      <trkpt lat="43.66284" lon="3.38769">
        <ele>199.39999389648</ele>
        <time>2021-07-19T14:58:52.000Z</time>
      </trkpt>
      <trkpt lat="43.66278" lon="3.38778">
        <ele>199.39999389648</ele>
        <time>2021-07-19T14:58:56.000Z</time>
      </trkpt>
      <trkpt lat="43.6627" lon="3.38795">
        <ele>199.80000305176</ele>
        <time>2021-07-19T14:59:02.000Z</time>
      </trkpt>
      <trkpt lat="43.66269" lon="3.38798">
        <ele>200.19999694824</ele>
        <time>2021-07-19T14:59:03.000Z</time>
      </trkpt>
      <trkpt lat="43.66269" lon="3.38801">
        <ele>200.60000610352</ele>
        <time>2021-07-19T14:59:04.000Z</time>
      </trkpt>
      <trkpt lat="43.66268" lon="3.38805">
        <ele>201</ele>
        <time>2021-07-19T14:59:05.000Z</time>
      </trkpt>
      <trkpt lat="43.66267" lon="3.38808">
        <ele>201.39999389648</ele>
        <time>2021-07-19T14:59:06.000Z</time>
      </trkpt>
      <trkpt lat="43.66263" lon="3.38822">
        <ele>201.39999389648</ele>
        <time>2021-07-19T14:59:10.000Z</time>
      </trkpt>
      <trkpt lat="43.66253" lon="3.38838">
        <ele>201.39999389648</ele>
        <time>2021-07-19T14:59:16.000Z</time>
      </trkpt>
      <trkpt lat="43.6625" lon="3.38844">
        <ele>201.80000305176</ele>
        <time>2021-07-19T14:59:18.000Z</time>
      </trkpt>
      <trkpt lat="43.66249" lon="3.38847">
        <ele>202.19999694824</ele>
        <time>2021-07-19T14:59:19.000Z</time>
      </trkpt>
      <trkpt lat="43.66247" lon="3.38851">
        <ele>203.19999694824</ele>
        <time>2021-07-19T14:59:20.000Z</time>
      </trkpt>
      <trkpt lat="43.66245" lon="3.38854">
        <ele>203.60000610352</ele>
        <time>2021-07-19T14:59:21.000Z</time>
      </trkpt>
      <trkpt lat="43.6624" lon="3.38864">
        <ele>203.60000610352</ele>
        <time>2021-07-19T14:59:24.000Z</time>
      </trkpt>
      <trkpt lat="43.66228" lon="3.38893">
        <ele>203.60000610352</ele>
        <time>2021-07-19T14:59:32.000Z</time>
      </trkpt>
      <trkpt lat="43.66222" lon="3.38906">
        <ele>204</ele>
        <time>2021-07-19T14:59:36.000Z</time>
      </trkpt>
      <trkpt lat="43.6622" lon="3.3891">
        <ele>204.39999389648</ele>
        <time>2021-07-19T14:59:37.000Z</time>
      </trkpt>
      <trkpt lat="43.66218" lon="3.38914">
        <ele>204.80000305176</ele>
        <time>2021-07-19T14:59:38.000Z</time>
      </trkpt>
      <trkpt lat="43.66216" lon="3.38917">
        <ele>205.19999694824</ele>
        <time>2021-07-19T14:59:39.000Z</time>
      </trkpt>
      <trkpt lat="43.66215" lon="3.38921">
        <ele>205.60000610352</ele>
        <time>2021-07-19T14:59:40.000Z</time>
      </trkpt>
      <trkpt lat="43.66202" lon="3.38946">
        <ele>205.60000610352</ele>
        <time>2021-07-19T14:59:47.000Z</time>
      </trkpt>
      <trkpt lat="43.66198" lon="3.38957">
        <ele>206</ele>
        <time>2021-07-19T14:59:50.000Z</time>
      </trkpt>
      <trkpt lat="43.66196" lon="3.38961">
        <ele>206.39999389648</ele>
        <time>2021-07-19T14:59:51.000Z</time>
      </trkpt>
      <trkpt lat="43.66194" lon="3.38965">
        <ele>206.80000305176</ele>
        <time>2021-07-19T14:59:52.000Z</time>
      </trkpt>
      <trkpt lat="43.66193" lon="3.38969">
        <ele>207.19999694824</ele>
        <time>2021-07-19T14:59:53.000Z</time>
      </trkpt>
      <trkpt lat="43.66191" lon="3.38973">
        <ele>207.60000610352</ele>
        <time>2021-07-19T14:59:54.000Z</time>
      </trkpt>
      <trkpt lat="43.6619" lon="3.38976">
        <ele>207.60000610352</ele>
        <time>2021-07-19T14:59:55.000Z</time>
      </trkpt>
      <trkpt lat="43.66181" lon="3.39004">
        <ele>207.60000610352</ele>
        <time>2021-07-19T15:00:02.000Z</time>
      </trkpt>
      <trkpt lat="43.66178" lon="3.39027">
        <ele>208</ele>
        <time>2021-07-19T15:00:08.000Z</time>
      </trkpt>
      <trkpt lat="43.66177" lon="3.39031">
        <ele>208.39999389648</ele>
        <time>2021-07-19T15:00:09.000Z</time>
      </trkpt>
      <trkpt lat="43.66176" lon="3.39034">
        <ele>209.39999389648</ele>
        <time>2021-07-19T15:00:10.000Z</time>
      </trkpt>
      <trkpt lat="43.66175" lon="3.39038">
        <ele>209.80000305176</ele>
        <time>2021-07-19T15:00:11.000Z</time>
      </trkpt>
      <trkpt lat="43.66173" lon="3.39054">
        <ele>209.80000305176</ele>
        <time>2021-07-19T15:00:15.000Z</time>
      </trkpt>
      <trkpt lat="43.66172" lon="3.39078">
        <ele>209.80000305176</ele>
        <time>2021-07-19T15:00:21.000Z</time>
      </trkpt>
      <trkpt lat="43.6617" lon="3.39086">
        <ele>210.19999694824</ele>
        <time>2021-07-19T15:00:23.000Z</time>
      </trkpt>
      <trkpt lat="43.66169" lon="3.3909">
        <ele>210.60000610352</ele>
        <time>2021-07-19T15:00:24.000Z</time>
      </trkpt>
      <trkpt lat="43.66168" lon="3.39094">
        <ele>211</ele>
        <time>2021-07-19T15:00:25.000Z</time>
      </trkpt>
      <trkpt lat="43.66167" lon="3.39098">
        <ele>211.39999389648</ele>
        <time>2021-07-19T15:00:26.000Z</time>
      </trkpt>
      <trkpt lat="43.66166" lon="3.39102">
        <ele>211.80000305176</ele>
        <time>2021-07-19T15:00:27.000Z</time>
      </trkpt>
      <trkpt lat="43.66159" lon="3.39131">
        <ele>211.80000305176</ele>
        <time>2021-07-19T15:00:34.000Z</time>
      </trkpt>
      <trkpt lat="43.66158" lon="3.39154">
        <ele>211.80000305176</ele>
        <time>2021-07-19T15:00:40.000Z</time>
      </trkpt>
      <trkpt lat="43.66159" lon="3.3916">
        <ele>212.19999694824</ele>
        <time>2021-07-19T15:00:42.000Z</time>
      </trkpt>
      <trkpt lat="43.66159" lon="3.39164">
        <ele>212.60000610352</ele>
        <time>2021-07-19T15:00:43.000Z</time>
      </trkpt>
      <trkpt lat="43.66159" lon="3.39167">
        <ele>213</ele>
        <time>2021-07-19T15:00:44.000Z</time>
      </trkpt>
      <trkpt lat="43.6616" lon="3.39171">
        <ele>213.39999389648</ele>
        <time>2021-07-19T15:00:45.000Z</time>
      </trkpt>
      <trkpt lat="43.6616" lon="3.39174">
        <ele>213.80000305176</ele>
        <time>2021-07-19T15:00:46.000Z</time>
      </trkpt>
      <trkpt lat="43.66164" lon="3.39196">
        <ele>214.19999694824</ele>
        <time>2021-07-19T15:00:53.000Z</time>
      </trkpt>
      <trkpt lat="43.66165" lon="3.39199">
        <ele>214.60000610352</ele>
        <time>2021-07-19T15:00:54.000Z</time>
      </trkpt>
      <trkpt lat="43.66166" lon="3.39202">
        <ele>215</ele>
        <time>2021-07-19T15:00:55.000Z</time>
      </trkpt>
      <trkpt lat="43.66167" lon="3.39205">
        <ele>215.39999389648</ele>
        <time>2021-07-19T15:00:56.000Z</time>
      </trkpt>
      <trkpt lat="43.66167" lon="3.39208">
        <ele>215.80000305176</ele>
        <time>2021-07-19T15:00:57.000Z</time>
      </trkpt>
      <trkpt lat="43.66169" lon="3.39217">
        <ele>215.80000305176</ele>
        <time>2021-07-19T15:01:00.000Z</time>
      </trkpt>
      <trkpt lat="43.66171" lon="3.39227">
        <ele>216.39999389648</ele>
        <time>2021-07-19T15:01:03.000Z</time>
      </trkpt>
      <trkpt lat="43.66172" lon="3.3923">
        <ele>216.80000305176</ele>
        <time>2021-07-19T15:01:04.000Z</time>
      </trkpt>
      <trkpt lat="43.66172" lon="3.39233">
        <ele>217.19999694824</ele>
        <time>2021-07-19T15:01:05.000Z</time>
      </trkpt>
      <trkpt lat="43.66173" lon="3.39237">
        <ele>217.60000610352</ele>
        <time>2021-07-19T15:01:06.000Z</time>
      </trkpt>
      <trkpt lat="43.66173" lon="3.3924">
        <ele>218</ele>
        <time>2021-07-19T15:01:07.000Z</time>
      </trkpt>
      <trkpt lat="43.66171" lon="3.39252">
        <ele>218</ele>
        <time>2021-07-19T15:01:11.000Z</time>
      </trkpt>
      <trkpt lat="43.66169" lon="3.39259">
        <ele>218</ele>
        <time>2021-07-19T15:01:13.000Z</time>
      </trkpt>
      <trkpt lat="43.66165" lon="3.39272">
        <ele>218.39999389648</ele>
        <time>2021-07-19T15:01:17.000Z</time>
      </trkpt>
      <trkpt lat="43.66163" lon="3.39276">
        <ele>218.80000305176</ele>
        <time>2021-07-19T15:01:18.000Z</time>
      </trkpt>
      <trkpt lat="43.66162" lon="3.39279">
        <ele>219.19999694824</ele>
        <time>2021-07-19T15:01:19.000Z</time>
      </trkpt>
      <trkpt lat="43.66161" lon="3.39281">
        <ele>219.80000305176</ele>
        <time>2021-07-19T15:01:20.000Z</time>
      </trkpt>
      <trkpt lat="43.66159" lon="3.39284">
        <ele>220.19999694824</ele>
        <time>2021-07-19T15:01:21.000Z</time>
      </trkpt>
      <trkpt lat="43.66156" lon="3.39297">
        <ele>220.19999694824</ele>
        <time>2021-07-19T15:01:25.000Z</time>
      </trkpt>
      <trkpt lat="43.66152" lon="3.39305">
        <ele>220.60000610352</ele>
        <time>2021-07-19T15:01:28.000Z</time>
      </trkpt>
      <trkpt lat="43.66151" lon="3.39309">
        <ele>221</ele>
        <time>2021-07-19T15:01:29.000Z</time>
      </trkpt>
      <trkpt lat="43.6615" lon="3.39312">
        <ele>221.39999389648</ele>
        <time>2021-07-19T15:01:30.000Z</time>
      </trkpt>
      <trkpt lat="43.66149" lon="3.39315">
        <ele>221.80000305176</ele>
        <time>2021-07-19T15:01:31.000Z</time>
      </trkpt>
      <trkpt lat="43.66147" lon="3.39317">
        <ele>222.39999389648</ele>
        <time>2021-07-19T15:01:32.000Z</time>
      </trkpt>
      <trkpt lat="43.6614" lon="3.39327">
        <ele>222.39999389648</ele>
        <time>2021-07-19T15:01:36.000Z</time>
      </trkpt>
      <trkpt lat="43.66129" lon="3.39348">
        <ele>222.39999389648</ele>
        <time>2021-07-19T15:01:43.000Z</time>
      </trkpt>
      <trkpt lat="43.66128" lon="3.39351">
        <ele>222.80000305176</ele>
        <time>2021-07-19T15:01:44.000Z</time>
      </trkpt>
      <trkpt lat="43.66127" lon="3.39355">
        <ele>223.19999694824</ele>
        <time>2021-07-19T15:01:45.000Z</time>
      </trkpt>
      <trkpt lat="43.66125" lon="3.39359">
        <ele>223.60000610352</ele>
        <time>2021-07-19T15:01:46.000Z</time>
      </trkpt>
      <trkpt lat="43.66124" lon="3.39363">
        <ele>224</ele>
        <time>2021-07-19T15:01:47.000Z</time>
      </trkpt>
      <trkpt lat="43.66122" lon="3.39367">
        <ele>224.39999389648</ele>
        <time>2021-07-19T15:01:48.000Z</time>
      </trkpt>
      <trkpt lat="43.66121" lon="3.3937">
        <ele>224.39999389648</ele>
        <time>2021-07-19T15:01:49.000Z</time>
      </trkpt>
      <trkpt lat="43.66108" lon="3.39392">
        <ele>224.39999389648</ele>
        <time>2021-07-19T15:01:56.000Z</time>
      </trkpt>
      <trkpt lat="43.66099" lon="3.39411">
        <ele>224.39999389648</ele>
        <time>2021-07-19T15:02:02.000Z</time>
      </trkpt>
      <trkpt lat="43.66097" lon="3.39422">
        <ele>224.80000305176</ele>
        <time>2021-07-19T15:02:05.000Z</time>
      </trkpt>
      <trkpt lat="43.66096" lon="3.39426">
        <ele>225.19999694824</ele>
        <time>2021-07-19T15:02:06.000Z</time>
      </trkpt>
      <trkpt lat="43.66097" lon="3.3943">
        <ele>225.60000610352</ele>
        <time>2021-07-19T15:02:07.000Z</time>
      </trkpt>
      <trkpt lat="43.66098" lon="3.39434">
        <ele>226</ele>
        <time>2021-07-19T15:02:08.000Z</time>
      </trkpt>
      <trkpt lat="43.661" lon="3.39438">
        <ele>226.39999389648</ele>
        <time>2021-07-19T15:02:09.000Z</time>
      </trkpt>
      <trkpt lat="43.66107" lon="3.39446">
        <ele>226.39999389648</ele>
        <time>2021-07-19T15:02:12.000Z</time>
      </trkpt>
      <trkpt lat="43.66129" lon="3.39467">
        <ele>226.39999389648</ele>
        <time>2021-07-19T15:02:19.000Z</time>
      </trkpt>
      <trkpt lat="43.66141" lon="3.39477">
        <ele>226.39999389648</ele>
        <time>2021-07-19T15:02:22.000Z</time>
      </trkpt>
      <trkpt lat="43.66151" lon="3.39481">
        <ele>226.39999389648</ele>
        <time>2021-07-19T15:02:24.000Z</time>
      </trkpt>
      <trkpt lat="43.66166" lon="3.39483">
        <ele>226</ele>
        <time>2021-07-19T15:02:27.000Z</time>
      </trkpt>
      <trkpt lat="43.66172" lon="3.39483">
        <ele>225.60000610352</ele>
        <time>2021-07-19T15:02:28.000Z</time>
      </trkpt>
      <trkpt lat="43.66177" lon="3.39484">
        <ele>225.19999694824</ele>
        <time>2021-07-19T15:02:29.000Z</time>
      </trkpt>
      <trkpt lat="43.66183" lon="3.39486">
        <ele>224.80000305176</ele>
        <time>2021-07-19T15:02:30.000Z</time>
      </trkpt>
      <trkpt lat="43.66189" lon="3.39487">
        <ele>224.39999389648</ele>
        <time>2021-07-19T15:02:31.000Z</time>
      </trkpt>
      <trkpt lat="43.66209" lon="3.39492">
        <ele>224</ele>
        <time>2021-07-19T15:02:34.000Z</time>
      </trkpt>
      <trkpt lat="43.66216" lon="3.39493">
        <ele>223.60000610352</ele>
        <time>2021-07-19T15:02:35.000Z</time>
      </trkpt>
      <trkpt lat="43.66223" lon="3.39494">
        <ele>223.19999694824</ele>
        <time>2021-07-19T15:02:36.000Z</time>
      </trkpt>
      <trkpt lat="43.6623" lon="3.39495">
        <ele>222.60000610352</ele>
        <time>2021-07-19T15:02:37.000Z</time>
      </trkpt>
      <trkpt lat="43.66238" lon="3.39498">
        <ele>222.19999694824</ele>
        <time>2021-07-19T15:02:38.000Z</time>
      </trkpt>
      <trkpt lat="43.66246" lon="3.395">
        <ele>221.80000305176</ele>
        <time>2021-07-19T15:02:39.000Z</time>
      </trkpt>
      <trkpt lat="43.66254" lon="3.39502">
        <ele>221.39999389648</ele>
        <time>2021-07-19T15:02:40.000Z</time>
      </trkpt>
      <trkpt lat="43.66262" lon="3.39506">
        <ele>220.80000305176</ele>
        <time>2021-07-19T15:02:41.000Z</time>
      </trkpt>
      <trkpt lat="43.6627" lon="3.3951">
        <ele>220.39999389648</ele>
        <time>2021-07-19T15:02:42.000Z</time>
      </trkpt>
      <trkpt lat="43.66277" lon="3.39514">
        <ele>220</ele>
        <time>2021-07-19T15:02:43.000Z</time>
      </trkpt>
      <trkpt lat="43.66293" lon="3.3952">
        <ele>220</ele>
        <time>2021-07-19T15:02:45.000Z</time>
      </trkpt>
      <trkpt lat="43.66302" lon="3.39524">
        <ele>219.60000610352</ele>
        <time>2021-07-19T15:02:46.000Z</time>
      </trkpt>
      <trkpt lat="43.6631" lon="3.39525">
        <ele>219</ele>
        <time>2021-07-19T15:02:47.000Z</time>
      </trkpt>
      <trkpt lat="43.66318" lon="3.39524">
        <ele>218.60000610352</ele>
        <time>2021-07-19T15:02:48.000Z</time>
      </trkpt>
      <trkpt lat="43.66325" lon="3.39523">
        <ele>218.19999694824</ele>
        <time>2021-07-19T15:02:49.000Z</time>
      </trkpt>
      <trkpt lat="43.66333" lon="3.39521">
        <ele>217.80000305176</ele>
        <time>2021-07-19T15:02:50.000Z</time>
      </trkpt>
      <trkpt lat="43.66348" lon="3.39517">
        <ele>217.19999694824</ele>
        <time>2021-07-19T15:02:52.000Z</time>
      </trkpt>
      <trkpt lat="43.66355" lon="3.39515">
        <ele>216.80000305176</ele>
        <time>2021-07-19T15:02:53.000Z</time>
      </trkpt>
      <trkpt lat="43.66361" lon="3.39513">
        <ele>216.39999389648</ele>
        <time>2021-07-19T15:02:54.000Z</time>
      </trkpt>
      <trkpt lat="43.66367" lon="3.39513">
        <ele>216</ele>
        <time>2021-07-19T15:02:55.000Z</time>
      </trkpt>
      <trkpt lat="43.66372" lon="3.39513">
        <ele>215.39999389648</ele>
        <time>2021-07-19T15:02:56.000Z</time>
      </trkpt>
      <trkpt lat="43.66376" lon="3.39516">
        <ele>215</ele>
        <time>2021-07-19T15:02:57.000Z</time>
      </trkpt>
      <trkpt lat="43.66379" lon="3.39521">
        <ele>214.39999389648</ele>
        <time>2021-07-19T15:02:58.000Z</time>
      </trkpt>
      <trkpt lat="43.66381" lon="3.39529">
        <ele>213.80000305176</ele>
        <time>2021-07-19T15:02:59.000Z</time>
      </trkpt>
      <trkpt lat="43.6638" lon="3.39534">
        <ele>213.39999389648</ele>
        <time>2021-07-19T15:03:00.000Z</time>
      </trkpt>
      <trkpt lat="43.66373" lon="3.39539">
        <ele>213.39999389648</ele>
        <time>2021-07-19T15:03:02.000Z</time>
      </trkpt>
      <trkpt lat="43.66369" lon="3.39541">
        <ele>213.39999389648</ele>
        <time>2021-07-19T15:03:03.000Z</time>
      </trkpt>
      <trkpt lat="43.66366" lon="3.39544">
        <ele>213.39999389648</ele>
        <time>2021-07-19T15:03:04.000Z</time>
      </trkpt>
      <trkpt lat="43.66354" lon="3.39551">
        <ele>213.39999389648</ele>
        <time>2021-07-19T15:03:07.000Z</time>
      </trkpt>
      <trkpt lat="43.66344" lon="3.39568">
        <ele>213.39999389648</ele>
        <time>2021-07-19T15:03:11.000Z</time>
      </trkpt>
      <trkpt lat="43.66339" lon="3.39584">
        <ele>213.39999389648</ele>
        <time>2021-07-19T15:03:14.000Z</time>
      </trkpt>
      <trkpt lat="43.66335" lon="3.39594">
        <ele>213.39999389648</ele>
        <time>2021-07-19T15:03:16.000Z</time>
      </trkpt>
      <trkpt lat="43.66331" lon="3.39597">
        <ele>213.39999389648</ele>
        <time>2021-07-19T15:03:17.000Z</time>
      </trkpt>
      <trkpt lat="43.66317" lon="3.39602">
        <ele>213.39999389648</ele>
        <time>2021-07-19T15:03:21.000Z</time>
      </trkpt>
      <trkpt lat="43.66311" lon="3.39602">
        <ele>213.80000305176</ele>
        <time>2021-07-19T15:03:23.000Z</time>
      </trkpt>
      <trkpt lat="43.66308" lon="3.39602">
        <ele>214.19999694824</ele>
        <time>2021-07-19T15:03:24.000Z</time>
      </trkpt>
      <trkpt lat="43.66305" lon="3.39603">
        <ele>214.60000610352</ele>
        <time>2021-07-19T15:03:25.000Z</time>
      </trkpt>
      <trkpt lat="43.66302" lon="3.39603">
        <ele>215</ele>
        <time>2021-07-19T15:03:26.000Z</time>
      </trkpt>
      <trkpt lat="43.66299" lon="3.39605">
        <ele>215.39999389648</ele>
        <time>2021-07-19T15:03:27.000Z</time>
      </trkpt>
      <trkpt lat="43.66288" lon="3.39609">
        <ele>215.39999389648</ele>
        <time>2021-07-19T15:03:31.000Z</time>
      </trkpt>
      <trkpt lat="43.66272" lon="3.39623">
        <ele>215.39999389648</ele>
        <time>2021-07-19T15:03:37.000Z</time>
      </trkpt>
      <trkpt lat="43.66255" lon="3.39634">
        <ele>215.80000305176</ele>
        <time>2021-07-19T15:03:43.000Z</time>
      </trkpt>
      <trkpt lat="43.66252" lon="3.39635">
        <ele>216.19999694824</ele>
        <time>2021-07-19T15:03:44.000Z</time>
      </trkpt>
      <trkpt lat="43.66249" lon="3.39636">
        <ele>216.60000610352</ele>
        <time>2021-07-19T15:03:45.000Z</time>
      </trkpt>
      <trkpt lat="43.66246" lon="3.39637">
        <ele>217</ele>
        <time>2021-07-19T15:03:46.000Z</time>
      </trkpt>
      <trkpt lat="43.66243" lon="3.39637">
        <ele>217.39999389648</ele>
        <time>2021-07-19T15:03:47.000Z</time>
      </trkpt>
      <trkpt lat="43.6623" lon="3.39645">
        <ele>217.39999389648</ele>
        <time>2021-07-19T15:03:51.000Z</time>
      </trkpt>
      <trkpt lat="43.66225" lon="3.39654">
        <ele>217.39999389648</ele>
        <time>2021-07-19T15:03:53.000Z</time>
      </trkpt>
      <trkpt lat="43.66221" lon="3.39665">
        <ele>217.39999389648</ele>
        <time>2021-07-19T15:03:55.000Z</time>
      </trkpt>
      <trkpt lat="43.66208" lon="3.39691">
        <ele>217.39999389648</ele>
        <time>2021-07-19T15:04:01.000Z</time>
      </trkpt>
      <trkpt lat="43.66192" lon="3.39702">
        <ele>217.39999389648</ele>
        <time>2021-07-19T15:04:06.000Z</time>
      </trkpt>
      <trkpt lat="43.66173" lon="3.39716">
        <ele>217.39999389648</ele>
        <time>2021-07-19T15:04:11.000Z</time>
      </trkpt>
      <trkpt lat="43.66169" lon="3.39716">
        <ele>217.39999389648</ele>
        <time>2021-07-19T15:04:12.000Z</time>
      </trkpt>
      <trkpt lat="43.66152" lon="3.39712">
        <ele>217.39999389648</ele>
        <time>2021-07-19T15:04:16.000Z</time>
      </trkpt>
      <trkpt lat="43.66148" lon="3.39712">
        <ele>217.39999389648</ele>
        <time>2021-07-19T15:04:17.000Z</time>
      </trkpt>
      <trkpt lat="43.6613" lon="3.39717">
        <ele>217.39999389648</ele>
        <time>2021-07-19T15:04:22.000Z</time>
      </trkpt>
      <trkpt lat="43.66112" lon="3.39733">
        <ele>217.39999389648</ele>
        <time>2021-07-19T15:04:27.000Z</time>
      </trkpt>
      <trkpt lat="43.66107" lon="3.39742">
        <ele>217.39999389648</ele>
        <time>2021-07-19T15:04:29.000Z</time>
      </trkpt>
      <trkpt lat="43.66103" lon="3.39753">
        <ele>217.39999389648</ele>
        <time>2021-07-19T15:04:31.000Z</time>
      </trkpt>
      <trkpt lat="43.66092" lon="3.39773">
        <ele>217.39999389648</ele>
        <time>2021-07-19T15:04:35.000Z</time>
      </trkpt>
      <trkpt lat="43.66089" lon="3.39776">
        <ele>217.39999389648</ele>
        <time>2021-07-19T15:04:36.000Z</time>
      </trkpt>
      <trkpt lat="43.66067" lon="3.39793">
        <ele>217.39999389648</ele>
        <time>2021-07-19T15:04:42.000Z</time>
      </trkpt>
      <trkpt lat="43.66063" lon="3.39795">
        <ele>217.39999389648</ele>
        <time>2021-07-19T15:04:43.000Z</time>
      </trkpt>
      <trkpt lat="43.66048" lon="3.39807">
        <ele>217.39999389648</ele>
        <time>2021-07-19T15:04:47.000Z</time>
      </trkpt>
      <trkpt lat="43.66045" lon="3.39811">
        <ele>217.39999389648</ele>
        <time>2021-07-19T15:04:48.000Z</time>
      </trkpt>
      <trkpt lat="43.66029" lon="3.3983">
        <ele>217.80000305176</ele>
        <time>2021-07-19T15:04:53.000Z</time>
      </trkpt>
      <trkpt lat="43.66026" lon="3.39834">
        <ele>218.19999694824</ele>
        <time>2021-07-19T15:04:54.000Z</time>
      </trkpt>
      <trkpt lat="43.66022" lon="3.39838">
        <ele>218.60000610352</ele>
        <time>2021-07-19T15:04:55.000Z</time>
      </trkpt>
      <trkpt lat="43.66019" lon="3.39842">
        <ele>219</ele>
        <time>2021-07-19T15:04:56.000Z</time>
      </trkpt>
      <trkpt lat="43.66016" lon="3.39846">
        <ele>219.39999389648</ele>
        <time>2021-07-19T15:04:57.000Z</time>
      </trkpt>
      <trkpt lat="43.66006" lon="3.3985">
        <ele>219.39999389648</ele>
        <time>2021-07-19T15:05:00.000Z</time>
      </trkpt>
      <trkpt lat="43.66002" lon="3.39851">
        <ele>219.39999389648</ele>
        <time>2021-07-19T15:05:01.000Z</time>
      </trkpt>
      <trkpt lat="43.65982" lon="3.39861">
        <ele>219.39999389648</ele>
        <time>2021-07-19T15:05:07.000Z</time>
      </trkpt>
      <trkpt lat="43.65979" lon="3.39863">
        <ele>220</ele>
        <time>2021-07-19T15:05:08.000Z</time>
      </trkpt>
      <trkpt lat="43.65975" lon="3.39866">
        <ele>220.39999389648</ele>
        <time>2021-07-19T15:05:09.000Z</time>
      </trkpt>
      <trkpt lat="43.65972" lon="3.39869">
        <ele>220.80000305176</ele>
        <time>2021-07-19T15:05:10.000Z</time>
      </trkpt>
      <trkpt lat="43.65968" lon="3.39872">
        <ele>221.19999694824</ele>
        <time>2021-07-19T15:05:11.000Z</time>
      </trkpt>
      <trkpt lat="43.65965" lon="3.39875">
        <ele>221.60000610352</ele>
        <time>2021-07-19T15:05:12.000Z</time>
      </trkpt>
      <trkpt lat="43.65958" lon="3.3988">
        <ele>221.60000610352</ele>
        <time>2021-07-19T15:05:14.000Z</time>
      </trkpt>
      <trkpt lat="43.65933" lon="3.39895">
        <ele>221.60000610352</ele>
        <time>2021-07-19T15:05:21.000Z</time>
      </trkpt>
      <trkpt lat="43.65908" lon="3.3992">
        <ele>221.60000610352</ele>
        <time>2021-07-19T15:05:29.000Z</time>
      </trkpt>
      <trkpt lat="43.65894" lon="3.39934">
        <ele>221.60000610352</ele>
        <time>2021-07-19T15:05:34.000Z</time>
      </trkpt>
      <trkpt lat="43.6588" lon="3.39943">
        <ele>221.60000610352</ele>
        <time>2021-07-19T15:05:40.000Z</time>
      </trkpt>
      <trkpt lat="43.65878" lon="3.39943">
        <ele>221.60000610352</ele>
        <time>2021-07-19T15:05:41.000Z</time>
      </trkpt>
      <trkpt lat="43.65871" lon="3.39941">
        <ele>221.60000610352</ele>
        <time>2021-07-19T15:05:45.000Z</time>
      </trkpt>
      <trkpt lat="43.6587" lon="3.3994">
        <ele>221.60000610352</ele>
        <time>2021-07-19T15:05:48.000Z</time>
      </trkpt>
      <trkpt lat="43.65873" lon="3.39944">
        <ele>219.60000610352</ele>
        <time>2021-07-19T15:11:07.000Z</time>
      </trkpt>
      <trkpt lat="43.65879" lon="3.39949">
        <ele>219.60000610352</ele>
        <time>2021-07-19T15:11:11.000Z</time>
      </trkpt>
      <trkpt lat="43.65881" lon="3.39953">
        <ele>219.60000610352</ele>
        <time>2021-07-19T15:11:12.000Z</time>
      </trkpt>
      <trkpt lat="43.65887" lon="3.39971">
        <ele>219.60000610352</ele>
        <time>2021-07-19T15:11:17.000Z</time>
      </trkpt>
      <trkpt lat="43.65894" lon="3.39994">
        <ele>219.60000610352</ele>
        <time>2021-07-19T15:11:22.000Z</time>
      </trkpt>
      <trkpt lat="43.65901" lon="3.40033">
        <ele>219.60000610352</ele>
        <time>2021-07-19T15:11:29.000Z</time>
      </trkpt>
      <trkpt lat="43.65902" lon="3.40039">
        <ele>219.60000610352</ele>
        <time>2021-07-19T15:11:30.000Z</time>
      </trkpt>
      <trkpt lat="43.65904" lon="3.40044">
        <ele>219.60000610352</ele>
        <time>2021-07-19T15:11:31.000Z</time>
      </trkpt>
      <trkpt lat="43.65916" lon="3.4007">
        <ele>219.60000610352</ele>
        <time>2021-07-19T15:11:36.000Z</time>
      </trkpt>
      <trkpt lat="43.65939" lon="3.40104">
        <ele>219.60000610352</ele>
        <time>2021-07-19T15:11:43.000Z</time>
      </trkpt>
      <trkpt lat="43.65948" lon="3.40116">
        <ele>219.60000610352</ele>
        <time>2021-07-19T15:11:46.000Z</time>
      </trkpt>
      <trkpt lat="43.65954" lon="3.40124">
        <ele>219.60000610352</ele>
        <time>2021-07-19T15:11:48.000Z</time>
      </trkpt>
      <trkpt lat="43.6596" lon="3.4013">
        <ele>219.60000610352</ele>
        <time>2021-07-19T15:11:50.000Z</time>
      </trkpt>
      <trkpt lat="43.65975" lon="3.40148">
        <ele>219.60000610352</ele>
        <time>2021-07-19T15:11:54.000Z</time>
      </trkpt>
      <trkpt lat="43.65985" lon="3.40166">
        <ele>219.60000610352</ele>
        <time>2021-07-19T15:11:57.000Z</time>
      </trkpt>
      <trkpt lat="43.65992" lon="3.40186">
        <ele>219.60000610352</ele>
        <time>2021-07-19T15:12:00.000Z</time>
      </trkpt>
      <trkpt lat="43.65993" lon="3.40193">
        <ele>219.60000610352</ele>
        <time>2021-07-19T15:12:01.000Z</time>
      </trkpt>
      <trkpt lat="43.66003" lon="3.4024">
        <ele>219.60000610352</ele>
        <time>2021-07-19T15:12:08.000Z</time>
      </trkpt>
      <trkpt lat="43.66008" lon="3.4026">
        <ele>219.60000610352</ele>
        <time>2021-07-19T15:12:11.000Z</time>
      </trkpt>
      <trkpt lat="43.66014" lon="3.40279">
        <ele>219.60000610352</ele>
        <time>2021-07-19T15:12:14.000Z</time>
      </trkpt>
      <trkpt lat="43.66022" lon="3.40312">
        <ele>219.60000610352</ele>
        <time>2021-07-19T15:12:19.000Z</time>
      </trkpt>
      <trkpt lat="43.66022" lon="3.40319">
        <ele>219.60000610352</ele>
        <time>2021-07-19T15:12:20.000Z</time>
      </trkpt>
      <trkpt lat="43.66023" lon="3.40368">
        <ele>219.60000610352</ele>
        <time>2021-07-19T15:12:27.000Z</time>
      </trkpt>
      <trkpt lat="43.66029" lon="3.40408">
        <ele>219.60000610352</ele>
        <time>2021-07-19T15:12:33.000Z</time>
      </trkpt>
      <trkpt lat="43.66032" lon="3.40421">
        <ele>219.60000610352</ele>
        <time>2021-07-19T15:12:35.000Z</time>
      </trkpt>
      <trkpt lat="43.66039" lon="3.40439">
        <ele>219</ele>
        <time>2021-07-19T15:12:38.000Z</time>
      </trkpt>
      <trkpt lat="43.66041" lon="3.40445">
        <ele>218.60000610352</ele>
        <time>2021-07-19T15:12:39.000Z</time>
      </trkpt>
      <trkpt lat="43.66043" lon="3.4045">
        <ele>218.19999694824</ele>
        <time>2021-07-19T15:12:40.000Z</time>
      </trkpt>
      <trkpt lat="43.66046" lon="3.40456">
        <ele>217.80000305176</ele>
        <time>2021-07-19T15:12:41.000Z</time>
      </trkpt>
      <trkpt lat="43.66049" lon="3.40461">
        <ele>217.39999389648</ele>
        <time>2021-07-19T15:12:42.000Z</time>
      </trkpt>
      <trkpt lat="43.66057" lon="3.4047">
        <ele>217.39999389648</ele>
        <time>2021-07-19T15:12:44.000Z</time>
      </trkpt>
      <trkpt lat="43.66074" lon="3.40477">
        <ele>217.39999389648</ele>
        <time>2021-07-19T15:12:48.000Z</time>
      </trkpt>
      <trkpt lat="43.66087" lon="3.40473">
        <ele>217.39999389648</ele>
        <time>2021-07-19T15:12:51.000Z</time>
      </trkpt>
      <trkpt lat="43.661" lon="3.40468">
        <ele>217.39999389648</ele>
        <time>2021-07-19T15:12:54.000Z</time>
      </trkpt>
      <trkpt lat="43.6613" lon="3.40444">
        <ele>217.39999389648</ele>
        <time>2021-07-19T15:13:01.000Z</time>
      </trkpt>
      <trkpt lat="43.66151" lon="3.40427">
        <ele>217.39999389648</ele>
        <time>2021-07-19T15:13:06.000Z</time>
      </trkpt>
      <trkpt lat="43.66155" lon="3.40422">
        <ele>217.39999389648</ele>
        <time>2021-07-19T15:13:07.000Z</time>
      </trkpt>
      <trkpt lat="43.6616" lon="3.40417">
        <ele>217</ele>
        <time>2021-07-19T15:13:08.000Z</time>
      </trkpt>
      <trkpt lat="43.66164" lon="3.40413">
        <ele>216.39999389648</ele>
        <time>2021-07-19T15:13:09.000Z</time>
      </trkpt>
      <trkpt lat="43.66169" lon="3.40409">
        <ele>216</ele>
        <time>2021-07-19T15:13:10.000Z</time>
      </trkpt>
      <trkpt lat="43.66174" lon="3.40406">
        <ele>215.60000610352</ele>
        <time>2021-07-19T15:13:11.000Z</time>
      </trkpt>
      <trkpt lat="43.66179" lon="3.40405">
        <ele>215.19999694824</ele>
        <time>2021-07-19T15:13:12.000Z</time>
      </trkpt>
      <trkpt lat="43.66191" lon="3.40413">
        <ele>215.19999694824</ele>
        <time>2021-07-19T15:13:15.000Z</time>
      </trkpt>
      <trkpt lat="43.66193" lon="3.40417">
        <ele>215.19999694824</ele>
        <time>2021-07-19T15:13:16.000Z</time>
      </trkpt>
      <trkpt lat="43.66205" lon="3.40438">
        <ele>215.19999694824</ele>
        <time>2021-07-19T15:13:21.000Z</time>
      </trkpt>
      <trkpt lat="43.66223" lon="3.40463">
        <ele>215.60000610352</ele>
        <time>2021-07-19T15:13:28.000Z</time>
      </trkpt>
      <trkpt lat="43.66226" lon="3.40467">
        <ele>216</ele>
        <time>2021-07-19T15:13:29.000Z</time>
      </trkpt>
      <trkpt lat="43.66229" lon="3.40471">
        <ele>216.39999389648</ele>
        <time>2021-07-19T15:13:30.000Z</time>
      </trkpt>
      <trkpt lat="43.66232" lon="3.40474">
        <ele>217</ele>
        <time>2021-07-19T15:13:31.000Z</time>
      </trkpt>
      <trkpt lat="43.66235" lon="3.40477">
        <ele>217.39999389648</ele>
        <time>2021-07-19T15:13:32.000Z</time>
      </trkpt>
      <trkpt lat="43.66245" lon="3.40486">
        <ele>217.39999389648</ele>
        <time>2021-07-19T15:13:35.000Z</time>
      </trkpt>
      <trkpt lat="43.66269" lon="3.40508">
        <ele>217.39999389648</ele>
        <time>2021-07-19T15:13:43.000Z</time>
      </trkpt>
      <trkpt lat="43.66275" lon="3.40513">
        <ele>217.80000305176</ele>
        <time>2021-07-19T15:13:45.000Z</time>
      </trkpt>
      <trkpt lat="43.66277" lon="3.40516">
        <ele>218.19999694824</ele>
        <time>2021-07-19T15:13:46.000Z</time>
      </trkpt>
      <trkpt lat="43.6628" lon="3.40518">
        <ele>218.60000610352</ele>
        <time>2021-07-19T15:13:47.000Z</time>
      </trkpt>
      <trkpt lat="43.66283" lon="3.4052">
        <ele>219</ele>
        <time>2021-07-19T15:13:48.000Z</time>
      </trkpt>
      <trkpt lat="43.66285" lon="3.40522">
        <ele>219.39999389648</ele>
        <time>2021-07-19T15:13:49.000Z</time>
      </trkpt>
      <trkpt lat="43.66288" lon="3.40523">
        <ele>219.39999389648</ele>
        <time>2021-07-19T15:13:50.000Z</time>
      </trkpt>
      <trkpt lat="43.66305" lon="3.40533">
        <ele>219.39999389648</ele>
        <time>2021-07-19T15:13:57.000Z</time>
      </trkpt>
      <trkpt lat="43.66307" lon="3.40535">
        <ele>219.80000305176</ele>
        <time>2021-07-19T15:13:58.000Z</time>
      </trkpt>
      <trkpt lat="43.66309" lon="3.40537">
        <ele>220.19999694824</ele>
        <time>2021-07-19T15:13:59.000Z</time>
      </trkpt>
      <trkpt lat="43.66311" lon="3.40539">
        <ele>220.60000610352</ele>
        <time>2021-07-19T15:14:00.000Z</time>
      </trkpt>
      <trkpt lat="43.66313" lon="3.40541">
        <ele>221</ele>
        <time>2021-07-19T15:14:01.000Z</time>
      </trkpt>
      <trkpt lat="43.66316" lon="3.40543">
        <ele>221.39999389648</ele>
        <time>2021-07-19T15:14:02.000Z</time>
      </trkpt>
      <trkpt lat="43.66318" lon="3.40545">
        <ele>221.39999389648</ele>
        <time>2021-07-19T15:14:03.000Z</time>
      </trkpt>
      <trkpt lat="43.66321" lon="3.40551">
        <ele>222</ele>
        <time>2021-07-19T15:14:05.000Z</time>
      </trkpt>
      <trkpt lat="43.66323" lon="3.40554">
        <ele>222.80000305176</ele>
        <time>2021-07-19T15:14:06.000Z</time>
      </trkpt>
      <trkpt lat="43.66324" lon="3.40557">
        <ele>223.19999694824</ele>
        <time>2021-07-19T15:14:07.000Z</time>
      </trkpt>
      <trkpt lat="43.66326" lon="3.40559">
        <ele>223.60000610352</ele>
        <time>2021-07-19T15:14:08.000Z</time>
      </trkpt>
      <trkpt lat="43.66331" lon="3.40565">
        <ele>223.60000610352</ele>
        <time>2021-07-19T15:14:11.000Z</time>
      </trkpt>
      <trkpt lat="43.66346" lon="3.40574">
        <ele>223.60000610352</ele>
        <time>2021-07-19T15:14:17.000Z</time>
      </trkpt>
      <trkpt lat="43.66351" lon="3.40576">
        <ele>223.60000610352</ele>
        <time>2021-07-19T15:14:18.000Z</time>
      </trkpt>
      <trkpt lat="43.66366" lon="3.40584">
        <ele>223.60000610352</ele>
        <time>2021-07-19T15:14:21.000Z</time>
      </trkpt>
      <trkpt lat="43.66384" lon="3.40593">
        <ele>223.60000610352</ele>
        <time>2021-07-19T15:14:24.000Z</time>
      </trkpt>
      <trkpt lat="43.66389" lon="3.40595">
        <ele>223.19999694824</ele>
        <time>2021-07-19T15:14:25.000Z</time>
      </trkpt>
      <trkpt lat="43.66394" lon="3.40597">
        <ele>222.80000305176</ele>
        <time>2021-07-19T15:14:26.000Z</time>
      </trkpt>
      <trkpt lat="43.66399" lon="3.40598">
        <ele>222.19999694824</ele>
        <time>2021-07-19T15:14:27.000Z</time>
      </trkpt>
      <trkpt lat="43.66402" lon="3.406">
        <ele>221.80000305176</ele>
        <time>2021-07-19T15:14:28.000Z</time>
      </trkpt>
      <trkpt lat="43.66406" lon="3.40601">
        <ele>221.39999389648</ele>
        <time>2021-07-19T15:14:29.000Z</time>
      </trkpt>
      <trkpt lat="43.66407" lon="3.40601">
        <ele>221</ele>
        <time>2021-07-19T15:14:30.000Z</time>
      </trkpt>
      <trkpt lat="43.66407" lon="3.40601">
        <ele>220.60000610352</ele>
        <time>2021-07-19T15:14:31.000Z</time>
      </trkpt>
      <trkpt lat="43.66409" lon="3.40602">
        <ele>219.19999694824</ele>
        <time>2021-07-19T15:14:39.000Z</time>
      </trkpt>
      <trkpt lat="43.66419" lon="3.40607">
        <ele>219.19999694824</ele>
        <time>2021-07-19T15:14:43.000Z</time>
      </trkpt>
      <trkpt lat="43.66434" lon="3.40613">
        <ele>218.80000305176</ele>
        <time>2021-07-19T15:14:47.000Z</time>
      </trkpt>
      <trkpt lat="43.66437" lon="3.40615">
        <ele>218.39999389648</ele>
        <time>2021-07-19T15:14:48.000Z</time>
      </trkpt>
      <trkpt lat="43.66442" lon="3.40617">
        <ele>218</ele>
        <time>2021-07-19T15:14:49.000Z</time>
      </trkpt>
      <trkpt lat="43.66446" lon="3.4062">
        <ele>217.60000610352</ele>
        <time>2021-07-19T15:14:50.000Z</time>
      </trkpt>
      <trkpt lat="43.66451" lon="3.40623">
        <ele>217.19999694824</ele>
        <time>2021-07-19T15:14:51.000Z</time>
      </trkpt>
      <trkpt lat="43.66461" lon="3.40631">
        <ele>216.80000305176</ele>
        <time>2021-07-19T15:14:53.000Z</time>
      </trkpt>
      <trkpt lat="43.66466" lon="3.40636">
        <ele>216.39999389648</ele>
        <time>2021-07-19T15:14:54.000Z</time>
      </trkpt>
      <trkpt lat="43.66472" lon="3.40641">
        <ele>216</ele>
        <time>2021-07-19T15:14:55.000Z</time>
      </trkpt>
      <trkpt lat="43.66478" lon="3.40648">
        <ele>215</ele>
        <time>2021-07-19T15:14:56.000Z</time>
      </trkpt>
      <trkpt lat="43.66485" lon="3.40656">
        <ele>214.19999694824</ele>
        <time>2021-07-19T15:14:57.000Z</time>
      </trkpt>
      <trkpt lat="43.66492" lon="3.40664">
        <ele>213.39999389648</ele>
        <time>2021-07-19T15:14:58.000Z</time>
      </trkpt>
      <trkpt lat="43.66499" lon="3.40671">
        <ele>212.39999389648</ele>
        <time>2021-07-19T15:14:59.000Z</time>
      </trkpt>
      <trkpt lat="43.66508" lon="3.40677">
        <ele>211.39999389648</ele>
        <time>2021-07-19T15:15:00.000Z</time>
      </trkpt>
      <trkpt lat="43.66516" lon="3.40682">
        <ele>210.39999389648</ele>
        <time>2021-07-19T15:15:01.000Z</time>
      </trkpt>
      <trkpt lat="43.66526" lon="3.40687">
        <ele>209.39999389648</ele>
        <time>2021-07-19T15:15:02.000Z</time>
      </trkpt>
      <trkpt lat="43.66536" lon="3.40692">
        <ele>208.39999389648</ele>
        <time>2021-07-19T15:15:03.000Z</time>
      </trkpt>
      <trkpt lat="43.66546" lon="3.40697">
        <ele>207.39999389648</ele>
        <time>2021-07-19T15:15:04.000Z</time>
      </trkpt>
      <trkpt lat="43.66557" lon="3.40703">
        <ele>206.39999389648</ele>
        <time>2021-07-19T15:15:05.000Z</time>
      </trkpt>
      <trkpt lat="43.66567" lon="3.40708">
        <ele>205.19999694824</ele>
        <time>2021-07-19T15:15:06.000Z</time>
      </trkpt>
      <trkpt lat="43.66578" lon="3.40713">
        <ele>204.19999694824</ele>
        <time>2021-07-19T15:15:07.000Z</time>
      </trkpt>
      <trkpt lat="43.66589" lon="3.40718">
        <ele>203</ele>
        <time>2021-07-19T15:15:08.000Z</time>
      </trkpt>
      <trkpt lat="43.66599" lon="3.40723">
        <ele>202</ele>
        <time>2021-07-19T15:15:09.000Z</time>
      </trkpt>
      <trkpt lat="43.66609" lon="3.40727">
        <ele>200.80000305176</ele>
        <time>2021-07-19T15:15:10.000Z</time>
      </trkpt>
      <trkpt lat="43.66619" lon="3.40732">
        <ele>199.60000610352</ele>
        <time>2021-07-19T15:15:11.000Z</time>
      </trkpt>
      <trkpt lat="43.66628" lon="3.40736">
        <ele>198.39999389648</ele>
        <time>2021-07-19T15:15:12.000Z</time>
      </trkpt>
      <trkpt lat="43.66637" lon="3.40739">
        <ele>197.19999694824</ele>
        <time>2021-07-19T15:15:13.000Z</time>
      </trkpt>
      <trkpt lat="43.66647" lon="3.4074">
        <ele>196</ele>
        <time>2021-07-19T15:15:14.000Z</time>
      </trkpt>
      <trkpt lat="43.66657" lon="3.40741">
        <ele>194.80000305176</ele>
        <time>2021-07-19T15:15:15.000Z</time>
      </trkpt>
      <trkpt lat="43.66666" lon="3.40742">
        <ele>193.60000610352</ele>
        <time>2021-07-19T15:15:16.000Z</time>
      </trkpt>
      <trkpt lat="43.66676" lon="3.40743">
        <ele>192.39999389648</ele>
        <time>2021-07-19T15:15:17.000Z</time>
      </trkpt>
      <trkpt lat="43.66685" lon="3.40746">
        <ele>191.39999389648</ele>
        <time>2021-07-19T15:15:18.000Z</time>
      </trkpt>
      <trkpt lat="43.66693" lon="3.4075">
        <ele>190.39999389648</ele>
        <time>2021-07-19T15:15:19.000Z</time>
      </trkpt>
      <trkpt lat="43.66701" lon="3.40755">
        <ele>189.19999694824</ele>
        <time>2021-07-19T15:15:20.000Z</time>
      </trkpt>
      <trkpt lat="43.66708" lon="3.40763">
        <ele>187.80000305176</ele>
        <time>2021-07-19T15:15:21.000Z</time>
      </trkpt>
      <trkpt lat="43.66713" lon="3.40774">
        <ele>187.19999694824</ele>
        <time>2021-07-19T15:15:22.000Z</time>
      </trkpt>
      <trkpt lat="43.66716" lon="3.40785">
        <ele>186.39999389648</ele>
        <time>2021-07-19T15:15:23.000Z</time>
      </trkpt>
      <trkpt lat="43.66719" lon="3.40797">
        <ele>185.80000305176</ele>
        <time>2021-07-19T15:15:24.000Z</time>
      </trkpt>
      <trkpt lat="43.66723" lon="3.40808">
        <ele>185</ele>
        <time>2021-07-19T15:15:25.000Z</time>
      </trkpt>
      <trkpt lat="43.66728" lon="3.40818">
        <ele>184.39999389648</ele>
        <time>2021-07-19T15:15:26.000Z</time>
      </trkpt>
      <trkpt lat="43.66734" lon="3.40828">
        <ele>183.60000610352</ele>
        <time>2021-07-19T15:15:27.000Z</time>
      </trkpt>
      <trkpt lat="43.6674" lon="3.40837">
        <ele>182.80000305176</ele>
        <time>2021-07-19T15:15:28.000Z</time>
      </trkpt>
      <trkpt lat="43.66748" lon="3.40845">
        <ele>181.80000305176</ele>
        <time>2021-07-19T15:15:29.000Z</time>
      </trkpt>
      <trkpt lat="43.66756" lon="3.40853">
        <ele>180.80000305176</ele>
        <time>2021-07-19T15:15:30.000Z</time>
      </trkpt>
      <trkpt lat="43.66765" lon="3.40859">
        <ele>179.80000305176</ele>
        <time>2021-07-19T15:15:31.000Z</time>
      </trkpt>
      <trkpt lat="43.66775" lon="3.40866">
        <ele>178.60000610352</ele>
        <time>2021-07-19T15:15:32.000Z</time>
      </trkpt>
      <trkpt lat="43.66785" lon="3.40873">
        <ele>177.60000610352</ele>
        <time>2021-07-19T15:15:33.000Z</time>
      </trkpt>
      <trkpt lat="43.66795" lon="3.40879">
        <ele>176.60000610352</ele>
        <time>2021-07-19T15:15:34.000Z</time>
      </trkpt>
      <trkpt lat="43.66807" lon="3.40885">
        <ele>175.39999389648</ele>
        <time>2021-07-19T15:15:35.000Z</time>
      </trkpt>
      <trkpt lat="43.66819" lon="3.4089">
        <ele>174</ele>
        <time>2021-07-19T15:15:36.000Z</time>
      </trkpt>
      <trkpt lat="43.66831" lon="3.40895">
        <ele>172.80000305176</ele>
        <time>2021-07-19T15:15:37.000Z</time>
      </trkpt>
      <trkpt lat="43.66843" lon="3.409">
        <ele>171.39999389648</ele>
        <time>2021-07-19T15:15:38.000Z</time>
      </trkpt>
      <trkpt lat="43.66854" lon="3.40905">
        <ele>170</ele>
        <time>2021-07-19T15:15:39.000Z</time>
      </trkpt>
      <trkpt lat="43.66865" lon="3.40911">
        <ele>168.60000610352</ele>
        <time>2021-07-19T15:15:40.000Z</time>
      </trkpt>
      <trkpt lat="43.66875" lon="3.40915">
        <ele>167.19999694824</ele>
        <time>2021-07-19T15:15:41.000Z</time>
      </trkpt>
      <trkpt lat="43.66884" lon="3.4092">
        <ele>165.80000305176</ele>
        <time>2021-07-19T15:15:42.000Z</time>
      </trkpt>
      <trkpt lat="43.66892" lon="3.40925">
        <ele>164.39999389648</ele>
        <time>2021-07-19T15:15:43.000Z</time>
      </trkpt>
      <trkpt lat="43.669" lon="3.40929">
        <ele>163</ele>
        <time>2021-07-19T15:15:44.000Z</time>
      </trkpt>
      <trkpt lat="43.66906" lon="3.40934">
        <ele>161.80000305176</ele>
        <time>2021-07-19T15:15:45.000Z</time>
      </trkpt>
      <trkpt lat="43.66912" lon="3.40939">
        <ele>159.19999694824</ele>
        <time>2021-07-19T15:15:46.000Z</time>
      </trkpt>
      <trkpt lat="43.66918" lon="3.40945">
        <ele>158</ele>
        <time>2021-07-19T15:15:47.000Z</time>
      </trkpt>
      <trkpt lat="43.66924" lon="3.40952">
        <ele>156.80000305176</ele>
        <time>2021-07-19T15:15:48.000Z</time>
      </trkpt>
      <trkpt lat="43.66929" lon="3.40961">
        <ele>155.80000305176</ele>
        <time>2021-07-19T15:15:49.000Z</time>
      </trkpt>
      <trkpt lat="43.66933" lon="3.40969">
        <ele>155</ele>
        <time>2021-07-19T15:15:50.000Z</time>
      </trkpt>
      <trkpt lat="43.66937" lon="3.40978">
        <ele>154</ele>
        <time>2021-07-19T15:15:51.000Z</time>
      </trkpt>
      <trkpt lat="43.66939" lon="3.40986">
        <ele>153</ele>
        <time>2021-07-19T15:15:52.000Z</time>
      </trkpt>
      <trkpt lat="43.66939" lon="3.40994">
        <ele>152.19999694824</ele>
        <time>2021-07-19T15:15:53.000Z</time>
      </trkpt>
      <trkpt lat="43.66936" lon="3.4101">
        <ele>152.19999694824</ele>
        <time>2021-07-19T15:15:55.000Z</time>
      </trkpt>
      <trkpt lat="43.66931" lon="3.41026">
        <ele>152.19999694824</ele>
        <time>2021-07-19T15:15:57.000Z</time>
      </trkpt>
      <trkpt lat="43.66927" lon="3.41032">
        <ele>151.60000610352</ele>
        <time>2021-07-19T15:15:58.000Z</time>
      </trkpt>
      <trkpt lat="43.66923" lon="3.41037">
        <ele>151.19999694824</ele>
        <time>2021-07-19T15:15:59.000Z</time>
      </trkpt>
      <trkpt lat="43.66918" lon="3.41037">
        <ele>150.60000610352</ele>
        <time>2021-07-19T15:16:00.000Z</time>
      </trkpt>
      <trkpt lat="43.66913" lon="3.41034">
        <ele>150</ele>
        <time>2021-07-19T15:16:01.000Z</time>
      </trkpt>
      <trkpt lat="43.6691" lon="3.41029">
        <ele>149.60000610352</ele>
        <time>2021-07-19T15:16:02.000Z</time>
      </trkpt>
      <trkpt lat="43.66907" lon="3.41022">
        <ele>149.19999694824</ele>
        <time>2021-07-19T15:16:03.000Z</time>
      </trkpt>
      <trkpt lat="43.66905" lon="3.41015">
        <ele>148.60000610352</ele>
        <time>2021-07-19T15:16:04.000Z</time>
      </trkpt>
      <trkpt lat="43.66902" lon="3.41007">
        <ele>148.19999694824</ele>
        <time>2021-07-19T15:16:05.000Z</time>
      </trkpt>
      <trkpt lat="43.66899" lon="3.40999">
        <ele>147.80000305176</ele>
        <time>2021-07-19T15:16:06.000Z</time>
      </trkpt>
      <trkpt lat="43.66895" lon="3.40992">
        <ele>147.19999694824</ele>
        <time>2021-07-19T15:16:07.000Z</time>
      </trkpt>
      <trkpt lat="43.6689" lon="3.40985">
        <ele>147.19999694824</ele>
        <time>2021-07-19T15:16:08.000Z</time>
      </trkpt>
      <trkpt lat="43.66878" lon="3.40974">
        <ele>146.80000305176</ele>
        <time>2021-07-19T15:16:10.000Z</time>
      </trkpt>
      <trkpt lat="43.66872" lon="3.40969">
        <ele>146</ele>
        <time>2021-07-19T15:16:11.000Z</time>
      </trkpt>
      <trkpt lat="43.66865" lon="3.40966">
        <ele>145.39999389648</ele>
        <time>2021-07-19T15:16:12.000Z</time>
      </trkpt>
      <trkpt lat="43.66858" lon="3.40962">
        <ele>145</ele>
        <time>2021-07-19T15:16:13.000Z</time>
      </trkpt>
      <trkpt lat="43.66839" lon="3.40956">
        <ele>145</ele>
        <time>2021-07-19T15:16:16.000Z</time>
      </trkpt>
      <trkpt lat="43.66833" lon="3.40955">
        <ele>145</ele>
        <time>2021-07-19T15:16:17.000Z</time>
      </trkpt>
      <trkpt lat="43.66799" lon="3.40952">
        <ele>145</ele>
        <time>2021-07-19T15:16:22.000Z</time>
      </trkpt>
      <trkpt lat="43.66792" lon="3.4095">
        <ele>144.60000610352</ele>
        <time>2021-07-19T15:16:23.000Z</time>
      </trkpt>
      <trkpt lat="43.66785" lon="3.40949">
        <ele>144</ele>
        <time>2021-07-19T15:16:24.000Z</time>
      </trkpt>
      <trkpt lat="43.66777" lon="3.40947">
        <ele>143.60000610352</ele>
        <time>2021-07-19T15:16:25.000Z</time>
      </trkpt>
      <trkpt lat="43.66769" lon="3.40944">
        <ele>143.19999694824</ele>
        <time>2021-07-19T15:16:26.000Z</time>
      </trkpt>
      <trkpt lat="43.66761" lon="3.40942">
        <ele>142.80000305176</ele>
        <time>2021-07-19T15:16:27.000Z</time>
      </trkpt>
      <trkpt lat="43.66752" lon="3.4094">
        <ele>142.19999694824</ele>
        <time>2021-07-19T15:16:28.000Z</time>
      </trkpt>
      <trkpt lat="43.66744" lon="3.40938">
        <ele>141.80000305176</ele>
        <time>2021-07-19T15:16:29.000Z</time>
      </trkpt>
      <trkpt lat="43.66735" lon="3.40937">
        <ele>141.39999389648</ele>
        <time>2021-07-19T15:16:30.000Z</time>
      </trkpt>
      <trkpt lat="43.66726" lon="3.40935">
        <ele>141</ele>
        <time>2021-07-19T15:16:31.000Z</time>
      </trkpt>
      <trkpt lat="43.66716" lon="3.40935">
        <ele>140.39999389648</ele>
        <time>2021-07-19T15:16:32.000Z</time>
      </trkpt>
      <trkpt lat="43.66707" lon="3.40934">
        <ele>139.80000305176</ele>
        <time>2021-07-19T15:16:33.000Z</time>
      </trkpt>
      <trkpt lat="43.66698" lon="3.40933">
        <ele>139.19999694824</ele>
        <time>2021-07-19T15:16:34.000Z</time>
      </trkpt>
      <trkpt lat="43.6669" lon="3.40931">
        <ele>138.60000610352</ele>
        <time>2021-07-19T15:16:35.000Z</time>
      </trkpt>
      <trkpt lat="43.66683" lon="3.40929">
        <ele>137.19999694824</ele>
        <time>2021-07-19T15:16:36.000Z</time>
      </trkpt>
      <trkpt lat="43.66676" lon="3.40927">
        <ele>136.60000610352</ele>
        <time>2021-07-19T15:16:37.000Z</time>
      </trkpt>
      <trkpt lat="43.66672" lon="3.40926">
        <ele>136</ele>
        <time>2021-07-19T15:16:38.000Z</time>
      </trkpt>
      <trkpt lat="43.6667" lon="3.40928">
        <ele>135.39999389648</ele>
        <time>2021-07-19T15:16:39.000Z</time>
      </trkpt>
      <trkpt lat="43.66671" lon="3.40931">
        <ele>134.60000610352</ele>
        <time>2021-07-19T15:16:40.000Z</time>
      </trkpt>
      <trkpt lat="43.66674" lon="3.40933">
        <ele>134</ele>
        <time>2021-07-19T15:16:41.000Z</time>
      </trkpt>
      <trkpt lat="43.66679" lon="3.40933">
        <ele>133.39999389648</ele>
        <time>2021-07-19T15:16:42.000Z</time>
      </trkpt>
      <trkpt lat="43.66683" lon="3.40935">
        <ele>133.39999389648</ele>
        <time>2021-07-19T15:16:43.000Z</time>
      </trkpt>
      <trkpt lat="43.66693" lon="3.40942">
        <ele>133</ele>
        <time>2021-07-19T15:16:45.000Z</time>
      </trkpt>
      <trkpt lat="43.66699" lon="3.40945">
        <ele>132.39999389648</ele>
        <time>2021-07-19T15:16:46.000Z</time>
      </trkpt>
      <trkpt lat="43.66704" lon="3.40946">
        <ele>132</ele>
        <time>2021-07-19T15:16:47.000Z</time>
      </trkpt>
      <trkpt lat="43.66709" lon="3.40948">
        <ele>131.60000610352</ele>
        <time>2021-07-19T15:16:48.000Z</time>
      </trkpt>
      <trkpt lat="43.66715" lon="3.4095">
        <ele>131</ele>
        <time>2021-07-19T15:16:49.000Z</time>
      </trkpt>
      <trkpt lat="43.6672" lon="3.40953">
        <ele>131</ele>
        <time>2021-07-19T15:16:50.000Z</time>
      </trkpt>
      <trkpt lat="43.66748" lon="3.40968">
        <ele>131</ele>
        <time>2021-07-19T15:16:55.000Z</time>
      </trkpt>
      <trkpt lat="43.66777" lon="3.40985">
        <ele>131</ele>
        <time>2021-07-19T15:17:01.000Z</time>
      </trkpt>
      <trkpt lat="43.66782" lon="3.40989">
        <ele>130.60000610352</ele>
        <time>2021-07-19T15:17:02.000Z</time>
      </trkpt>
      <trkpt lat="43.66787" lon="3.40993">
        <ele>130.19999694824</ele>
        <time>2021-07-19T15:17:03.000Z</time>
      </trkpt>
      <trkpt lat="43.66793" lon="3.40997">
        <ele>129.80000305176</ele>
        <time>2021-07-19T15:17:04.000Z</time>
      </trkpt>
      <trkpt lat="43.66798" lon="3.41001">
        <ele>129.39999389648</ele>
        <time>2021-07-19T15:17:05.000Z</time>
      </trkpt>
      <trkpt lat="43.66805" lon="3.41005">
        <ele>128.80000305176</ele>
        <time>2021-07-19T15:17:06.000Z</time>
      </trkpt>
      <trkpt lat="43.66809" lon="3.4101">
        <ele>128.80000305176</ele>
        <time>2021-07-19T15:17:07.000Z</time>
      </trkpt>
      <trkpt lat="43.66809" lon="3.41015">
        <ele>128.39999389648</ele>
        <time>2021-07-19T15:17:09.000Z</time>
      </trkpt>
      <trkpt lat="43.66807" lon="3.41016">
        <ele>128</ele>
        <time>2021-07-19T15:17:10.000Z</time>
      </trkpt>
      <trkpt lat="43.66803" lon="3.41014">
        <ele>127.59999847412</ele>
        <time>2021-07-19T15:17:11.000Z</time>
      </trkpt>
      <trkpt lat="43.66799" lon="3.41012">
        <ele>127.19999694824</ele>
        <time>2021-07-19T15:17:12.000Z</time>
      </trkpt>
      <trkpt lat="43.66796" lon="3.41009">
        <ele>126.59999847412</ele>
        <time>2021-07-19T15:17:13.000Z</time>
      </trkpt>
      <trkpt lat="43.66778" lon="3.40998">
        <ele>126.59999847412</ele>
        <time>2021-07-19T15:17:17.000Z</time>
      </trkpt>
      <trkpt lat="43.66771" lon="3.40996">
        <ele>126.19999694824</ele>
        <time>2021-07-19T15:17:19.000Z</time>
      </trkpt>
      <trkpt lat="43.66768" lon="3.40994">
        <ele>125.80000305176</ele>
        <time>2021-07-19T15:17:20.000Z</time>
      </trkpt>
      <trkpt lat="43.66765" lon="3.40993">
        <ele>125.40000152588</ele>
        <time>2021-07-19T15:17:21.000Z</time>
      </trkpt>
      <trkpt lat="43.66762" lon="3.40992">
        <ele>125</ele>
        <time>2021-07-19T15:17:22.000Z</time>
      </trkpt>
      <trkpt lat="43.66758" lon="3.4099">
        <ele>124.40000152588</ele>
        <time>2021-07-19T15:17:23.000Z</time>
      </trkpt>
      <trkpt lat="43.66748" lon="3.40986">
        <ele>124.40000152588</ele>
        <time>2021-07-19T15:17:25.000Z</time>
      </trkpt>
      <trkpt lat="43.66742" lon="3.40982">
        <ele>124</ele>
        <time>2021-07-19T15:17:26.000Z</time>
      </trkpt>
      <trkpt lat="43.66736" lon="3.40979">
        <ele>123.59999847412</ele>
        <time>2021-07-19T15:17:27.000Z</time>
      </trkpt>
      <trkpt lat="43.6673" lon="3.40976">
        <ele>123.19999694824</ele>
        <time>2021-07-19T15:17:28.000Z</time>
      </trkpt>
      <trkpt lat="43.66724" lon="3.40973">
        <ele>122.80000305176</ele>
        <time>2021-07-19T15:17:29.000Z</time>
      </trkpt>
      <trkpt lat="43.66718" lon="3.4097">
        <ele>122.19999694824</ele>
        <time>2021-07-19T15:17:30.000Z</time>
      </trkpt>
      <trkpt lat="43.66711" lon="3.40968">
        <ele>122.19999694824</ele>
        <time>2021-07-19T15:17:31.000Z</time>
      </trkpt>
      <trkpt lat="43.66698" lon="3.40967">
        <ele>121.80000305176</ele>
        <time>2021-07-19T15:17:33.000Z</time>
      </trkpt>
      <trkpt lat="43.66692" lon="3.40967">
        <ele>121.40000152588</ele>
        <time>2021-07-19T15:17:34.000Z</time>
      </trkpt>
      <trkpt lat="43.66685" lon="3.40967">
        <ele>121</ele>
        <time>2021-07-19T15:17:35.000Z</time>
      </trkpt>
      <trkpt lat="43.66679" lon="3.40966">
        <ele>120.59999847412</ele>
        <time>2021-07-19T15:17:36.000Z</time>
      </trkpt>
      <trkpt lat="43.66672" lon="3.40965">
        <ele>120.19999694824</ele>
        <time>2021-07-19T15:17:37.000Z</time>
      </trkpt>
      <trkpt lat="43.66643" lon="3.40963">
        <ele>120.19999694824</ele>
        <time>2021-07-19T15:17:41.000Z</time>
      </trkpt>
      <trkpt lat="43.66635" lon="3.40964">
        <ele>119.59999847412</ele>
        <time>2021-07-19T15:17:42.000Z</time>
      </trkpt>
      <trkpt lat="43.66627" lon="3.40966">
        <ele>119.19999694824</ele>
        <time>2021-07-19T15:17:43.000Z</time>
      </trkpt>
      <trkpt lat="43.66619" lon="3.40967">
        <ele>118.80000305176</ele>
        <time>2021-07-19T15:17:44.000Z</time>
      </trkpt>
      <trkpt lat="43.66611" lon="3.40968">
        <ele>118.19999694824</ele>
        <time>2021-07-19T15:17:45.000Z</time>
      </trkpt>
      <trkpt lat="43.66603" lon="3.40967">
        <ele>117.80000305176</ele>
        <time>2021-07-19T15:17:46.000Z</time>
      </trkpt>
      <trkpt lat="43.66586" lon="3.40963">
        <ele>117.40000152588</ele>
        <time>2021-07-19T15:17:48.000Z</time>
      </trkpt>
      <trkpt lat="43.66578" lon="3.40961">
        <ele>116.80000305176</ele>
        <time>2021-07-19T15:17:49.000Z</time>
      </trkpt>
      <trkpt lat="43.6657" lon="3.40958">
        <ele>116</ele>
        <time>2021-07-19T15:17:50.000Z</time>
      </trkpt>
      <trkpt lat="43.66561" lon="3.40955">
        <ele>115.40000152588</ele>
        <time>2021-07-19T15:17:51.000Z</time>
      </trkpt>
      <trkpt lat="43.66539" lon="3.40948">
        <ele>115.40000152588</ele>
        <time>2021-07-19T15:17:54.000Z</time>
      </trkpt>
      <trkpt lat="43.66504" lon="3.40945">
        <ele>115.40000152588</ele>
        <time>2021-07-19T15:17:59.000Z</time>
      </trkpt>
      <trkpt lat="43.66471" lon="3.40942">
        <ele>115</ele>
        <time>2021-07-19T15:18:04.000Z</time>
      </trkpt>
      <trkpt lat="43.66464" lon="3.40941">
        <ele>114.59999847412</ele>
        <time>2021-07-19T15:18:05.000Z</time>
      </trkpt>
      <trkpt lat="43.66459" lon="3.4094">
        <ele>114</ele>
        <time>2021-07-19T15:18:06.000Z</time>
      </trkpt>
      <trkpt lat="43.66453" lon="3.40939">
        <ele>113.59999847412</ele>
        <time>2021-07-19T15:18:07.000Z</time>
      </trkpt>
      <trkpt lat="43.66448" lon="3.40939">
        <ele>113.19999694824</ele>
        <time>2021-07-19T15:18:08.000Z</time>
      </trkpt>
      <trkpt lat="43.66431" lon="3.40944">
        <ele>113.19999694824</ele>
        <time>2021-07-19T15:18:11.000Z</time>
      </trkpt>
      <trkpt lat="43.66425" lon="3.40947">
        <ele>113.19999694824</ele>
        <time>2021-07-19T15:18:12.000Z</time>
      </trkpt>
      <trkpt lat="43.66396" lon="3.40961">
        <ele>113.19999694824</ele>
        <time>2021-07-19T15:18:17.000Z</time>
      </trkpt>
      <trkpt lat="43.66389" lon="3.40964">
        <ele>112.80000305176</ele>
        <time>2021-07-19T15:18:18.000Z</time>
      </trkpt>
      <trkpt lat="43.66382" lon="3.40966">
        <ele>112.19999694824</ele>
        <time>2021-07-19T15:18:19.000Z</time>
      </trkpt>
      <trkpt lat="43.66375" lon="3.40969">
        <ele>111.80000305176</ele>
        <time>2021-07-19T15:18:20.000Z</time>
      </trkpt>
      <trkpt lat="43.66367" lon="3.40971">
        <ele>111.40000152588</ele>
        <time>2021-07-19T15:18:21.000Z</time>
      </trkpt>
      <trkpt lat="43.6636" lon="3.40974">
        <ele>110.80000305176</ele>
        <time>2021-07-19T15:18:22.000Z</time>
      </trkpt>
      <trkpt lat="43.66353" lon="3.40976">
        <ele>110.40000152588</ele>
        <time>2021-07-19T15:18:23.000Z</time>
      </trkpt>
      <trkpt lat="43.66346" lon="3.40978">
        <ele>110</ele>
        <time>2021-07-19T15:18:24.000Z</time>
      </trkpt>
      <trkpt lat="43.66339" lon="3.40981">
        <ele>109.59999847412</ele>
        <time>2021-07-19T15:18:25.000Z</time>
      </trkpt>
      <trkpt lat="43.66332" lon="3.40983">
        <ele>109</ele>
        <time>2021-07-19T15:18:26.000Z</time>
      </trkpt>
      <trkpt lat="43.66325" lon="3.40985">
        <ele>108.59999847412</ele>
        <time>2021-07-19T15:18:27.000Z</time>
      </trkpt>
      <trkpt lat="43.66301" lon="3.40994">
        <ele>108.59999847412</ele>
        <time>2021-07-19T15:18:31.000Z</time>
      </trkpt>
      <trkpt lat="43.66286" lon="3.41003">
        <ele>108.59999847412</ele>
        <time>2021-07-19T15:18:34.000Z</time>
      </trkpt>
      <trkpt lat="43.66278" lon="3.41011">
        <ele>108.59999847412</ele>
        <time>2021-07-19T15:18:36.000Z</time>
      </trkpt>
      <trkpt lat="43.66271" lon="3.4102">
        <ele>108.59999847412</ele>
        <time>2021-07-19T15:18:38.000Z</time>
      </trkpt>
      <trkpt lat="43.6625" lon="3.41048">
        <ele>108.59999847412</ele>
        <time>2021-07-19T15:18:44.000Z</time>
      </trkpt>
      <trkpt lat="43.66244" lon="3.41055">
        <ele>108.59999847412</ele>
        <time>2021-07-19T15:18:46.000Z</time>
      </trkpt>
      <trkpt lat="43.66232" lon="3.41063">
        <ele>108.59999847412</ele>
        <time>2021-07-19T15:18:49.000Z</time>
      </trkpt>
      <trkpt lat="43.66228" lon="3.41065">
        <ele>108.59999847412</ele>
        <time>2021-07-19T15:18:50.000Z</time>
      </trkpt>
      <trkpt lat="43.6621" lon="3.41068">
        <ele>108.59999847412</ele>
        <time>2021-07-19T15:18:54.000Z</time>
      </trkpt>
      <trkpt lat="43.66202" lon="3.41066">
        <ele>108.59999847412</ele>
        <time>2021-07-19T15:18:56.000Z</time>
      </trkpt>
      <trkpt lat="43.66194" lon="3.41063">
        <ele>108.59999847412</ele>
        <time>2021-07-19T15:18:58.000Z</time>
      </trkpt>
      <trkpt lat="43.66182" lon="3.41056">
        <ele>108.59999847412</ele>
        <time>2021-07-19T15:19:01.000Z</time>
      </trkpt>
      <trkpt lat="43.66153" lon="3.41036">
        <ele>108.59999847412</ele>
        <time>2021-07-19T15:19:09.000Z</time>
      </trkpt>
      <trkpt lat="43.66141" lon="3.4103">
        <ele>109</ele>
        <time>2021-07-19T15:19:12.000Z</time>
      </trkpt>
      <trkpt lat="43.66137" lon="3.41028">
        <ele>109.40000152588</ele>
        <time>2021-07-19T15:19:13.000Z</time>
      </trkpt>
      <trkpt lat="43.66133" lon="3.41026">
        <ele>109.80000305176</ele>
        <time>2021-07-19T15:19:14.000Z</time>
      </trkpt>
      <trkpt lat="43.6613" lon="3.41024">
        <ele>110.19999694824</ele>
        <time>2021-07-19T15:19:15.000Z</time>
      </trkpt>
      <trkpt lat="43.66126" lon="3.41022">
        <ele>110.59999847412</ele>
        <time>2021-07-19T15:19:16.000Z</time>
      </trkpt>
      <trkpt lat="43.66122" lon="3.41021">
        <ele>110.59999847412</ele>
        <time>2021-07-19T15:19:17.000Z</time>
      </trkpt>
      <trkpt lat="43.66115" lon="3.41017">
        <ele>110.59999847412</ele>
        <time>2021-07-19T15:19:19.000Z</time>
      </trkpt>
      <trkpt lat="43.66096" lon="3.41004">
        <ele>110.59999847412</ele>
        <time>2021-07-19T15:19:24.000Z</time>
      </trkpt>
      <trkpt lat="43.66081" lon="3.40992">
        <ele>110.59999847412</ele>
        <time>2021-07-19T15:19:28.000Z</time>
      </trkpt>
      <trkpt lat="43.66072" lon="3.40988">
        <ele>110.59999847412</ele>
        <time>2021-07-19T15:19:30.000Z</time>
      </trkpt>
      <trkpt lat="43.6606" lon="3.40985">
        <ele>110.59999847412</ele>
        <time>2021-07-19T15:19:33.000Z</time>
      </trkpt>
      <trkpt lat="43.66056" lon="3.40986">
        <ele>110.59999847412</ele>
        <time>2021-07-19T15:19:34.000Z</time>
      </trkpt>
      <trkpt lat="43.66037" lon="3.40989">
        <ele>110.59999847412</ele>
        <time>2021-07-19T15:19:40.000Z</time>
      </trkpt>
      <trkpt lat="43.66034" lon="3.40987">
        <ele>110.59999847412</ele>
        <time>2021-07-19T15:19:41.000Z</time>
      </trkpt>
      <trkpt lat="43.66029" lon="3.40979">
        <ele>110.59999847412</ele>
        <time>2021-07-19T15:19:43.000Z</time>
      </trkpt>
      <trkpt lat="43.66028" lon="3.40971">
        <ele>111.19999694824</ele>
        <time>2021-07-19T15:19:45.000Z</time>
      </trkpt>
      <trkpt lat="43.66027" lon="3.40969">
        <ele>111.59999847412</ele>
        <time>2021-07-19T15:19:46.000Z</time>
      </trkpt>
      <trkpt lat="43.66025" lon="3.40968">
        <ele>112</ele>
        <time>2021-07-19T15:19:47.000Z</time>
      </trkpt>
      <trkpt lat="43.66024" lon="3.40967">
        <ele>112.40000152588</ele>
        <time>2021-07-19T15:19:48.000Z</time>
      </trkpt>
      <trkpt lat="43.66022" lon="3.40966">
        <ele>113</ele>
        <time>2021-07-19T15:19:49.000Z</time>
      </trkpt>
      <trkpt lat="43.66017" lon="3.40962">
        <ele>113</ele>
        <time>2021-07-19T15:19:52.000Z</time>
      </trkpt>
      <trkpt lat="43.66012" lon="3.40957">
        <ele>113.40000152588</ele>
        <time>2021-07-19T15:19:55.000Z</time>
      </trkpt>
      <trkpt lat="43.66011" lon="3.40956">
        <ele>113.80000305176</ele>
        <time>2021-07-19T15:19:56.000Z</time>
      </trkpt>
      <trkpt lat="43.66009" lon="3.40954">
        <ele>114.19999694824</ele>
        <time>2021-07-19T15:19:57.000Z</time>
      </trkpt>
      <trkpt lat="43.66008" lon="3.40952">
        <ele>114.59999847412</ele>
        <time>2021-07-19T15:19:58.000Z</time>
      </trkpt>
      <trkpt lat="43.66007" lon="3.4095">
        <ele>115</ele>
        <time>2021-07-19T15:19:59.000Z</time>
      </trkpt>
      <trkpt lat="43.66" lon="3.40937">
        <ele>115</ele>
        <time>2021-07-19T15:20:05.000Z</time>
      </trkpt>
      <trkpt lat="43.65997" lon="3.40927">
        <ele>115.40000152588</ele>
        <time>2021-07-19T15:20:09.000Z</time>
      </trkpt>
      <trkpt lat="43.65996" lon="3.40925">
        <ele>115.80000305176</ele>
        <time>2021-07-19T15:20:10.000Z</time>
      </trkpt>
      <trkpt lat="43.65995" lon="3.40922">
        <ele>116.19999694824</ele>
        <time>2021-07-19T15:20:11.000Z</time>
      </trkpt>
      <trkpt lat="43.65994" lon="3.40919">
        <ele>116.59999847412</ele>
        <time>2021-07-19T15:20:12.000Z</time>
      </trkpt>
      <trkpt lat="43.65994" lon="3.40917">
        <ele>117</ele>
        <time>2021-07-19T15:20:13.000Z</time>
      </trkpt>
      <trkpt lat="43.65993" lon="3.40914">
        <ele>117</ele>
        <time>2021-07-19T15:20:14.000Z</time>
      </trkpt>
      <trkpt lat="43.6599" lon="3.40893">
        <ele>117</ele>
        <time>2021-07-19T15:20:21.000Z</time>
      </trkpt>
      <trkpt lat="43.6599" lon="3.40884">
        <ele>117.59999847412</ele>
        <time>2021-07-19T15:20:24.000Z</time>
      </trkpt>
      <trkpt lat="43.65989" lon="3.40881">
        <ele>118</ele>
        <time>2021-07-19T15:20:25.000Z</time>
      </trkpt>
      <trkpt lat="43.65989" lon="3.40879">
        <ele>118.40000152588</ele>
        <time>2021-07-19T15:20:26.000Z</time>
      </trkpt>
      <trkpt lat="43.65989" lon="3.40876">
        <ele>118.80000305176</ele>
        <time>2021-07-19T15:20:27.000Z</time>
      </trkpt>
      <trkpt lat="43.65989" lon="3.40873">
        <ele>119.40000152588</ele>
        <time>2021-07-19T15:20:28.000Z</time>
      </trkpt>
      <trkpt lat="43.65992" lon="3.40853">
        <ele>119.40000152588</ele>
        <time>2021-07-19T15:20:35.000Z</time>
      </trkpt>
      <trkpt lat="43.65993" lon="3.40845">
        <ele>119.80000305176</ele>
        <time>2021-07-19T15:20:38.000Z</time>
      </trkpt>
      <trkpt lat="43.65993" lon="3.40842">
        <ele>120.19999694824</ele>
        <time>2021-07-19T15:20:39.000Z</time>
      </trkpt>
      <trkpt lat="43.65992" lon="3.4084">
        <ele>120.59999847412</ele>
        <time>2021-07-19T15:20:40.000Z</time>
      </trkpt>
      <trkpt lat="43.6599" lon="3.40838">
        <ele>121</ele>
        <time>2021-07-19T15:20:41.000Z</time>
      </trkpt>
      <trkpt lat="43.65988" lon="3.40836">
        <ele>121.40000152588</ele>
        <time>2021-07-19T15:20:42.000Z</time>
      </trkpt>
      <trkpt lat="43.65979" lon="3.40831">
        <ele>121.40000152588</ele>
        <time>2021-07-19T15:20:47.000Z</time>
      </trkpt>
      <trkpt lat="43.65968" lon="3.40827">
        <ele>121.80000305176</ele>
        <time>2021-07-19T15:20:52.000Z</time>
      </trkpt>
      <trkpt lat="43.65966" lon="3.40827">
        <ele>122.19999694824</ele>
        <time>2021-07-19T15:20:53.000Z</time>
      </trkpt>
      <trkpt lat="43.65964" lon="3.40826">
        <ele>122.59999847412</ele>
        <time>2021-07-19T15:20:54.000Z</time>
      </trkpt>
      <trkpt lat="43.65963" lon="3.40825">
        <ele>123.19999694824</ele>
        <time>2021-07-19T15:20:55.000Z</time>
      </trkpt>
      <trkpt lat="43.65961" lon="3.40823">
        <ele>123.59999847412</ele>
        <time>2021-07-19T15:20:56.000Z</time>
      </trkpt>
      <trkpt lat="43.65955" lon="3.40814">
        <ele>123.59999847412</ele>
        <time>2021-07-19T15:21:00.000Z</time>
      </trkpt>
      <trkpt lat="43.6595" lon="3.40794">
        <ele>124</ele>
        <time>2021-07-19T15:21:07.000Z</time>
      </trkpt>
      <trkpt lat="43.65949" lon="3.40792">
        <ele>124.40000152588</ele>
        <time>2021-07-19T15:21:08.000Z</time>
      </trkpt>
      <trkpt lat="43.65948" lon="3.40789">
        <ele>125.19999694824</ele>
        <time>2021-07-19T15:21:09.000Z</time>
      </trkpt>
      <trkpt lat="43.65948" lon="3.40786">
        <ele>125.59999847412</ele>
        <time>2021-07-19T15:21:10.000Z</time>
      </trkpt>
      <trkpt lat="43.65945" lon="3.40775">
        <ele>125.59999847412</ele>
        <time>2021-07-19T15:21:14.000Z</time>
      </trkpt>
      <trkpt lat="43.65937" lon="3.4076">
        <ele>125.59999847412</ele>
        <time>2021-07-19T15:21:21.000Z</time>
      </trkpt>
      <trkpt lat="43.65934" lon="3.40756">
        <ele>126.19999694824</ele>
        <time>2021-07-19T15:21:23.000Z</time>
      </trkpt>
      <trkpt lat="43.65933" lon="3.40754">
        <ele>126.59999847412</ele>
        <time>2021-07-19T15:21:24.000Z</time>
      </trkpt>
      <trkpt lat="43.65931" lon="3.40752">
        <ele>127</ele>
        <time>2021-07-19T15:21:25.000Z</time>
      </trkpt>
      <trkpt lat="43.6593" lon="3.4075">
        <ele>127.40000152588</ele>
        <time>2021-07-19T15:21:26.000Z</time>
      </trkpt>
      <trkpt lat="43.65929" lon="3.40748">
        <ele>128</ele>
        <time>2021-07-19T15:21:27.000Z</time>
      </trkpt>
      <trkpt lat="43.65927" lon="3.40743">
        <ele>128</ele>
        <time>2021-07-19T15:21:29.000Z</time>
      </trkpt>
      <trkpt lat="43.65921" lon="3.40725">
        <ele>128.39999389648</ele>
        <time>2021-07-19T15:21:36.000Z</time>
      </trkpt>
      <trkpt lat="43.65921" lon="3.40722">
        <ele>128.80000305176</ele>
        <time>2021-07-19T15:21:37.000Z</time>
      </trkpt>
      <trkpt lat="43.6592" lon="3.4072">
        <ele>129.19999694824</ele>
        <time>2021-07-19T15:21:38.000Z</time>
      </trkpt>
      <trkpt lat="43.6592" lon="3.40717">
        <ele>129.60000610352</ele>
        <time>2021-07-19T15:21:39.000Z</time>
      </trkpt>
      <trkpt lat="43.6592" lon="3.40715">
        <ele>130</ele>
        <time>2021-07-19T15:21:40.000Z</time>
      </trkpt>
      <trkpt lat="43.65919" lon="3.40701">
        <ele>130</ele>
        <time>2021-07-19T15:21:45.000Z</time>
      </trkpt>
      <trkpt lat="43.65916" lon="3.40683">
        <ele>130.39999389648</ele>
        <time>2021-07-19T15:21:52.000Z</time>
      </trkpt>
      <trkpt lat="43.65915" lon="3.4068">
        <ele>130.80000305176</ele>
        <time>2021-07-19T15:21:53.000Z</time>
      </trkpt>
      <trkpt lat="43.65914" lon="3.40678">
        <ele>131.19999694824</ele>
        <time>2021-07-19T15:21:54.000Z</time>
      </trkpt>
      <trkpt lat="43.65912" lon="3.40676">
        <ele>131.60000610352</ele>
        <time>2021-07-19T15:21:55.000Z</time>
      </trkpt>
      <trkpt lat="43.65911" lon="3.40674">
        <ele>132</ele>
        <time>2021-07-19T15:21:56.000Z</time>
      </trkpt>
      <trkpt lat="43.65907" lon="3.40668">
        <ele>132</ele>
        <time>2021-07-19T15:21:59.000Z</time>
      </trkpt>
      <trkpt lat="43.65905" lon="3.40666">
        <ele>132.39999389648</ele>
        <time>2021-07-19T15:22:00.000Z</time>
      </trkpt>
      <trkpt lat="43.65904" lon="3.40664">
        <ele>132.80000305176</ele>
        <time>2021-07-19T15:22:01.000Z</time>
      </trkpt>
      <trkpt lat="43.65903" lon="3.40662">
        <ele>133.19999694824</ele>
        <time>2021-07-19T15:22:02.000Z</time>
      </trkpt>
      <trkpt lat="43.65901" lon="3.4066">
        <ele>133.60000610352</ele>
        <time>2021-07-19T15:22:03.000Z</time>
      </trkpt>
      <trkpt lat="43.659" lon="3.40658">
        <ele>134</ele>
        <time>2021-07-19T15:22:04.000Z</time>
      </trkpt>
      <trkpt lat="43.65897" lon="3.40655">
        <ele>134</ele>
        <time>2021-07-19T15:22:06.000Z</time>
      </trkpt>
      <trkpt lat="43.6589" lon="3.40645">
        <ele>134.39999389648</ele>
        <time>2021-07-19T15:22:11.000Z</time>
      </trkpt>
      <trkpt lat="43.65889" lon="3.40643">
        <ele>134.80000305176</ele>
        <time>2021-07-19T15:22:12.000Z</time>
      </trkpt>
      <trkpt lat="43.65887" lon="3.40641">
        <ele>135.19999694824</ele>
        <time>2021-07-19T15:22:13.000Z</time>
      </trkpt>
      <trkpt lat="43.65885" lon="3.4064">
        <ele>135.60000610352</ele>
        <time>2021-07-19T15:22:14.000Z</time>
      </trkpt>
      <trkpt lat="43.65884" lon="3.40639">
        <ele>136</ele>
        <time>2021-07-19T15:22:15.000Z</time>
      </trkpt>
      <trkpt lat="43.65874" lon="3.4063">
        <ele>136</ele>
        <time>2021-07-19T15:22:21.000Z</time>
      </trkpt>
      <trkpt lat="43.65872" lon="3.40629">
        <ele>136.60000610352</ele>
        <time>2021-07-19T15:22:22.000Z</time>
      </trkpt>
      <trkpt lat="43.65871" lon="3.40627">
        <ele>137.39999389648</ele>
        <time>2021-07-19T15:22:23.000Z</time>
      </trkpt>
      <trkpt lat="43.6587" lon="3.40624">
        <ele>137.80000305176</ele>
        <time>2021-07-19T15:22:24.000Z</time>
      </trkpt>
      <trkpt lat="43.65869" lon="3.40622">
        <ele>138.19999694824</ele>
        <time>2021-07-19T15:22:25.000Z</time>
      </trkpt>
      <trkpt lat="43.65868" lon="3.40617">
        <ele>138.19999694824</ele>
        <time>2021-07-19T15:22:27.000Z</time>
      </trkpt>
      <trkpt lat="43.65867" lon="3.40597">
        <ele>138.19999694824</ele>
        <time>2021-07-19T15:22:34.000Z</time>
      </trkpt>
      <trkpt lat="43.65868" lon="3.40589">
        <ele>138.60000610352</ele>
        <time>2021-07-19T15:22:37.000Z</time>
      </trkpt>
      <trkpt lat="43.65868" lon="3.40586">
        <ele>139</ele>
        <time>2021-07-19T15:22:38.000Z</time>
      </trkpt>
      <trkpt lat="43.65868" lon="3.40583">
        <ele>139.39999389648</ele>
        <time>2021-07-19T15:22:39.000Z</time>
      </trkpt>
      <trkpt lat="43.65868" lon="3.4058">
        <ele>139.80000305176</ele>
        <time>2021-07-19T15:22:40.000Z</time>
      </trkpt>
      <trkpt lat="43.65868" lon="3.40577">
        <ele>140.19999694824</ele>
        <time>2021-07-19T15:22:41.000Z</time>
      </trkpt>
      <trkpt lat="43.65866" lon="3.40557">
        <ele>140.60000610352</ele>
        <time>2021-07-19T15:22:48.000Z</time>
      </trkpt>
      <trkpt lat="43.65866" lon="3.40554">
        <ele>141</ele>
        <time>2021-07-19T15:22:49.000Z</time>
      </trkpt>
      <trkpt lat="43.65866" lon="3.40552">
        <ele>141.39999389648</ele>
        <time>2021-07-19T15:22:50.000Z</time>
      </trkpt>
      <trkpt lat="43.65866" lon="3.40549">
        <ele>141.80000305176</ele>
        <time>2021-07-19T15:22:51.000Z</time>
      </trkpt>
      <trkpt lat="43.65866" lon="3.40546">
        <ele>142.19999694824</ele>
        <time>2021-07-19T15:22:52.000Z</time>
      </trkpt>
      <trkpt lat="43.65866" lon="3.40543">
        <ele>142.19999694824</ele>
        <time>2021-07-19T15:22:53.000Z</time>
      </trkpt>
      <trkpt lat="43.65864" lon="3.40524">
        <ele>142.60000610352</ele>
        <time>2021-07-19T15:23:00.000Z</time>
      </trkpt>
      <trkpt lat="43.65864" lon="3.40522">
        <ele>143</ele>
        <time>2021-07-19T15:23:01.000Z</time>
      </trkpt>
      <trkpt lat="43.65864" lon="3.40519">
        <ele>143.39999389648</ele>
        <time>2021-07-19T15:23:02.000Z</time>
      </trkpt>
      <trkpt lat="43.65863" lon="3.40516">
        <ele>143.80000305176</ele>
        <time>2021-07-19T15:23:03.000Z</time>
      </trkpt>
      <trkpt lat="43.65863" lon="3.40514">
        <ele>144.19999694824</ele>
        <time>2021-07-19T15:23:04.000Z</time>
      </trkpt>
      <trkpt lat="43.65861" lon="3.40496">
        <ele>144.19999694824</ele>
        <time>2021-07-19T15:23:10.000Z</time>
      </trkpt>
      <trkpt lat="43.6586" lon="3.40482">
        <ele>144.80000305176</ele>
        <time>2021-07-19T15:23:15.000Z</time>
      </trkpt>
      <trkpt lat="43.6586" lon="3.4048">
        <ele>145.19999694824</ele>
        <time>2021-07-19T15:23:16.000Z</time>
      </trkpt>
      <trkpt lat="43.6586" lon="3.40477">
        <ele>145.60000610352</ele>
        <time>2021-07-19T15:23:17.000Z</time>
      </trkpt>
      <trkpt lat="43.6586" lon="3.40474">
        <ele>146</ele>
        <time>2021-07-19T15:23:18.000Z</time>
      </trkpt>
      <trkpt lat="43.6586" lon="3.40471">
        <ele>146.39999389648</ele>
        <time>2021-07-19T15:23:19.000Z</time>
      </trkpt>
      <trkpt lat="43.65859" lon="3.4046">
        <ele>146.39999389648</ele>
        <time>2021-07-19T15:23:23.000Z</time>
      </trkpt>
      <trkpt lat="43.65858" lon="3.40437">
        <ele>146.80000305176</ele>
        <time>2021-07-19T15:23:30.000Z</time>
      </trkpt>
      <trkpt lat="43.65858" lon="3.40434">
        <ele>147.19999694824</ele>
        <time>2021-07-19T15:23:31.000Z</time>
      </trkpt>
      <trkpt lat="43.65858" lon="3.40431">
        <ele>147.60000610352</ele>
        <time>2021-07-19T15:23:32.000Z</time>
      </trkpt>
      <trkpt lat="43.65858" lon="3.40428">
        <ele>148</ele>
        <time>2021-07-19T15:23:33.000Z</time>
      </trkpt>
      <trkpt lat="43.65857" lon="3.40424">
        <ele>148.39999389648</ele>
        <time>2021-07-19T15:23:34.000Z</time>
      </trkpt>
      <trkpt lat="43.65857" lon="3.40409">
        <ele>148.39999389648</ele>
        <time>2021-07-19T15:23:39.000Z</time>
      </trkpt>
      <trkpt lat="43.65855" lon="3.4039">
        <ele>148.80000305176</ele>
        <time>2021-07-19T15:23:45.000Z</time>
      </trkpt>
      <trkpt lat="43.65854" lon="3.40387">
        <ele>149.19999694824</ele>
        <time>2021-07-19T15:23:46.000Z</time>
      </trkpt>
      <trkpt lat="43.65853" lon="3.40384">
        <ele>149.60000610352</ele>
        <time>2021-07-19T15:23:47.000Z</time>
      </trkpt>
      <trkpt lat="43.65852" lon="3.40381">
        <ele>150</ele>
        <time>2021-07-19T15:23:48.000Z</time>
      </trkpt>
      <trkpt lat="43.65851" lon="3.40378">
        <ele>150.39999389648</ele>
        <time>2021-07-19T15:23:49.000Z</time>
      </trkpt>
      <trkpt lat="43.65847" lon="3.40367">
        <ele>150.39999389648</ele>
        <time>2021-07-19T15:23:53.000Z</time>
      </trkpt>
      <trkpt lat="43.65842" lon="3.40347">
        <ele>150.39999389648</ele>
        <time>2021-07-19T15:24:00.000Z</time>
      </trkpt>
      <trkpt lat="43.6584" lon="3.40342">
        <ele>151.19999694824</ele>
        <time>2021-07-19T15:24:02.000Z</time>
      </trkpt>
      <trkpt lat="43.65839" lon="3.40339">
        <ele>151.60000610352</ele>
        <time>2021-07-19T15:24:03.000Z</time>
      </trkpt>
      <trkpt lat="43.65838" lon="3.40337">
        <ele>152</ele>
        <time>2021-07-19T15:24:04.000Z</time>
      </trkpt>
      <trkpt lat="43.65837" lon="3.40334">
        <ele>152.39999389648</ele>
        <time>2021-07-19T15:24:05.000Z</time>
      </trkpt>
      <trkpt lat="43.65835" lon="3.40322">
        <ele>152.39999389648</ele>
        <time>2021-07-19T15:24:09.000Z</time>
      </trkpt>
      <trkpt lat="43.65832" lon="3.40304">
        <ele>152.39999389648</ele>
        <time>2021-07-19T15:24:15.000Z</time>
      </trkpt>
      <trkpt lat="43.65831" lon="3.40298">
        <ele>152.80000305176</ele>
        <time>2021-07-19T15:24:17.000Z</time>
      </trkpt>
      <trkpt lat="43.6583" lon="3.40295">
        <ele>153.19999694824</ele>
        <time>2021-07-19T15:24:18.000Z</time>
      </trkpt>
      <trkpt lat="43.6583" lon="3.40293">
        <ele>153.80000305176</ele>
        <time>2021-07-19T15:24:19.000Z</time>
      </trkpt>
      <trkpt lat="43.65829" lon="3.4029">
        <ele>154.19999694824</ele>
        <time>2021-07-19T15:24:20.000Z</time>
      </trkpt>
      <trkpt lat="43.65829" lon="3.40287">
        <ele>154.60000610352</ele>
        <time>2021-07-19T15:24:21.000Z</time>
      </trkpt>
      <trkpt lat="43.65826" lon="3.40275">
        <ele>154.60000610352</ele>
        <time>2021-07-19T15:24:25.000Z</time>
      </trkpt>
      <trkpt lat="43.65821" lon="3.40258">
        <ele>155</ele>
        <time>2021-07-19T15:24:31.000Z</time>
      </trkpt>
      <trkpt lat="43.65821" lon="3.40255">
        <ele>155.39999389648</ele>
        <time>2021-07-19T15:24:32.000Z</time>
      </trkpt>
      <trkpt lat="43.6582" lon="3.40252">
        <ele>155.80000305176</ele>
        <time>2021-07-19T15:24:33.000Z</time>
      </trkpt>
      <trkpt lat="43.65819" lon="3.40249">
        <ele>156.19999694824</ele>
        <time>2021-07-19T15:24:34.000Z</time>
      </trkpt>
      <trkpt lat="43.65818" lon="3.40247">
        <ele>156.60000610352</ele>
        <time>2021-07-19T15:24:35.000Z</time>
      </trkpt>
      <trkpt lat="43.65814" lon="3.40234">
        <ele>156.60000610352</ele>
        <time>2021-07-19T15:24:40.000Z</time>
      </trkpt>
      <trkpt lat="43.65809" lon="3.40216">
        <ele>156.60000610352</ele>
        <time>2021-07-19T15:24:46.000Z</time>
      </trkpt>
      <trkpt lat="43.65805" lon="3.40205">
        <ele>157.19999694824</ele>
        <time>2021-07-19T15:24:50.000Z</time>
      </trkpt>
      <trkpt lat="43.65805" lon="3.40203">
        <ele>158</ele>
        <time>2021-07-19T15:24:51.000Z</time>
      </trkpt>
      <trkpt lat="43.65804" lon="3.402">
        <ele>158.39999389648</ele>
        <time>2021-07-19T15:24:52.000Z</time>
      </trkpt>
      <trkpt lat="43.65803" lon="3.40197">
        <ele>158.80000305176</ele>
        <time>2021-07-19T15:24:53.000Z</time>
      </trkpt>
      <trkpt lat="43.65795" lon="3.40174">
        <ele>158.80000305176</ele>
        <time>2021-07-19T15:25:01.000Z</time>
      </trkpt>
      <trkpt lat="43.65784" lon="3.40155">
        <ele>158.80000305176</ele>
        <time>2021-07-19T15:25:08.000Z</time>
      </trkpt>
      <trkpt lat="43.65776" lon="3.40138">
        <ele>158.80000305176</ele>
        <time>2021-07-19T15:25:13.000Z</time>
      </trkpt>
      <trkpt lat="43.65767" lon="3.40106">
        <ele>158.80000305176</ele>
        <time>2021-07-19T15:25:21.000Z</time>
      </trkpt>
      <trkpt lat="43.65761" lon="3.40075">
        <ele>158.80000305176</ele>
        <time>2021-07-19T15:25:28.000Z</time>
      </trkpt>
      <trkpt lat="43.65752" lon="3.40047">
        <ele>158.80000305176</ele>
        <time>2021-07-19T15:25:34.000Z</time>
      </trkpt>
      <trkpt lat="43.65739" lon="3.40023">
        <ele>158.80000305176</ele>
        <time>2021-07-19T15:25:40.000Z</time>
      </trkpt>
      <trkpt lat="43.65734" lon="3.40009">
        <ele>158.80000305176</ele>
        <time>2021-07-19T15:25:43.000Z</time>
      </trkpt>
      <trkpt lat="43.65731" lon="3.39998">
        <ele>158.80000305176</ele>
        <time>2021-07-19T15:25:45.000Z</time>
      </trkpt>
      <trkpt lat="43.65723" lon="3.3996">
        <ele>158.80000305176</ele>
        <time>2021-07-19T15:25:52.000Z</time>
      </trkpt>
      <trkpt lat="43.65712" lon="3.39924">
        <ele>158.80000305176</ele>
        <time>2021-07-19T15:25:59.000Z</time>
      </trkpt>
      <trkpt lat="43.65699" lon="3.39895">
        <ele>158.80000305176</ele>
        <time>2021-07-19T15:26:05.000Z</time>
      </trkpt>
      <trkpt lat="43.65697" lon="3.39891">
        <ele>158.39999389648</ele>
        <time>2021-07-19T15:26:06.000Z</time>
      </trkpt>
      <trkpt lat="43.65695" lon="3.3989">
        <ele>158</ele>
        <time>2021-07-19T15:26:07.000Z</time>
      </trkpt>
      <trkpt lat="43.65693" lon="3.39891">
        <ele>157.39999389648</ele>
        <time>2021-07-19T15:26:08.000Z</time>
      </trkpt>
      <trkpt lat="43.65691" lon="3.39894">
        <ele>157</ele>
        <time>2021-07-19T15:26:09.000Z</time>
      </trkpt>
      <trkpt lat="43.6569" lon="3.39899">
        <ele>156.60000610352</ele>
        <time>2021-07-19T15:26:10.000Z</time>
      </trkpt>
      <trkpt lat="43.65692" lon="3.39904">
        <ele>156.60000610352</ele>
        <time>2021-07-19T15:26:11.000Z</time>
      </trkpt>
      <trkpt lat="43.65694" lon="3.39909">
        <ele>156.60000610352</ele>
        <time>2021-07-19T15:26:12.000Z</time>
      </trkpt>
      <trkpt lat="43.65699" lon="3.39927">
        <ele>156.60000610352</ele>
        <time>2021-07-19T15:26:15.000Z</time>
      </trkpt>
      <trkpt lat="43.65703" lon="3.39939">
        <ele>156.60000610352</ele>
        <time>2021-07-19T15:26:17.000Z</time>
      </trkpt>
      <trkpt lat="43.65707" lon="3.39951">
        <ele>156.60000610352</ele>
        <time>2021-07-19T15:26:19.000Z</time>
      </trkpt>
      <trkpt lat="43.6571" lon="3.39964">
        <ele>156.60000610352</ele>
        <time>2021-07-19T15:26:21.000Z</time>
      </trkpt>
      <trkpt lat="43.65711" lon="3.3997">
        <ele>156.19999694824</ele>
        <time>2021-07-19T15:26:22.000Z</time>
      </trkpt>
      <trkpt lat="43.65712" lon="3.39977">
        <ele>155.60000610352</ele>
        <time>2021-07-19T15:26:23.000Z</time>
      </trkpt>
      <trkpt lat="43.65713" lon="3.39983">
        <ele>155.19999694824</ele>
        <time>2021-07-19T15:26:24.000Z</time>
      </trkpt>
      <trkpt lat="43.65714" lon="3.3999">
        <ele>154.80000305176</ele>
        <time>2021-07-19T15:26:25.000Z</time>
      </trkpt>
      <trkpt lat="43.65714" lon="3.39995">
        <ele>154.39999389648</ele>
        <time>2021-07-19T15:26:26.000Z</time>
      </trkpt>
      <trkpt lat="43.65716" lon="3.40013">
        <ele>154</ele>
        <time>2021-07-19T15:26:29.000Z</time>
      </trkpt>
      <trkpt lat="43.65716" lon="3.4002">
        <ele>153.19999694824</ele>
        <time>2021-07-19T15:26:30.000Z</time>
      </trkpt>
      <trkpt lat="43.65715" lon="3.40029">
        <ele>152.60000610352</ele>
        <time>2021-07-19T15:26:31.000Z</time>
      </trkpt>
      <trkpt lat="43.65714" lon="3.40037">
        <ele>152.19999694824</ele>
        <time>2021-07-19T15:26:32.000Z</time>
      </trkpt>
      <trkpt lat="43.6571" lon="3.40045">
        <ele>151.80000305176</ele>
        <time>2021-07-19T15:26:33.000Z</time>
      </trkpt>
      <trkpt lat="43.65705" lon="3.40051">
        <ele>151.39999389648</ele>
        <time>2021-07-19T15:26:34.000Z</time>
      </trkpt>
      <trkpt lat="43.65701" lon="3.40057">
        <ele>151</ele>
        <time>2021-07-19T15:26:35.000Z</time>
      </trkpt>
      <trkpt lat="43.65697" lon="3.40063">
        <ele>150.60000610352</ele>
        <time>2021-07-19T15:26:36.000Z</time>
      </trkpt>
      <trkpt lat="43.65693" lon="3.40069">
        <ele>150.19999694824</ele>
        <time>2021-07-19T15:26:37.000Z</time>
      </trkpt>
      <trkpt lat="43.65671" lon="3.40099">
        <ele>150.19999694824</ele>
        <time>2021-07-19T15:26:43.000Z</time>
      </trkpt>
      <trkpt lat="43.65645" lon="3.40135">
        <ele>150.19999694824</ele>
        <time>2021-07-19T15:26:50.000Z</time>
      </trkpt>
      <trkpt lat="43.65614" lon="3.40178">
        <ele>150.19999694824</ele>
        <time>2021-07-19T15:26:58.000Z</time>
      </trkpt>
      <trkpt lat="43.6559" lon="3.40213">
        <ele>150.19999694824</ele>
        <time>2021-07-19T15:27:05.000Z</time>
      </trkpt>
      <trkpt lat="43.65585" lon="3.40219">
        <ele>150.19999694824</ele>
        <time>2021-07-19T15:27:08.000Z</time>
      </trkpt>
      <trkpt lat="43.65585" lon="3.40219">
        <ele>150.19999694824</ele>
        <time>2021-07-19T15:27:09.000Z</time>
      </trkpt>
      <trkpt lat="43.65584" lon="3.4022">
        <ele>150.19999694824</ele>
        <time>2021-07-19T15:27:58.000Z</time>
      </trkpt>
      <trkpt lat="43.65582" lon="3.40225">
        <ele>150.19999694824</ele>
        <time>2021-07-19T15:28:00.000Z</time>
      </trkpt>
      <trkpt lat="43.65572" lon="3.4024">
        <ele>150.19999694824</ele>
        <time>2021-07-19T15:28:04.000Z</time>
      </trkpt>
      <trkpt lat="43.65551" lon="3.40271">
        <ele>150.19999694824</ele>
        <time>2021-07-19T15:28:11.000Z</time>
      </trkpt>
      <trkpt lat="43.65529" lon="3.40303">
        <ele>150.19999694824</ele>
        <time>2021-07-19T15:28:18.000Z</time>
      </trkpt>
      <trkpt lat="43.65507" lon="3.40332">
        <ele>150.19999694824</ele>
        <time>2021-07-19T15:28:26.000Z</time>
      </trkpt>
      <trkpt lat="43.655" lon="3.40337">
        <ele>150.19999694824</ele>
        <time>2021-07-19T15:28:29.000Z</time>
      </trkpt>
      <trkpt lat="43.65499" lon="3.4034">
        <ele>150.19999694824</ele>
        <time>2021-07-19T15:28:30.000Z</time>
      </trkpt>
      <trkpt lat="43.65497" lon="3.40341">
        <ele>150.19999694824</ele>
        <time>2021-07-19T15:28:31.000Z</time>
      </trkpt>
      <trkpt lat="43.6549" lon="3.40337">
        <ele>150.19999694824</ele>
        <time>2021-07-19T15:28:34.000Z</time>
      </trkpt>
      <trkpt lat="43.65483" lon="3.40328">
        <ele>150.19999694824</ele>
        <time>2021-07-19T15:28:37.000Z</time>
      </trkpt>
      <trkpt lat="43.65475" lon="3.40315">
        <ele>150.19999694824</ele>
        <time>2021-07-19T15:28:41.000Z</time>
      </trkpt>
      <trkpt lat="43.65461" lon="3.40296">
        <ele>150.19999694824</ele>
        <time>2021-07-19T15:28:47.000Z</time>
      </trkpt>
      <trkpt lat="43.65454" lon="3.40288">
        <ele>150.60000610352</ele>
        <time>2021-07-19T15:28:50.000Z</time>
      </trkpt>
      <trkpt lat="43.65451" lon="3.40285">
        <ele>151</ele>
        <time>2021-07-19T15:28:51.000Z</time>
      </trkpt>
      <trkpt lat="43.65449" lon="3.40282">
        <ele>151.39999389648</ele>
        <time>2021-07-19T15:28:52.000Z</time>
      </trkpt>
      <trkpt lat="43.65447" lon="3.40279">
        <ele>151.80000305176</ele>
        <time>2021-07-19T15:28:53.000Z</time>
      </trkpt>
      <trkpt lat="43.65445" lon="3.40276">
        <ele>152.19999694824</ele>
        <time>2021-07-19T15:28:54.000Z</time>
      </trkpt>
      <trkpt lat="43.65428" lon="3.40262">
        <ele>152.19999694824</ele>
        <time>2021-07-19T15:29:01.000Z</time>
      </trkpt>
      <trkpt lat="43.65423" lon="3.40258">
        <ele>152.60000610352</ele>
        <time>2021-07-19T15:29:03.000Z</time>
      </trkpt>
      <trkpt lat="43.65421" lon="3.40255">
        <ele>153</ele>
        <time>2021-07-19T15:29:04.000Z</time>
      </trkpt>
      <trkpt lat="43.65419" lon="3.40254">
        <ele>153.39999389648</ele>
        <time>2021-07-19T15:29:05.000Z</time>
      </trkpt>
      <trkpt lat="43.65416" lon="3.40252">
        <ele>153.80000305176</ele>
        <time>2021-07-19T15:29:06.000Z</time>
      </trkpt>
      <trkpt lat="43.65414" lon="3.4025">
        <ele>154.19999694824</ele>
        <time>2021-07-19T15:29:07.000Z</time>
      </trkpt>
      <trkpt lat="43.65398" lon="3.40239">
        <ele>154.19999694824</ele>
        <time>2021-07-19T15:29:14.000Z</time>
      </trkpt>
      <trkpt lat="43.65386" lon="3.40231">
        <ele>154.60000610352</ele>
        <time>2021-07-19T15:29:19.000Z</time>
      </trkpt>
      <trkpt lat="43.65383" lon="3.40229">
        <ele>155</ele>
        <time>2021-07-19T15:29:20.000Z</time>
      </trkpt>
      <trkpt lat="43.65381" lon="3.40228">
        <ele>155.39999389648</ele>
        <time>2021-07-19T15:29:21.000Z</time>
      </trkpt>
      <trkpt lat="43.65378" lon="3.40226">
        <ele>155.80000305176</ele>
        <time>2021-07-19T15:29:22.000Z</time>
      </trkpt>
      <trkpt lat="43.65376" lon="3.40225">
        <ele>156.19999694824</ele>
        <time>2021-07-19T15:29:23.000Z</time>
      </trkpt>
      <trkpt lat="43.65367" lon="3.4022">
        <ele>156.19999694824</ele>
        <time>2021-07-19T15:29:27.000Z</time>
      </trkpt>
      <trkpt lat="43.65349" lon="3.40211">
        <ele>156.80000305176</ele>
        <time>2021-07-19T15:29:34.000Z</time>
      </trkpt>
      <trkpt lat="43.65347" lon="3.4021">
        <ele>157.19999694824</ele>
        <time>2021-07-19T15:29:35.000Z</time>
      </trkpt>
      <trkpt lat="43.65344" lon="3.4021">
        <ele>157.60000610352</ele>
        <time>2021-07-19T15:29:36.000Z</time>
      </trkpt>
      <trkpt lat="43.65342" lon="3.40209">
        <ele>158</ele>
        <time>2021-07-19T15:29:37.000Z</time>
      </trkpt>
      <trkpt lat="43.65339" lon="3.40208">
        <ele>158.39999389648</ele>
        <time>2021-07-19T15:29:38.000Z</time>
      </trkpt>
      <trkpt lat="43.6533" lon="3.40206">
        <ele>158.39999389648</ele>
        <time>2021-07-19T15:29:41.000Z</time>
      </trkpt>
      <trkpt lat="43.6531" lon="3.40202">
        <ele>158.39999389648</ele>
        <time>2021-07-19T15:29:48.000Z</time>
      </trkpt>
      <trkpt lat="43.65307" lon="3.40201">
        <ele>159.19999694824</ele>
        <time>2021-07-19T15:29:49.000Z</time>
      </trkpt>
      <trkpt lat="43.65304" lon="3.40199">
        <ele>159.60000610352</ele>
        <time>2021-07-19T15:29:50.000Z</time>
      </trkpt>
      <trkpt lat="43.65301" lon="3.40198">
        <ele>160</ele>
        <time>2021-07-19T15:29:51.000Z</time>
      </trkpt>
      <trkpt lat="43.65298" lon="3.40196">
        <ele>160.39999389648</ele>
        <time>2021-07-19T15:29:52.000Z</time>
      </trkpt>
      <trkpt lat="43.65292" lon="3.40191">
        <ele>160.39999389648</ele>
        <time>2021-07-19T15:29:54.000Z</time>
      </trkpt>
      <trkpt lat="43.65281" lon="3.40173">
        <ele>160.39999389648</ele>
        <time>2021-07-19T15:30:00.000Z</time>
      </trkpt>
      <trkpt lat="43.65278" lon="3.40165">
        <ele>161</ele>
        <time>2021-07-19T15:30:02.000Z</time>
      </trkpt>
      <trkpt lat="43.65278" lon="3.40161">
        <ele>161.39999389648</ele>
        <time>2021-07-19T15:30:03.000Z</time>
      </trkpt>
      <trkpt lat="43.65277" lon="3.40157">
        <ele>161.80000305176</ele>
        <time>2021-07-19T15:30:04.000Z</time>
      </trkpt>
      <trkpt lat="43.65277" lon="3.40152">
        <ele>162.19999694824</ele>
        <time>2021-07-19T15:30:05.000Z</time>
      </trkpt>
      <trkpt lat="43.65276" lon="3.40148">
        <ele>162.60000610352</ele>
        <time>2021-07-19T15:30:06.000Z</time>
      </trkpt>
      <trkpt lat="43.65276" lon="3.40124">
        <ele>162.60000610352</ele>
        <time>2021-07-19T15:30:12.000Z</time>
      </trkpt>
      <trkpt lat="43.65275" lon="3.40113">
        <ele>163</ele>
        <time>2021-07-19T15:30:15.000Z</time>
      </trkpt>
      <trkpt lat="43.65275" lon="3.40109">
        <ele>163.39999389648</ele>
        <time>2021-07-19T15:30:16.000Z</time>
      </trkpt>
      <trkpt lat="43.65274" lon="3.40105">
        <ele>163.80000305176</ele>
        <time>2021-07-19T15:30:17.000Z</time>
      </trkpt>
      <trkpt lat="43.65274" lon="3.40101">
        <ele>164.19999694824</ele>
        <time>2021-07-19T15:30:18.000Z</time>
      </trkpt>
      <trkpt lat="43.65274" lon="3.40098">
        <ele>164.60000610352</ele>
        <time>2021-07-19T15:30:19.000Z</time>
      </trkpt>
      <trkpt lat="43.65269" lon="3.40077">
        <ele>164.60000610352</ele>
        <time>2021-07-19T15:30:25.000Z</time>
      </trkpt>
      <trkpt lat="43.65261" lon="3.40057">
        <ele>165</ele>
        <time>2021-07-19T15:30:31.000Z</time>
      </trkpt>
      <trkpt lat="43.65259" lon="3.40054">
        <ele>165.39999389648</ele>
        <time>2021-07-19T15:30:32.000Z</time>
      </trkpt>
      <trkpt lat="43.65257" lon="3.40051">
        <ele>165.80000305176</ele>
        <time>2021-07-19T15:30:33.000Z</time>
      </trkpt>
      <trkpt lat="43.65255" lon="3.40049">
        <ele>166.19999694824</ele>
        <time>2021-07-19T15:30:34.000Z</time>
      </trkpt>
      <trkpt lat="43.65253" lon="3.40046">
        <ele>166.60000610352</ele>
        <time>2021-07-19T15:30:35.000Z</time>
      </trkpt>
      <trkpt lat="43.65244" lon="3.40032">
        <ele>166.60000610352</ele>
        <time>2021-07-19T15:30:40.000Z</time>
      </trkpt>
      <trkpt lat="43.65232" lon="3.40017">
        <ele>167</ele>
        <time>2021-07-19T15:30:46.000Z</time>
      </trkpt>
      <trkpt lat="43.65229" lon="3.40014">
        <ele>167.39999389648</ele>
        <time>2021-07-19T15:30:47.000Z</time>
      </trkpt>
      <trkpt lat="43.65227" lon="3.40012">
        <ele>168</ele>
        <time>2021-07-19T15:30:48.000Z</time>
      </trkpt>
      <trkpt lat="43.65225" lon="3.40009">
        <ele>168.39999389648</ele>
        <time>2021-07-19T15:30:49.000Z</time>
      </trkpt>
      <trkpt lat="43.65223" lon="3.40007">
        <ele>168.80000305176</ele>
        <time>2021-07-19T15:30:50.000Z</time>
      </trkpt>
      <trkpt lat="43.6521" lon="3.39998">
        <ele>168.80000305176</ele>
        <time>2021-07-19T15:30:55.000Z</time>
      </trkpt>
      <trkpt lat="43.65192" lon="3.3999">
        <ele>168.80000305176</ele>
        <time>2021-07-19T15:31:02.000Z</time>
      </trkpt>
      <trkpt lat="43.6518" lon="3.39987">
        <ele>169.19999694824</ele>
        <time>2021-07-19T15:31:06.000Z</time>
      </trkpt>
      <trkpt lat="43.65177" lon="3.39987">
        <ele>169.60000610352</ele>
        <time>2021-07-19T15:31:07.000Z</time>
      </trkpt>
      <trkpt lat="43.65174" lon="3.39986">
        <ele>170</ele>
        <time>2021-07-19T15:31:08.000Z</time>
      </trkpt>
      <trkpt lat="43.65171" lon="3.39986">
        <ele>170.39999389648</ele>
        <time>2021-07-19T15:31:09.000Z</time>
      </trkpt>
      <trkpt lat="43.65168" lon="3.39985">
        <ele>170.80000305176</ele>
        <time>2021-07-19T15:31:10.000Z</time>
      </trkpt>
      <trkpt lat="43.65147" lon="3.39978">
        <ele>170.80000305176</ele>
        <time>2021-07-19T15:31:17.000Z</time>
      </trkpt>
      <trkpt lat="43.6513" lon="3.39956">
        <ele>170.80000305176</ele>
        <time>2021-07-19T15:31:24.000Z</time>
      </trkpt>
      <trkpt lat="43.65126" lon="3.39937">
        <ele>170.80000305176</ele>
        <time>2021-07-19T15:31:28.000Z</time>
      </trkpt>
      <trkpt lat="43.65126" lon="3.39932">
        <ele>171.19999694824</ele>
        <time>2021-07-19T15:31:29.000Z</time>
      </trkpt>
      <trkpt lat="43.65126" lon="3.39927">
        <ele>171.60000610352</ele>
        <time>2021-07-19T15:31:30.000Z</time>
      </trkpt>
      <trkpt lat="43.65126" lon="3.39922">
        <ele>172.19999694824</ele>
        <time>2021-07-19T15:31:31.000Z</time>
      </trkpt>
      <trkpt lat="43.65127" lon="3.39918">
        <ele>172.60000610352</ele>
        <time>2021-07-19T15:31:32.000Z</time>
      </trkpt>
      <trkpt lat="43.65128" lon="3.39913">
        <ele>173</ele>
        <time>2021-07-19T15:31:33.000Z</time>
      </trkpt>
      <trkpt lat="43.65129" lon="3.39908">
        <ele>173</ele>
        <time>2021-07-19T15:31:34.000Z</time>
      </trkpt>
      <trkpt lat="43.65141" lon="3.39878">
        <ele>173</ele>
        <time>2021-07-19T15:31:41.000Z</time>
      </trkpt>
      <trkpt lat="43.65147" lon="3.39859">
        <ele>173</ele>
        <time>2021-07-19T15:31:45.000Z</time>
      </trkpt>
      <trkpt lat="43.65152" lon="3.39844">
        <ele>173.39999389648</ele>
        <time>2021-07-19T15:31:48.000Z</time>
      </trkpt>
      <trkpt lat="43.65153" lon="3.39839">
        <ele>173.80000305176</ele>
        <time>2021-07-19T15:31:49.000Z</time>
      </trkpt>
      <trkpt lat="43.65154" lon="3.39834">
        <ele>174.19999694824</ele>
        <time>2021-07-19T15:31:50.000Z</time>
      </trkpt>
      <trkpt lat="43.65155" lon="3.39828">
        <ele>174.60000610352</ele>
        <time>2021-07-19T15:31:51.000Z</time>
      </trkpt>
      <trkpt lat="43.65156" lon="3.39823">
        <ele>175</ele>
        <time>2021-07-19T15:31:52.000Z</time>
      </trkpt>
      <trkpt lat="43.65156" lon="3.39782">
        <ele>175</ele>
        <time>2021-07-19T15:31:59.000Z</time>
      </trkpt>
      <trkpt lat="43.65153" lon="3.39741">
        <ele>175</ele>
        <time>2021-07-19T15:32:06.000Z</time>
      </trkpt>
      <trkpt lat="43.6515" lon="3.397">
        <ele>175</ele>
        <time>2021-07-19T15:32:13.000Z</time>
      </trkpt>
      <trkpt lat="43.65146" lon="3.39651">
        <ele>175</ele>
        <time>2021-07-19T15:32:21.000Z</time>
      </trkpt>
      <trkpt lat="43.65143" lon="3.39603">
        <ele>175</ele>
        <time>2021-07-19T15:32:29.000Z</time>
      </trkpt>
      <trkpt lat="43.65143" lon="3.39585">
        <ele>175.39999389648</ele>
        <time>2021-07-19T15:32:32.000Z</time>
      </trkpt>
      <trkpt lat="43.65143" lon="3.39578">
        <ele>175.80000305176</ele>
        <time>2021-07-19T15:32:33.000Z</time>
      </trkpt>
      <trkpt lat="43.65144" lon="3.39572">
        <ele>176.19999694824</ele>
        <time>2021-07-19T15:32:34.000Z</time>
      </trkpt>
      <trkpt lat="43.65145" lon="3.39567">
        <ele>176.60000610352</ele>
        <time>2021-07-19T15:32:35.000Z</time>
      </trkpt>
      <trkpt lat="43.65146" lon="3.39561">
        <ele>177</ele>
        <time>2021-07-19T15:32:36.000Z</time>
      </trkpt>
      <trkpt lat="43.65152" lon="3.39527">
        <ele>177</ele>
        <time>2021-07-19T15:32:42.000Z</time>
      </trkpt>
      <trkpt lat="43.6516" lon="3.39488">
        <ele>177</ele>
        <time>2021-07-19T15:32:49.000Z</time>
      </trkpt>
      <trkpt lat="43.65163" lon="3.39466">
        <ele>177</ele>
        <time>2021-07-19T15:32:53.000Z</time>
      </trkpt>
      <trkpt lat="43.65163" lon="3.39445">
        <ele>177.39999389648</ele>
        <time>2021-07-19T15:32:57.000Z</time>
      </trkpt>
      <trkpt lat="43.65163" lon="3.3944">
        <ele>177.80000305176</ele>
        <time>2021-07-19T15:32:58.000Z</time>
      </trkpt>
      <trkpt lat="43.65163" lon="3.39435">
        <ele>178.19999694824</ele>
        <time>2021-07-19T15:32:59.000Z</time>
      </trkpt>
      <trkpt lat="43.65162" lon="3.39429">
        <ele>178.60000610352</ele>
        <time>2021-07-19T15:33:00.000Z</time>
      </trkpt>
      <trkpt lat="43.65162" lon="3.39424">
        <ele>179</ele>
        <time>2021-07-19T15:33:01.000Z</time>
      </trkpt>
      <trkpt lat="43.65161" lon="3.39419">
        <ele>179</ele>
        <time>2021-07-19T15:33:02.000Z</time>
      </trkpt>
      <trkpt lat="43.65159" lon="3.39402">
        <ele>179</ele>
        <time>2021-07-19T15:33:05.000Z</time>
      </trkpt>
      <trkpt lat="43.65157" lon="3.39378">
        <ele>179</ele>
        <time>2021-07-19T15:33:09.000Z</time>
      </trkpt>
      <trkpt lat="43.65156" lon="3.39367">
        <ele>179</ele>
        <time>2021-07-19T15:33:11.000Z</time>
      </trkpt>
      <trkpt lat="43.65154" lon="3.39355">
        <ele>179</ele>
        <time>2021-07-19T15:33:13.000Z</time>
      </trkpt>
      <trkpt lat="43.65152" lon="3.39332">
        <ele>179</ele>
        <time>2021-07-19T15:33:17.000Z</time>
      </trkpt>
      <trkpt lat="43.65151" lon="3.39326">
        <ele>179</ele>
        <time>2021-07-19T15:33:18.000Z</time>
      </trkpt>
      <trkpt lat="43.65149" lon="3.39308">
        <ele>179</ele>
        <time>2021-07-19T15:33:21.000Z</time>
      </trkpt>
      <trkpt lat="43.65143" lon="3.39264">
        <ele>179</ele>
        <time>2021-07-19T15:33:29.000Z</time>
      </trkpt>
      <trkpt lat="43.65134" lon="3.39226">
        <ele>179</ele>
        <time>2021-07-19T15:33:36.000Z</time>
      </trkpt>
      <trkpt lat="43.65129" lon="3.3921">
        <ele>179</ele>
        <time>2021-07-19T15:33:39.000Z</time>
      </trkpt>
      <trkpt lat="43.65128" lon="3.39204">
        <ele>179.39999389648</ele>
        <time>2021-07-19T15:33:40.000Z</time>
      </trkpt>
      <trkpt lat="43.65126" lon="3.39199">
        <ele>179.80000305176</ele>
        <time>2021-07-19T15:33:41.000Z</time>
      </trkpt>
      <trkpt lat="43.65124" lon="3.39194">
        <ele>180.19999694824</ele>
        <time>2021-07-19T15:33:42.000Z</time>
      </trkpt>
      <trkpt lat="43.65122" lon="3.39189">
        <ele>180.60000610352</ele>
        <time>2021-07-19T15:33:43.000Z</time>
      </trkpt>
      <trkpt lat="43.6512" lon="3.39185">
        <ele>181.19999694824</ele>
        <time>2021-07-19T15:33:44.000Z</time>
      </trkpt>
      <trkpt lat="43.65106" lon="3.39151">
        <ele>181.19999694824</ele>
        <time>2021-07-19T15:33:51.000Z</time>
      </trkpt>
      <trkpt lat="43.65089" lon="3.39122">
        <ele>181.19999694824</ele>
        <time>2021-07-19T15:33:58.000Z</time>
      </trkpt>
      <trkpt lat="43.65062" lon="3.39093">
        <ele>181.19999694824</ele>
        <time>2021-07-19T15:34:06.000Z</time>
      </trkpt>
      <trkpt lat="43.65033" lon="3.39072">
        <ele>181.19999694824</ele>
        <time>2021-07-19T15:34:12.000Z</time>
      </trkpt>
      <trkpt lat="43.65015" lon="3.39065">
        <ele>180.60000610352</ele>
        <time>2021-07-19T15:34:15.000Z</time>
      </trkpt>
      <trkpt lat="43.65008" lon="3.39063">
        <ele>180.19999694824</ele>
        <time>2021-07-19T15:34:16.000Z</time>
      </trkpt>
      <trkpt lat="43.65001" lon="3.39061">
        <ele>179.80000305176</ele>
        <time>2021-07-19T15:34:17.000Z</time>
      </trkpt>
      <trkpt lat="43.64994" lon="3.3906">
        <ele>179.19999694824</ele>
        <time>2021-07-19T15:34:18.000Z</time>
      </trkpt>
      <trkpt lat="43.64987" lon="3.39059">
        <ele>178.80000305176</ele>
        <time>2021-07-19T15:34:19.000Z</time>
      </trkpt>
      <trkpt lat="43.64974" lon="3.39059">
        <ele>178</ele>
        <time>2021-07-19T15:34:21.000Z</time>
      </trkpt>
      <trkpt lat="43.64967" lon="3.39061">
        <ele>177.39999389648</ele>
        <time>2021-07-19T15:34:22.000Z</time>
      </trkpt>
      <trkpt lat="43.6496" lon="3.39062">
        <ele>177</ele>
        <time>2021-07-19T15:34:23.000Z</time>
      </trkpt>
      <trkpt lat="43.64954" lon="3.39063">
        <ele>176.60000610352</ele>
        <time>2021-07-19T15:34:24.000Z</time>
      </trkpt>
      <trkpt lat="43.64949" lon="3.39064">
        <ele>176.19999694824</ele>
        <time>2021-07-19T15:34:25.000Z</time>
      </trkpt>
      <trkpt lat="43.64945" lon="3.39064">
        <ele>175.80000305176</ele>
        <time>2021-07-19T15:34:26.000Z</time>
      </trkpt>
      <trkpt lat="43.64942" lon="3.39064">
        <ele>175.39999389648</ele>
        <time>2021-07-19T15:34:27.000Z</time>
      </trkpt>
      <trkpt lat="43.64938" lon="3.39064">
        <ele>175</ele>
        <time>2021-07-19T15:34:28.000Z</time>
      </trkpt>
      <trkpt lat="43.64936" lon="3.39063">
        <ele>174.60000610352</ele>
        <time>2021-07-19T15:34:29.000Z</time>
      </trkpt>
      <trkpt lat="43.6493" lon="3.39061">
        <ele>174</ele>
        <time>2021-07-19T15:34:32.000Z</time>
      </trkpt>
      <trkpt lat="43.64928" lon="3.39061">
        <ele>173.60000610352</ele>
        <time>2021-07-19T15:34:33.000Z</time>
      </trkpt>
      <trkpt lat="43.64926" lon="3.3906">
        <ele>173.19999694824</ele>
        <time>2021-07-19T15:34:34.000Z</time>
      </trkpt>
      <trkpt lat="43.64923" lon="3.39059">
        <ele>172.80000305176</ele>
        <time>2021-07-19T15:34:35.000Z</time>
      </trkpt>
      <trkpt lat="43.6492" lon="3.39056">
        <ele>172.19999694824</ele>
        <time>2021-07-19T15:34:36.000Z</time>
      </trkpt>
      <trkpt lat="43.64917" lon="3.39054">
        <ele>171.80000305176</ele>
        <time>2021-07-19T15:34:37.000Z</time>
      </trkpt>
      <trkpt lat="43.64913" lon="3.3905">
        <ele>171.39999389648</ele>
        <time>2021-07-19T15:34:38.000Z</time>
      </trkpt>
      <trkpt lat="43.64911" lon="3.39045">
        <ele>171</ele>
        <time>2021-07-19T15:34:39.000Z</time>
      </trkpt>
      <trkpt lat="43.6491" lon="3.39043">
        <ele>170.60000610352</ele>
        <time>2021-07-19T15:34:40.000Z</time>
      </trkpt>
      <trkpt lat="43.64909" lon="3.39039">
        <ele>170.19999694824</ele>
        <time>2021-07-19T15:34:41.000Z</time>
      </trkpt>
      <trkpt lat="43.6491" lon="3.39037">
        <ele>170.19999694824</ele>
        <time>2021-07-19T15:34:42.000Z</time>
      </trkpt>
      <trkpt lat="43.6491" lon="3.39032">
        <ele>170.19999694824</ele>
        <time>2021-07-19T15:34:44.000Z</time>
      </trkpt>
      <trkpt lat="43.64911" lon="3.39015">
        <ele>169.60000610352</ele>
        <time>2021-07-19T15:34:48.000Z</time>
      </trkpt>
      <trkpt lat="43.64911" lon="3.39012">
        <ele>169.19999694824</ele>
        <time>2021-07-19T15:34:49.000Z</time>
      </trkpt>
      <trkpt lat="43.64911" lon="3.39009">
        <ele>168.60000610352</ele>
        <time>2021-07-19T15:34:50.000Z</time>
      </trkpt>
      <trkpt lat="43.64911" lon="3.39005">
        <ele>168.19999694824</ele>
        <time>2021-07-19T15:34:51.000Z</time>
      </trkpt>
      <trkpt lat="43.6491" lon="3.39002">
        <ele>167.60000610352</ele>
        <time>2021-07-19T15:34:52.000Z</time>
      </trkpt>
      <trkpt lat="43.6491" lon="3.39">
        <ele>167</ele>
        <time>2021-07-19T15:34:53.000Z</time>
      </trkpt>
      <trkpt lat="43.6491" lon="3.38995">
        <ele>166.60000610352</ele>
        <time>2021-07-19T15:34:54.000Z</time>
      </trkpt>
      <trkpt lat="43.64912" lon="3.3899">
        <ele>166</ele>
        <time>2021-07-19T15:34:55.000Z</time>
      </trkpt>
      <trkpt lat="43.64913" lon="3.38984">
        <ele>165.39999389648</ele>
        <time>2021-07-19T15:34:56.000Z</time>
      </trkpt>
      <trkpt lat="43.64913" lon="3.38978">
        <ele>165.39999389648</ele>
        <time>2021-07-19T15:34:57.000Z</time>
      </trkpt>
      <trkpt lat="43.64909" lon="3.38962">
        <ele>165</ele>
        <time>2021-07-19T15:35:00.000Z</time>
      </trkpt>
      <trkpt lat="43.64907" lon="3.38958">
        <ele>164.60000610352</ele>
        <time>2021-07-19T15:35:01.000Z</time>
      </trkpt>
      <trkpt lat="43.64904" lon="3.38954">
        <ele>164.19999694824</ele>
        <time>2021-07-19T15:35:02.000Z</time>
      </trkpt>
      <trkpt lat="43.64901" lon="3.3895">
        <ele>163.80000305176</ele>
        <time>2021-07-19T15:35:03.000Z</time>
      </trkpt>
      <trkpt lat="43.64899" lon="3.38948">
        <ele>163.39999389648</ele>
        <time>2021-07-19T15:35:04.000Z</time>
      </trkpt>
      <trkpt lat="43.64893" lon="3.38944">
        <ele>163.39999389648</ele>
        <time>2021-07-19T15:35:06.000Z</time>
      </trkpt>
      <trkpt lat="43.6489" lon="3.38941">
        <ele>163</ele>
        <time>2021-07-19T15:35:07.000Z</time>
      </trkpt>
      <trkpt lat="43.64888" lon="3.38938">
        <ele>162.60000610352</ele>
        <time>2021-07-19T15:35:08.000Z</time>
      </trkpt>
      <trkpt lat="43.64885" lon="3.38934">
        <ele>162.19999694824</ele>
        <time>2021-07-19T15:35:09.000Z</time>
      </trkpt>
      <trkpt lat="43.64883" lon="3.38928">
        <ele>161.19999694824</ele>
        <time>2021-07-19T15:35:10.000Z</time>
      </trkpt>
      <trkpt lat="43.64877" lon="3.38921">
        <ele>160.80000305176</ele>
        <time>2021-07-19T15:35:12.000Z</time>
      </trkpt>
      <trkpt lat="43.64874" lon="3.38919">
        <ele>160.39999389648</ele>
        <time>2021-07-19T15:35:13.000Z</time>
      </trkpt>
      <trkpt lat="43.6487" lon="3.38916">
        <ele>160</ele>
        <time>2021-07-19T15:35:14.000Z</time>
      </trkpt>
      <trkpt lat="43.64865" lon="3.38914">
        <ele>159.60000610352</ele>
        <time>2021-07-19T15:35:15.000Z</time>
      </trkpt>
      <trkpt lat="43.64861" lon="3.38912">
        <ele>159.19999694824</ele>
        <time>2021-07-19T15:35:16.000Z</time>
      </trkpt>
      <trkpt lat="43.64848" lon="3.38906">
        <ele>158.80000305176</ele>
        <time>2021-07-19T15:35:19.000Z</time>
      </trkpt>
      <trkpt lat="43.64844" lon="3.38904">
        <ele>158.39999389648</ele>
        <time>2021-07-19T15:35:20.000Z</time>
      </trkpt>
      <trkpt lat="43.6484" lon="3.38902">
        <ele>157.80000305176</ele>
        <time>2021-07-19T15:35:21.000Z</time>
      </trkpt>
      <trkpt lat="43.64836" lon="3.38898">
        <ele>157.39999389648</ele>
        <time>2021-07-19T15:35:22.000Z</time>
      </trkpt>
      <trkpt lat="43.64833" lon="3.38895">
        <ele>157</ele>
        <time>2021-07-19T15:35:23.000Z</time>
      </trkpt>
      <trkpt lat="43.6483" lon="3.38892">
        <ele>156.60000610352</ele>
        <time>2021-07-19T15:35:24.000Z</time>
      </trkpt>
      <trkpt lat="43.64828" lon="3.38888">
        <ele>156.19999694824</ele>
        <time>2021-07-19T15:35:25.000Z</time>
      </trkpt>
      <trkpt lat="43.64826" lon="3.38884">
        <ele>155.80000305176</ele>
        <time>2021-07-19T15:35:26.000Z</time>
      </trkpt>
      <trkpt lat="43.64825" lon="3.38879">
        <ele>155.39999389648</ele>
        <time>2021-07-19T15:35:27.000Z</time>
      </trkpt>
      <trkpt lat="43.64824" lon="3.38874">
        <ele>155</ele>
        <time>2021-07-19T15:35:28.000Z</time>
      </trkpt>
      <trkpt lat="43.64824" lon="3.38864">
        <ele>155</ele>
        <time>2021-07-19T15:35:30.000Z</time>
      </trkpt>
      <trkpt lat="43.64825" lon="3.38859">
        <ele>154.60000610352</ele>
        <time>2021-07-19T15:35:31.000Z</time>
      </trkpt>
      <trkpt lat="43.64826" lon="3.38855">
        <ele>154.19999694824</ele>
        <time>2021-07-19T15:35:32.000Z</time>
      </trkpt>
      <trkpt lat="43.64825" lon="3.38851">
        <ele>153.80000305176</ele>
        <time>2021-07-19T15:35:33.000Z</time>
      </trkpt>
      <trkpt lat="43.64823" lon="3.38849">
        <ele>153.39999389648</ele>
        <time>2021-07-19T15:35:34.000Z</time>
      </trkpt>
      <trkpt lat="43.64821" lon="3.38851">
        <ele>153</ele>
        <time>2021-07-19T15:35:35.000Z</time>
      </trkpt>
      <trkpt lat="43.64815" lon="3.38854">
        <ele>153</ele>
        <time>2021-07-19T15:35:37.000Z</time>
      </trkpt>
      <trkpt lat="43.6481" lon="3.38857">
        <ele>153</ele>
        <time>2021-07-19T15:35:38.000Z</time>
      </trkpt>
      <trkpt lat="43.648" lon="3.38862">
        <ele>152.39999389648</ele>
        <time>2021-07-19T15:35:40.000Z</time>
      </trkpt>
      <trkpt lat="43.64796" lon="3.38866">
        <ele>152</ele>
        <time>2021-07-19T15:35:41.000Z</time>
      </trkpt>
      <trkpt lat="43.64792" lon="3.38871">
        <ele>151.60000610352</ele>
        <time>2021-07-19T15:35:42.000Z</time>
      </trkpt>
      <trkpt lat="43.64788" lon="3.38877">
        <ele>151.19999694824</ele>
        <time>2021-07-19T15:35:43.000Z</time>
      </trkpt>
      <trkpt lat="43.64784" lon="3.38882">
        <ele>150.60000610352</ele>
        <time>2021-07-19T15:35:44.000Z</time>
      </trkpt>
      <trkpt lat="43.64766" lon="3.38908">
        <ele>150.19999694824</ele>
        <time>2021-07-19T15:35:48.000Z</time>
      </trkpt>
      <trkpt lat="43.64762" lon="3.38913">
        <ele>149.80000305176</ele>
        <time>2021-07-19T15:35:49.000Z</time>
      </trkpt>
      <trkpt lat="43.64758" lon="3.38918">
        <ele>149.39999389648</ele>
        <time>2021-07-19T15:35:50.000Z</time>
      </trkpt>
      <trkpt lat="43.64753" lon="3.38923">
        <ele>149</ele>
        <time>2021-07-19T15:35:51.000Z</time>
      </trkpt>
      <trkpt lat="43.64748" lon="3.38925">
        <ele>148.39999389648</ele>
        <time>2021-07-19T15:35:52.000Z</time>
      </trkpt>
      <trkpt lat="43.64742" lon="3.38924">
        <ele>148.39999389648</ele>
        <time>2021-07-19T15:35:53.000Z</time>
      </trkpt>
      <trkpt lat="43.64728" lon="3.3891">
        <ele>148.39999389648</ele>
        <time>2021-07-19T15:35:56.000Z</time>
      </trkpt>
      <trkpt lat="43.64725" lon="3.38905">
        <ele>148.39999389648</ele>
        <time>2021-07-19T15:35:57.000Z</time>
      </trkpt>
      <trkpt lat="43.64713" lon="3.38893">
        <ele>148.39999389648</ele>
        <time>2021-07-19T15:36:00.000Z</time>
      </trkpt>
      <trkpt lat="43.64708" lon="3.38893">
        <ele>148.39999389648</ele>
        <time>2021-07-19T15:36:01.000Z</time>
      </trkpt>
      <trkpt lat="43.6469" lon="3.38893">
        <ele>148.39999389648</ele>
        <time>2021-07-19T15:36:06.000Z</time>
      </trkpt>
      <trkpt lat="43.64672" lon="3.38889">
        <ele>148.39999389648</ele>
        <time>2021-07-19T15:36:11.000Z</time>
      </trkpt>
      <trkpt lat="43.64644" lon="3.38875">
        <ele>148.39999389648</ele>
        <time>2021-07-19T15:36:19.000Z</time>
      </trkpt>
      <trkpt lat="43.64631" lon="3.38873">
        <ele>148.39999389648</ele>
        <time>2021-07-19T15:36:22.000Z</time>
      </trkpt>
      <trkpt lat="43.64627" lon="3.38871">
        <ele>148.39999389648</ele>
        <time>2021-07-19T15:36:23.000Z</time>
      </trkpt>
      <trkpt lat="43.64621" lon="3.38874">
        <ele>148.39999389648</ele>
        <time>2021-07-19T15:36:25.000Z</time>
      </trkpt>
      <trkpt lat="43.64619" lon="3.38877">
        <ele>148.39999389648</ele>
        <time>2021-07-19T15:36:26.000Z</time>
      </trkpt>
      <trkpt lat="43.64607" lon="3.38897">
        <ele>148.39999389648</ele>
        <time>2021-07-19T15:36:32.000Z</time>
      </trkpt>
      <trkpt lat="43.64598" lon="3.38917">
        <ele>148.39999389648</ele>
        <time>2021-07-19T15:36:37.000Z</time>
      </trkpt>
      <trkpt lat="43.64588" lon="3.38925">
        <ele>148.39999389648</ele>
        <time>2021-07-19T15:36:41.000Z</time>
      </trkpt>
      <trkpt lat="43.64575" lon="3.38936">
        <ele>148.39999389648</ele>
        <time>2021-07-19T15:36:46.000Z</time>
      </trkpt>
      <trkpt lat="43.64564" lon="3.38946">
        <ele>148.80000305176</ele>
        <time>2021-07-19T15:36:50.000Z</time>
      </trkpt>
      <trkpt lat="43.64561" lon="3.38948">
        <ele>149.19999694824</ele>
        <time>2021-07-19T15:36:51.000Z</time>
      </trkpt>
      <trkpt lat="43.64558" lon="3.38951">
        <ele>149.60000610352</ele>
        <time>2021-07-19T15:36:52.000Z</time>
      </trkpt>
      <trkpt lat="43.64556" lon="3.38954">
        <ele>150</ele>
        <time>2021-07-19T15:36:53.000Z</time>
      </trkpt>
      <trkpt lat="43.64552" lon="3.38956">
        <ele>150.39999389648</ele>
        <time>2021-07-19T15:36:54.000Z</time>
      </trkpt>
      <trkpt lat="43.64534" lon="3.38975">
        <ele>150.39999389648</ele>
        <time>2021-07-19T15:37:01.000Z</time>
      </trkpt>
      <trkpt lat="43.64515" lon="3.38992">
        <ele>150.39999389648</ele>
        <time>2021-07-19T15:37:08.000Z</time>
      </trkpt>
      <trkpt lat="43.64505" lon="3.38996">
        <ele>150.39999389648</ele>
        <time>2021-07-19T15:37:12.000Z</time>
      </trkpt>
      <trkpt lat="43.64503" lon="3.38995">
        <ele>150.39999389648</ele>
        <time>2021-07-19T15:37:13.000Z</time>
      </trkpt>
      <trkpt lat="43.64503" lon="3.38985">
        <ele>150.39999389648</ele>
        <time>2021-07-19T15:37:16.000Z</time>
      </trkpt>
      <trkpt lat="43.6451" lon="3.38971">
        <ele>150.39999389648</ele>
        <time>2021-07-19T15:37:20.000Z</time>
      </trkpt>
      <trkpt lat="43.64513" lon="3.38955">
        <ele>150.39999389648</ele>
        <time>2021-07-19T15:37:23.000Z</time>
      </trkpt>
      <trkpt lat="43.64515" lon="3.38945">
        <ele>150.39999389648</ele>
        <time>2021-07-19T15:37:25.000Z</time>
      </trkpt>
      <trkpt lat="43.64515" lon="3.3894">
        <ele>150.39999389648</ele>
        <time>2021-07-19T15:37:28.000Z</time>
      </trkpt>
      <trkpt lat="43.64517" lon="3.3894">
        <ele>142.19999694824</ele>
        <time>2021-07-19T15:42:08.000Z</time>
      </trkpt>
      <trkpt lat="43.64517" lon="3.3894">
        <ele>142.19999694824</ele>
        <time>2021-07-19T15:42:09.000Z</time>
      </trkpt>
      <trkpt lat="43.64513" lon="3.38938">
        <ele>142.19999694824</ele>
        <time>2021-07-19T15:42:12.000Z</time>
      </trkpt>
      <trkpt lat="43.64509" lon="3.38934">
        <ele>142.19999694824</ele>
        <time>2021-07-19T15:42:14.000Z</time>
      </trkpt>
      <trkpt lat="43.64505" lon="3.38927">
        <ele>142.60000610352</ele>
        <time>2021-07-19T15:42:17.000Z</time>
      </trkpt>
      <trkpt lat="43.64505" lon="3.38924">
        <ele>143</ele>
        <time>2021-07-19T15:42:18.000Z</time>
      </trkpt>
      <trkpt lat="43.64505" lon="3.3892">
        <ele>143.60000610352</ele>
        <time>2021-07-19T15:42:19.000Z</time>
      </trkpt>
      <trkpt lat="43.64507" lon="3.38916">
        <ele>144.39999389648</ele>
        <time>2021-07-19T15:42:20.000Z</time>
      </trkpt>
      <trkpt lat="43.6451" lon="3.38908">
        <ele>144.39999389648</ele>
        <time>2021-07-19T15:42:22.000Z</time>
      </trkpt>
      <trkpt lat="43.64524" lon="3.38873">
        <ele>144.39999389648</ele>
        <time>2021-07-19T15:42:30.000Z</time>
      </trkpt>
      <trkpt lat="43.64537" lon="3.38842">
        <ele>144.39999389648</ele>
        <time>2021-07-19T15:42:36.000Z</time>
      </trkpt>
      <trkpt lat="43.64541" lon="3.38831">
        <ele>144.39999389648</ele>
        <time>2021-07-19T15:42:38.000Z</time>
      </trkpt>
      <trkpt lat="43.64546" lon="3.38808">
        <ele>144.39999389648</ele>
        <time>2021-07-19T15:42:42.000Z</time>
      </trkpt>
      <trkpt lat="43.64547" lon="3.38803">
        <ele>144.39999389648</ele>
        <time>2021-07-19T15:42:43.000Z</time>
      </trkpt>
      <trkpt lat="43.64549" lon="3.38801">
        <ele>144.39999389648</ele>
        <time>2021-07-19T15:42:44.000Z</time>
      </trkpt>
      <trkpt lat="43.64555" lon="3.3879">
        <ele>144.39999389648</ele>
        <time>2021-07-19T15:42:47.000Z</time>
      </trkpt>
      <trkpt lat="43.64571" lon="3.38752">
        <ele>144.39999389648</ele>
        <time>2021-07-19T15:42:55.000Z</time>
      </trkpt>
      <trkpt lat="43.64585" lon="3.38722">
        <ele>144.39999389648</ele>
        <time>2021-07-19T15:43:01.000Z</time>
      </trkpt>
      <trkpt lat="43.64599" lon="3.38693">
        <ele>144.39999389648</ele>
        <time>2021-07-19T15:43:08.000Z</time>
      </trkpt>
      <trkpt lat="43.64608" lon="3.38677">
        <ele>144.39999389648</ele>
        <time>2021-07-19T15:43:13.000Z</time>
      </trkpt>
      <trkpt lat="43.64607" lon="3.38665">
        <ele>144.39999389648</ele>
        <time>2021-07-19T15:43:18.000Z</time>
      </trkpt>
      <trkpt lat="43.64611" lon="3.3865">
        <ele>144.39999389648</ele>
        <time>2021-07-19T15:43:24.000Z</time>
      </trkpt>
      <trkpt lat="43.64612" lon="3.3865">
        <ele>144.39999389648</ele>
        <time>2021-07-19T15:43:25.000Z</time>
      </trkpt>
      <trkpt lat="43.64609" lon="3.38654">
        <ele>146</ele>
        <time>2021-07-19T15:44:20.000Z</time>
      </trkpt>
      <trkpt lat="43.64608" lon="3.38657">
        <ele>146</ele>
        <time>2021-07-19T15:44:21.000Z</time>
      </trkpt>
      <trkpt lat="43.64603" lon="3.38673">
        <ele>146</ele>
        <time>2021-07-19T15:44:25.000Z</time>
      </trkpt>
      <trkpt lat="43.64594" lon="3.38695">
        <ele>146</ele>
        <time>2021-07-19T15:44:30.000Z</time>
      </trkpt>
      <trkpt lat="43.64583" lon="3.38723">
        <ele>146</ele>
        <time>2021-07-19T15:44:36.000Z</time>
      </trkpt>
      <trkpt lat="43.64572" lon="3.38751">
        <ele>146</ele>
        <time>2021-07-19T15:44:42.000Z</time>
      </trkpt>
      <trkpt lat="43.64556" lon="3.38787">
        <ele>146.39999389648</ele>
        <time>2021-07-19T15:44:50.000Z</time>
      </trkpt>
      <trkpt lat="43.64555" lon="3.38791">
        <ele>147</ele>
        <time>2021-07-19T15:44:51.000Z</time>
      </trkpt>
      <trkpt lat="43.64553" lon="3.38795">
        <ele>147.39999389648</ele>
        <time>2021-07-19T15:44:52.000Z</time>
      </trkpt>
      <trkpt lat="43.64552" lon="3.38799">
        <ele>147.80000305176</ele>
        <time>2021-07-19T15:44:53.000Z</time>
      </trkpt>
      <trkpt lat="43.6455" lon="3.38801">
        <ele>148.19999694824</ele>
        <time>2021-07-19T15:44:54.000Z</time>
      </trkpt>
      <trkpt lat="43.64546" lon="3.38806">
        <ele>148.19999694824</ele>
        <time>2021-07-19T15:44:56.000Z</time>
      </trkpt>
      <trkpt lat="43.64539" lon="3.38825">
        <ele>148.19999694824</ele>
        <time>2021-07-19T15:45:01.000Z</time>
      </trkpt>
      <trkpt lat="43.64532" lon="3.38843">
        <ele>148.19999694824</ele>
        <time>2021-07-19T15:45:06.000Z</time>
      </trkpt>
      <trkpt lat="43.64523" lon="3.38868">
        <ele>148.19999694824</ele>
        <time>2021-07-19T15:45:13.000Z</time>
      </trkpt>
      <trkpt lat="43.64517" lon="3.38889">
        <ele>148.60000610352</ele>
        <time>2021-07-19T15:45:18.000Z</time>
      </trkpt>
      <trkpt lat="43.64516" lon="3.38892">
        <ele>149</ele>
        <time>2021-07-19T15:45:19.000Z</time>
      </trkpt>
      <trkpt lat="43.64514" lon="3.38896">
        <ele>149.39999389648</ele>
        <time>2021-07-19T15:45:20.000Z</time>
      </trkpt>
      <trkpt lat="43.64513" lon="3.389">
        <ele>149.80000305176</ele>
        <time>2021-07-19T15:45:21.000Z</time>
      </trkpt>
      <trkpt lat="43.64511" lon="3.38903">
        <ele>150.19999694824</ele>
        <time>2021-07-19T15:45:22.000Z</time>
      </trkpt>
      <trkpt lat="43.64509" lon="3.38911">
        <ele>150.19999694824</ele>
        <time>2021-07-19T15:45:25.000Z</time>
      </trkpt>
      <trkpt lat="43.64511" lon="3.38912">
        <ele>150.19999694824</ele>
        <time>2021-07-19T15:45:26.000Z</time>
      </trkpt>
      <trkpt lat="43.64521" lon="3.3891">
        <ele>150.19999694824</ele>
        <time>2021-07-19T15:45:30.000Z</time>
      </trkpt>
      <trkpt lat="43.64536" lon="3.38918">
        <ele>150.19999694824</ele>
        <time>2021-07-19T15:45:35.000Z</time>
      </trkpt>
      <trkpt lat="43.6454" lon="3.38922">
        <ele>150.19999694824</ele>
        <time>2021-07-19T15:45:38.000Z</time>
      </trkpt>
      <trkpt lat="43.6454" lon="3.38924">
        <ele>150.19999694824</ele>
        <time>2021-07-19T15:46:02.000Z</time>
      </trkpt>
      <trkpt lat="43.6454" lon="3.38924">
        <ele>150.19999694824</ele>
        <time>2021-07-19T15:46:03.000Z</time>
      </trkpt>
      <trkpt lat="43.64539" lon="3.38926">
        <ele>150.19999694824</ele>
        <time>2021-07-19T15:46:25.000Z</time>
      </trkpt>
      <trkpt lat="43.64538" lon="3.38927">
        <ele>150.19999694824</ele>
        <time>2021-07-19T15:46:26.000Z</time>
      </trkpt>
      <trkpt lat="43.64534" lon="3.38929">
        <ele>150.19999694824</ele>
        <time>2021-07-19T15:46:32.000Z</time>
      </trkpt>
    </trkseg>
  </trk>
</gpx>